<?xml version="1.0" encoding="UTF-8" standalone="no" ?>
<gpx xmlns="http://www.topografix.com/GPX/1/1" xmlns:xsi="http://www.w3.org/2001/XMLSchema-instance" xsi:schemaLocation="http://www.topografix.com/GPX/1/1 http://www.topografix.com/GPX/1/1/gpx.xsd" version="1.1" creator="VisuGPX - https://www.visugpx.com">
  <metadata>
    <name>Rando la Baffe 42km</name>
    <desc><![CDATA[Départ de la tranchée de Docelles !!!]]></desc>
  </metadata>
  <trk>
    <name><![CDATA[Rando la Baffe 42km]]></name>
    <trkseg>
      <trkpt lat="48.17144" lon="6.53247">
        <ele>420</ele>
        <time>2023-04-04T08:45:05.000Z</time>
      </trkpt>
      <trkpt lat="48.17144" lon="6.53251">
        <ele>420</ele>
        <time>2023-04-04T08:45:05.001Z</time>
      </trkpt>
      <trkpt lat="48.17143" lon="6.5327">
        <ele>420</ele>
        <time>2023-04-04T08:45:05.004Z</time>
      </trkpt>
      <trkpt lat="48.17142" lon="6.53275">
        <ele>420</ele>
        <time>2023-04-04T08:45:05.008Z</time>
      </trkpt>
      <trkpt lat="48.17136" lon="6.53295">
        <ele>420</ele>
        <time>2023-04-04T08:45:05.015Z</time>
      </trkpt>
      <trkpt lat="48.17129" lon="6.53303">
        <ele>420</ele>
        <time>2023-04-04T08:45:05.023Z</time>
      </trkpt>
      <trkpt lat="48.17124" lon="6.53304">
        <ele>420</ele>
        <time>2023-04-04T08:45:05.032Z</time>
      </trkpt>
      <trkpt lat="48.17115" lon="6.53304">
        <ele>420</ele>
        <time>2023-04-04T08:45:05.043Z</time>
      </trkpt>
      <trkpt lat="48.17105" lon="6.53303">
        <ele>420</ele>
        <time>2023-04-04T08:45:05.056Z</time>
      </trkpt>
      <trkpt lat="48.17088" lon="6.53299">
        <ele>421</ele>
        <time>2023-04-04T08:45:05.073Z</time>
      </trkpt>
      <trkpt lat="48.17069" lon="6.53303">
        <ele>421</ele>
        <time>2023-04-04T08:45:05.094Z</time>
      </trkpt>
      <trkpt lat="48.17068" lon="6.53302">
        <ele>421</ele>
        <time>2023-04-04T08:45:05.115Z</time>
      </trkpt>
      <trkpt lat="48.17065" lon="6.53294">
        <ele>421</ele>
        <time>2023-04-04T08:45:05.137Z</time>
      </trkpt>
      <trkpt lat="48.17064" lon="6.53288">
        <ele>421</ele>
        <time>2023-04-04T08:45:05.160Z</time>
      </trkpt>
      <trkpt lat="48.17059" lon="6.53275">
        <ele>421</ele>
        <time>2023-04-04T08:45:05.185Z</time>
      </trkpt>
      <trkpt lat="48.17057" lon="6.53273">
        <ele>421</ele>
        <time>2023-04-04T08:45:05.210Z</time>
      </trkpt>
      <trkpt lat="48.17043" lon="6.53267">
        <ele>422</ele>
        <time>2023-04-04T08:45:05.238Z</time>
      </trkpt>
      <trkpt lat="48.17023" lon="6.53265">
        <ele>422</ele>
        <time>2023-04-04T08:45:05.270Z</time>
      </trkpt>
      <trkpt lat="48.17003" lon="6.53264">
        <ele>422</ele>
        <time>2023-04-04T08:45:05.306Z</time>
      </trkpt>
      <trkpt lat="48.16999" lon="6.53264">
        <ele>422</ele>
        <time>2023-04-04T08:45:05.343Z</time>
      </trkpt>
      <trkpt lat="48.16986" lon="6.53265">
        <ele>422</ele>
        <time>2023-04-04T08:45:05.383Z</time>
      </trkpt>
      <trkpt lat="48.16975" lon="6.53272">
        <ele>422</ele>
        <time>2023-04-04T08:45:05.425Z</time>
      </trkpt>
      <trkpt lat="48.16962" lon="6.5328">
        <ele>422</ele>
        <time>2023-04-04T08:45:05.470Z</time>
      </trkpt>
      <trkpt lat="48.16952" lon="6.53286">
        <ele>421</ele>
        <time>2023-04-04T08:45:05.517Z</time>
      </trkpt>
      <trkpt lat="48.16949" lon="6.53293">
        <ele>421</ele>
        <time>2023-04-04T08:45:05.565Z</time>
      </trkpt>
      <trkpt lat="48.16946" lon="6.53294">
        <ele>421</ele>
        <time>2023-04-04T08:45:05.614Z</time>
      </trkpt>
      <trkpt lat="48.16942" lon="6.53294">
        <ele>421</ele>
        <time>2023-04-04T08:45:05.664Z</time>
      </trkpt>
      <trkpt lat="48.16931" lon="6.53294">
        <ele>421</ele>
        <time>2023-04-04T08:45:05.716Z</time>
      </trkpt>
      <trkpt lat="48.16929" lon="6.53294">
        <ele>421</ele>
        <time>2023-04-04T08:45:05.768Z</time>
      </trkpt>
      <trkpt lat="48.16927" lon="6.53296">
        <ele>421</ele>
        <time>2023-04-04T08:45:05.821Z</time>
      </trkpt>
      <trkpt lat="48.16926" lon="6.53298">
        <ele>421</ele>
        <time>2023-04-04T08:45:05.874Z</time>
      </trkpt>
      <trkpt lat="48.16919" lon="6.53302">
        <ele>420</ele>
        <time>2023-04-04T08:45:05.929Z</time>
      </trkpt>
      <trkpt lat="48.16915" lon="6.53306">
        <ele>420</ele>
        <time>2023-04-04T08:45:05.984Z</time>
      </trkpt>
      <trkpt lat="48.16913" lon="6.53307">
        <ele>420</ele>
        <time>2023-04-04T08:45:06.040Z</time>
      </trkpt>
      <trkpt lat="48.16906" lon="6.5331">
        <ele>420</ele>
        <time>2023-04-04T08:45:06.097Z</time>
      </trkpt>
      <trkpt lat="48.16894" lon="6.53316">
        <ele>420</ele>
        <time>2023-04-04T08:45:06.157Z</time>
      </trkpt>
      <trkpt lat="48.16881" lon="6.53319">
        <ele>420</ele>
        <time>2023-04-04T08:45:06.220Z</time>
      </trkpt>
      <trkpt lat="48.16874" lon="6.53318">
        <ele>420</ele>
        <time>2023-04-04T08:45:06.284Z</time>
      </trkpt>
      <trkpt lat="48.16855" lon="6.53318">
        <ele>419</ele>
        <time>2023-04-04T08:45:06.352Z</time>
      </trkpt>
      <trkpt lat="48.16844" lon="6.53319">
        <ele>419</ele>
        <time>2023-04-04T08:45:06.422Z</time>
      </trkpt>
      <trkpt lat="48.16835" lon="6.53327">
        <ele>419</ele>
        <time>2023-04-04T08:45:06.494Z</time>
      </trkpt>
      <trkpt lat="48.16827" lon="6.53339">
        <ele>419</ele>
        <time>2023-04-04T08:45:06.568Z</time>
      </trkpt>
      <trkpt lat="48.16826" lon="6.53347">
        <ele>418</ele>
        <time>2023-04-04T08:45:06.643Z</time>
      </trkpt>
      <trkpt lat="48.16815" lon="6.53368">
        <ele>418</ele>
        <time>2023-04-04T08:45:06.722Z</time>
      </trkpt>
      <trkpt lat="48.16803" lon="6.53389">
        <ele>418</ele>
        <time>2023-04-04T08:45:06.805Z</time>
      </trkpt>
      <trkpt lat="48.16796" lon="6.53401">
        <ele>418</ele>
        <time>2023-04-04T08:45:06.890Z</time>
      </trkpt>
      <trkpt lat="48.1679" lon="6.53415">
        <ele>418</ele>
        <time>2023-04-04T08:45:06.977Z</time>
      </trkpt>
      <trkpt lat="48.16786" lon="6.53428">
        <ele>418</ele>
        <time>2023-04-04T08:45:07.066Z</time>
      </trkpt>
      <trkpt lat="48.16781" lon="6.53441">
        <ele>418</ele>
        <time>2023-04-04T08:45:07.157Z</time>
      </trkpt>
      <trkpt lat="48.16779" lon="6.53445">
        <ele>418</ele>
        <time>2023-04-04T08:45:07.249Z</time>
      </trkpt>
      <trkpt lat="48.16775" lon="6.53454">
        <ele>418</ele>
        <time>2023-04-04T08:45:07.342Z</time>
      </trkpt>
      <trkpt lat="48.16773" lon="6.53462">
        <ele>418</ele>
        <time>2023-04-04T08:45:07.436Z</time>
      </trkpt>
      <trkpt lat="48.1677" lon="6.5347">
        <ele>419</ele>
        <time>2023-04-04T08:45:07.531Z</time>
      </trkpt>
      <trkpt lat="48.16768" lon="6.53474">
        <ele>419</ele>
        <time>2023-04-04T08:45:07.627Z</time>
      </trkpt>
      <trkpt lat="48.16767" lon="6.53487">
        <ele>419</ele>
        <time>2023-04-04T08:45:07.725Z</time>
      </trkpt>
      <trkpt lat="48.16764" lon="6.53495">
        <ele>419</ele>
        <time>2023-04-04T08:45:07.824Z</time>
      </trkpt>
      <trkpt lat="48.16764" lon="6.535">
        <ele>420</ele>
        <time>2023-04-04T08:45:07.924Z</time>
      </trkpt>
      <trkpt lat="48.16765" lon="6.53525">
        <ele>420</ele>
        <time>2023-04-04T08:45:08.027Z</time>
      </trkpt>
      <trkpt lat="48.16764" lon="6.53528">
        <ele>421</ele>
        <time>2023-04-04T08:45:08.131Z</time>
      </trkpt>
      <trkpt lat="48.16754" lon="6.53552">
        <ele>421</ele>
        <time>2023-04-04T08:45:08.238Z</time>
      </trkpt>
      <trkpt lat="48.16749" lon="6.53562">
        <ele>421</ele>
        <time>2023-04-04T08:45:08.347Z</time>
      </trkpt>
      <trkpt lat="48.16747" lon="6.53566">
        <ele>422</ele>
        <time>2023-04-04T08:45:08.457Z</time>
      </trkpt>
      <trkpt lat="48.16741" lon="6.53584">
        <ele>422</ele>
        <time>2023-04-04T08:45:08.569Z</time>
      </trkpt>
      <trkpt lat="48.16737" lon="6.53603">
        <ele>423</ele>
        <time>2023-04-04T08:45:08.684Z</time>
      </trkpt>
      <trkpt lat="48.16735" lon="6.53612">
        <ele>423</ele>
        <time>2023-04-04T08:45:08.800Z</time>
      </trkpt>
      <trkpt lat="48.16731" lon="6.5363">
        <ele>424</ele>
        <time>2023-04-04T08:45:08.919Z</time>
      </trkpt>
      <trkpt lat="48.16727" lon="6.53636">
        <ele>424</ele>
        <time>2023-04-04T08:45:09.039Z</time>
      </trkpt>
      <trkpt lat="48.16721" lon="6.53663">
        <ele>425</ele>
        <time>2023-04-04T08:45:09.163Z</time>
      </trkpt>
      <trkpt lat="48.16716" lon="6.53684">
        <ele>425</ele>
        <time>2023-04-04T08:45:09.290Z</time>
      </trkpt>
      <trkpt lat="48.16708" lon="6.53706">
        <ele>426</ele>
        <time>2023-04-04T08:45:09.420Z</time>
      </trkpt>
      <trkpt lat="48.167" lon="6.53721">
        <ele>426</ele>
        <time>2023-04-04T08:45:09.553Z</time>
      </trkpt>
      <trkpt lat="48.16695" lon="6.53737">
        <ele>427</ele>
        <time>2023-04-04T08:45:09.688Z</time>
      </trkpt>
      <trkpt lat="48.16692" lon="6.53744">
        <ele>427</ele>
        <time>2023-04-04T08:45:09.824Z</time>
      </trkpt>
      <trkpt lat="48.16688" lon="6.53757">
        <ele>428</ele>
        <time>2023-04-04T08:45:09.962Z</time>
      </trkpt>
      <trkpt lat="48.16689" lon="6.53759">
        <ele>428</ele>
        <time>2023-04-04T08:45:10.100Z</time>
      </trkpt>
      <trkpt lat="48.16689" lon="6.53763">
        <ele>429</ele>
        <time>2023-04-04T08:45:10.239Z</time>
      </trkpt>
      <trkpt lat="48.16687" lon="6.53769">
        <ele>429</ele>
        <time>2023-04-04T08:45:10.379Z</time>
      </trkpt>
      <trkpt lat="48.16683" lon="6.5378">
        <ele>430</ele>
        <time>2023-04-04T08:45:10.521Z</time>
      </trkpt>
      <trkpt lat="48.16683" lon="6.53782">
        <ele>430</ele>
        <time>2023-04-04T08:45:10.663Z</time>
      </trkpt>
      <trkpt lat="48.16679" lon="6.53803">
        <ele>430</ele>
        <time>2023-04-04T08:45:10.808Z</time>
      </trkpt>
      <trkpt lat="48.16677" lon="6.53824">
        <ele>431</ele>
        <time>2023-04-04T08:45:10.956Z</time>
      </trkpt>
      <trkpt lat="48.16679" lon="6.53846">
        <ele>431</ele>
        <time>2023-04-04T08:45:11.107Z</time>
      </trkpt>
      <trkpt lat="48.16682" lon="6.53877">
        <ele>431</ele>
        <time>2023-04-04T08:45:11.262Z</time>
      </trkpt>
      <trkpt lat="48.16683" lon="6.53891">
        <ele>432</ele>
        <time>2023-04-04T08:45:11.419Z</time>
      </trkpt>
      <trkpt lat="48.16682" lon="6.539">
        <ele>432</ele>
        <time>2023-04-04T08:45:11.577Z</time>
      </trkpt>
      <trkpt lat="48.16687" lon="6.53914">
        <ele>432</ele>
        <time>2023-04-04T08:45:11.737Z</time>
      </trkpt>
      <trkpt lat="48.16687" lon="6.53918">
        <ele>433</ele>
        <time>2023-04-04T08:45:11.898Z</time>
      </trkpt>
      <trkpt lat="48.16692" lon="6.53941">
        <ele>433</ele>
        <time>2023-04-04T08:45:12.062Z</time>
      </trkpt>
      <trkpt lat="48.16695" lon="6.53952">
        <ele>433</ele>
        <time>2023-04-04T08:45:12.227Z</time>
      </trkpt>
      <trkpt lat="48.16695" lon="6.53967">
        <ele>434</ele>
        <time>2023-04-04T08:45:12.394Z</time>
      </trkpt>
      <trkpt lat="48.16696" lon="6.53971">
        <ele>434</ele>
        <time>2023-04-04T08:45:12.562Z</time>
      </trkpt>
      <trkpt lat="48.16698" lon="6.53979">
        <ele>434</ele>
        <time>2023-04-04T08:45:12.731Z</time>
      </trkpt>
      <trkpt lat="48.167" lon="6.5398">
        <ele>434</ele>
        <time>2023-04-04T08:45:12.900Z</time>
      </trkpt>
      <trkpt lat="48.16704" lon="6.5398">
        <ele>435</ele>
        <time>2023-04-04T08:45:13.070Z</time>
      </trkpt>
      <trkpt lat="48.16708" lon="6.53974">
        <ele>435</ele>
        <time>2023-04-04T08:45:13.241Z</time>
      </trkpt>
      <trkpt lat="48.16709" lon="6.53973">
        <ele>435</ele>
        <time>2023-04-04T08:45:13.413Z</time>
      </trkpt>
      <trkpt lat="48.16717" lon="6.53966">
        <ele>435</ele>
        <time>2023-04-04T08:45:13.587Z</time>
      </trkpt>
      <trkpt lat="48.16729" lon="6.5396">
        <ele>436</ele>
        <time>2023-04-04T08:45:13.763Z</time>
      </trkpt>
      <trkpt lat="48.1673" lon="6.53959">
        <ele>436</ele>
        <time>2023-04-04T08:45:13.939Z</time>
      </trkpt>
      <trkpt lat="48.16731" lon="6.53957">
        <ele>436</ele>
        <time>2023-04-04T08:45:14.116Z</time>
      </trkpt>
      <trkpt lat="48.16733" lon="6.5395">
        <ele>436</ele>
        <time>2023-04-04T08:45:14.294Z</time>
      </trkpt>
      <trkpt lat="48.16735" lon="6.53939">
        <ele>436</ele>
        <time>2023-04-04T08:45:14.473Z</time>
      </trkpt>
      <trkpt lat="48.16736" lon="6.53935">
        <ele>437</ele>
        <time>2023-04-04T08:45:14.653Z</time>
      </trkpt>
      <trkpt lat="48.16738" lon="6.53931">
        <ele>437</ele>
        <time>2023-04-04T08:45:14.833Z</time>
      </trkpt>
      <trkpt lat="48.16745" lon="6.53925">
        <ele>437</ele>
        <time>2023-04-04T08:45:15.015Z</time>
      </trkpt>
      <trkpt lat="48.16748" lon="6.53925">
        <ele>437</ele>
        <time>2023-04-04T08:45:15.198Z</time>
      </trkpt>
      <trkpt lat="48.16768" lon="6.53932">
        <ele>438</ele>
        <time>2023-04-04T08:45:15.385Z</time>
      </trkpt>
      <trkpt lat="48.16773" lon="6.53935">
        <ele>438</ele>
        <time>2023-04-04T08:45:15.573Z</time>
      </trkpt>
      <trkpt lat="48.16794" lon="6.53957">
        <ele>439</ele>
        <time>2023-04-04T08:45:15.766Z</time>
      </trkpt>
      <trkpt lat="48.168" lon="6.53983">
        <ele>439</ele>
        <time>2023-04-04T08:45:15.963Z</time>
      </trkpt>
      <trkpt lat="48.16789" lon="6.54001">
        <ele>439</ele>
        <time>2023-04-04T08:45:16.163Z</time>
      </trkpt>
      <trkpt lat="48.16786" lon="6.54022">
        <ele>440</ele>
        <time>2023-04-04T08:45:16.366Z</time>
      </trkpt>
      <trkpt lat="48.16787" lon="6.5403">
        <ele>440</ele>
        <time>2023-04-04T08:45:16.570Z</time>
      </trkpt>
      <trkpt lat="48.1679" lon="6.54038">
        <ele>440</ele>
        <time>2023-04-04T08:45:16.775Z</time>
      </trkpt>
      <trkpt lat="48.16801" lon="6.5406">
        <ele>441</ele>
        <time>2023-04-04T08:45:16.984Z</time>
      </trkpt>
      <trkpt lat="48.16808" lon="6.54064">
        <ele>441</ele>
        <time>2023-04-04T08:45:17.194Z</time>
      </trkpt>
      <trkpt lat="48.16816" lon="6.54065">
        <ele>442</ele>
        <time>2023-04-04T08:45:17.406Z</time>
      </trkpt>
      <trkpt lat="48.1683" lon="6.54067">
        <ele>442</ele>
        <time>2023-04-04T08:45:17.621Z</time>
      </trkpt>
      <trkpt lat="48.16844" lon="6.54066">
        <ele>442</ele>
        <time>2023-04-04T08:45:17.838Z</time>
      </trkpt>
      <trkpt lat="48.16867" lon="6.54073">
        <ele>443</ele>
        <time>2023-04-04T08:45:18.060Z</time>
      </trkpt>
      <trkpt lat="48.16892" lon="6.54083">
        <ele>443</ele>
        <time>2023-04-04T08:45:18.287Z</time>
      </trkpt>
      <trkpt lat="48.16913" lon="6.54094">
        <ele>443</ele>
        <time>2023-04-04T08:45:18.519Z</time>
      </trkpt>
      <trkpt lat="48.16918" lon="6.54097">
        <ele>444</ele>
        <time>2023-04-04T08:45:18.752Z</time>
      </trkpt>
      <trkpt lat="48.16923" lon="6.54107">
        <ele>444</ele>
        <time>2023-04-04T08:45:18.987Z</time>
      </trkpt>
      <trkpt lat="48.16929" lon="6.54114">
        <ele>445</ele>
        <time>2023-04-04T08:45:19.223Z</time>
      </trkpt>
      <trkpt lat="48.16931" lon="6.54116">
        <ele>445</ele>
        <time>2023-04-04T08:45:19.460Z</time>
      </trkpt>
      <trkpt lat="48.16939" lon="6.54124">
        <ele>445</ele>
        <time>2023-04-04T08:45:19.698Z</time>
      </trkpt>
      <trkpt lat="48.16942" lon="6.54126">
        <ele>446</ele>
        <time>2023-04-04T08:45:19.937Z</time>
      </trkpt>
      <trkpt lat="48.16946" lon="6.54129">
        <ele>446</ele>
        <time>2023-04-04T08:45:20.177Z</time>
      </trkpt>
      <trkpt lat="48.16943" lon="6.54135">
        <ele>447</ele>
        <time>2023-04-04T08:45:20.418Z</time>
      </trkpt>
      <trkpt lat="48.16935" lon="6.54156">
        <ele>447</ele>
        <time>2023-04-04T08:45:20.662Z</time>
      </trkpt>
      <trkpt lat="48.16935" lon="6.54161">
        <ele>447</ele>
        <time>2023-04-04T08:45:20.907Z</time>
      </trkpt>
      <trkpt lat="48.16932" lon="6.54189">
        <ele>448</ele>
        <time>2023-04-04T08:45:21.156Z</time>
      </trkpt>
      <trkpt lat="48.16936" lon="6.54215">
        <ele>448</ele>
        <time>2023-04-04T08:45:21.408Z</time>
      </trkpt>
      <trkpt lat="48.16939" lon="6.54225">
        <ele>449</ele>
        <time>2023-04-04T08:45:21.662Z</time>
      </trkpt>
      <trkpt lat="48.16942" lon="6.5424">
        <ele>449</ele>
        <time>2023-04-04T08:45:21.918Z</time>
      </trkpt>
      <trkpt lat="48.16949" lon="6.54271">
        <ele>450</ele>
        <time>2023-04-04T08:45:22.178Z</time>
      </trkpt>
      <trkpt lat="48.16953" lon="6.54296">
        <ele>450</ele>
        <time>2023-04-04T08:45:22.442Z</time>
      </trkpt>
      <trkpt lat="48.16954" lon="6.54313">
        <ele>451</ele>
        <time>2023-04-04T08:45:22.708Z</time>
      </trkpt>
      <trkpt lat="48.16954" lon="6.54319">
        <ele>451</ele>
        <time>2023-04-04T08:45:22.975Z</time>
      </trkpt>
      <trkpt lat="48.16959" lon="6.54353">
        <ele>451</ele>
        <time>2023-04-04T08:45:23.246Z</time>
      </trkpt>
      <trkpt lat="48.1696" lon="6.54384">
        <ele>452</ele>
        <time>2023-04-04T08:45:23.522Z</time>
      </trkpt>
      <trkpt lat="48.16968" lon="6.54419">
        <ele>452</ele>
        <time>2023-04-04T08:45:23.803Z</time>
      </trkpt>
      <trkpt lat="48.16973" lon="6.54458">
        <ele>453</ele>
        <time>2023-04-04T08:45:24.089Z</time>
      </trkpt>
      <trkpt lat="48.16974" lon="6.54465">
        <ele>453</ele>
        <time>2023-04-04T08:45:24.376Z</time>
      </trkpt>
      <trkpt lat="48.1698" lon="6.54501">
        <ele>454</ele>
        <time>2023-04-04T08:45:24.668Z</time>
      </trkpt>
      <trkpt lat="48.16993" lon="6.5454">
        <ele>454</ele>
        <time>2023-04-04T08:45:24.966Z</time>
      </trkpt>
      <trkpt lat="48.16995" lon="6.54545">
        <ele>454</ele>
        <time>2023-04-04T08:45:25.264Z</time>
      </trkpt>
      <trkpt lat="48.17001" lon="6.54556">
        <ele>454</ele>
        <time>2023-04-04T08:45:25.564Z</time>
      </trkpt>
      <trkpt lat="48.17007" lon="6.54565">
        <ele>455</ele>
        <time>2023-04-04T08:45:25.866Z</time>
      </trkpt>
      <trkpt lat="48.1701" lon="6.54569">
        <ele>455</ele>
        <time>2023-04-04T08:45:26.169Z</time>
      </trkpt>
      <trkpt lat="48.17027" lon="6.54589">
        <ele>455</ele>
        <time>2023-04-04T08:45:26.476Z</time>
      </trkpt>
      <trkpt lat="48.17031" lon="6.54593">
        <ele>455</ele>
        <time>2023-04-04T08:45:26.784Z</time>
      </trkpt>
      <trkpt lat="48.17039" lon="6.54601">
        <ele>455</ele>
        <time>2023-04-04T08:45:27.094Z</time>
      </trkpt>
      <trkpt lat="48.17046" lon="6.5461">
        <ele>455</ele>
        <time>2023-04-04T08:45:27.406Z</time>
      </trkpt>
      <trkpt lat="48.17048" lon="6.54615">
        <ele>456</ele>
        <time>2023-04-04T08:45:27.719Z</time>
      </trkpt>
      <trkpt lat="48.17048" lon="6.54621">
        <ele>456</ele>
        <time>2023-04-04T08:45:28.032Z</time>
      </trkpt>
      <trkpt lat="48.17048" lon="6.54638">
        <ele>456</ele>
        <time>2023-04-04T08:45:28.348Z</time>
      </trkpt>
      <trkpt lat="48.17046" lon="6.54645">
        <ele>456</ele>
        <time>2023-04-04T08:45:28.665Z</time>
      </trkpt>
      <trkpt lat="48.17038" lon="6.54693">
        <ele>456</ele>
        <time>2023-04-04T08:45:28.988Z</time>
      </trkpt>
      <trkpt lat="48.17037" lon="6.54708">
        <ele>456</ele>
        <time>2023-04-04T08:45:29.313Z</time>
      </trkpt>
      <trkpt lat="48.17036" lon="6.54721">
        <ele>456</ele>
        <time>2023-04-04T08:45:29.640Z</time>
      </trkpt>
      <trkpt lat="48.1703" lon="6.54747">
        <ele>457</ele>
        <time>2023-04-04T08:45:29.971Z</time>
      </trkpt>
      <trkpt lat="48.1703" lon="6.54781">
        <ele>457</ele>
        <time>2023-04-04T08:45:30.306Z</time>
      </trkpt>
      <trkpt lat="48.17026" lon="6.54804">
        <ele>457</ele>
        <time>2023-04-04T08:45:30.645Z</time>
      </trkpt>
      <trkpt lat="48.17022" lon="6.5483">
        <ele>457</ele>
        <time>2023-04-04T08:45:30.987Z</time>
      </trkpt>
      <trkpt lat="48.17019" lon="6.54854">
        <ele>457</ele>
        <time>2023-04-04T08:45:31.332Z</time>
      </trkpt>
      <trkpt lat="48.17019" lon="6.54859">
        <ele>457</ele>
        <time>2023-04-04T08:45:31.678Z</time>
      </trkpt>
      <trkpt lat="48.17018" lon="6.54872">
        <ele>456</ele>
        <time>2023-04-04T08:45:32.026Z</time>
      </trkpt>
      <trkpt lat="48.17017" lon="6.54878">
        <ele>456</ele>
        <time>2023-04-04T08:45:32.375Z</time>
      </trkpt>
      <trkpt lat="48.17016" lon="6.54885">
        <ele>456</ele>
        <time>2023-04-04T08:45:32.725Z</time>
      </trkpt>
      <trkpt lat="48.17013" lon="6.54914">
        <ele>456</ele>
        <time>2023-04-04T08:45:33.079Z</time>
      </trkpt>
      <trkpt lat="48.17012" lon="6.54926">
        <ele>456</ele>
        <time>2023-04-04T08:45:33.434Z</time>
      </trkpt>
      <trkpt lat="48.17009" lon="6.5494">
        <ele>456</ele>
        <time>2023-04-04T08:45:33.791Z</time>
      </trkpt>
      <trkpt lat="48.1701" lon="6.54973">
        <ele>455</ele>
        <time>2023-04-04T08:45:34.153Z</time>
      </trkpt>
      <trkpt lat="48.1701" lon="6.54982">
        <ele>455</ele>
        <time>2023-04-04T08:45:34.516Z</time>
      </trkpt>
      <trkpt lat="48.17008" lon="6.54985">
        <ele>455</ele>
        <time>2023-04-04T08:45:34.879Z</time>
      </trkpt>
      <trkpt lat="48.17007" lon="6.54993">
        <ele>455</ele>
        <time>2023-04-04T08:45:35.243Z</time>
      </trkpt>
      <trkpt lat="48.17001" lon="6.55011">
        <ele>455</ele>
        <time>2023-04-04T08:45:35.610Z</time>
      </trkpt>
      <trkpt lat="48.17" lon="6.55041">
        <ele>454</ele>
        <time>2023-04-04T08:45:35.981Z</time>
      </trkpt>
      <trkpt lat="48.16997" lon="6.55061">
        <ele>454</ele>
        <time>2023-04-04T08:45:36.355Z</time>
      </trkpt>
      <trkpt lat="48.16996" lon="6.55075">
        <ele>454</ele>
        <time>2023-04-04T08:45:36.731Z</time>
      </trkpt>
      <trkpt lat="48.16997" lon="6.5511">
        <ele>453</ele>
        <time>2023-04-04T08:45:37.111Z</time>
      </trkpt>
      <trkpt lat="48.16997" lon="6.55116">
        <ele>453</ele>
        <time>2023-04-04T08:45:37.492Z</time>
      </trkpt>
      <trkpt lat="48.16997" lon="6.55121">
        <ele>453</ele>
        <time>2023-04-04T08:45:37.874Z</time>
      </trkpt>
      <trkpt lat="48.16995" lon="6.55127">
        <ele>453</ele>
        <time>2023-04-04T08:45:38.257Z</time>
      </trkpt>
      <trkpt lat="48.16995" lon="6.55146">
        <ele>452</ele>
        <time>2023-04-04T08:45:38.642Z</time>
      </trkpt>
      <trkpt lat="48.16996" lon="6.55175">
        <ele>452</ele>
        <time>2023-04-04T08:45:39.031Z</time>
      </trkpt>
      <trkpt lat="48.16996" lon="6.55183">
        <ele>452</ele>
        <time>2023-04-04T08:45:39.421Z</time>
      </trkpt>
      <trkpt lat="48.16998" lon="6.55198">
        <ele>451</ele>
        <time>2023-04-04T08:45:39.813Z</time>
      </trkpt>
      <trkpt lat="48.16999" lon="6.55213">
        <ele>451</ele>
        <time>2023-04-04T08:45:40.207Z</time>
      </trkpt>
      <trkpt lat="48.16998" lon="6.55239">
        <ele>451</ele>
        <time>2023-04-04T08:45:40.605Z</time>
      </trkpt>
      <trkpt lat="48.16997" lon="6.55246">
        <ele>450</ele>
        <time>2023-04-04T08:45:41.004Z</time>
      </trkpt>
      <trkpt lat="48.16997" lon="6.55261">
        <ele>450</ele>
        <time>2023-04-04T08:45:41.405Z</time>
      </trkpt>
      <trkpt lat="48.16999" lon="6.55308">
        <ele>450</ele>
        <time>2023-04-04T08:45:41.812Z</time>
      </trkpt>
      <trkpt lat="48.17" lon="6.55337">
        <ele>450</ele>
        <time>2023-04-04T08:45:42.223Z</time>
      </trkpt>
      <trkpt lat="48.16999" lon="6.55343">
        <ele>449</ele>
        <time>2023-04-04T08:45:42.635Z</time>
      </trkpt>
      <trkpt lat="48.17002" lon="6.55367">
        <ele>449</ele>
        <time>2023-04-04T08:45:43.050Z</time>
      </trkpt>
      <trkpt lat="48.17002" lon="6.55399">
        <ele>448</ele>
        <time>2023-04-04T08:45:43.469Z</time>
      </trkpt>
      <trkpt lat="48.17001" lon="6.55414">
        <ele>448</ele>
        <time>2023-04-04T08:45:43.890Z</time>
      </trkpt>
      <trkpt lat="48.17001" lon="6.55431">
        <ele>448</ele>
        <time>2023-04-04T08:45:44.314Z</time>
      </trkpt>
      <trkpt lat="48.17002" lon="6.55452">
        <ele>447</ele>
        <time>2023-04-04T08:45:44.741Z</time>
      </trkpt>
      <trkpt lat="48.17003" lon="6.55472">
        <ele>447</ele>
        <time>2023-04-04T08:45:45.170Z</time>
      </trkpt>
      <trkpt lat="48.17003" lon="6.55479">
        <ele>446</ele>
        <time>2023-04-04T08:45:45.600Z</time>
      </trkpt>
      <trkpt lat="48.17007" lon="6.55494">
        <ele>446</ele>
        <time>2023-04-04T08:45:46.032Z</time>
      </trkpt>
      <trkpt lat="48.17009" lon="6.55501">
        <ele>445</ele>
        <time>2023-04-04T08:45:46.465Z</time>
      </trkpt>
      <trkpt lat="48.17021" lon="6.5553">
        <ele>445</ele>
        <time>2023-04-04T08:45:46.903Z</time>
      </trkpt>
      <trkpt lat="48.17028" lon="6.55543">
        <ele>444</ele>
        <time>2023-04-04T08:45:47.343Z</time>
      </trkpt>
      <trkpt lat="48.17035" lon="6.55554">
        <ele>443</ele>
        <time>2023-04-04T08:45:47.785Z</time>
      </trkpt>
      <trkpt lat="48.17038" lon="6.55559">
        <ele>443</ele>
        <time>2023-04-04T08:45:48.228Z</time>
      </trkpt>
      <trkpt lat="48.17041" lon="6.55572">
        <ele>442</ele>
        <time>2023-04-04T08:45:48.673Z</time>
      </trkpt>
      <trkpt lat="48.17047" lon="6.55587">
        <ele>442</ele>
        <time>2023-04-04T08:45:49.120Z</time>
      </trkpt>
      <trkpt lat="48.17058" lon="6.55609">
        <ele>441</ele>
        <time>2023-04-04T08:45:49.571Z</time>
      </trkpt>
      <trkpt lat="48.17066" lon="6.55628">
        <ele>440</ele>
        <time>2023-04-04T08:45:50.025Z</time>
      </trkpt>
      <trkpt lat="48.17078" lon="6.55662">
        <ele>439</ele>
        <time>2023-04-04T08:45:50.484Z</time>
      </trkpt>
      <trkpt lat="48.17081" lon="6.55668">
        <ele>439</ele>
        <time>2023-04-04T08:45:50.944Z</time>
      </trkpt>
      <trkpt lat="48.17087" lon="6.55682">
        <ele>438</ele>
        <time>2023-04-04T08:45:51.406Z</time>
      </trkpt>
      <trkpt lat="48.17094" lon="6.55698">
        <ele>438</ele>
        <time>2023-04-04T08:45:51.871Z</time>
      </trkpt>
      <trkpt lat="48.171" lon="6.55714">
        <ele>437</ele>
        <time>2023-04-04T08:45:52.338Z</time>
      </trkpt>
      <trkpt lat="48.17111" lon="6.55737">
        <ele>436</ele>
        <time>2023-04-04T08:45:52.809Z</time>
      </trkpt>
      <trkpt lat="48.17115" lon="6.55751">
        <ele>436</ele>
        <time>2023-04-04T08:45:53.282Z</time>
      </trkpt>
      <trkpt lat="48.17117" lon="6.55756">
        <ele>435</ele>
        <time>2023-04-04T08:45:53.756Z</time>
      </trkpt>
      <trkpt lat="48.17122" lon="6.55768">
        <ele>435</ele>
        <time>2023-04-04T08:45:54.232Z</time>
      </trkpt>
      <trkpt lat="48.17128" lon="6.55781">
        <ele>434</ele>
        <time>2023-04-04T08:45:54.710Z</time>
      </trkpt>
      <trkpt lat="48.17136" lon="6.55798">
        <ele>434</ele>
        <time>2023-04-04T08:45:55.191Z</time>
      </trkpt>
      <trkpt lat="48.17144" lon="6.55809">
        <ele>433</ele>
        <time>2023-04-04T08:45:55.674Z</time>
      </trkpt>
      <trkpt lat="48.1715" lon="6.55819">
        <ele>433</ele>
        <time>2023-04-04T08:45:56.159Z</time>
      </trkpt>
      <trkpt lat="48.17154" lon="6.55823">
        <ele>432</ele>
        <time>2023-04-04T08:45:56.645Z</time>
      </trkpt>
      <trkpt lat="48.1716" lon="6.55833">
        <ele>432</ele>
        <time>2023-04-04T08:45:57.132Z</time>
      </trkpt>
      <trkpt lat="48.17165" lon="6.55846">
        <ele>431</ele>
        <time>2023-04-04T08:45:57.621Z</time>
      </trkpt>
      <trkpt lat="48.17169" lon="6.55851">
        <ele>431</ele>
        <time>2023-04-04T08:45:58.112Z</time>
      </trkpt>
      <trkpt lat="48.17178" lon="6.55866">
        <ele>430</ele>
        <time>2023-04-04T08:45:58.605Z</time>
      </trkpt>
      <trkpt lat="48.17182" lon="6.55872">
        <ele>430</ele>
        <time>2023-04-04T08:45:59.099Z</time>
      </trkpt>
      <trkpt lat="48.17189" lon="6.55887">
        <ele>430</ele>
        <time>2023-04-04T08:45:59.596Z</time>
      </trkpt>
      <trkpt lat="48.17191" lon="6.55894">
        <ele>429</ele>
        <time>2023-04-04T08:46:00.094Z</time>
      </trkpt>
      <trkpt lat="48.17199" lon="6.55912">
        <ele>429</ele>
        <time>2023-04-04T08:46:00.595Z</time>
      </trkpt>
      <trkpt lat="48.17203" lon="6.55919">
        <ele>428</ele>
        <time>2023-04-04T08:46:01.097Z</time>
      </trkpt>
      <trkpt lat="48.17228" lon="6.55961">
        <ele>428</ele>
        <time>2023-04-04T08:46:01.606Z</time>
      </trkpt>
      <trkpt lat="48.1724" lon="6.55982">
        <ele>427</ele>
        <time>2023-04-04T08:46:02.119Z</time>
      </trkpt>
      <trkpt lat="48.17247" lon="6.55996">
        <ele>427</ele>
        <time>2023-04-04T08:46:02.635Z</time>
      </trkpt>
      <trkpt lat="48.17249" lon="6.56001">
        <ele>427</ele>
        <time>2023-04-04T08:46:03.151Z</time>
      </trkpt>
      <trkpt lat="48.17266" lon="6.56032">
        <ele>426</ele>
        <time>2023-04-04T08:46:03.673Z</time>
      </trkpt>
      <trkpt lat="48.17265" lon="6.56051">
        <ele>426</ele>
        <time>2023-04-04T08:46:04.197Z</time>
      </trkpt>
      <trkpt lat="48.17269" lon="6.56058">
        <ele>426</ele>
        <time>2023-04-04T08:46:04.722Z</time>
      </trkpt>
      <trkpt lat="48.17276" lon="6.5608">
        <ele>426</ele>
        <time>2023-04-04T08:46:05.251Z</time>
      </trkpt>
      <trkpt lat="48.17282" lon="6.56095">
        <ele>425</ele>
        <time>2023-04-04T08:46:05.782Z</time>
      </trkpt>
      <trkpt lat="48.17285" lon="6.56103">
        <ele>425</ele>
        <time>2023-04-04T08:46:06.314Z</time>
      </trkpt>
      <trkpt lat="48.17287" lon="6.56106">
        <ele>425</ele>
        <time>2023-04-04T08:46:06.847Z</time>
      </trkpt>
      <trkpt lat="48.17288" lon="6.56107">
        <ele>424</ele>
        <time>2023-04-04T08:46:07.380Z</time>
      </trkpt>
      <trkpt lat="48.17289" lon="6.56108">
        <ele>424</ele>
        <time>2023-04-04T08:46:07.913Z</time>
      </trkpt>
      <trkpt lat="48.17295" lon="6.56112">
        <ele>424</ele>
        <time>2023-04-04T08:46:08.448Z</time>
      </trkpt>
      <trkpt lat="48.17301" lon="6.56118">
        <ele>424</ele>
        <time>2023-04-04T08:46:08.984Z</time>
      </trkpt>
      <trkpt lat="48.17315" lon="6.56141">
        <ele>424</ele>
        <time>2023-04-04T08:46:09.524Z</time>
      </trkpt>
      <trkpt lat="48.17319" lon="6.56146">
        <ele>423</ele>
        <time>2023-04-04T08:46:10.065Z</time>
      </trkpt>
      <trkpt lat="48.17322" lon="6.56152">
        <ele>423</ele>
        <time>2023-04-04T08:46:10.607Z</time>
      </trkpt>
      <trkpt lat="48.17322" lon="6.56155">
        <ele>423</ele>
        <time>2023-04-04T08:46:11.150Z</time>
      </trkpt>
      <trkpt lat="48.1732" lon="6.5616">
        <ele>423</ele>
        <time>2023-04-04T08:46:11.693Z</time>
      </trkpt>
      <trkpt lat="48.17321" lon="6.56163">
        <ele>423</ele>
        <time>2023-04-04T08:46:12.237Z</time>
      </trkpt>
      <trkpt lat="48.17331" lon="6.56177">
        <ele>423</ele>
        <time>2023-04-04T08:46:12.784Z</time>
      </trkpt>
      <trkpt lat="48.17336" lon="6.56181">
        <ele>423</ele>
        <time>2023-04-04T08:46:13.332Z</time>
      </trkpt>
      <trkpt lat="48.17338" lon="6.56184">
        <ele>423</ele>
        <time>2023-04-04T08:46:13.880Z</time>
      </trkpt>
      <trkpt lat="48.17332" lon="6.562">
        <ele>423</ele>
        <time>2023-04-04T08:46:14.431Z</time>
      </trkpt>
      <trkpt lat="48.17323" lon="6.56226">
        <ele>423</ele>
        <time>2023-04-04T08:46:14.986Z</time>
      </trkpt>
      <trkpt lat="48.17305" lon="6.5625">
        <ele>423</ele>
        <time>2023-04-04T08:46:15.546Z</time>
      </trkpt>
      <trkpt lat="48.17287" lon="6.56269">
        <ele>423</ele>
        <time>2023-04-04T08:46:16.110Z</time>
      </trkpt>
      <trkpt lat="48.17267" lon="6.56286">
        <ele>423</ele>
        <time>2023-04-04T08:46:16.679Z</time>
      </trkpt>
      <trkpt lat="48.17262" lon="6.56288">
        <ele>423</ele>
        <time>2023-04-04T08:46:17.249Z</time>
      </trkpt>
      <trkpt lat="48.17248" lon="6.56294">
        <ele>423</ele>
        <time>2023-04-04T08:46:17.822Z</time>
      </trkpt>
      <trkpt lat="48.17231" lon="6.56301">
        <ele>424</ele>
        <time>2023-04-04T08:46:18.398Z</time>
      </trkpt>
      <trkpt lat="48.1722" lon="6.5631">
        <ele>424</ele>
        <time>2023-04-04T08:46:18.977Z</time>
      </trkpt>
      <trkpt lat="48.17204" lon="6.56321">
        <ele>424</ele>
        <time>2023-04-04T08:46:19.559Z</time>
      </trkpt>
      <trkpt lat="48.17195" lon="6.56327">
        <ele>424</ele>
        <time>2023-04-04T08:46:20.143Z</time>
      </trkpt>
      <trkpt lat="48.17187" lon="6.56332">
        <ele>425</ele>
        <time>2023-04-04T08:46:20.729Z</time>
      </trkpt>
      <trkpt lat="48.17183" lon="6.56334">
        <ele>425</ele>
        <time>2023-04-04T08:46:21.316Z</time>
      </trkpt>
      <trkpt lat="48.17174" lon="6.56342">
        <ele>425</ele>
        <time>2023-04-04T08:46:21.905Z</time>
      </trkpt>
      <trkpt lat="48.17166" lon="6.56345">
        <ele>426</ele>
        <time>2023-04-04T08:46:22.495Z</time>
      </trkpt>
      <trkpt lat="48.17093" lon="6.5645">
        <ele>426</ele>
        <time>2023-04-04T08:46:23.106Z</time>
      </trkpt>
      <trkpt lat="48.16973" lon="6.56742">
        <ele>426</ele>
        <time>2023-04-04T08:46:23.763Z</time>
      </trkpt>
      <trkpt lat="48.16832" lon="6.56922">
        <ele>426</ele>
        <time>2023-04-04T08:46:24.457Z</time>
      </trkpt>
      <trkpt lat="48.16844" lon="6.57111">
        <ele>426</ele>
        <time>2023-04-04T08:46:25.176Z</time>
      </trkpt>
      <trkpt lat="48.16893" lon="6.57234">
        <ele>427</ele>
        <time>2023-04-04T08:46:25.914Z</time>
      </trkpt>
      <trkpt lat="48.16892" lon="6.57231">
        <ele>427</ele>
        <time>2023-04-04T08:46:26.653Z</time>
      </trkpt>
      <trkpt lat="48.1689" lon="6.57225">
        <ele>427</ele>
        <time>2023-04-04T08:46:27.393Z</time>
      </trkpt>
      <trkpt lat="48.16893" lon="6.57219">
        <ele>428</ele>
        <time>2023-04-04T08:46:28.134Z</time>
      </trkpt>
      <trkpt lat="48.16898" lon="6.57217">
        <ele>428</ele>
        <time>2023-04-04T08:46:28.876Z</time>
      </trkpt>
      <trkpt lat="48.16913" lon="6.5721">
        <ele>428</ele>
        <time>2023-04-04T08:46:29.621Z</time>
      </trkpt>
      <trkpt lat="48.16928" lon="6.57203">
        <ele>428</ele>
        <time>2023-04-04T08:46:30.369Z</time>
      </trkpt>
      <trkpt lat="48.1695" lon="6.5719">
        <ele>428</ele>
        <time>2023-04-04T08:46:31.122Z</time>
      </trkpt>
      <trkpt lat="48.16968" lon="6.57182">
        <ele>428</ele>
        <time>2023-04-04T08:46:31.878Z</time>
      </trkpt>
      <trkpt lat="48.1698" lon="6.5718">
        <ele>429</ele>
        <time>2023-04-04T08:46:32.637Z</time>
      </trkpt>
      <trkpt lat="48.16985" lon="6.5718">
        <ele>429</ele>
        <time>2023-04-04T08:46:33.397Z</time>
      </trkpt>
      <trkpt lat="48.17008" lon="6.57172">
        <ele>429</ele>
        <time>2023-04-04T08:46:34.161Z</time>
      </trkpt>
      <trkpt lat="48.17017" lon="6.57166">
        <ele>429</ele>
        <time>2023-04-04T08:46:34.927Z</time>
      </trkpt>
      <trkpt lat="48.17037" lon="6.57162">
        <ele>429</ele>
        <time>2023-04-04T08:46:35.698Z</time>
      </trkpt>
      <trkpt lat="48.17053" lon="6.57159">
        <ele>429</ele>
        <time>2023-04-04T08:46:36.472Z</time>
      </trkpt>
      <trkpt lat="48.17074" lon="6.57149">
        <ele>429</ele>
        <time>2023-04-04T08:46:37.250Z</time>
      </trkpt>
      <trkpt lat="48.17102" lon="6.57133">
        <ele>429</ele>
        <time>2023-04-04T08:46:38.034Z</time>
      </trkpt>
      <trkpt lat="48.17129" lon="6.57125">
        <ele>428</ele>
        <time>2023-04-04T08:46:38.824Z</time>
      </trkpt>
      <trkpt lat="48.17134" lon="6.57123">
        <ele>428</ele>
        <time>2023-04-04T08:46:39.615Z</time>
      </trkpt>
      <trkpt lat="48.17171" lon="6.57106">
        <ele>428</ele>
        <time>2023-04-04T08:46:40.413Z</time>
      </trkpt>
      <trkpt lat="48.17182" lon="6.57104">
        <ele>428</ele>
        <time>2023-04-04T08:46:41.214Z</time>
      </trkpt>
      <trkpt lat="48.17187" lon="6.57102">
        <ele>428</ele>
        <time>2023-04-04T08:46:42.016Z</time>
      </trkpt>
      <trkpt lat="48.17219" lon="6.57086">
        <ele>428</ele>
        <time>2023-04-04T08:46:42.824Z</time>
      </trkpt>
      <trkpt lat="48.17219" lon="6.57085">
        <ele>428</ele>
        <time>2023-04-04T08:46:43.633Z</time>
      </trkpt>
      <trkpt lat="48.17223" lon="6.57089">
        <ele>428</ele>
        <time>2023-04-04T08:46:44.443Z</time>
      </trkpt>
      <trkpt lat="48.17229" lon="6.57093">
        <ele>427</ele>
        <time>2023-04-04T08:46:45.254Z</time>
      </trkpt>
      <trkpt lat="48.17232" lon="6.57094">
        <ele>427</ele>
        <time>2023-04-04T08:46:46.065Z</time>
      </trkpt>
      <trkpt lat="48.17233" lon="6.57094">
        <ele>427</ele>
        <time>2023-04-04T08:46:46.877Z</time>
      </trkpt>
      <trkpt lat="48.17245" lon="6.5709">
        <ele>427</ele>
        <time>2023-04-04T08:46:47.691Z</time>
      </trkpt>
      <trkpt lat="48.17247" lon="6.57086">
        <ele>426</ele>
        <time>2023-04-04T08:46:48.506Z</time>
      </trkpt>
      <trkpt lat="48.17252" lon="6.57079">
        <ele>426</ele>
        <time>2023-04-04T08:46:49.322Z</time>
      </trkpt>
      <trkpt lat="48.17255" lon="6.57077">
        <ele>426</ele>
        <time>2023-04-04T08:46:50.139Z</time>
      </trkpt>
      <trkpt lat="48.17265" lon="6.57075">
        <ele>426</ele>
        <time>2023-04-04T08:46:50.958Z</time>
      </trkpt>
      <trkpt lat="48.17277" lon="6.57076">
        <ele>425</ele>
        <time>2023-04-04T08:46:51.779Z</time>
      </trkpt>
      <trkpt lat="48.17283" lon="6.57074">
        <ele>425</ele>
        <time>2023-04-04T08:46:52.601Z</time>
      </trkpt>
      <trkpt lat="48.17311" lon="6.57082">
        <ele>425</ele>
        <time>2023-04-04T08:46:53.429Z</time>
      </trkpt>
      <trkpt lat="48.17323" lon="6.57074">
        <ele>424</ele>
        <time>2023-04-04T08:46:54.260Z</time>
      </trkpt>
      <trkpt lat="48.17329" lon="6.57078">
        <ele>424</ele>
        <time>2023-04-04T08:46:55.092Z</time>
      </trkpt>
      <trkpt lat="48.17332" lon="6.57079">
        <ele>424</ele>
        <time>2023-04-04T08:46:55.925Z</time>
      </trkpt>
      <trkpt lat="48.1734" lon="6.57076">
        <ele>423</ele>
        <time>2023-04-04T08:46:56.759Z</time>
      </trkpt>
      <trkpt lat="48.17371" lon="6.57055">
        <ele>423</ele>
        <time>2023-04-04T08:46:57.600Z</time>
      </trkpt>
      <trkpt lat="48.174" lon="6.57046">
        <ele>422</ele>
        <time>2023-04-04T08:46:58.447Z</time>
      </trkpt>
      <trkpt lat="48.17415" lon="6.57048">
        <ele>422</ele>
        <time>2023-04-04T08:46:59.297Z</time>
      </trkpt>
      <trkpt lat="48.1742" lon="6.57049">
        <ele>422</ele>
        <time>2023-04-04T08:47:00.148Z</time>
      </trkpt>
      <trkpt lat="48.17437" lon="6.57055">
        <ele>421</ele>
        <time>2023-04-04T08:47:01.003Z</time>
      </trkpt>
      <trkpt lat="48.17448" lon="6.5706">
        <ele>421</ele>
        <time>2023-04-04T08:47:01.860Z</time>
      </trkpt>
      <trkpt lat="48.17465" lon="6.57065">
        <ele>421</ele>
        <time>2023-04-04T08:47:02.720Z</time>
      </trkpt>
      <trkpt lat="48.17481" lon="6.57075">
        <ele>421</ele>
        <time>2023-04-04T08:47:03.584Z</time>
      </trkpt>
      <trkpt lat="48.17494" lon="6.57083">
        <ele>421</ele>
        <time>2023-04-04T08:47:04.451Z</time>
      </trkpt>
      <trkpt lat="48.175" lon="6.57088">
        <ele>421</ele>
        <time>2023-04-04T08:47:05.319Z</time>
      </trkpt>
      <trkpt lat="48.17504" lon="6.5709">
        <ele>421</ele>
        <time>2023-04-04T08:47:06.188Z</time>
      </trkpt>
      <trkpt lat="48.17521" lon="6.57094">
        <ele>421</ele>
        <time>2023-04-04T08:47:07.060Z</time>
      </trkpt>
      <trkpt lat="48.17536" lon="6.57101">
        <ele>421</ele>
        <time>2023-04-04T08:47:07.936Z</time>
      </trkpt>
      <trkpt lat="48.17553" lon="6.57109">
        <ele>421</ele>
        <time>2023-04-04T08:47:08.815Z</time>
      </trkpt>
      <trkpt lat="48.17566" lon="6.57118">
        <ele>421</ele>
        <time>2023-04-04T08:47:09.697Z</time>
      </trkpt>
      <trkpt lat="48.17572" lon="6.57127">
        <ele>421</ele>
        <time>2023-04-04T08:47:10.581Z</time>
      </trkpt>
      <trkpt lat="48.17573" lon="6.57139">
        <ele>421</ele>
        <time>2023-04-04T08:47:11.466Z</time>
      </trkpt>
      <trkpt lat="48.17577" lon="6.57164">
        <ele>421</ele>
        <time>2023-04-04T08:47:12.355Z</time>
      </trkpt>
      <trkpt lat="48.17585" lon="6.57192">
        <ele>422</ele>
        <time>2023-04-04T08:47:13.248Z</time>
      </trkpt>
      <trkpt lat="48.17587" lon="6.57216">
        <ele>422</ele>
        <time>2023-04-04T08:47:14.144Z</time>
      </trkpt>
      <trkpt lat="48.17585" lon="6.57228">
        <ele>422</ele>
        <time>2023-04-04T08:47:15.042Z</time>
      </trkpt>
      <trkpt lat="48.17586" lon="6.57237">
        <ele>423</ele>
        <time>2023-04-04T08:47:15.941Z</time>
      </trkpt>
      <trkpt lat="48.17592" lon="6.57267">
        <ele>423</ele>
        <time>2023-04-04T08:47:16.844Z</time>
      </trkpt>
      <trkpt lat="48.17598" lon="6.57292">
        <ele>423</ele>
        <time>2023-04-04T08:47:17.751Z</time>
      </trkpt>
      <trkpt lat="48.17602" lon="6.57312">
        <ele>423</ele>
        <time>2023-04-04T08:47:18.660Z</time>
      </trkpt>
      <trkpt lat="48.17603" lon="6.57324">
        <ele>424</ele>
        <time>2023-04-04T08:47:19.571Z</time>
      </trkpt>
      <trkpt lat="48.17605" lon="6.57343">
        <ele>424</ele>
        <time>2023-04-04T08:47:20.485Z</time>
      </trkpt>
      <trkpt lat="48.17608" lon="6.57359">
        <ele>424</ele>
        <time>2023-04-04T08:47:21.401Z</time>
      </trkpt>
      <trkpt lat="48.1761" lon="6.57367">
        <ele>425</ele>
        <time>2023-04-04T08:47:22.318Z</time>
      </trkpt>
      <trkpt lat="48.17617" lon="6.57408">
        <ele>425</ele>
        <time>2023-04-04T08:47:23.241Z</time>
      </trkpt>
      <trkpt lat="48.17615" lon="6.57416">
        <ele>426</ele>
        <time>2023-04-04T08:47:24.165Z</time>
      </trkpt>
      <trkpt lat="48.17612" lon="6.57419">
        <ele>426</ele>
        <time>2023-04-04T08:47:25.090Z</time>
      </trkpt>
      <trkpt lat="48.17607" lon="6.57425">
        <ele>427</ele>
        <time>2023-04-04T08:47:26.016Z</time>
      </trkpt>
      <trkpt lat="48.176" lon="6.57427">
        <ele>427</ele>
        <time>2023-04-04T08:47:26.943Z</time>
      </trkpt>
      <trkpt lat="48.17583" lon="6.57419">
        <ele>428</ele>
        <time>2023-04-04T08:47:27.874Z</time>
      </trkpt>
      <trkpt lat="48.1758" lon="6.57417">
        <ele>428</ele>
        <time>2023-04-04T08:47:28.805Z</time>
      </trkpt>
      <trkpt lat="48.17564" lon="6.57412">
        <ele>428</ele>
        <time>2023-04-04T08:47:29.740Z</time>
      </trkpt>
      <trkpt lat="48.17551" lon="6.5741">
        <ele>429</ele>
        <time>2023-04-04T08:47:30.677Z</time>
      </trkpt>
      <trkpt lat="48.17534" lon="6.57411">
        <ele>429</ele>
        <time>2023-04-04T08:47:31.618Z</time>
      </trkpt>
      <trkpt lat="48.17513" lon="6.57404">
        <ele>430</ele>
        <time>2023-04-04T08:47:32.563Z</time>
      </trkpt>
      <trkpt lat="48.17498" lon="6.574">
        <ele>430</ele>
        <time>2023-04-04T08:47:33.511Z</time>
      </trkpt>
      <trkpt lat="48.17493" lon="6.574">
        <ele>431</ele>
        <time>2023-04-04T08:47:34.460Z</time>
      </trkpt>
      <trkpt lat="48.17489" lon="6.57399">
        <ele>431</ele>
        <time>2023-04-04T08:47:35.410Z</time>
      </trkpt>
      <trkpt lat="48.17475" lon="6.57393">
        <ele>431</ele>
        <time>2023-04-04T08:47:36.363Z</time>
      </trkpt>
      <trkpt lat="48.17462" lon="6.5739">
        <ele>432</ele>
        <time>2023-04-04T08:47:37.318Z</time>
      </trkpt>
      <trkpt lat="48.17452" lon="6.57387">
        <ele>432</ele>
        <time>2023-04-04T08:47:38.276Z</time>
      </trkpt>
      <trkpt lat="48.17423" lon="6.57374">
        <ele>432</ele>
        <time>2023-04-04T08:47:39.240Z</time>
      </trkpt>
      <trkpt lat="48.17409" lon="6.57374">
        <ele>433</ele>
        <time>2023-04-04T08:47:40.206Z</time>
      </trkpt>
      <trkpt lat="48.174" lon="6.57372">
        <ele>433</ele>
        <time>2023-04-04T08:47:41.174Z</time>
      </trkpt>
      <trkpt lat="48.17379" lon="6.5737">
        <ele>433</ele>
        <time>2023-04-04T08:47:42.146Z</time>
      </trkpt>
      <trkpt lat="48.17354" lon="6.57362">
        <ele>433</ele>
        <time>2023-04-04T08:47:43.124Z</time>
      </trkpt>
      <trkpt lat="48.17348" lon="6.5737">
        <ele>433</ele>
        <time>2023-04-04T08:47:44.103Z</time>
      </trkpt>
      <trkpt lat="48.17348" lon="6.57375">
        <ele>433</ele>
        <time>2023-04-04T08:47:45.083Z</time>
      </trkpt>
      <trkpt lat="48.17343" lon="6.57411">
        <ele>432</ele>
        <time>2023-04-04T08:47:46.068Z</time>
      </trkpt>
      <trkpt lat="48.17339" lon="6.57423">
        <ele>432</ele>
        <time>2023-04-04T08:47:47.055Z</time>
      </trkpt>
      <trkpt lat="48.17336" lon="6.57437">
        <ele>432</ele>
        <time>2023-04-04T08:47:48.044Z</time>
      </trkpt>
      <trkpt lat="48.17332" lon="6.57452">
        <ele>432</ele>
        <time>2023-04-04T08:47:49.035Z</time>
      </trkpt>
      <trkpt lat="48.17327" lon="6.57466">
        <ele>431</ele>
        <time>2023-04-04T08:47:50.028Z</time>
      </trkpt>
      <trkpt lat="48.17328" lon="6.57482">
        <ele>431</ele>
        <time>2023-04-04T08:47:51.023Z</time>
      </trkpt>
      <trkpt lat="48.17328" lon="6.57515">
        <ele>431</ele>
        <time>2023-04-04T08:47:52.022Z</time>
      </trkpt>
      <trkpt lat="48.17329" lon="6.57526">
        <ele>430</ele>
        <time>2023-04-04T08:47:53.023Z</time>
      </trkpt>
      <trkpt lat="48.1733" lon="6.5755">
        <ele>429</ele>
        <time>2023-04-04T08:47:54.027Z</time>
      </trkpt>
      <trkpt lat="48.1733" lon="6.57598">
        <ele>429</ele>
        <time>2023-04-04T08:47:55.037Z</time>
      </trkpt>
      <trkpt lat="48.1732" lon="6.57628">
        <ele>428</ele>
        <time>2023-04-04T08:47:56.052Z</time>
      </trkpt>
      <trkpt lat="48.17316" lon="6.57636">
        <ele>427</ele>
        <time>2023-04-04T08:47:57.068Z</time>
      </trkpt>
      <trkpt lat="48.17312" lon="6.57643">
        <ele>427</ele>
        <time>2023-04-04T08:47:58.086Z</time>
      </trkpt>
      <trkpt lat="48.17303" lon="6.57656">
        <ele>426</ele>
        <time>2023-04-04T08:47:59.106Z</time>
      </trkpt>
      <trkpt lat="48.17293" lon="6.57674">
        <ele>425</ele>
        <time>2023-04-04T08:48:00.129Z</time>
      </trkpt>
      <trkpt lat="48.17284" lon="6.57693">
        <ele>424</ele>
        <time>2023-04-04T08:48:01.155Z</time>
      </trkpt>
      <trkpt lat="48.17281" lon="6.57699">
        <ele>423</ele>
        <time>2023-04-04T08:48:02.182Z</time>
      </trkpt>
      <trkpt lat="48.17275" lon="6.5771">
        <ele>423</ele>
        <time>2023-04-04T08:48:03.211Z</time>
      </trkpt>
      <trkpt lat="48.1727" lon="6.57719">
        <ele>422</ele>
        <time>2023-04-04T08:48:04.242Z</time>
      </trkpt>
      <trkpt lat="48.17261" lon="6.5774">
        <ele>421</ele>
        <time>2023-04-04T08:48:05.276Z</time>
      </trkpt>
      <trkpt lat="48.17256" lon="6.57754">
        <ele>420</ele>
        <time>2023-04-04T08:48:06.312Z</time>
      </trkpt>
      <trkpt lat="48.17252" lon="6.57762">
        <ele>419</ele>
        <time>2023-04-04T08:48:07.350Z</time>
      </trkpt>
      <trkpt lat="48.17248" lon="6.5777">
        <ele>418</ele>
        <time>2023-04-04T08:48:08.389Z</time>
      </trkpt>
      <trkpt lat="48.17236" lon="6.57787">
        <ele>418</ele>
        <time>2023-04-04T08:48:09.431Z</time>
      </trkpt>
      <trkpt lat="48.17222" lon="6.57805">
        <ele>417</ele>
        <time>2023-04-04T08:48:10.477Z</time>
      </trkpt>
      <trkpt lat="48.17199" lon="6.57836">
        <ele>416</ele>
        <time>2023-04-04T08:48:11.529Z</time>
      </trkpt>
      <trkpt lat="48.17194" lon="6.57842">
        <ele>416</ele>
        <time>2023-04-04T08:48:12.582Z</time>
      </trkpt>
      <trkpt lat="48.17174" lon="6.57863">
        <ele>415</ele>
        <time>2023-04-04T08:48:13.640Z</time>
      </trkpt>
      <trkpt lat="48.17163" lon="6.5787">
        <ele>415</ele>
        <time>2023-04-04T08:48:14.701Z</time>
      </trkpt>
      <trkpt lat="48.17142" lon="6.57883">
        <ele>414</ele>
        <time>2023-04-04T08:48:15.766Z</time>
      </trkpt>
      <trkpt lat="48.17138" lon="6.57888">
        <ele>414</ele>
        <time>2023-04-04T08:48:16.832Z</time>
      </trkpt>
      <trkpt lat="48.17131" lon="6.57895">
        <ele>413</ele>
        <time>2023-04-04T08:48:17.900Z</time>
      </trkpt>
      <trkpt lat="48.17125" lon="6.57905">
        <ele>413</ele>
        <time>2023-04-04T08:48:18.970Z</time>
      </trkpt>
      <trkpt lat="48.17121" lon="6.57916">
        <ele>412</ele>
        <time>2023-04-04T08:48:20.041Z</time>
      </trkpt>
      <trkpt lat="48.17116" lon="6.57927">
        <ele>412</ele>
        <time>2023-04-04T08:48:21.114Z</time>
      </trkpt>
      <trkpt lat="48.17103" lon="6.5794">
        <ele>412</ele>
        <time>2023-04-04T08:48:22.190Z</time>
      </trkpt>
      <trkpt lat="48.17099" lon="6.57942">
        <ele>411</ele>
        <time>2023-04-04T08:48:23.267Z</time>
      </trkpt>
      <trkpt lat="48.17087" lon="6.57948">
        <ele>411</ele>
        <time>2023-04-04T08:48:24.347Z</time>
      </trkpt>
      <trkpt lat="48.17073" lon="6.57954">
        <ele>411</ele>
        <time>2023-04-04T08:48:25.430Z</time>
      </trkpt>
      <trkpt lat="48.17069" lon="6.57956">
        <ele>411</ele>
        <time>2023-04-04T08:48:26.513Z</time>
      </trkpt>
      <trkpt lat="48.17064" lon="6.57958">
        <ele>411</ele>
        <time>2023-04-04T08:48:27.598Z</time>
      </trkpt>
      <trkpt lat="48.17056" lon="6.57962">
        <ele>411</ele>
        <time>2023-04-04T08:48:28.684Z</time>
      </trkpt>
      <trkpt lat="48.17052" lon="6.57966">
        <ele>411</ele>
        <time>2023-04-04T08:48:29.771Z</time>
      </trkpt>
      <trkpt lat="48.1703" lon="6.57986">
        <ele>411</ele>
        <time>2023-04-04T08:48:30.863Z</time>
      </trkpt>
      <trkpt lat="48.17022" lon="6.57992">
        <ele>411</ele>
        <time>2023-04-04T08:48:31.957Z</time>
      </trkpt>
      <trkpt lat="48.17001" lon="6.58009">
        <ele>411</ele>
        <time>2023-04-04T08:48:33.056Z</time>
      </trkpt>
      <trkpt lat="48.16999" lon="6.58014">
        <ele>411</ele>
        <time>2023-04-04T08:48:34.156Z</time>
      </trkpt>
      <trkpt lat="48.16983" lon="6.58047">
        <ele>412</ele>
        <time>2023-04-04T08:48:35.261Z</time>
      </trkpt>
      <trkpt lat="48.16973" lon="6.5808">
        <ele>412</ele>
        <time>2023-04-04T08:48:36.371Z</time>
      </trkpt>
      <trkpt lat="48.16971" lon="6.58091">
        <ele>412</ele>
        <time>2023-04-04T08:48:37.483Z</time>
      </trkpt>
      <trkpt lat="48.16969" lon="6.58114">
        <ele>412</ele>
        <time>2023-04-04T08:48:38.598Z</time>
      </trkpt>
      <trkpt lat="48.16975" lon="6.58156">
        <ele>413</ele>
        <time>2023-04-04T08:48:39.718Z</time>
      </trkpt>
      <trkpt lat="48.16979" lon="6.58192">
        <ele>413</ele>
        <time>2023-04-04T08:48:40.843Z</time>
      </trkpt>
      <trkpt lat="48.16979" lon="6.58197">
        <ele>413</ele>
        <time>2023-04-04T08:48:41.969Z</time>
      </trkpt>
      <trkpt lat="48.16983" lon="6.58245">
        <ele>414</ele>
        <time>2023-04-04T08:48:43.101Z</time>
      </trkpt>
      <trkpt lat="48.16986" lon="6.58278">
        <ele>414</ele>
        <time>2023-04-04T08:48:44.238Z</time>
      </trkpt>
      <trkpt lat="48.16987" lon="6.58289">
        <ele>415</ele>
        <time>2023-04-04T08:48:45.376Z</time>
      </trkpt>
      <trkpt lat="48.16989" lon="6.58311">
        <ele>415</ele>
        <time>2023-04-04T08:48:46.517Z</time>
      </trkpt>
      <trkpt lat="48.1699" lon="6.58313">
        <ele>416</ele>
        <time>2023-04-04T08:48:47.659Z</time>
      </trkpt>
      <trkpt lat="48.1699" lon="6.58314">
        <ele>417</ele>
        <time>2023-04-04T08:48:48.801Z</time>
      </trkpt>
      <trkpt lat="48.16991" lon="6.58314">
        <ele>417</ele>
        <time>2023-04-04T08:48:49.943Z</time>
      </trkpt>
      <trkpt lat="48.16992" lon="6.58314">
        <ele>418</ele>
        <time>2023-04-04T08:48:51.085Z</time>
      </trkpt>
      <trkpt lat="48.16996" lon="6.58306">
        <ele>418</ele>
        <time>2023-04-04T08:48:52.229Z</time>
      </trkpt>
      <trkpt lat="48.17001" lon="6.58303">
        <ele>419</ele>
        <time>2023-04-04T08:48:53.374Z</time>
      </trkpt>
      <trkpt lat="48.17004" lon="6.58305">
        <ele>420</ele>
        <time>2023-04-04T08:48:54.519Z</time>
      </trkpt>
      <trkpt lat="48.17013" lon="6.58313">
        <ele>420</ele>
        <time>2023-04-04T08:48:55.666Z</time>
      </trkpt>
      <trkpt lat="48.17015" lon="6.58313">
        <ele>421</ele>
        <time>2023-04-04T08:48:56.814Z</time>
      </trkpt>
      <trkpt lat="48.17024" lon="6.58309">
        <ele>422</ele>
        <time>2023-04-04T08:48:57.964Z</time>
      </trkpt>
      <trkpt lat="48.17025" lon="6.58309">
        <ele>422</ele>
        <time>2023-04-04T08:48:59.114Z</time>
      </trkpt>
      <trkpt lat="48.17026" lon="6.5831">
        <ele>423</ele>
        <time>2023-04-04T08:49:00.264Z</time>
      </trkpt>
      <trkpt lat="48.17027" lon="6.58308">
        <ele>424</ele>
        <time>2023-04-04T08:49:01.414Z</time>
      </trkpt>
      <trkpt lat="48.17034" lon="6.58306">
        <ele>425</ele>
        <time>2023-04-04T08:49:02.566Z</time>
      </trkpt>
      <trkpt lat="48.17044" lon="6.58305">
        <ele>425</ele>
        <time>2023-04-04T08:49:03.720Z</time>
      </trkpt>
      <trkpt lat="48.17048" lon="6.58304">
        <ele>426</ele>
        <time>2023-04-04T08:49:04.875Z</time>
      </trkpt>
      <trkpt lat="48.1705" lon="6.58304">
        <ele>427</ele>
        <time>2023-04-04T08:49:06.030Z</time>
      </trkpt>
      <trkpt lat="48.17052" lon="6.58303">
        <ele>428</ele>
        <time>2023-04-04T08:49:07.185Z</time>
      </trkpt>
      <trkpt lat="48.17056" lon="6.583">
        <ele>428</ele>
        <time>2023-04-04T08:49:08.341Z</time>
      </trkpt>
      <trkpt lat="48.17056" lon="6.58299">
        <ele>429</ele>
        <time>2023-04-04T08:49:09.497Z</time>
      </trkpt>
      <trkpt lat="48.17058" lon="6.58297">
        <ele>430</ele>
        <time>2023-04-04T08:49:10.654Z</time>
      </trkpt>
      <trkpt lat="48.17071" lon="6.58295">
        <ele>431</ele>
        <time>2023-04-04T08:49:11.814Z</time>
      </trkpt>
      <trkpt lat="48.17075" lon="6.58296">
        <ele>431</ele>
        <time>2023-04-04T08:49:12.974Z</time>
      </trkpt>
      <trkpt lat="48.17076" lon="6.58295">
        <ele>432</ele>
        <time>2023-04-04T08:49:14.135Z</time>
      </trkpt>
      <trkpt lat="48.1708" lon="6.58293">
        <ele>433</ele>
        <time>2023-04-04T08:49:15.296Z</time>
      </trkpt>
      <trkpt lat="48.17093" lon="6.58291">
        <ele>433</ele>
        <time>2023-04-04T08:49:16.460Z</time>
      </trkpt>
      <trkpt lat="48.17095" lon="6.58291">
        <ele>434</ele>
        <time>2023-04-04T08:49:17.625Z</time>
      </trkpt>
      <trkpt lat="48.17104" lon="6.58287">
        <ele>435</ele>
        <time>2023-04-04T08:49:18.791Z</time>
      </trkpt>
      <trkpt lat="48.17107" lon="6.58286">
        <ele>435</ele>
        <time>2023-04-04T08:49:19.958Z</time>
      </trkpt>
      <trkpt lat="48.17113" lon="6.58286">
        <ele>436</ele>
        <time>2023-04-04T08:49:21.126Z</time>
      </trkpt>
      <trkpt lat="48.17115" lon="6.58286">
        <ele>436</ele>
        <time>2023-04-04T08:49:22.295Z</time>
      </trkpt>
      <trkpt lat="48.17117" lon="6.58285">
        <ele>437</ele>
        <time>2023-04-04T08:49:23.464Z</time>
      </trkpt>
      <trkpt lat="48.17118" lon="6.58284">
        <ele>437</ele>
        <time>2023-04-04T08:49:24.633Z</time>
      </trkpt>
      <trkpt lat="48.17123" lon="6.58282">
        <ele>438</ele>
        <time>2023-04-04T08:49:25.803Z</time>
      </trkpt>
      <trkpt lat="48.17125" lon="6.58281">
        <ele>438</ele>
        <time>2023-04-04T08:49:26.974Z</time>
      </trkpt>
      <trkpt lat="48.17128" lon="6.5828">
        <ele>439</ele>
        <time>2023-04-04T08:49:28.145Z</time>
      </trkpt>
      <trkpt lat="48.17129" lon="6.58279">
        <ele>439</ele>
        <time>2023-04-04T08:49:29.317Z</time>
      </trkpt>
      <trkpt lat="48.17133" lon="6.58278">
        <ele>440</ele>
        <time>2023-04-04T08:49:30.489Z</time>
      </trkpt>
      <trkpt lat="48.17135" lon="6.58277">
        <ele>440</ele>
        <time>2023-04-04T08:49:31.662Z</time>
      </trkpt>
      <trkpt lat="48.17137" lon="6.58277">
        <ele>440</ele>
        <time>2023-04-04T08:49:32.835Z</time>
      </trkpt>
      <trkpt lat="48.1714" lon="6.58276">
        <ele>441</ele>
        <time>2023-04-04T08:49:34.009Z</time>
      </trkpt>
      <trkpt lat="48.17148" lon="6.58276">
        <ele>441</ele>
        <time>2023-04-04T08:49:35.184Z</time>
      </trkpt>
      <trkpt lat="48.17166" lon="6.58276">
        <ele>441</ele>
        <time>2023-04-04T08:49:36.363Z</time>
      </trkpt>
      <trkpt lat="48.1717" lon="6.58277">
        <ele>441</ele>
        <time>2023-04-04T08:49:37.543Z</time>
      </trkpt>
      <trkpt lat="48.17172" lon="6.58277">
        <ele>441</ele>
        <time>2023-04-04T08:49:38.723Z</time>
      </trkpt>
      <trkpt lat="48.17175" lon="6.58278">
        <ele>442</ele>
        <time>2023-04-04T08:49:39.904Z</time>
      </trkpt>
      <trkpt lat="48.1718" lon="6.58283">
        <ele>442</ele>
        <time>2023-04-04T08:49:41.086Z</time>
      </trkpt>
      <trkpt lat="48.17186" lon="6.58285">
        <ele>442</ele>
        <time>2023-04-04T08:49:42.269Z</time>
      </trkpt>
      <trkpt lat="48.17219" lon="6.58291">
        <ele>442</ele>
        <time>2023-04-04T08:49:43.459Z</time>
      </trkpt>
      <trkpt lat="48.17222" lon="6.58292">
        <ele>442</ele>
        <time>2023-04-04T08:49:44.650Z</time>
      </trkpt>
      <trkpt lat="48.17246" lon="6.58296">
        <ele>442</ele>
        <time>2023-04-04T08:49:45.845Z</time>
      </trkpt>
      <trkpt lat="48.17261" lon="6.58305">
        <ele>442</ele>
        <time>2023-04-04T08:49:47.044Z</time>
      </trkpt>
      <trkpt lat="48.17269" lon="6.58307">
        <ele>442</ele>
        <time>2023-04-04T08:49:48.244Z</time>
      </trkpt>
      <trkpt lat="48.17289" lon="6.58309">
        <ele>442</ele>
        <time>2023-04-04T08:49:49.448Z</time>
      </trkpt>
      <trkpt lat="48.17322" lon="6.58316">
        <ele>441</ele>
        <time>2023-04-04T08:49:50.659Z</time>
      </trkpt>
      <trkpt lat="48.17346" lon="6.58309">
        <ele>441</ele>
        <time>2023-04-04T08:49:51.875Z</time>
      </trkpt>
      <trkpt lat="48.17359" lon="6.58308">
        <ele>441</ele>
        <time>2023-04-04T08:49:53.093Z</time>
      </trkpt>
      <trkpt lat="48.17375" lon="6.5831">
        <ele>441</ele>
        <time>2023-04-04T08:49:54.315Z</time>
      </trkpt>
      <trkpt lat="48.17402" lon="6.5831">
        <ele>441</ele>
        <time>2023-04-04T08:49:55.542Z</time>
      </trkpt>
      <trkpt lat="48.17407" lon="6.58311">
        <ele>441</ele>
        <time>2023-04-04T08:49:56.770Z</time>
      </trkpt>
      <trkpt lat="48.17422" lon="6.58316">
        <ele>441</ele>
        <time>2023-04-04T08:49:58.001Z</time>
      </trkpt>
      <trkpt lat="48.17429" lon="6.58319">
        <ele>441</ele>
        <time>2023-04-04T08:49:59.234Z</time>
      </trkpt>
      <trkpt lat="48.17435" lon="6.58319">
        <ele>441</ele>
        <time>2023-04-04T08:50:00.468Z</time>
      </trkpt>
      <trkpt lat="48.17447" lon="6.5832">
        <ele>440</ele>
        <time>2023-04-04T08:50:01.704Z</time>
      </trkpt>
      <trkpt lat="48.17449" lon="6.58322">
        <ele>440</ele>
        <time>2023-04-04T08:50:02.941Z</time>
      </trkpt>
      <trkpt lat="48.17453" lon="6.58324">
        <ele>440</ele>
        <time>2023-04-04T08:50:04.179Z</time>
      </trkpt>
      <trkpt lat="48.17464" lon="6.58338">
        <ele>440</ele>
        <time>2023-04-04T08:50:05.419Z</time>
      </trkpt>
      <trkpt lat="48.17489" lon="6.58372">
        <ele>440</ele>
        <time>2023-04-04T08:50:06.666Z</time>
      </trkpt>
      <trkpt lat="48.17497" lon="6.58383">
        <ele>441</ele>
        <time>2023-04-04T08:50:07.915Z</time>
      </trkpt>
      <trkpt lat="48.17499" lon="6.58386">
        <ele>440</ele>
        <time>2023-04-04T08:50:09.165Z</time>
      </trkpt>
      <trkpt lat="48.17521" lon="6.58414">
        <ele>441</ele>
        <time>2023-04-04T08:50:10.421Z</time>
      </trkpt>
      <trkpt lat="48.17554" lon="6.58446">
        <ele>440</ele>
        <time>2023-04-04T08:50:11.685Z</time>
      </trkpt>
      <trkpt lat="48.17579" lon="6.58472">
        <ele>440</ele>
        <time>2023-04-04T08:50:12.955Z</time>
      </trkpt>
      <trkpt lat="48.17582" lon="6.58476">
        <ele>440</ele>
        <time>2023-04-04T08:50:14.225Z</time>
      </trkpt>
      <trkpt lat="48.17606" lon="6.58505">
        <ele>440</ele>
        <time>2023-04-04T08:50:15.502Z</time>
      </trkpt>
      <trkpt lat="48.17627" lon="6.58524">
        <ele>440</ele>
        <time>2023-04-04T08:50:16.784Z</time>
      </trkpt>
      <trkpt lat="48.17647" lon="6.58544">
        <ele>440</ele>
        <time>2023-04-04T08:50:18.070Z</time>
      </trkpt>
      <trkpt lat="48.17659" lon="6.58566">
        <ele>440</ele>
        <time>2023-04-04T08:50:19.360Z</time>
      </trkpt>
      <trkpt lat="48.17674" lon="6.58591">
        <ele>440</ele>
        <time>2023-04-04T08:50:20.655Z</time>
      </trkpt>
      <trkpt lat="48.1769" lon="6.58621">
        <ele>440</ele>
        <time>2023-04-04T08:50:21.955Z</time>
      </trkpt>
      <trkpt lat="48.17692" lon="6.58626">
        <ele>439</ele>
        <time>2023-04-04T08:50:23.256Z</time>
      </trkpt>
      <trkpt lat="48.17705" lon="6.58646">
        <ele>439</ele>
        <time>2023-04-04T08:50:24.560Z</time>
      </trkpt>
      <trkpt lat="48.17714" lon="6.58659">
        <ele>439</ele>
        <time>2023-04-04T08:50:25.867Z</time>
      </trkpt>
      <trkpt lat="48.1772" lon="6.58668">
        <ele>438</ele>
        <time>2023-04-04T08:50:27.176Z</time>
      </trkpt>
      <trkpt lat="48.17736" lon="6.587">
        <ele>438</ele>
        <time>2023-04-04T08:50:28.490Z</time>
      </trkpt>
      <trkpt lat="48.17741" lon="6.58734">
        <ele>438</ele>
        <time>2023-04-04T08:50:29.809Z</time>
      </trkpt>
      <trkpt lat="48.17752" lon="6.58751">
        <ele>437</ele>
        <time>2023-04-04T08:50:31.131Z</time>
      </trkpt>
      <trkpt lat="48.17777" lon="6.58772">
        <ele>437</ele>
        <time>2023-04-04T08:50:32.458Z</time>
      </trkpt>
      <trkpt lat="48.17798" lon="6.5879">
        <ele>436</ele>
        <time>2023-04-04T08:50:33.790Z</time>
      </trkpt>
      <trkpt lat="48.17806" lon="6.588">
        <ele>435</ele>
        <time>2023-04-04T08:50:35.124Z</time>
      </trkpt>
      <trkpt lat="48.17815" lon="6.58812">
        <ele>435</ele>
        <time>2023-04-04T08:50:36.461Z</time>
      </trkpt>
      <trkpt lat="48.1783" lon="6.58815">
        <ele>434</ele>
        <time>2023-04-04T08:50:37.801Z</time>
      </trkpt>
      <trkpt lat="48.17845" lon="6.58816">
        <ele>433</ele>
        <time>2023-04-04T08:50:39.144Z</time>
      </trkpt>
      <trkpt lat="48.17867" lon="6.58816">
        <ele>433</ele>
        <time>2023-04-04T08:50:40.491Z</time>
      </trkpt>
      <trkpt lat="48.17896" lon="6.58817">
        <ele>432</ele>
        <time>2023-04-04T08:50:41.844Z</time>
      </trkpt>
      <trkpt lat="48.17922" lon="6.58818">
        <ele>431</ele>
        <time>2023-04-04T08:50:43.202Z</time>
      </trkpt>
      <trkpt lat="48.17943" lon="6.58818">
        <ele>430</ele>
        <time>2023-04-04T08:50:44.564Z</time>
      </trkpt>
      <trkpt lat="48.1795" lon="6.58819">
        <ele>430</ele>
        <time>2023-04-04T08:50:45.928Z</time>
      </trkpt>
      <trkpt lat="48.17965" lon="6.5882">
        <ele>429</ele>
        <time>2023-04-04T08:50:47.295Z</time>
      </trkpt>
      <trkpt lat="48.17994" lon="6.58822">
        <ele>428</ele>
        <time>2023-04-04T08:50:48.668Z</time>
      </trkpt>
      <trkpt lat="48.18017" lon="6.58824">
        <ele>427</ele>
        <time>2023-04-04T08:50:50.045Z</time>
      </trkpt>
      <trkpt lat="48.18033" lon="6.58825">
        <ele>427</ele>
        <time>2023-04-04T08:50:51.425Z</time>
      </trkpt>
      <trkpt lat="48.1805" lon="6.58826">
        <ele>426</ele>
        <time>2023-04-04T08:50:52.809Z</time>
      </trkpt>
      <trkpt lat="48.18058" lon="6.58827">
        <ele>425</ele>
        <time>2023-04-04T08:50:54.195Z</time>
      </trkpt>
      <trkpt lat="48.1809" lon="6.58825">
        <ele>425</ele>
        <time>2023-04-04T08:50:55.587Z</time>
      </trkpt>
      <trkpt lat="48.18097" lon="6.58824">
        <ele>425</ele>
        <time>2023-04-04T08:50:56.980Z</time>
      </trkpt>
      <trkpt lat="48.18104" lon="6.58822">
        <ele>424</ele>
        <time>2023-04-04T08:50:58.375Z</time>
      </trkpt>
      <trkpt lat="48.18116" lon="6.58815">
        <ele>424</ele>
        <time>2023-04-04T08:50:59.772Z</time>
      </trkpt>
      <trkpt lat="48.18121" lon="6.58811">
        <ele>424</ele>
        <time>2023-04-04T08:51:01.170Z</time>
      </trkpt>
      <trkpt lat="48.18137" lon="6.58795">
        <ele>424</ele>
        <time>2023-04-04T08:51:02.572Z</time>
      </trkpt>
      <trkpt lat="48.1816" lon="6.58776">
        <ele>424</ele>
        <time>2023-04-04T08:51:03.980Z</time>
      </trkpt>
      <trkpt lat="48.18194" lon="6.58745">
        <ele>424</ele>
        <time>2023-04-04T08:51:05.396Z</time>
      </trkpt>
      <trkpt lat="48.18198" lon="6.5874">
        <ele>424</ele>
        <time>2023-04-04T08:51:06.813Z</time>
      </trkpt>
      <trkpt lat="48.18207" lon="6.58734">
        <ele>424</ele>
        <time>2023-04-04T08:51:08.232Z</time>
      </trkpt>
      <trkpt lat="48.18212" lon="6.58734">
        <ele>424</ele>
        <time>2023-04-04T08:51:09.652Z</time>
      </trkpt>
      <trkpt lat="48.18217" lon="6.58737">
        <ele>425</ele>
        <time>2023-04-04T08:51:11.073Z</time>
      </trkpt>
      <trkpt lat="48.18231" lon="6.58748">
        <ele>425</ele>
        <time>2023-04-04T08:51:12.497Z</time>
      </trkpt>
      <trkpt lat="48.18256" lon="6.58767">
        <ele>426</ele>
        <time>2023-04-04T08:51:13.926Z</time>
      </trkpt>
      <trkpt lat="48.1827" lon="6.5878">
        <ele>426</ele>
        <time>2023-04-04T08:51:15.359Z</time>
      </trkpt>
      <trkpt lat="48.1828" lon="6.58792">
        <ele>427</ele>
        <time>2023-04-04T08:51:16.794Z</time>
      </trkpt>
      <trkpt lat="48.18289" lon="6.58802">
        <ele>428</ele>
        <time>2023-04-04T08:51:18.232Z</time>
      </trkpt>
      <trkpt lat="48.18294" lon="6.58807">
        <ele>429</ele>
        <time>2023-04-04T08:51:19.671Z</time>
      </trkpt>
      <trkpt lat="48.18307" lon="6.5882">
        <ele>429</ele>
        <time>2023-04-04T08:51:21.113Z</time>
      </trkpt>
      <trkpt lat="48.18315" lon="6.58829">
        <ele>430</ele>
        <time>2023-04-04T08:51:22.557Z</time>
      </trkpt>
      <trkpt lat="48.18327" lon="6.58842">
        <ele>431</ele>
        <time>2023-04-04T08:51:24.004Z</time>
      </trkpt>
      <trkpt lat="48.18347" lon="6.58862">
        <ele>432</ele>
        <time>2023-04-04T08:51:25.456Z</time>
      </trkpt>
      <trkpt lat="48.18359" lon="6.58872">
        <ele>433</ele>
        <time>2023-04-04T08:51:26.910Z</time>
      </trkpt>
      <trkpt lat="48.18364" lon="6.58875">
        <ele>434</ele>
        <time>2023-04-04T08:51:28.365Z</time>
      </trkpt>
      <trkpt lat="48.18381" lon="6.58883">
        <ele>436</ele>
        <time>2023-04-04T08:51:29.824Z</time>
      </trkpt>
      <trkpt lat="48.18393" lon="6.58879">
        <ele>437</ele>
        <time>2023-04-04T08:51:31.286Z</time>
      </trkpt>
      <trkpt lat="48.18399" lon="6.58874">
        <ele>438</ele>
        <time>2023-04-04T08:51:32.749Z</time>
      </trkpt>
      <trkpt lat="48.18405" lon="6.58875">
        <ele>439</ele>
        <time>2023-04-04T08:51:34.213Z</time>
      </trkpt>
      <trkpt lat="48.18416" lon="6.58875">
        <ele>440</ele>
        <time>2023-04-04T08:51:35.679Z</time>
      </trkpt>
      <trkpt lat="48.18421" lon="6.5888">
        <ele>441</ele>
        <time>2023-04-04T08:51:37.146Z</time>
      </trkpt>
      <trkpt lat="48.18431" lon="6.58887">
        <ele>442</ele>
        <time>2023-04-04T08:51:38.616Z</time>
      </trkpt>
      <trkpt lat="48.18445" lon="6.58899">
        <ele>442</ele>
        <time>2023-04-04T08:51:40.089Z</time>
      </trkpt>
      <trkpt lat="48.18447" lon="6.58901">
        <ele>443</ele>
        <time>2023-04-04T08:51:41.562Z</time>
      </trkpt>
      <trkpt lat="48.18459" lon="6.58916">
        <ele>444</ele>
        <time>2023-04-04T08:51:43.039Z</time>
      </trkpt>
      <trkpt lat="48.1847" lon="6.58929">
        <ele>445</ele>
        <time>2023-04-04T08:51:44.518Z</time>
      </trkpt>
      <trkpt lat="48.18472" lon="6.58933">
        <ele>445</ele>
        <time>2023-04-04T08:51:45.998Z</time>
      </trkpt>
      <trkpt lat="48.18477" lon="6.58943">
        <ele>446</ele>
        <time>2023-04-04T08:51:47.480Z</time>
      </trkpt>
      <trkpt lat="48.1849" lon="6.58962">
        <ele>447</ele>
        <time>2023-04-04T08:51:48.965Z</time>
      </trkpt>
      <trkpt lat="48.18492" lon="6.58966">
        <ele>447</ele>
        <time>2023-04-04T08:51:50.451Z</time>
      </trkpt>
      <trkpt lat="48.18495" lon="6.58969">
        <ele>448</ele>
        <time>2023-04-04T08:51:51.938Z</time>
      </trkpt>
      <trkpt lat="48.185" lon="6.58972">
        <ele>448</ele>
        <time>2023-04-04T08:51:53.426Z</time>
      </trkpt>
      <trkpt lat="48.18506" lon="6.58975">
        <ele>449</ele>
        <time>2023-04-04T08:51:54.915Z</time>
      </trkpt>
      <trkpt lat="48.18522" lon="6.58989">
        <ele>449</ele>
        <time>2023-04-04T08:51:56.408Z</time>
      </trkpt>
      <trkpt lat="48.18534" lon="6.58998">
        <ele>450</ele>
        <time>2023-04-04T08:51:57.903Z</time>
      </trkpt>
      <trkpt lat="48.18555" lon="6.59016">
        <ele>450</ele>
        <time>2023-04-04T08:51:59.403Z</time>
      </trkpt>
      <trkpt lat="48.1857" lon="6.59048">
        <ele>451</ele>
        <time>2023-04-04T08:52:00.909Z</time>
      </trkpt>
      <trkpt lat="48.18579" lon="6.59082">
        <ele>451</ele>
        <time>2023-04-04T08:52:02.419Z</time>
      </trkpt>
      <trkpt lat="48.18582" lon="6.59097">
        <ele>451</ele>
        <time>2023-04-04T08:52:03.932Z</time>
      </trkpt>
      <trkpt lat="48.18584" lon="6.5912">
        <ele>452</ele>
        <time>2023-04-04T08:52:05.448Z</time>
      </trkpt>
      <trkpt lat="48.18587" lon="6.59144">
        <ele>452</ele>
        <time>2023-04-04T08:52:06.967Z</time>
      </trkpt>
      <trkpt lat="48.18593" lon="6.59184">
        <ele>452</ele>
        <time>2023-04-04T08:52:08.491Z</time>
      </trkpt>
      <trkpt lat="48.18598" lon="6.592">
        <ele>453</ele>
        <time>2023-04-04T08:52:10.018Z</time>
      </trkpt>
      <trkpt lat="48.186" lon="6.59204">
        <ele>453</ele>
        <time>2023-04-04T08:52:11.545Z</time>
      </trkpt>
      <trkpt lat="48.18602" lon="6.59205">
        <ele>454</ele>
        <time>2023-04-04T08:52:13.073Z</time>
      </trkpt>
      <trkpt lat="48.18608" lon="6.59208">
        <ele>454</ele>
        <time>2023-04-04T08:52:14.602Z</time>
      </trkpt>
      <trkpt lat="48.18615" lon="6.5921">
        <ele>454</ele>
        <time>2023-04-04T08:52:16.133Z</time>
      </trkpt>
      <trkpt lat="48.18617" lon="6.59209">
        <ele>455</ele>
        <time>2023-04-04T08:52:17.664Z</time>
      </trkpt>
      <trkpt lat="48.18619" lon="6.59209">
        <ele>455</ele>
        <time>2023-04-04T08:52:19.195Z</time>
      </trkpt>
      <trkpt lat="48.18623" lon="6.59211">
        <ele>455</ele>
        <time>2023-04-04T08:52:20.727Z</time>
      </trkpt>
      <trkpt lat="48.1863" lon="6.59215">
        <ele>456</ele>
        <time>2023-04-04T08:52:22.261Z</time>
      </trkpt>
      <trkpt lat="48.18631" lon="6.59214">
        <ele>456</ele>
        <time>2023-04-04T08:52:23.795Z</time>
      </trkpt>
      <trkpt lat="48.18634" lon="6.59214">
        <ele>456</ele>
        <time>2023-04-04T08:52:25.330Z</time>
      </trkpt>
      <trkpt lat="48.18635" lon="6.59215">
        <ele>457</ele>
        <time>2023-04-04T08:52:26.865Z</time>
      </trkpt>
      <trkpt lat="48.18636" lon="6.59215">
        <ele>457</ele>
        <time>2023-04-04T08:52:28.400Z</time>
      </trkpt>
      <trkpt lat="48.1864" lon="6.59217">
        <ele>458</ele>
        <time>2023-04-04T08:52:29.936Z</time>
      </trkpt>
      <trkpt lat="48.18642" lon="6.59218">
        <ele>458</ele>
        <time>2023-04-04T08:52:31.472Z</time>
      </trkpt>
      <trkpt lat="48.18646" lon="6.59219">
        <ele>459</ele>
        <time>2023-04-04T08:52:33.009Z</time>
      </trkpt>
      <trkpt lat="48.18661" lon="6.59232">
        <ele>459</ele>
        <time>2023-04-04T08:52:34.550Z</time>
      </trkpt>
      <trkpt lat="48.18663" lon="6.59236">
        <ele>460</ele>
        <time>2023-04-04T08:52:36.091Z</time>
      </trkpt>
      <trkpt lat="48.18666" lon="6.59237">
        <ele>460</ele>
        <time>2023-04-04T08:52:37.633Z</time>
      </trkpt>
      <trkpt lat="48.18673" lon="6.59244">
        <ele>461</ele>
        <time>2023-04-04T08:52:39.176Z</time>
      </trkpt>
      <trkpt lat="48.18678" lon="6.59247">
        <ele>462</ele>
        <time>2023-04-04T08:52:40.721Z</time>
      </trkpt>
      <trkpt lat="48.18687" lon="6.59252">
        <ele>462</ele>
        <time>2023-04-04T08:52:42.267Z</time>
      </trkpt>
      <trkpt lat="48.18689" lon="6.59254">
        <ele>463</ele>
        <time>2023-04-04T08:52:43.814Z</time>
      </trkpt>
      <trkpt lat="48.18692" lon="6.59256">
        <ele>463</ele>
        <time>2023-04-04T08:52:45.362Z</time>
      </trkpt>
      <trkpt lat="48.18695" lon="6.59259">
        <ele>464</ele>
        <time>2023-04-04T08:52:46.910Z</time>
      </trkpt>
      <trkpt lat="48.18699" lon="6.59265">
        <ele>465</ele>
        <time>2023-04-04T08:52:48.459Z</time>
      </trkpt>
      <trkpt lat="48.18712" lon="6.59281">
        <ele>466</ele>
        <time>2023-04-04T08:52:50.012Z</time>
      </trkpt>
      <trkpt lat="48.18716" lon="6.59281">
        <ele>466</ele>
        <time>2023-04-04T08:52:51.566Z</time>
      </trkpt>
      <trkpt lat="48.18723" lon="6.59281">
        <ele>467</ele>
        <time>2023-04-04T08:52:53.121Z</time>
      </trkpt>
      <trkpt lat="48.18736" lon="6.59289">
        <ele>468</ele>
        <time>2023-04-04T08:52:54.679Z</time>
      </trkpt>
      <trkpt lat="48.18751" lon="6.59292">
        <ele>469</ele>
        <time>2023-04-04T08:52:56.240Z</time>
      </trkpt>
      <trkpt lat="48.18757" lon="6.59296">
        <ele>469</ele>
        <time>2023-04-04T08:52:57.802Z</time>
      </trkpt>
      <trkpt lat="48.18764" lon="6.593">
        <ele>470</ele>
        <time>2023-04-04T08:52:59.366Z</time>
      </trkpt>
      <trkpt lat="48.18768" lon="6.59304">
        <ele>471</ele>
        <time>2023-04-04T08:53:00.931Z</time>
      </trkpt>
      <trkpt lat="48.18769" lon="6.59305">
        <ele>472</ele>
        <time>2023-04-04T08:53:02.496Z</time>
      </trkpt>
      <trkpt lat="48.18773" lon="6.59308">
        <ele>472</ele>
        <time>2023-04-04T08:53:04.062Z</time>
      </trkpt>
      <trkpt lat="48.18779" lon="6.59317">
        <ele>473</ele>
        <time>2023-04-04T08:53:05.630Z</time>
      </trkpt>
      <trkpt lat="48.18781" lon="6.5932">
        <ele>474</ele>
        <time>2023-04-04T08:53:07.198Z</time>
      </trkpt>
      <trkpt lat="48.18787" lon="6.59327">
        <ele>475</ele>
        <time>2023-04-04T08:53:08.768Z</time>
      </trkpt>
      <trkpt lat="48.18797" lon="6.59342">
        <ele>475</ele>
        <time>2023-04-04T08:53:10.340Z</time>
      </trkpt>
      <trkpt lat="48.18807" lon="6.59351">
        <ele>476</ele>
        <time>2023-04-04T08:53:11.915Z</time>
      </trkpt>
      <trkpt lat="48.18814" lon="6.59361">
        <ele>477</ele>
        <time>2023-04-04T08:53:13.492Z</time>
      </trkpt>
      <trkpt lat="48.18816" lon="6.59362">
        <ele>477</ele>
        <time>2023-04-04T08:53:15.069Z</time>
      </trkpt>
      <trkpt lat="48.18822" lon="6.59369">
        <ele>478</ele>
        <time>2023-04-04T08:53:16.648Z</time>
      </trkpt>
      <trkpt lat="48.18831" lon="6.59373">
        <ele>479</ele>
        <time>2023-04-04T08:53:18.229Z</time>
      </trkpt>
      <trkpt lat="48.18835" lon="6.5938">
        <ele>479</ele>
        <time>2023-04-04T08:53:19.811Z</time>
      </trkpt>
      <trkpt lat="48.18839" lon="6.59383">
        <ele>480</ele>
        <time>2023-04-04T08:53:21.394Z</time>
      </trkpt>
      <trkpt lat="48.18841" lon="6.59384">
        <ele>480</ele>
        <time>2023-04-04T08:53:22.977Z</time>
      </trkpt>
      <trkpt lat="48.18847" lon="6.59389">
        <ele>481</ele>
        <time>2023-04-04T08:53:24.561Z</time>
      </trkpt>
      <trkpt lat="48.18854" lon="6.59387">
        <ele>481</ele>
        <time>2023-04-04T08:53:26.147Z</time>
      </trkpt>
      <trkpt lat="48.18856" lon="6.59389">
        <ele>482</ele>
        <time>2023-04-04T08:53:27.733Z</time>
      </trkpt>
      <trkpt lat="48.1886" lon="6.59396">
        <ele>482</ele>
        <time>2023-04-04T08:53:29.321Z</time>
      </trkpt>
      <trkpt lat="48.18862" lon="6.59399">
        <ele>483</ele>
        <time>2023-04-04T08:53:30.909Z</time>
      </trkpt>
      <trkpt lat="48.18864" lon="6.59404">
        <ele>483</ele>
        <time>2023-04-04T08:53:32.498Z</time>
      </trkpt>
      <trkpt lat="48.18865" lon="6.59408">
        <ele>484</ele>
        <time>2023-04-04T08:53:34.088Z</time>
      </trkpt>
      <trkpt lat="48.18869" lon="6.59421">
        <ele>484</ele>
        <time>2023-04-04T08:53:35.679Z</time>
      </trkpt>
      <trkpt lat="48.1887" lon="6.59422">
        <ele>484</ele>
        <time>2023-04-04T08:53:37.271Z</time>
      </trkpt>
      <trkpt lat="48.1887" lon="6.59427">
        <ele>485</ele>
        <time>2023-04-04T08:53:38.863Z</time>
      </trkpt>
      <trkpt lat="48.18873" lon="6.59433">
        <ele>485</ele>
        <time>2023-04-04T08:53:40.456Z</time>
      </trkpt>
      <trkpt lat="48.18874" lon="6.59436">
        <ele>486</ele>
        <time>2023-04-04T08:53:42.050Z</time>
      </trkpt>
      <trkpt lat="48.18882" lon="6.59453">
        <ele>486</ele>
        <time>2023-04-04T08:53:43.647Z</time>
      </trkpt>
      <trkpt lat="48.18886" lon="6.59461">
        <ele>486</ele>
        <time>2023-04-04T08:53:45.245Z</time>
      </trkpt>
      <trkpt lat="48.18885" lon="6.59464">
        <ele>487</ele>
        <time>2023-04-04T08:53:46.843Z</time>
      </trkpt>
      <trkpt lat="48.18887" lon="6.59468">
        <ele>487</ele>
        <time>2023-04-04T08:53:48.442Z</time>
      </trkpt>
      <trkpt lat="48.18888" lon="6.59472">
        <ele>487</ele>
        <time>2023-04-04T08:53:50.042Z</time>
      </trkpt>
      <trkpt lat="48.18888" lon="6.59474">
        <ele>488</ele>
        <time>2023-04-04T08:53:51.642Z</time>
      </trkpt>
      <trkpt lat="48.18887" lon="6.59477">
        <ele>488</ele>
        <time>2023-04-04T08:53:53.242Z</time>
      </trkpt>
      <trkpt lat="48.18891" lon="6.59485">
        <ele>488</ele>
        <time>2023-04-04T08:53:54.844Z</time>
      </trkpt>
      <trkpt lat="48.18898" lon="6.59503">
        <ele>489</ele>
        <time>2023-04-04T08:53:56.448Z</time>
      </trkpt>
      <trkpt lat="48.18904" lon="6.5951">
        <ele>489</ele>
        <time>2023-04-04T08:53:58.054Z</time>
      </trkpt>
      <trkpt lat="48.18907" lon="6.59517">
        <ele>489</ele>
        <time>2023-04-04T08:53:59.661Z</time>
      </trkpt>
      <trkpt lat="48.18907" lon="6.59521">
        <ele>489</ele>
        <time>2023-04-04T08:54:01.269Z</time>
      </trkpt>
      <trkpt lat="48.18905" lon="6.59533">
        <ele>490</ele>
        <time>2023-04-04T08:54:02.878Z</time>
      </trkpt>
      <trkpt lat="48.18906" lon="6.59537">
        <ele>490</ele>
        <time>2023-04-04T08:54:04.488Z</time>
      </trkpt>
      <trkpt lat="48.18912" lon="6.59551">
        <ele>490</ele>
        <time>2023-04-04T08:54:06.100Z</time>
      </trkpt>
      <trkpt lat="48.18909" lon="6.59557">
        <ele>490</ele>
        <time>2023-04-04T08:54:07.713Z</time>
      </trkpt>
      <trkpt lat="48.1891" lon="6.59565">
        <ele>490</ele>
        <time>2023-04-04T08:54:09.327Z</time>
      </trkpt>
      <trkpt lat="48.18908" lon="6.59569">
        <ele>490</ele>
        <time>2023-04-04T08:54:10.942Z</time>
      </trkpt>
      <trkpt lat="48.18919" lon="6.5959">
        <ele>491</ele>
        <time>2023-04-04T08:54:12.560Z</time>
      </trkpt>
      <trkpt lat="48.18923" lon="6.59599">
        <ele>491</ele>
        <time>2023-04-04T08:54:14.180Z</time>
      </trkpt>
      <trkpt lat="48.18925" lon="6.59609">
        <ele>491</ele>
        <time>2023-04-04T08:54:15.801Z</time>
      </trkpt>
      <trkpt lat="48.18923" lon="6.59615">
        <ele>491</ele>
        <time>2023-04-04T08:54:17.423Z</time>
      </trkpt>
      <trkpt lat="48.18924" lon="6.59626">
        <ele>491</ele>
        <time>2023-04-04T08:54:19.047Z</time>
      </trkpt>
      <trkpt lat="48.18931" lon="6.59659">
        <ele>491</ele>
        <time>2023-04-04T08:54:20.675Z</time>
      </trkpt>
      <trkpt lat="48.18942" lon="6.59686">
        <ele>492</ele>
        <time>2023-04-04T08:54:22.307Z</time>
      </trkpt>
      <trkpt lat="48.18956" lon="6.59724">
        <ele>492</ele>
        <time>2023-04-04T08:54:23.945Z</time>
      </trkpt>
      <trkpt lat="48.18959" lon="6.59756">
        <ele>492</ele>
        <time>2023-04-04T08:54:25.588Z</time>
      </trkpt>
      <trkpt lat="48.18963" lon="6.59772">
        <ele>492</ele>
        <time>2023-04-04T08:54:27.233Z</time>
      </trkpt>
      <trkpt lat="48.18967" lon="6.59788">
        <ele>492</ele>
        <time>2023-04-04T08:54:28.880Z</time>
      </trkpt>
      <trkpt lat="48.1898" lon="6.59837">
        <ele>492</ele>
        <time>2023-04-04T08:54:30.534Z</time>
      </trkpt>
      <trkpt lat="48.18982" lon="6.59845">
        <ele>492</ele>
        <time>2023-04-04T08:54:32.189Z</time>
      </trkpt>
      <trkpt lat="48.18986" lon="6.5986">
        <ele>492</ele>
        <time>2023-04-04T08:54:33.847Z</time>
      </trkpt>
      <trkpt lat="48.1899" lon="6.59885">
        <ele>492</ele>
        <time>2023-04-04T08:54:35.508Z</time>
      </trkpt>
      <trkpt lat="48.18989" lon="6.59899">
        <ele>492</ele>
        <time>2023-04-04T08:54:37.171Z</time>
      </trkpt>
      <trkpt lat="48.1899" lon="6.59903">
        <ele>492</ele>
        <time>2023-04-04T08:54:38.834Z</time>
      </trkpt>
      <trkpt lat="48.18993" lon="6.59907">
        <ele>493</ele>
        <time>2023-04-04T08:54:40.498Z</time>
      </trkpt>
      <trkpt lat="48.19003" lon="6.59918">
        <ele>493</ele>
        <time>2023-04-04T08:54:42.165Z</time>
      </trkpt>
      <trkpt lat="48.19005" lon="6.59925">
        <ele>493</ele>
        <time>2023-04-04T08:54:43.833Z</time>
      </trkpt>
      <trkpt lat="48.19006" lon="6.59929">
        <ele>493</ele>
        <time>2023-04-04T08:54:45.501Z</time>
      </trkpt>
      <trkpt lat="48.19007" lon="6.59935">
        <ele>493</ele>
        <time>2023-04-04T08:54:47.170Z</time>
      </trkpt>
      <trkpt lat="48.19008" lon="6.59938">
        <ele>493</ele>
        <time>2023-04-04T08:54:48.840Z</time>
      </trkpt>
      <trkpt lat="48.19008" lon="6.5994">
        <ele>494</ele>
        <time>2023-04-04T08:54:50.510Z</time>
      </trkpt>
      <trkpt lat="48.19008" lon="6.59943">
        <ele>494</ele>
        <time>2023-04-04T08:54:52.180Z</time>
      </trkpt>
      <trkpt lat="48.19009" lon="6.59947">
        <ele>494</ele>
        <time>2023-04-04T08:54:53.851Z</time>
      </trkpt>
      <trkpt lat="48.19011" lon="6.59953">
        <ele>494</ele>
        <time>2023-04-04T08:54:55.523Z</time>
      </trkpt>
      <trkpt lat="48.1902" lon="6.59971">
        <ele>495</ele>
        <time>2023-04-04T08:54:57.198Z</time>
      </trkpt>
      <trkpt lat="48.19018" lon="6.59974">
        <ele>495</ele>
        <time>2023-04-04T08:54:58.873Z</time>
      </trkpt>
      <trkpt lat="48.19018" lon="6.59986">
        <ele>495</ele>
        <time>2023-04-04T08:55:00.550Z</time>
      </trkpt>
      <trkpt lat="48.19019" lon="6.59999">
        <ele>496</ele>
        <time>2023-04-04T08:55:02.229Z</time>
      </trkpt>
      <trkpt lat="48.19023" lon="6.60009">
        <ele>496</ele>
        <time>2023-04-04T08:55:03.909Z</time>
      </trkpt>
      <trkpt lat="48.19024" lon="6.60011">
        <ele>496</ele>
        <time>2023-04-04T08:55:05.590Z</time>
      </trkpt>
      <trkpt lat="48.1903" lon="6.60028">
        <ele>497</ele>
        <time>2023-04-04T08:55:07.273Z</time>
      </trkpt>
      <trkpt lat="48.1903" lon="6.60031">
        <ele>497</ele>
        <time>2023-04-04T08:55:08.957Z</time>
      </trkpt>
      <trkpt lat="48.1903" lon="6.60035">
        <ele>498</ele>
        <time>2023-04-04T08:55:10.641Z</time>
      </trkpt>
      <trkpt lat="48.19031" lon="6.60042">
        <ele>498</ele>
        <time>2023-04-04T08:55:12.326Z</time>
      </trkpt>
      <trkpt lat="48.19031" lon="6.60043">
        <ele>498</ele>
        <time>2023-04-04T08:55:14.011Z</time>
      </trkpt>
      <trkpt lat="48.19033" lon="6.60045">
        <ele>499</ele>
        <time>2023-04-04T08:55:15.697Z</time>
      </trkpt>
      <trkpt lat="48.19036" lon="6.6005">
        <ele>499</ele>
        <time>2023-04-04T08:55:17.384Z</time>
      </trkpt>
      <trkpt lat="48.19037" lon="6.60056">
        <ele>500</ele>
        <time>2023-04-04T08:55:19.071Z</time>
      </trkpt>
      <trkpt lat="48.19047" lon="6.60081">
        <ele>500</ele>
        <time>2023-04-04T08:55:20.762Z</time>
      </trkpt>
      <trkpt lat="48.1905" lon="6.60092">
        <ele>501</ele>
        <time>2023-04-04T08:55:22.455Z</time>
      </trkpt>
      <trkpt lat="48.19051" lon="6.60099">
        <ele>501</ele>
        <time>2023-04-04T08:55:24.149Z</time>
      </trkpt>
      <trkpt lat="48.19058" lon="6.60118">
        <ele>502</ele>
        <time>2023-04-04T08:55:25.846Z</time>
      </trkpt>
      <trkpt lat="48.19066" lon="6.60141">
        <ele>502</ele>
        <time>2023-04-04T08:55:27.546Z</time>
      </trkpt>
      <trkpt lat="48.19069" lon="6.60146">
        <ele>503</ele>
        <time>2023-04-04T08:55:29.247Z</time>
      </trkpt>
      <trkpt lat="48.19073" lon="6.60165">
        <ele>503</ele>
        <time>2023-04-04T08:55:30.951Z</time>
      </trkpt>
      <trkpt lat="48.1908" lon="6.60193">
        <ele>504</ele>
        <time>2023-04-04T08:55:32.659Z</time>
      </trkpt>
      <trkpt lat="48.1908" lon="6.60198">
        <ele>504</ele>
        <time>2023-04-04T08:55:34.367Z</time>
      </trkpt>
      <trkpt lat="48.19082" lon="6.60208">
        <ele>505</ele>
        <time>2023-04-04T08:55:36.077Z</time>
      </trkpt>
      <trkpt lat="48.19083" lon="6.60232">
        <ele>505</ele>
        <time>2023-04-04T08:55:37.790Z</time>
      </trkpt>
      <trkpt lat="48.19064" lon="6.60258">
        <ele>506</ele>
        <time>2023-04-04T08:55:39.508Z</time>
      </trkpt>
      <trkpt lat="48.19048" lon="6.6028">
        <ele>506</ele>
        <time>2023-04-04T08:55:41.231Z</time>
      </trkpt>
      <trkpt lat="48.19032" lon="6.60301">
        <ele>507</ele>
        <time>2023-04-04T08:55:42.958Z</time>
      </trkpt>
      <trkpt lat="48.19013" lon="6.60329">
        <ele>507</ele>
        <time>2023-04-04T08:55:44.690Z</time>
      </trkpt>
      <trkpt lat="48.19001" lon="6.60348">
        <ele>508</ele>
        <time>2023-04-04T08:55:46.426Z</time>
      </trkpt>
      <trkpt lat="48.18983" lon="6.60371">
        <ele>508</ele>
        <time>2023-04-04T08:55:48.166Z</time>
      </trkpt>
      <trkpt lat="48.18967" lon="6.6039">
        <ele>509</ele>
        <time>2023-04-04T08:55:49.910Z</time>
      </trkpt>
      <trkpt lat="48.18956" lon="6.60414">
        <ele>509</ele>
        <time>2023-04-04T08:55:51.658Z</time>
      </trkpt>
      <trkpt lat="48.18942" lon="6.60431">
        <ele>510</ele>
        <time>2023-04-04T08:55:53.410Z</time>
      </trkpt>
      <trkpt lat="48.18937" lon="6.60442">
        <ele>510</ele>
        <time>2023-04-04T08:55:55.164Z</time>
      </trkpt>
      <trkpt lat="48.18935" lon="6.60446">
        <ele>511</ele>
        <time>2023-04-04T08:55:56.918Z</time>
      </trkpt>
      <trkpt lat="48.18925" lon="6.60467">
        <ele>511</ele>
        <time>2023-04-04T08:55:58.676Z</time>
      </trkpt>
      <trkpt lat="48.1892" lon="6.6049">
        <ele>512</ele>
        <time>2023-04-04T08:56:00.437Z</time>
      </trkpt>
      <trkpt lat="48.1892" lon="6.60494">
        <ele>512</ele>
        <time>2023-04-04T08:56:02.199Z</time>
      </trkpt>
      <trkpt lat="48.18923" lon="6.60502">
        <ele>513</ele>
        <time>2023-04-04T08:56:03.962Z</time>
      </trkpt>
      <trkpt lat="48.18928" lon="6.60526">
        <ele>513</ele>
        <time>2023-04-04T08:56:05.728Z</time>
      </trkpt>
      <trkpt lat="48.1893" lon="6.60538">
        <ele>514</ele>
        <time>2023-04-04T08:56:07.496Z</time>
      </trkpt>
      <trkpt lat="48.18935" lon="6.60562">
        <ele>514</ele>
        <time>2023-04-04T08:56:09.267Z</time>
      </trkpt>
      <trkpt lat="48.18945" lon="6.60593">
        <ele>515</ele>
        <time>2023-04-04T08:56:11.043Z</time>
      </trkpt>
      <trkpt lat="48.18945" lon="6.60618">
        <ele>515</ele>
        <time>2023-04-04T08:56:12.822Z</time>
      </trkpt>
      <trkpt lat="48.18942" lon="6.60657">
        <ele>516</ele>
        <time>2023-04-04T08:56:14.606Z</time>
      </trkpt>
      <trkpt lat="48.18935" lon="6.60672">
        <ele>516</ele>
        <time>2023-04-04T08:56:16.393Z</time>
      </trkpt>
      <trkpt lat="48.18927" lon="6.60701">
        <ele>517</ele>
        <time>2023-04-04T08:56:18.184Z</time>
      </trkpt>
      <trkpt lat="48.18916" lon="6.60734">
        <ele>518</ele>
        <time>2023-04-04T08:56:19.980Z</time>
      </trkpt>
      <trkpt lat="48.18907" lon="6.6077">
        <ele>518</ele>
        <time>2023-04-04T08:56:21.781Z</time>
      </trkpt>
      <trkpt lat="48.18905" lon="6.60804">
        <ele>519</ele>
        <time>2023-04-04T08:56:23.587Z</time>
      </trkpt>
      <trkpt lat="48.189" lon="6.60818">
        <ele>520</ele>
        <time>2023-04-04T08:56:25.395Z</time>
      </trkpt>
      <trkpt lat="48.18899" lon="6.60824">
        <ele>520</ele>
        <time>2023-04-04T08:56:27.204Z</time>
      </trkpt>
      <trkpt lat="48.18888" lon="6.60859">
        <ele>521</ele>
        <time>2023-04-04T08:56:29.018Z</time>
      </trkpt>
      <trkpt lat="48.18883" lon="6.60881">
        <ele>522</ele>
        <time>2023-04-04T08:56:30.835Z</time>
      </trkpt>
      <trkpt lat="48.18878" lon="6.60906">
        <ele>522</ele>
        <time>2023-04-04T08:56:32.655Z</time>
      </trkpt>
      <trkpt lat="48.18866" lon="6.60934">
        <ele>523</ele>
        <time>2023-04-04T08:56:34.480Z</time>
      </trkpt>
      <trkpt lat="48.18859" lon="6.60961">
        <ele>524</ele>
        <time>2023-04-04T08:56:36.309Z</time>
      </trkpt>
      <trkpt lat="48.18853" lon="6.6099">
        <ele>525</ele>
        <time>2023-04-04T08:56:38.142Z</time>
      </trkpt>
      <trkpt lat="48.18851" lon="6.61017">
        <ele>525</ele>
        <time>2023-04-04T08:56:39.979Z</time>
      </trkpt>
      <trkpt lat="48.18845" lon="6.6103">
        <ele>526</ele>
        <time>2023-04-04T08:56:41.818Z</time>
      </trkpt>
      <trkpt lat="48.18831" lon="6.61042">
        <ele>527</ele>
        <time>2023-04-04T08:56:43.660Z</time>
      </trkpt>
      <trkpt lat="48.18825" lon="6.61052">
        <ele>527</ele>
        <time>2023-04-04T08:56:45.504Z</time>
      </trkpt>
      <trkpt lat="48.18814" lon="6.6106">
        <ele>528</ele>
        <time>2023-04-04T08:56:47.350Z</time>
      </trkpt>
      <trkpt lat="48.18805" lon="6.61067">
        <ele>528</ele>
        <time>2023-04-04T08:56:49.198Z</time>
      </trkpt>
      <trkpt lat="48.18805" lon="6.61068">
        <ele>529</ele>
        <time>2023-04-04T08:56:51.046Z</time>
      </trkpt>
      <trkpt lat="48.18801" lon="6.61068">
        <ele>529</ele>
        <time>2023-04-04T08:56:52.895Z</time>
      </trkpt>
      <trkpt lat="48.18791" lon="6.61064">
        <ele>530</ele>
        <time>2023-04-04T08:56:54.746Z</time>
      </trkpt>
      <trkpt lat="48.18775" lon="6.61064">
        <ele>530</ele>
        <time>2023-04-04T08:56:56.600Z</time>
      </trkpt>
      <trkpt lat="48.18753" lon="6.61069">
        <ele>530</ele>
        <time>2023-04-04T08:56:58.459Z</time>
      </trkpt>
      <trkpt lat="48.18737" lon="6.6107">
        <ele>530</ele>
        <time>2023-04-04T08:57:00.321Z</time>
      </trkpt>
      <trkpt lat="48.18729" lon="6.61069">
        <ele>531</ele>
        <time>2023-04-04T08:57:02.185Z</time>
      </trkpt>
      <trkpt lat="48.18723" lon="6.61067">
        <ele>531</ele>
        <time>2023-04-04T08:57:04.050Z</time>
      </trkpt>
      <trkpt lat="48.1871" lon="6.6107">
        <ele>531</ele>
        <time>2023-04-04T08:57:05.917Z</time>
      </trkpt>
      <trkpt lat="48.18709" lon="6.61069">
        <ele>530</ele>
        <time>2023-04-04T08:57:07.785Z</time>
      </trkpt>
      <trkpt lat="48.18694" lon="6.61069">
        <ele>530</ele>
        <time>2023-04-04T08:57:09.656Z</time>
      </trkpt>
      <trkpt lat="48.18678" lon="6.61076">
        <ele>530</ele>
        <time>2023-04-04T08:57:11.530Z</time>
      </trkpt>
      <trkpt lat="48.1867" lon="6.61077">
        <ele>530</ele>
        <time>2023-04-04T08:57:13.406Z</time>
      </trkpt>
      <trkpt lat="48.18667" lon="6.61081">
        <ele>529</ele>
        <time>2023-04-04T08:57:15.282Z</time>
      </trkpt>
      <trkpt lat="48.18647" lon="6.61091">
        <ele>528</ele>
        <time>2023-04-04T08:57:17.163Z</time>
      </trkpt>
      <trkpt lat="48.1863" lon="6.61091">
        <ele>528</ele>
        <time>2023-04-04T08:57:19.047Z</time>
      </trkpt>
      <trkpt lat="48.18622" lon="6.61067">
        <ele>527</ele>
        <time>2023-04-04T08:57:20.935Z</time>
      </trkpt>
      <trkpt lat="48.18614" lon="6.61046">
        <ele>526</ele>
        <time>2023-04-04T08:57:22.826Z</time>
      </trkpt>
      <trkpt lat="48.18607" lon="6.61025">
        <ele>525</ele>
        <time>2023-04-04T08:57:24.720Z</time>
      </trkpt>
      <trkpt lat="48.18606" lon="6.61015">
        <ele>524</ele>
        <time>2023-04-04T08:57:26.615Z</time>
      </trkpt>
      <trkpt lat="48.18604" lon="6.60999">
        <ele>523</ele>
        <time>2023-04-04T08:57:28.513Z</time>
      </trkpt>
      <trkpt lat="48.18598" lon="6.60983">
        <ele>522</ele>
        <time>2023-04-04T08:57:30.413Z</time>
      </trkpt>
      <trkpt lat="48.18593" lon="6.60973">
        <ele>521</ele>
        <time>2023-04-04T08:57:32.315Z</time>
      </trkpt>
      <trkpt lat="48.1858" lon="6.60939">
        <ele>519</ele>
        <time>2023-04-04T08:57:34.222Z</time>
      </trkpt>
      <trkpt lat="48.18575" lon="6.60924">
        <ele>518</ele>
        <time>2023-04-04T08:57:36.131Z</time>
      </trkpt>
      <trkpt lat="48.1857" lon="6.60906">
        <ele>517</ele>
        <time>2023-04-04T08:57:38.043Z</time>
      </trkpt>
      <trkpt lat="48.18559" lon="6.60876">
        <ele>515</ele>
        <time>2023-04-04T08:57:39.959Z</time>
      </trkpt>
      <trkpt lat="48.18556" lon="6.60868">
        <ele>513</ele>
        <time>2023-04-04T08:57:41.877Z</time>
      </trkpt>
      <trkpt lat="48.18543" lon="6.60837">
        <ele>512</ele>
        <time>2023-04-04T08:57:43.800Z</time>
      </trkpt>
      <trkpt lat="48.18526" lon="6.60808">
        <ele>510</ele>
        <time>2023-04-04T08:57:45.728Z</time>
      </trkpt>
      <trkpt lat="48.1852" lon="6.60801">
        <ele>508</ele>
        <time>2023-04-04T08:57:47.657Z</time>
      </trkpt>
      <trkpt lat="48.18491" lon="6.60773">
        <ele>507</ele>
        <time>2023-04-04T08:57:49.593Z</time>
      </trkpt>
      <trkpt lat="48.18474" lon="6.60758">
        <ele>505</ele>
        <time>2023-04-04T08:57:51.533Z</time>
      </trkpt>
      <trkpt lat="48.18454" lon="6.60746">
        <ele>503</ele>
        <time>2023-04-04T08:57:53.477Z</time>
      </trkpt>
      <trkpt lat="48.18442" lon="6.60735">
        <ele>502</ele>
        <time>2023-04-04T08:57:55.424Z</time>
      </trkpt>
      <trkpt lat="48.18436" lon="6.60729">
        <ele>500</ele>
        <time>2023-04-04T08:57:57.373Z</time>
      </trkpt>
      <trkpt lat="48.18424" lon="6.60717">
        <ele>498</ele>
        <time>2023-04-04T08:57:59.325Z</time>
      </trkpt>
      <trkpt lat="48.18417" lon="6.6071">
        <ele>497</ele>
        <time>2023-04-04T08:58:01.278Z</time>
      </trkpt>
      <trkpt lat="48.18403" lon="6.60698">
        <ele>495</ele>
        <time>2023-04-04T08:58:03.234Z</time>
      </trkpt>
      <trkpt lat="48.18395" lon="6.60692">
        <ele>493</ele>
        <time>2023-04-04T08:58:05.192Z</time>
      </trkpt>
      <trkpt lat="48.18388" lon="6.60687">
        <ele>492</ele>
        <time>2023-04-04T08:58:07.152Z</time>
      </trkpt>
      <trkpt lat="48.18372" lon="6.60677">
        <ele>490</ele>
        <time>2023-04-04T08:58:09.115Z</time>
      </trkpt>
      <trkpt lat="48.18355" lon="6.60667">
        <ele>489</ele>
        <time>2023-04-04T08:58:11.082Z</time>
      </trkpt>
      <trkpt lat="48.1834" lon="6.6066">
        <ele>487</ele>
        <time>2023-04-04T08:58:13.052Z</time>
      </trkpt>
      <trkpt lat="48.1831" lon="6.60656">
        <ele>486</ele>
        <time>2023-04-04T08:58:15.028Z</time>
      </trkpt>
      <trkpt lat="48.18293" lon="6.60659">
        <ele>484</ele>
        <time>2023-04-04T08:58:17.008Z</time>
      </trkpt>
      <trkpt lat="48.18288" lon="6.60662">
        <ele>483</ele>
        <time>2023-04-04T08:58:18.989Z</time>
      </trkpt>
      <trkpt lat="48.18275" lon="6.60671">
        <ele>482</ele>
        <time>2023-04-04T08:58:20.972Z</time>
      </trkpt>
      <trkpt lat="48.18262" lon="6.60681">
        <ele>481</ele>
        <time>2023-04-04T08:58:22.958Z</time>
      </trkpt>
      <trkpt lat="48.18255" lon="6.60687">
        <ele>479</ele>
        <time>2023-04-04T08:58:24.946Z</time>
      </trkpt>
      <trkpt lat="48.18241" lon="6.60696">
        <ele>478</ele>
        <time>2023-04-04T08:58:26.937Z</time>
      </trkpt>
      <trkpt lat="48.18235" lon="6.607">
        <ele>477</ele>
        <time>2023-04-04T08:58:28.929Z</time>
      </trkpt>
      <trkpt lat="48.18223" lon="6.60706">
        <ele>476</ele>
        <time>2023-04-04T08:58:30.924Z</time>
      </trkpt>
      <trkpt lat="48.18212" lon="6.60709">
        <ele>475</ele>
        <time>2023-04-04T08:58:32.921Z</time>
      </trkpt>
      <trkpt lat="48.18206" lon="6.60708">
        <ele>474</ele>
        <time>2023-04-04T08:58:34.919Z</time>
      </trkpt>
      <trkpt lat="48.18189" lon="6.607">
        <ele>473</ele>
        <time>2023-04-04T08:58:36.921Z</time>
      </trkpt>
      <trkpt lat="48.18182" lon="6.60695">
        <ele>472</ele>
        <time>2023-04-04T08:58:38.924Z</time>
      </trkpt>
      <trkpt lat="48.1817" lon="6.60683">
        <ele>471</ele>
        <time>2023-04-04T08:58:40.930Z</time>
      </trkpt>
      <trkpt lat="48.18165" lon="6.60677">
        <ele>470</ele>
        <time>2023-04-04T08:58:42.938Z</time>
      </trkpt>
      <trkpt lat="48.18138" lon="6.60649">
        <ele>469</ele>
        <time>2023-04-04T08:58:44.952Z</time>
      </trkpt>
      <trkpt lat="48.18134" lon="6.60646">
        <ele>468</ele>
        <time>2023-04-04T08:58:46.967Z</time>
      </trkpt>
      <trkpt lat="48.18124" lon="6.60639">
        <ele>467</ele>
        <time>2023-04-04T08:58:48.984Z</time>
      </trkpt>
      <trkpt lat="48.18117" lon="6.60635">
        <ele>466</ele>
        <time>2023-04-04T08:58:51.003Z</time>
      </trkpt>
      <trkpt lat="48.18107" lon="6.60629">
        <ele>465</ele>
        <time>2023-04-04T08:58:53.024Z</time>
      </trkpt>
      <trkpt lat="48.18103" lon="6.60626">
        <ele>464</ele>
        <time>2023-04-04T08:58:55.046Z</time>
      </trkpt>
      <trkpt lat="48.18086" lon="6.60623">
        <ele>463</ele>
        <time>2023-04-04T08:58:57.071Z</time>
      </trkpt>
      <trkpt lat="48.18079" lon="6.6062">
        <ele>463</ele>
        <time>2023-04-04T08:58:59.098Z</time>
      </trkpt>
      <trkpt lat="48.1807" lon="6.60618">
        <ele>462</ele>
        <time>2023-04-04T08:59:01.127Z</time>
      </trkpt>
      <trkpt lat="48.18039" lon="6.60605">
        <ele>461</ele>
        <time>2023-04-04T08:59:03.162Z</time>
      </trkpt>
      <trkpt lat="48.18035" lon="6.60602">
        <ele>460</ele>
        <time>2023-04-04T08:59:05.198Z</time>
      </trkpt>
      <trkpt lat="48.18025" lon="6.60598">
        <ele>459</ele>
        <time>2023-04-04T08:59:07.236Z</time>
      </trkpt>
      <trkpt lat="48.18002" lon="6.60582">
        <ele>458</ele>
        <time>2023-04-04T08:59:09.279Z</time>
      </trkpt>
      <trkpt lat="48.17972" lon="6.60575">
        <ele>457</ele>
        <time>2023-04-04T08:59:11.328Z</time>
      </trkpt>
      <trkpt lat="48.1796" lon="6.60568">
        <ele>456</ele>
        <time>2023-04-04T08:59:13.380Z</time>
      </trkpt>
      <trkpt lat="48.17947" lon="6.60553">
        <ele>455</ele>
        <time>2023-04-04T08:59:15.435Z</time>
      </trkpt>
      <trkpt lat="48.17944" lon="6.60548">
        <ele>454</ele>
        <time>2023-04-04T08:59:17.491Z</time>
      </trkpt>
      <trkpt lat="48.17928" lon="6.60516">
        <ele>454</ele>
        <time>2023-04-04T08:59:19.552Z</time>
      </trkpt>
      <trkpt lat="48.17901" lon="6.60482">
        <ele>453</ele>
        <time>2023-04-04T08:59:21.620Z</time>
      </trkpt>
      <trkpt lat="48.17896" lon="6.60474">
        <ele>452</ele>
        <time>2023-04-04T08:59:23.690Z</time>
      </trkpt>
      <trkpt lat="48.17893" lon="6.60464">
        <ele>451</ele>
        <time>2023-04-04T08:59:25.761Z</time>
      </trkpt>
      <trkpt lat="48.1789" lon="6.60446">
        <ele>451</ele>
        <time>2023-04-04T08:59:27.835Z</time>
      </trkpt>
      <trkpt lat="48.17887" lon="6.60437">
        <ele>450</ele>
        <time>2023-04-04T08:59:29.910Z</time>
      </trkpt>
      <trkpt lat="48.17879" lon="6.60411">
        <ele>449</ele>
        <time>2023-04-04T08:59:31.989Z</time>
      </trkpt>
      <trkpt lat="48.17872" lon="6.60397">
        <ele>448</ele>
        <time>2023-04-04T08:59:34.070Z</time>
      </trkpt>
      <trkpt lat="48.17865" lon="6.60378">
        <ele>448</ele>
        <time>2023-04-04T08:59:36.154Z</time>
      </trkpt>
      <trkpt lat="48.17859" lon="6.60353">
        <ele>447</ele>
        <time>2023-04-04T08:59:38.242Z</time>
      </trkpt>
      <trkpt lat="48.17853" lon="6.60335">
        <ele>446</ele>
        <time>2023-04-04T08:59:40.332Z</time>
      </trkpt>
      <trkpt lat="48.17848" lon="6.60318">
        <ele>446</ele>
        <time>2023-04-04T08:59:42.425Z</time>
      </trkpt>
      <trkpt lat="48.17838" lon="6.60285">
        <ele>445</ele>
        <time>2023-04-04T08:59:44.523Z</time>
      </trkpt>
      <trkpt lat="48.17828" lon="6.60256">
        <ele>445</ele>
        <time>2023-04-04T08:59:46.625Z</time>
      </trkpt>
      <trkpt lat="48.17825" lon="6.60226">
        <ele>444</ele>
        <time>2023-04-04T08:59:48.731Z</time>
      </trkpt>
      <trkpt lat="48.17825" lon="6.60209">
        <ele>444</ele>
        <time>2023-04-04T08:59:50.839Z</time>
      </trkpt>
      <trkpt lat="48.17825" lon="6.60197">
        <ele>443</ele>
        <time>2023-04-04T08:59:52.949Z</time>
      </trkpt>
      <trkpt lat="48.17823" lon="6.60193">
        <ele>443</ele>
        <time>2023-04-04T08:59:55.060Z</time>
      </trkpt>
      <trkpt lat="48.17821" lon="6.60191">
        <ele>442</ele>
        <time>2023-04-04T08:59:57.171Z</time>
      </trkpt>
      <trkpt lat="48.17814" lon="6.60192">
        <ele>442</ele>
        <time>2023-04-04T08:59:59.284Z</time>
      </trkpt>
      <trkpt lat="48.17803" lon="6.60203">
        <ele>442</ele>
        <time>2023-04-04T09:00:01.399Z</time>
      </trkpt>
      <trkpt lat="48.17797" lon="6.6021">
        <ele>441</ele>
        <time>2023-04-04T09:00:03.516Z</time>
      </trkpt>
      <trkpt lat="48.17787" lon="6.60218">
        <ele>441</ele>
        <time>2023-04-04T09:00:05.635Z</time>
      </trkpt>
      <trkpt lat="48.1778" lon="6.60226">
        <ele>441</ele>
        <time>2023-04-04T09:00:07.756Z</time>
      </trkpt>
      <trkpt lat="48.17777" lon="6.60228">
        <ele>441</ele>
        <time>2023-04-04T09:00:09.877Z</time>
      </trkpt>
      <trkpt lat="48.17756" lon="6.60243">
        <ele>441</ele>
        <time>2023-04-04T09:00:12.003Z</time>
      </trkpt>
      <trkpt lat="48.17747" lon="6.60258">
        <ele>441</ele>
        <time>2023-04-04T09:00:14.132Z</time>
      </trkpt>
      <trkpt lat="48.1774" lon="6.6027">
        <ele>441</ele>
        <time>2023-04-04T09:00:16.263Z</time>
      </trkpt>
      <trkpt lat="48.17741" lon="6.60281">
        <ele>441</ele>
        <time>2023-04-04T09:00:18.395Z</time>
      </trkpt>
      <trkpt lat="48.17742" lon="6.60285">
        <ele>441</ele>
        <time>2023-04-04T09:00:20.528Z</time>
      </trkpt>
      <trkpt lat="48.17745" lon="6.60293">
        <ele>441</ele>
        <time>2023-04-04T09:00:22.662Z</time>
      </trkpt>
      <trkpt lat="48.17748" lon="6.60306">
        <ele>441</ele>
        <time>2023-04-04T09:00:24.798Z</time>
      </trkpt>
      <trkpt lat="48.17753" lon="6.60316">
        <ele>442</ele>
        <time>2023-04-04T09:00:26.936Z</time>
      </trkpt>
      <trkpt lat="48.17757" lon="6.60326">
        <ele>442</ele>
        <time>2023-04-04T09:00:29.075Z</time>
      </trkpt>
      <trkpt lat="48.17767" lon="6.60354">
        <ele>442</ele>
        <time>2023-04-04T09:00:31.219Z</time>
      </trkpt>
      <trkpt lat="48.17768" lon="6.60363">
        <ele>443</ele>
        <time>2023-04-04T09:00:33.364Z</time>
      </trkpt>
      <trkpt lat="48.17766" lon="6.60373">
        <ele>443</ele>
        <time>2023-04-04T09:00:35.510Z</time>
      </trkpt>
      <trkpt lat="48.17754" lon="6.60403">
        <ele>444</ele>
        <time>2023-04-04T09:00:37.661Z</time>
      </trkpt>
      <trkpt lat="48.17746" lon="6.60425">
        <ele>445</ele>
        <time>2023-04-04T09:00:39.815Z</time>
      </trkpt>
      <trkpt lat="48.17742" lon="6.60433">
        <ele>445</ele>
        <time>2023-04-04T09:00:41.971Z</time>
      </trkpt>
      <trkpt lat="48.17738" lon="6.60437">
        <ele>446</ele>
        <time>2023-04-04T09:00:44.128Z</time>
      </trkpt>
      <trkpt lat="48.17733" lon="6.60445">
        <ele>447</ele>
        <time>2023-04-04T09:00:46.286Z</time>
      </trkpt>
      <trkpt lat="48.17732" lon="6.60448">
        <ele>447</ele>
        <time>2023-04-04T09:00:48.444Z</time>
      </trkpt>
      <trkpt lat="48.17728" lon="6.60456">
        <ele>448</ele>
        <time>2023-04-04T09:00:50.604Z</time>
      </trkpt>
      <trkpt lat="48.17726" lon="6.60464">
        <ele>449</ele>
        <time>2023-04-04T09:00:52.765Z</time>
      </trkpt>
      <trkpt lat="48.17725" lon="6.60467">
        <ele>450</ele>
        <time>2023-04-04T09:00:54.926Z</time>
      </trkpt>
      <trkpt lat="48.17723" lon="6.60484">
        <ele>451</ele>
        <time>2023-04-04T09:00:57.090Z</time>
      </trkpt>
      <trkpt lat="48.17723" lon="6.60508">
        <ele>452</ele>
        <time>2023-04-04T09:00:59.257Z</time>
      </trkpt>
      <trkpt lat="48.17718" lon="6.6053">
        <ele>453</ele>
        <time>2023-04-04T09:01:01.427Z</time>
      </trkpt>
      <trkpt lat="48.17717" lon="6.6055">
        <ele>454</ele>
        <time>2023-04-04T09:01:03.600Z</time>
      </trkpt>
      <trkpt lat="48.1771" lon="6.60567">
        <ele>455</ele>
        <time>2023-04-04T09:01:05.775Z</time>
      </trkpt>
      <trkpt lat="48.177" lon="6.60575">
        <ele>456</ele>
        <time>2023-04-04T09:01:07.953Z</time>
      </trkpt>
      <trkpt lat="48.17692" lon="6.60581">
        <ele>457</ele>
        <time>2023-04-04T09:01:10.132Z</time>
      </trkpt>
      <trkpt lat="48.17682" lon="6.606">
        <ele>458</ele>
        <time>2023-04-04T09:01:12.315Z</time>
      </trkpt>
      <trkpt lat="48.17668" lon="6.60616">
        <ele>459</ele>
        <time>2023-04-04T09:01:14.501Z</time>
      </trkpt>
      <trkpt lat="48.17655" lon="6.60635">
        <ele>461</ele>
        <time>2023-04-04T09:01:16.691Z</time>
      </trkpt>
      <trkpt lat="48.17645" lon="6.60649">
        <ele>462</ele>
        <time>2023-04-04T09:01:18.884Z</time>
      </trkpt>
      <trkpt lat="48.17635" lon="6.60658">
        <ele>463</ele>
        <time>2023-04-04T09:01:21.079Z</time>
      </trkpt>
      <trkpt lat="48.17624" lon="6.60672">
        <ele>464</ele>
        <time>2023-04-04T09:01:23.277Z</time>
      </trkpt>
      <trkpt lat="48.1761" lon="6.60693">
        <ele>465</ele>
        <time>2023-04-04T09:01:25.479Z</time>
      </trkpt>
      <trkpt lat="48.17595" lon="6.60709">
        <ele>466</ele>
        <time>2023-04-04T09:01:27.684Z</time>
      </trkpt>
      <trkpt lat="48.17579" lon="6.60729">
        <ele>467</ele>
        <time>2023-04-04T09:01:29.894Z</time>
      </trkpt>
      <trkpt lat="48.17571" lon="6.60736">
        <ele>468</ele>
        <time>2023-04-04T09:01:32.105Z</time>
      </trkpt>
      <trkpt lat="48.17569" lon="6.60738">
        <ele>469</ele>
        <time>2023-04-04T09:01:34.317Z</time>
      </trkpt>
      <trkpt lat="48.17559" lon="6.60751">
        <ele>470</ele>
        <time>2023-04-04T09:01:36.532Z</time>
      </trkpt>
      <trkpt lat="48.17547" lon="6.6076">
        <ele>471</ele>
        <time>2023-04-04T09:01:38.749Z</time>
      </trkpt>
      <trkpt lat="48.17528" lon="6.60773">
        <ele>472</ele>
        <time>2023-04-04T09:01:40.970Z</time>
      </trkpt>
      <trkpt lat="48.17514" lon="6.6079">
        <ele>474</ele>
        <time>2023-04-04T09:01:43.195Z</time>
      </trkpt>
      <trkpt lat="48.17498" lon="6.60808">
        <ele>475</ele>
        <time>2023-04-04T09:01:45.424Z</time>
      </trkpt>
      <trkpt lat="48.17486" lon="6.60821">
        <ele>476</ele>
        <time>2023-04-04T09:01:47.656Z</time>
      </trkpt>
      <trkpt lat="48.17471" lon="6.60836">
        <ele>476</ele>
        <time>2023-04-04T09:01:49.892Z</time>
      </trkpt>
      <trkpt lat="48.1746" lon="6.60849">
        <ele>477</ele>
        <time>2023-04-04T09:01:52.130Z</time>
      </trkpt>
      <trkpt lat="48.17453" lon="6.60859">
        <ele>478</ele>
        <time>2023-04-04T09:01:54.370Z</time>
      </trkpt>
      <trkpt lat="48.17447" lon="6.60869">
        <ele>479</ele>
        <time>2023-04-04T09:01:56.612Z</time>
      </trkpt>
      <trkpt lat="48.17438" lon="6.60883">
        <ele>480</ele>
        <time>2023-04-04T09:01:58.857Z</time>
      </trkpt>
      <trkpt lat="48.17429" lon="6.60899">
        <ele>481</ele>
        <time>2023-04-04T09:02:01.105Z</time>
      </trkpt>
      <trkpt lat="48.17425" lon="6.60903">
        <ele>482</ele>
        <time>2023-04-04T09:02:03.354Z</time>
      </trkpt>
      <trkpt lat="48.17423" lon="6.60906">
        <ele>483</ele>
        <time>2023-04-04T09:02:05.603Z</time>
      </trkpt>
      <trkpt lat="48.17421" lon="6.60909">
        <ele>483</ele>
        <time>2023-04-04T09:02:07.853Z</time>
      </trkpt>
      <trkpt lat="48.1741" lon="6.60927">
        <ele>484</ele>
        <time>2023-04-04T09:02:10.106Z</time>
      </trkpt>
      <trkpt lat="48.17401" lon="6.60944">
        <ele>485</ele>
        <time>2023-04-04T09:02:12.362Z</time>
      </trkpt>
      <trkpt lat="48.17396" lon="6.6096">
        <ele>486</ele>
        <time>2023-04-04T09:02:14.620Z</time>
      </trkpt>
      <trkpt lat="48.17394" lon="6.60969">
        <ele>486</ele>
        <time>2023-04-04T09:02:16.879Z</time>
      </trkpt>
      <trkpt lat="48.17397" lon="6.60975">
        <ele>487</ele>
        <time>2023-04-04T09:02:19.140Z</time>
      </trkpt>
      <trkpt lat="48.17401" lon="6.60983">
        <ele>488</ele>
        <time>2023-04-04T09:02:21.402Z</time>
      </trkpt>
      <trkpt lat="48.17407" lon="6.61013">
        <ele>488</ele>
        <time>2023-04-04T09:02:23.668Z</time>
      </trkpt>
      <trkpt lat="48.17408" lon="6.61049">
        <ele>489</ele>
        <time>2023-04-04T09:02:25.939Z</time>
      </trkpt>
      <trkpt lat="48.17403" lon="6.61085">
        <ele>490</ele>
        <time>2023-04-04T09:02:28.215Z</time>
      </trkpt>
      <trkpt lat="48.174" lon="6.61098">
        <ele>490</ele>
        <time>2023-04-04T09:02:30.493Z</time>
      </trkpt>
      <trkpt lat="48.174" lon="6.61101">
        <ele>491</ele>
        <time>2023-04-04T09:02:32.771Z</time>
      </trkpt>
      <trkpt lat="48.17409" lon="6.61099">
        <ele>492</ele>
        <time>2023-04-04T09:02:35.051Z</time>
      </trkpt>
      <trkpt lat="48.17411" lon="6.611">
        <ele>492</ele>
        <time>2023-04-04T09:02:37.331Z</time>
      </trkpt>
      <trkpt lat="48.17413" lon="6.61101">
        <ele>493</ele>
        <time>2023-04-04T09:02:39.612Z</time>
      </trkpt>
      <trkpt lat="48.1742" lon="6.61109">
        <ele>494</ele>
        <time>2023-04-04T09:02:41.894Z</time>
      </trkpt>
      <trkpt lat="48.17427" lon="6.61115">
        <ele>494</ele>
        <time>2023-04-04T09:02:44.178Z</time>
      </trkpt>
      <trkpt lat="48.1743" lon="6.61121">
        <ele>495</ele>
        <time>2023-04-04T09:02:46.463Z</time>
      </trkpt>
      <trkpt lat="48.17442" lon="6.61136">
        <ele>495</ele>
        <time>2023-04-04T09:02:48.751Z</time>
      </trkpt>
      <trkpt lat="48.1745" lon="6.61147">
        <ele>496</ele>
        <time>2023-04-04T09:02:51.041Z</time>
      </trkpt>
      <trkpt lat="48.17456" lon="6.61159">
        <ele>497</ele>
        <time>2023-04-04T09:02:53.333Z</time>
      </trkpt>
      <trkpt lat="48.17458" lon="6.61166">
        <ele>497</ele>
        <time>2023-04-04T09:02:55.626Z</time>
      </trkpt>
      <trkpt lat="48.17462" lon="6.61177">
        <ele>498</ele>
        <time>2023-04-04T09:02:57.921Z</time>
      </trkpt>
      <trkpt lat="48.17463" lon="6.61178">
        <ele>498</ele>
        <time>2023-04-04T09:03:00.216Z</time>
      </trkpt>
      <trkpt lat="48.17469" lon="6.61196">
        <ele>498</ele>
        <time>2023-04-04T09:03:02.514Z</time>
      </trkpt>
      <trkpt lat="48.17474" lon="6.61208">
        <ele>499</ele>
        <time>2023-04-04T09:03:04.814Z</time>
      </trkpt>
      <trkpt lat="48.17476" lon="6.6121">
        <ele>499</ele>
        <time>2023-04-04T09:03:07.114Z</time>
      </trkpt>
      <trkpt lat="48.17482" lon="6.61222">
        <ele>500</ele>
        <time>2023-04-04T09:03:09.416Z</time>
      </trkpt>
      <trkpt lat="48.17496" lon="6.61247">
        <ele>500</ele>
        <time>2023-04-04T09:03:11.723Z</time>
      </trkpt>
      <trkpt lat="48.17509" lon="6.61264">
        <ele>500</ele>
        <time>2023-04-04T09:03:14.033Z</time>
      </trkpt>
      <trkpt lat="48.17512" lon="6.61264">
        <ele>500</ele>
        <time>2023-04-04T09:03:16.344Z</time>
      </trkpt>
      <trkpt lat="48.17516" lon="6.61264">
        <ele>500</ele>
        <time>2023-04-04T09:03:18.656Z</time>
      </trkpt>
      <trkpt lat="48.17525" lon="6.61262">
        <ele>501</ele>
        <time>2023-04-04T09:03:20.969Z</time>
      </trkpt>
      <trkpt lat="48.17534" lon="6.61261">
        <ele>501</ele>
        <time>2023-04-04T09:03:23.284Z</time>
      </trkpt>
      <trkpt lat="48.17536" lon="6.61261">
        <ele>501</ele>
        <time>2023-04-04T09:03:25.600Z</time>
      </trkpt>
      <trkpt lat="48.17539" lon="6.6126">
        <ele>501</ele>
        <time>2023-04-04T09:03:27.916Z</time>
      </trkpt>
      <trkpt lat="48.17556" lon="6.61246">
        <ele>501</ele>
        <time>2023-04-04T09:03:30.236Z</time>
      </trkpt>
      <trkpt lat="48.17569" lon="6.61228">
        <ele>501</ele>
        <time>2023-04-04T09:03:32.560Z</time>
      </trkpt>
      <trkpt lat="48.17578" lon="6.61218">
        <ele>501</ele>
        <time>2023-04-04T09:03:34.886Z</time>
      </trkpt>
      <trkpt lat="48.17585" lon="6.61208">
        <ele>501</ele>
        <time>2023-04-04T09:03:37.214Z</time>
      </trkpt>
      <trkpt lat="48.17604" lon="6.61177">
        <ele>500</ele>
        <time>2023-04-04T09:03:39.547Z</time>
      </trkpt>
      <trkpt lat="48.17606" lon="6.61173">
        <ele>500</ele>
        <time>2023-04-04T09:03:41.881Z</time>
      </trkpt>
      <trkpt lat="48.17613" lon="6.61162">
        <ele>500</ele>
        <time>2023-04-04T09:03:44.217Z</time>
      </trkpt>
      <trkpt lat="48.17618" lon="6.61153">
        <ele>500</ele>
        <time>2023-04-04T09:03:46.555Z</time>
      </trkpt>
      <trkpt lat="48.17624" lon="6.61144">
        <ele>499</ele>
        <time>2023-04-04T09:03:48.894Z</time>
      </trkpt>
      <trkpt lat="48.17631" lon="6.61139">
        <ele>499</ele>
        <time>2023-04-04T09:03:51.235Z</time>
      </trkpt>
      <trkpt lat="48.17638" lon="6.61131">
        <ele>499</ele>
        <time>2023-04-04T09:03:53.578Z</time>
      </trkpt>
      <trkpt lat="48.17641" lon="6.61128">
        <ele>498</ele>
        <time>2023-04-04T09:03:55.922Z</time>
      </trkpt>
      <trkpt lat="48.17644" lon="6.61124">
        <ele>498</ele>
        <time>2023-04-04T09:03:58.266Z</time>
      </trkpt>
      <trkpt lat="48.17652" lon="6.61118">
        <ele>498</ele>
        <time>2023-04-04T09:04:00.612Z</time>
      </trkpt>
      <trkpt lat="48.17661" lon="6.61114">
        <ele>497</ele>
        <time>2023-04-04T09:04:02.960Z</time>
      </trkpt>
      <trkpt lat="48.17669" lon="6.61111">
        <ele>497</ele>
        <time>2023-04-04T09:04:05.310Z</time>
      </trkpt>
      <trkpt lat="48.17683" lon="6.61107">
        <ele>497</ele>
        <time>2023-04-04T09:04:07.662Z</time>
      </trkpt>
      <trkpt lat="48.17693" lon="6.61106">
        <ele>497</ele>
        <time>2023-04-04T09:04:10.016Z</time>
      </trkpt>
      <trkpt lat="48.17702" lon="6.61106">
        <ele>497</ele>
        <time>2023-04-04T09:04:12.372Z</time>
      </trkpt>
      <trkpt lat="48.17712" lon="6.61107">
        <ele>497</ele>
        <time>2023-04-04T09:04:14.730Z</time>
      </trkpt>
      <trkpt lat="48.17738" lon="6.61104">
        <ele>497</ele>
        <time>2023-04-04T09:04:17.094Z</time>
      </trkpt>
      <trkpt lat="48.17749" lon="6.61105">
        <ele>497</ele>
        <time>2023-04-04T09:04:19.460Z</time>
      </trkpt>
      <trkpt lat="48.17762" lon="6.61107">
        <ele>497</ele>
        <time>2023-04-04T09:04:21.828Z</time>
      </trkpt>
      <trkpt lat="48.17769" lon="6.61106">
        <ele>498</ele>
        <time>2023-04-04T09:04:24.198Z</time>
      </trkpt>
      <trkpt lat="48.17778" lon="6.61108">
        <ele>498</ele>
        <time>2023-04-04T09:04:26.570Z</time>
      </trkpt>
      <trkpt lat="48.17782" lon="6.6111">
        <ele>498</ele>
        <time>2023-04-04T09:04:28.942Z</time>
      </trkpt>
      <trkpt lat="48.1779" lon="6.61113">
        <ele>498</ele>
        <time>2023-04-04T09:04:31.316Z</time>
      </trkpt>
      <trkpt lat="48.17798" lon="6.61115">
        <ele>499</ele>
        <time>2023-04-04T09:04:33.692Z</time>
      </trkpt>
      <trkpt lat="48.17802" lon="6.61118">
        <ele>499</ele>
        <time>2023-04-04T09:04:36.069Z</time>
      </trkpt>
      <trkpt lat="48.17806" lon="6.61124">
        <ele>500</ele>
        <time>2023-04-04T09:04:38.447Z</time>
      </trkpt>
      <trkpt lat="48.17812" lon="6.61137">
        <ele>500</ele>
        <time>2023-04-04T09:04:40.827Z</time>
      </trkpt>
      <trkpt lat="48.17816" lon="6.61147">
        <ele>501</ele>
        <time>2023-04-04T09:04:43.208Z</time>
      </trkpt>
      <trkpt lat="48.17818" lon="6.61155">
        <ele>501</ele>
        <time>2023-04-04T09:04:45.591Z</time>
      </trkpt>
      <trkpt lat="48.17827" lon="6.61171">
        <ele>502</ele>
        <time>2023-04-04T09:04:47.976Z</time>
      </trkpt>
      <trkpt lat="48.17831" lon="6.61183">
        <ele>503</ele>
        <time>2023-04-04T09:04:50.363Z</time>
      </trkpt>
      <trkpt lat="48.17834" lon="6.61188">
        <ele>503</ele>
        <time>2023-04-04T09:04:52.751Z</time>
      </trkpt>
      <trkpt lat="48.17839" lon="6.61197">
        <ele>504</ele>
        <time>2023-04-04T09:04:55.141Z</time>
      </trkpt>
      <trkpt lat="48.1785" lon="6.61208">
        <ele>505</ele>
        <time>2023-04-04T09:04:57.533Z</time>
      </trkpt>
      <trkpt lat="48.17853" lon="6.61211">
        <ele>505</ele>
        <time>2023-04-04T09:04:59.926Z</time>
      </trkpt>
      <trkpt lat="48.17857" lon="6.61212">
        <ele>506</ele>
        <time>2023-04-04T09:05:02.320Z</time>
      </trkpt>
      <trkpt lat="48.17858" lon="6.61213">
        <ele>506</ele>
        <time>2023-04-04T09:05:04.714Z</time>
      </trkpt>
      <trkpt lat="48.1786" lon="6.61213">
        <ele>507</ele>
        <time>2023-04-04T09:05:07.108Z</time>
      </trkpt>
      <trkpt lat="48.17862" lon="6.61213">
        <ele>507</ele>
        <time>2023-04-04T09:05:09.503Z</time>
      </trkpt>
      <trkpt lat="48.1787" lon="6.61217">
        <ele>508</ele>
        <time>2023-04-04T09:05:11.899Z</time>
      </trkpt>
      <trkpt lat="48.17872" lon="6.61217">
        <ele>508</ele>
        <time>2023-04-04T09:05:14.296Z</time>
      </trkpt>
      <trkpt lat="48.17883" lon="6.61216">
        <ele>509</ele>
        <time>2023-04-04T09:05:16.695Z</time>
      </trkpt>
      <trkpt lat="48.17885" lon="6.61215">
        <ele>509</ele>
        <time>2023-04-04T09:05:19.095Z</time>
      </trkpt>
      <trkpt lat="48.17896" lon="6.61219">
        <ele>510</ele>
        <time>2023-04-04T09:05:21.497Z</time>
      </trkpt>
      <trkpt lat="48.17908" lon="6.61224">
        <ele>510</ele>
        <time>2023-04-04T09:05:23.901Z</time>
      </trkpt>
      <trkpt lat="48.1791" lon="6.61224">
        <ele>510</ele>
        <time>2023-04-04T09:05:26.306Z</time>
      </trkpt>
      <trkpt lat="48.17919" lon="6.61218">
        <ele>511</ele>
        <time>2023-04-04T09:05:28.713Z</time>
      </trkpt>
      <trkpt lat="48.17922" lon="6.61218">
        <ele>511</ele>
        <time>2023-04-04T09:05:31.120Z</time>
      </trkpt>
      <trkpt lat="48.17938" lon="6.6121">
        <ele>511</ele>
        <time>2023-04-04T09:05:33.531Z</time>
      </trkpt>
      <trkpt lat="48.17947" lon="6.61188">
        <ele>511</ele>
        <time>2023-04-04T09:05:35.945Z</time>
      </trkpt>
      <trkpt lat="48.17953" lon="6.61159">
        <ele>511</ele>
        <time>2023-04-04T09:05:38.363Z</time>
      </trkpt>
      <trkpt lat="48.17955" lon="6.61152">
        <ele>511</ele>
        <time>2023-04-04T09:05:40.782Z</time>
      </trkpt>
      <trkpt lat="48.17966" lon="6.61139">
        <ele>511</ele>
        <time>2023-04-04T09:05:43.204Z</time>
      </trkpt>
      <trkpt lat="48.17975" lon="6.61122">
        <ele>511</ele>
        <time>2023-04-04T09:05:45.629Z</time>
      </trkpt>
      <trkpt lat="48.17997" lon="6.61098">
        <ele>511</ele>
        <time>2023-04-04T09:05:48.059Z</time>
      </trkpt>
      <trkpt lat="48.18018" lon="6.61085">
        <ele>511</ele>
        <time>2023-04-04T09:05:50.494Z</time>
      </trkpt>
      <trkpt lat="48.18029" lon="6.61084">
        <ele>511</ele>
        <time>2023-04-04T09:05:52.931Z</time>
      </trkpt>
      <trkpt lat="48.18039" lon="6.61081">
        <ele>512</ele>
        <time>2023-04-04T09:05:55.370Z</time>
      </trkpt>
      <trkpt lat="48.18045" lon="6.61081">
        <ele>512</ele>
        <time>2023-04-04T09:05:57.810Z</time>
      </trkpt>
      <trkpt lat="48.18067" lon="6.61084">
        <ele>512</ele>
        <time>2023-04-04T09:06:00.255Z</time>
      </trkpt>
      <trkpt lat="48.1808" lon="6.61085">
        <ele>512</ele>
        <time>2023-04-04T09:06:02.702Z</time>
      </trkpt>
      <trkpt lat="48.18084" lon="6.61085">
        <ele>512</ele>
        <time>2023-04-04T09:06:05.150Z</time>
      </trkpt>
      <trkpt lat="48.18104" lon="6.61091">
        <ele>513</ele>
        <time>2023-04-04T09:06:07.602Z</time>
      </trkpt>
      <trkpt lat="48.1812" lon="6.61101">
        <ele>513</ele>
        <time>2023-04-04T09:06:10.058Z</time>
      </trkpt>
      <trkpt lat="48.18129" lon="6.61105">
        <ele>513</ele>
        <time>2023-04-04T09:06:12.516Z</time>
      </trkpt>
      <trkpt lat="48.18139" lon="6.61106">
        <ele>513</ele>
        <time>2023-04-04T09:06:14.976Z</time>
      </trkpt>
      <trkpt lat="48.18149" lon="6.61105">
        <ele>514</ele>
        <time>2023-04-04T09:06:17.438Z</time>
      </trkpt>
      <trkpt lat="48.18152" lon="6.61103">
        <ele>514</ele>
        <time>2023-04-04T09:06:19.900Z</time>
      </trkpt>
      <trkpt lat="48.18161" lon="6.61095">
        <ele>514</ele>
        <time>2023-04-04T09:06:22.364Z</time>
      </trkpt>
      <trkpt lat="48.18163" lon="6.61092">
        <ele>515</ele>
        <time>2023-04-04T09:06:24.829Z</time>
      </trkpt>
      <trkpt lat="48.18172" lon="6.61079">
        <ele>515</ele>
        <time>2023-04-04T09:06:27.296Z</time>
      </trkpt>
      <trkpt lat="48.18174" lon="6.61077">
        <ele>515</ele>
        <time>2023-04-04T09:06:29.764Z</time>
      </trkpt>
      <trkpt lat="48.18182" lon="6.61065">
        <ele>516</ele>
        <time>2023-04-04T09:06:32.234Z</time>
      </trkpt>
      <trkpt lat="48.1819" lon="6.6105">
        <ele>516</ele>
        <time>2023-04-04T09:06:34.707Z</time>
      </trkpt>
      <trkpt lat="48.18193" lon="6.61045">
        <ele>516</ele>
        <time>2023-04-04T09:06:37.181Z</time>
      </trkpt>
      <trkpt lat="48.18196" lon="6.61042">
        <ele>517</ele>
        <time>2023-04-04T09:06:39.655Z</time>
      </trkpt>
      <trkpt lat="48.18206" lon="6.61029">
        <ele>517</ele>
        <time>2023-04-04T09:06:42.132Z</time>
      </trkpt>
      <trkpt lat="48.18206" lon="6.61028">
        <ele>518</ele>
        <time>2023-04-04T09:06:44.609Z</time>
      </trkpt>
      <trkpt lat="48.1821" lon="6.61024">
        <ele>518</ele>
        <time>2023-04-04T09:06:47.087Z</time>
      </trkpt>
      <trkpt lat="48.18222" lon="6.61018">
        <ele>518</ele>
        <time>2023-04-04T09:06:49.568Z</time>
      </trkpt>
      <trkpt lat="48.18235" lon="6.6102">
        <ele>519</ele>
        <time>2023-04-04T09:06:52.051Z</time>
      </trkpt>
      <trkpt lat="48.18244" lon="6.61021">
        <ele>519</ele>
        <time>2023-04-04T09:06:54.536Z</time>
      </trkpt>
      <trkpt lat="48.18256" lon="6.61019">
        <ele>520</ele>
        <time>2023-04-04T09:06:57.023Z</time>
      </trkpt>
      <trkpt lat="48.18257" lon="6.61018">
        <ele>520</ele>
        <time>2023-04-04T09:06:59.511Z</time>
      </trkpt>
      <trkpt lat="48.18259" lon="6.61017">
        <ele>521</ele>
        <time>2023-04-04T09:07:01.999Z</time>
      </trkpt>
      <trkpt lat="48.18262" lon="6.61015">
        <ele>522</ele>
        <time>2023-04-04T09:07:04.488Z</time>
      </trkpt>
      <trkpt lat="48.18264" lon="6.61015">
        <ele>522</ele>
        <time>2023-04-04T09:07:06.977Z</time>
      </trkpt>
      <trkpt lat="48.18278" lon="6.61015">
        <ele>523</ele>
        <time>2023-04-04T09:07:09.469Z</time>
      </trkpt>
      <trkpt lat="48.18285" lon="6.61014">
        <ele>523</ele>
        <time>2023-04-04T09:07:11.962Z</time>
      </trkpt>
      <trkpt lat="48.18288" lon="6.61015">
        <ele>524</ele>
        <time>2023-04-04T09:07:14.456Z</time>
      </trkpt>
      <trkpt lat="48.183" lon="6.61021">
        <ele>525</ele>
        <time>2023-04-04T09:07:16.953Z</time>
      </trkpt>
      <trkpt lat="48.18312" lon="6.61035">
        <ele>525</ele>
        <time>2023-04-04T09:07:19.453Z</time>
      </trkpt>
      <trkpt lat="48.18314" lon="6.61037">
        <ele>526</ele>
        <time>2023-04-04T09:07:21.953Z</time>
      </trkpt>
      <trkpt lat="48.18321" lon="6.61051">
        <ele>526</ele>
        <time>2023-04-04T09:07:24.455Z</time>
      </trkpt>
      <trkpt lat="48.18324" lon="6.61053">
        <ele>527</ele>
        <time>2023-04-04T09:07:26.958Z</time>
      </trkpt>
      <trkpt lat="48.18337" lon="6.61069">
        <ele>528</ele>
        <time>2023-04-04T09:07:29.464Z</time>
      </trkpt>
      <trkpt lat="48.18343" lon="6.61076">
        <ele>528</ele>
        <time>2023-04-04T09:07:31.972Z</time>
      </trkpt>
      <trkpt lat="48.18346" lon="6.61079">
        <ele>529</ele>
        <time>2023-04-04T09:07:34.481Z</time>
      </trkpt>
      <trkpt lat="48.18348" lon="6.61081">
        <ele>529</ele>
        <time>2023-04-04T09:07:36.990Z</time>
      </trkpt>
      <trkpt lat="48.18351" lon="6.61082">
        <ele>530</ele>
        <time>2023-04-04T09:07:39.500Z</time>
      </trkpt>
      <trkpt lat="48.18364" lon="6.61092">
        <ele>530</ele>
        <time>2023-04-04T09:07:42.013Z</time>
      </trkpt>
      <trkpt lat="48.18373" lon="6.61098">
        <ele>531</ele>
        <time>2023-04-04T09:07:44.528Z</time>
      </trkpt>
      <trkpt lat="48.18374" lon="6.611">
        <ele>531</ele>
        <time>2023-04-04T09:07:47.043Z</time>
      </trkpt>
      <trkpt lat="48.18375" lon="6.61103">
        <ele>532</ele>
        <time>2023-04-04T09:07:49.558Z</time>
      </trkpt>
      <trkpt lat="48.18377" lon="6.61105">
        <ele>532</ele>
        <time>2023-04-04T09:07:52.074Z</time>
      </trkpt>
      <trkpt lat="48.18385" lon="6.61117">
        <ele>532</ele>
        <time>2023-04-04T09:07:54.592Z</time>
      </trkpt>
      <trkpt lat="48.18394" lon="6.61133">
        <ele>533</ele>
        <time>2023-04-04T09:07:57.113Z</time>
      </trkpt>
      <trkpt lat="48.18397" lon="6.61137">
        <ele>534</ele>
        <time>2023-04-04T09:07:59.635Z</time>
      </trkpt>
      <trkpt lat="48.18409" lon="6.61149">
        <ele>534</ele>
        <time>2023-04-04T09:08:02.160Z</time>
      </trkpt>
      <trkpt lat="48.18426" lon="6.61161">
        <ele>534</ele>
        <time>2023-04-04T09:08:04.688Z</time>
      </trkpt>
      <trkpt lat="48.18428" lon="6.61163">
        <ele>534</ele>
        <time>2023-04-04T09:08:07.217Z</time>
      </trkpt>
      <trkpt lat="48.18443" lon="6.61172">
        <ele>535</ele>
        <time>2023-04-04T09:08:09.749Z</time>
      </trkpt>
      <trkpt lat="48.18447" lon="6.61177">
        <ele>535</ele>
        <time>2023-04-04T09:08:12.282Z</time>
      </trkpt>
      <trkpt lat="48.18469" lon="6.61198">
        <ele>535</ele>
        <time>2023-04-04T09:08:14.820Z</time>
      </trkpt>
      <trkpt lat="48.18489" lon="6.61217">
        <ele>535</ele>
        <time>2023-04-04T09:08:17.363Z</time>
      </trkpt>
      <trkpt lat="48.18497" lon="6.61221">
        <ele>535</ele>
        <time>2023-04-04T09:08:19.908Z</time>
      </trkpt>
      <trkpt lat="48.18505" lon="6.61232">
        <ele>535</ele>
        <time>2023-04-04T09:08:22.455Z</time>
      </trkpt>
      <trkpt lat="48.18525" lon="6.61252">
        <ele>535</ele>
        <time>2023-04-04T09:08:25.007Z</time>
      </trkpt>
      <trkpt lat="48.18541" lon="6.61272">
        <ele>536</ele>
        <time>2023-04-04T09:08:27.563Z</time>
      </trkpt>
      <trkpt lat="48.18558" lon="6.61292">
        <ele>536</ele>
        <time>2023-04-04T09:08:30.123Z</time>
      </trkpt>
      <trkpt lat="48.18579" lon="6.61314">
        <ele>536</ele>
        <time>2023-04-04T09:08:32.689Z</time>
      </trkpt>
      <trkpt lat="48.18588" lon="6.61332">
        <ele>536</ele>
        <time>2023-04-04T09:08:35.258Z</time>
      </trkpt>
      <trkpt lat="48.18604" lon="6.61348">
        <ele>536</ele>
        <time>2023-04-04T09:08:37.830Z</time>
      </trkpt>
      <trkpt lat="48.18622" lon="6.61368">
        <ele>536</ele>
        <time>2023-04-04T09:08:40.407Z</time>
      </trkpt>
      <trkpt lat="48.18634" lon="6.61381">
        <ele>536</ele>
        <time>2023-04-04T09:08:42.987Z</time>
      </trkpt>
      <trkpt lat="48.18646" lon="6.61386">
        <ele>536</ele>
        <time>2023-04-04T09:08:45.569Z</time>
      </trkpt>
      <trkpt lat="48.18663" lon="6.61406">
        <ele>536</ele>
        <time>2023-04-04T09:08:48.156Z</time>
      </trkpt>
      <trkpt lat="48.18685" lon="6.61419">
        <ele>536</ele>
        <time>2023-04-04T09:08:50.747Z</time>
      </trkpt>
      <trkpt lat="48.18696" lon="6.6143">
        <ele>536</ele>
        <time>2023-04-04T09:08:53.341Z</time>
      </trkpt>
      <trkpt lat="48.18697" lon="6.61434">
        <ele>536</ele>
        <time>2023-04-04T09:08:55.936Z</time>
      </trkpt>
      <trkpt lat="48.18698" lon="6.61441">
        <ele>536</ele>
        <time>2023-04-04T09:08:58.532Z</time>
      </trkpt>
      <trkpt lat="48.18702" lon="6.61444">
        <ele>537</ele>
        <time>2023-04-04T09:09:01.128Z</time>
      </trkpt>
      <trkpt lat="48.18706" lon="6.61446">
        <ele>537</ele>
        <time>2023-04-04T09:09:03.725Z</time>
      </trkpt>
      <trkpt lat="48.18713" lon="6.61455">
        <ele>537</ele>
        <time>2023-04-04T09:09:06.324Z</time>
      </trkpt>
      <trkpt lat="48.18724" lon="6.61474">
        <ele>537</ele>
        <time>2023-04-04T09:09:08.927Z</time>
      </trkpt>
      <trkpt lat="48.18728" lon="6.61499">
        <ele>537</ele>
        <time>2023-04-04T09:09:11.533Z</time>
      </trkpt>
      <trkpt lat="48.18729" lon="6.61518">
        <ele>538</ele>
        <time>2023-04-04T09:09:14.142Z</time>
      </trkpt>
      <trkpt lat="48.18732" lon="6.61548">
        <ele>538</ele>
        <time>2023-04-04T09:09:16.755Z</time>
      </trkpt>
      <trkpt lat="48.18743" lon="6.61581">
        <ele>538</ele>
        <time>2023-04-04T09:09:19.373Z</time>
      </trkpt>
      <trkpt lat="48.18746" lon="6.61609">
        <ele>539</ele>
        <time>2023-04-04T09:09:21.994Z</time>
      </trkpt>
      <trkpt lat="48.18746" lon="6.61611">
        <ele>539</ele>
        <time>2023-04-04T09:09:24.616Z</time>
      </trkpt>
      <trkpt lat="48.18762" lon="6.61642">
        <ele>539</ele>
        <time>2023-04-04T09:09:27.243Z</time>
      </trkpt>
      <trkpt lat="48.18771" lon="6.61667">
        <ele>539</ele>
        <time>2023-04-04T09:09:29.874Z</time>
      </trkpt>
      <trkpt lat="48.18772" lon="6.61671">
        <ele>539</ele>
        <time>2023-04-04T09:09:32.505Z</time>
      </trkpt>
      <trkpt lat="48.18774" lon="6.61691">
        <ele>540</ele>
        <time>2023-04-04T09:09:35.139Z</time>
      </trkpt>
      <trkpt lat="48.18774" lon="6.61695">
        <ele>540</ele>
        <time>2023-04-04T09:09:37.773Z</time>
      </trkpt>
      <trkpt lat="48.18778" lon="6.61729">
        <ele>540</ele>
        <time>2023-04-04T09:09:40.412Z</time>
      </trkpt>
      <trkpt lat="48.18784" lon="6.61752">
        <ele>540</ele>
        <time>2023-04-04T09:09:43.054Z</time>
      </trkpt>
      <trkpt lat="48.18791" lon="6.6177">
        <ele>540</ele>
        <time>2023-04-04T09:09:45.699Z</time>
      </trkpt>
      <trkpt lat="48.18809" lon="6.61791">
        <ele>541</ele>
        <time>2023-04-04T09:09:48.349Z</time>
      </trkpt>
      <trkpt lat="48.18834" lon="6.61816">
        <ele>541</ele>
        <time>2023-04-04T09:09:51.005Z</time>
      </trkpt>
      <trkpt lat="48.18846" lon="6.61833">
        <ele>541</ele>
        <time>2023-04-04T09:09:53.664Z</time>
      </trkpt>
      <trkpt lat="48.18853" lon="6.61843">
        <ele>541</ele>
        <time>2023-04-04T09:09:56.325Z</time>
      </trkpt>
      <trkpt lat="48.18853" lon="6.61849">
        <ele>541</ele>
        <time>2023-04-04T09:09:58.987Z</time>
      </trkpt>
      <trkpt lat="48.18839" lon="6.61875">
        <ele>541</ele>
        <time>2023-04-04T09:10:01.653Z</time>
      </trkpt>
      <trkpt lat="48.18832" lon="6.61884">
        <ele>541</ele>
        <time>2023-04-04T09:10:04.321Z</time>
      </trkpt>
      <trkpt lat="48.18828" lon="6.61895">
        <ele>542</ele>
        <time>2023-04-04T09:10:06.991Z</time>
      </trkpt>
      <trkpt lat="48.18806" lon="6.61938">
        <ele>542</ele>
        <time>2023-04-04T09:10:09.668Z</time>
      </trkpt>
      <trkpt lat="48.18794" lon="6.61974">
        <ele>542</ele>
        <time>2023-04-04T09:10:12.350Z</time>
      </trkpt>
      <trkpt lat="48.18782" lon="6.61995">
        <ele>542</ele>
        <time>2023-04-04T09:10:15.036Z</time>
      </trkpt>
      <trkpt lat="48.18776" lon="6.62016">
        <ele>542</ele>
        <time>2023-04-04T09:10:17.725Z</time>
      </trkpt>
      <trkpt lat="48.18778" lon="6.62024">
        <ele>542</ele>
        <time>2023-04-04T09:10:20.415Z</time>
      </trkpt>
      <trkpt lat="48.1878" lon="6.62031">
        <ele>542</ele>
        <time>2023-04-04T09:10:23.106Z</time>
      </trkpt>
      <trkpt lat="48.18782" lon="6.62038">
        <ele>542</ele>
        <time>2023-04-04T09:10:25.798Z</time>
      </trkpt>
      <trkpt lat="48.18786" lon="6.62044">
        <ele>542</ele>
        <time>2023-04-04T09:10:28.491Z</time>
      </trkpt>
      <trkpt lat="48.18788" lon="6.62048">
        <ele>542</ele>
        <time>2023-04-04T09:10:31.185Z</time>
      </trkpt>
      <trkpt lat="48.18794" lon="6.62059">
        <ele>542</ele>
        <time>2023-04-04T09:10:33.881Z</time>
      </trkpt>
      <trkpt lat="48.18808" lon="6.62087">
        <ele>542</ele>
        <time>2023-04-04T09:10:36.582Z</time>
      </trkpt>
      <trkpt lat="48.18816" lon="6.62109">
        <ele>542</ele>
        <time>2023-04-04T09:10:39.286Z</time>
      </trkpt>
      <trkpt lat="48.18819" lon="6.62118">
        <ele>543</ele>
        <time>2023-04-04T09:10:41.991Z</time>
      </trkpt>
      <trkpt lat="48.18829" lon="6.62143">
        <ele>543</ele>
        <time>2023-04-04T09:10:44.700Z</time>
      </trkpt>
      <trkpt lat="48.18839" lon="6.62169">
        <ele>543</ele>
        <time>2023-04-04T09:10:47.413Z</time>
      </trkpt>
      <trkpt lat="48.18852" lon="6.62202">
        <ele>543</ele>
        <time>2023-04-04T09:10:50.131Z</time>
      </trkpt>
      <trkpt lat="48.18864" lon="6.62221">
        <ele>543</ele>
        <time>2023-04-04T09:10:52.853Z</time>
      </trkpt>
      <trkpt lat="48.18872" lon="6.62237">
        <ele>543</ele>
        <time>2023-04-04T09:10:55.578Z</time>
      </trkpt>
      <trkpt lat="48.18885" lon="6.62272">
        <ele>543</ele>
        <time>2023-04-04T09:10:58.308Z</time>
      </trkpt>
      <trkpt lat="48.1889" lon="6.623">
        <ele>542</ele>
        <time>2023-04-04T09:11:01.042Z</time>
      </trkpt>
      <trkpt lat="48.1889" lon="6.62312">
        <ele>542</ele>
        <time>2023-04-04T09:11:03.777Z</time>
      </trkpt>
      <trkpt lat="48.18886" lon="6.62334">
        <ele>542</ele>
        <time>2023-04-04T09:11:06.516Z</time>
      </trkpt>
      <trkpt lat="48.18871" lon="6.62345">
        <ele>542</ele>
        <time>2023-04-04T09:11:09.258Z</time>
      </trkpt>
      <trkpt lat="48.1886" lon="6.62365">
        <ele>542</ele>
        <time>2023-04-04T09:11:12.003Z</time>
      </trkpt>
      <trkpt lat="48.18843" lon="6.62404">
        <ele>542</ele>
        <time>2023-04-04T09:11:14.755Z</time>
      </trkpt>
      <trkpt lat="48.1883" lon="6.62435">
        <ele>542</ele>
        <time>2023-04-04T09:11:17.511Z</time>
      </trkpt>
      <trkpt lat="48.18828" lon="6.6244">
        <ele>543</ele>
        <time>2023-04-04T09:11:20.268Z</time>
      </trkpt>
      <trkpt lat="48.18806" lon="6.6249">
        <ele>543</ele>
        <time>2023-04-04T09:11:23.033Z</time>
      </trkpt>
      <trkpt lat="48.18797" lon="6.62517">
        <ele>543</ele>
        <time>2023-04-04T09:11:25.802Z</time>
      </trkpt>
      <trkpt lat="48.18793" lon="6.62533">
        <ele>543</ele>
        <time>2023-04-04T09:11:28.574Z</time>
      </trkpt>
      <trkpt lat="48.1879" lon="6.62539">
        <ele>543</ele>
        <time>2023-04-04T09:11:31.347Z</time>
      </trkpt>
      <trkpt lat="48.18787" lon="6.62541">
        <ele>543</ele>
        <time>2023-04-04T09:11:34.120Z</time>
      </trkpt>
      <trkpt lat="48.18785" lon="6.6254">
        <ele>543</ele>
        <time>2023-04-04T09:11:36.894Z</time>
      </trkpt>
      <trkpt lat="48.18799" lon="6.62545">
        <ele>544</ele>
        <time>2023-04-04T09:11:39.671Z</time>
      </trkpt>
      <trkpt lat="48.18803" lon="6.62545">
        <ele>544</ele>
        <time>2023-04-04T09:11:42.448Z</time>
      </trkpt>
      <trkpt lat="48.18816" lon="6.62547">
        <ele>544</ele>
        <time>2023-04-04T09:11:45.228Z</time>
      </trkpt>
      <trkpt lat="48.1882" lon="6.62548">
        <ele>544</ele>
        <time>2023-04-04T09:11:48.009Z</time>
      </trkpt>
      <trkpt lat="48.18837" lon="6.62559">
        <ele>544</ele>
        <time>2023-04-04T09:11:50.793Z</time>
      </trkpt>
      <trkpt lat="48.18852" lon="6.6258">
        <ele>544</ele>
        <time>2023-04-04T09:11:53.582Z</time>
      </trkpt>
      <trkpt lat="48.1887" lon="6.62616">
        <ele>544</ele>
        <time>2023-04-04T09:11:56.377Z</time>
      </trkpt>
      <trkpt lat="48.18875" lon="6.62626">
        <ele>544</ele>
        <time>2023-04-04T09:11:59.173Z</time>
      </trkpt>
      <trkpt lat="48.18879" lon="6.62635">
        <ele>544</ele>
        <time>2023-04-04T09:12:01.971Z</time>
      </trkpt>
      <trkpt lat="48.1888" lon="6.62639">
        <ele>545</ele>
        <time>2023-04-04T09:12:04.769Z</time>
      </trkpt>
      <trkpt lat="48.18884" lon="6.6265">
        <ele>545</ele>
        <time>2023-04-04T09:12:07.569Z</time>
      </trkpt>
      <trkpt lat="48.18887" lon="6.62658">
        <ele>545</ele>
        <time>2023-04-04T09:12:10.370Z</time>
      </trkpt>
      <trkpt lat="48.18887" lon="6.62666">
        <ele>545</ele>
        <time>2023-04-04T09:12:13.172Z</time>
      </trkpt>
      <trkpt lat="48.18889" lon="6.62679">
        <ele>545</ele>
        <time>2023-04-04T09:12:15.976Z</time>
      </trkpt>
      <trkpt lat="48.18895" lon="6.62701">
        <ele>546</ele>
        <time>2023-04-04T09:12:18.783Z</time>
      </trkpt>
      <trkpt lat="48.189" lon="6.62715">
        <ele>546</ele>
        <time>2023-04-04T09:12:21.592Z</time>
      </trkpt>
      <trkpt lat="48.18902" lon="6.62729">
        <ele>546</ele>
        <time>2023-04-04T09:12:24.403Z</time>
      </trkpt>
      <trkpt lat="48.18904" lon="6.62737">
        <ele>546</ele>
        <time>2023-04-04T09:12:27.215Z</time>
      </trkpt>
      <trkpt lat="48.18905" lon="6.6274">
        <ele>547</ele>
        <time>2023-04-04T09:12:30.028Z</time>
      </trkpt>
      <trkpt lat="48.1891" lon="6.62745">
        <ele>547</ele>
        <time>2023-04-04T09:12:32.842Z</time>
      </trkpt>
      <trkpt lat="48.18912" lon="6.62746">
        <ele>547</ele>
        <time>2023-04-04T09:12:35.656Z</time>
      </trkpt>
      <trkpt lat="48.18922" lon="6.62755">
        <ele>547</ele>
        <time>2023-04-04T09:12:38.473Z</time>
      </trkpt>
      <trkpt lat="48.1893" lon="6.62765">
        <ele>548</ele>
        <time>2023-04-04T09:12:41.292Z</time>
      </trkpt>
      <trkpt lat="48.18942" lon="6.62772">
        <ele>548</ele>
        <time>2023-04-04T09:12:44.113Z</time>
      </trkpt>
      <trkpt lat="48.18958" lon="6.6278">
        <ele>548</ele>
        <time>2023-04-04T09:12:46.938Z</time>
      </trkpt>
      <trkpt lat="48.1898" lon="6.62795">
        <ele>549</ele>
        <time>2023-04-04T09:12:49.768Z</time>
      </trkpt>
      <trkpt lat="48.19" lon="6.6281">
        <ele>549</ele>
        <time>2023-04-04T09:12:52.602Z</time>
      </trkpt>
      <trkpt lat="48.19011" lon="6.62819">
        <ele>549</ele>
        <time>2023-04-04T09:12:55.439Z</time>
      </trkpt>
      <trkpt lat="48.19012" lon="6.62821">
        <ele>550</ele>
        <time>2023-04-04T09:12:58.276Z</time>
      </trkpt>
      <trkpt lat="48.19018" lon="6.6283">
        <ele>550</ele>
        <time>2023-04-04T09:13:01.115Z</time>
      </trkpt>
      <trkpt lat="48.19019" lon="6.62836">
        <ele>551</ele>
        <time>2023-04-04T09:13:03.955Z</time>
      </trkpt>
      <trkpt lat="48.19019" lon="6.62839">
        <ele>551</ele>
        <time>2023-04-04T09:13:06.795Z</time>
      </trkpt>
      <trkpt lat="48.19015" lon="6.62849">
        <ele>552</ele>
        <time>2023-04-04T09:13:09.637Z</time>
      </trkpt>
      <trkpt lat="48.19015" lon="6.62851">
        <ele>552</ele>
        <time>2023-04-04T09:13:12.479Z</time>
      </trkpt>
      <trkpt lat="48.19013" lon="6.62859">
        <ele>553</ele>
        <time>2023-04-04T09:13:15.322Z</time>
      </trkpt>
      <trkpt lat="48.19011" lon="6.62867">
        <ele>554</ele>
        <time>2023-04-04T09:13:18.166Z</time>
      </trkpt>
      <trkpt lat="48.19005" lon="6.62877">
        <ele>554</ele>
        <time>2023-04-04T09:13:21.012Z</time>
      </trkpt>
      <trkpt lat="48.19001" lon="6.62892">
        <ele>555</ele>
        <time>2023-04-04T09:13:23.860Z</time>
      </trkpt>
      <trkpt lat="48.18998" lon="6.629">
        <ele>556</ele>
        <time>2023-04-04T09:13:26.709Z</time>
      </trkpt>
      <trkpt lat="48.19" lon="6.62902">
        <ele>556</ele>
        <time>2023-04-04T09:13:29.559Z</time>
      </trkpt>
      <trkpt lat="48.18999" lon="6.62908">
        <ele>557</ele>
        <time>2023-04-04T09:13:32.410Z</time>
      </trkpt>
      <trkpt lat="48.18997" lon="6.62915">
        <ele>557</ele>
        <time>2023-04-04T09:13:35.262Z</time>
      </trkpt>
      <trkpt lat="48.18988" lon="6.62933">
        <ele>558</ele>
        <time>2023-04-04T09:13:38.117Z</time>
      </trkpt>
      <trkpt lat="48.18985" lon="6.62941">
        <ele>559</ele>
        <time>2023-04-04T09:13:40.973Z</time>
      </trkpt>
      <trkpt lat="48.18984" lon="6.62949">
        <ele>559</ele>
        <time>2023-04-04T09:13:43.830Z</time>
      </trkpt>
      <trkpt lat="48.18984" lon="6.62965">
        <ele>560</ele>
        <time>2023-04-04T09:13:46.689Z</time>
      </trkpt>
      <trkpt lat="48.18984" lon="6.62967">
        <ele>561</ele>
        <time>2023-04-04T09:13:49.548Z</time>
      </trkpt>
      <trkpt lat="48.18986" lon="6.62971">
        <ele>561</ele>
        <time>2023-04-04T09:13:52.408Z</time>
      </trkpt>
      <trkpt lat="48.1899" lon="6.62979">
        <ele>562</ele>
        <time>2023-04-04T09:13:55.269Z</time>
      </trkpt>
      <trkpt lat="48.1899" lon="6.62982">
        <ele>563</ele>
        <time>2023-04-04T09:13:58.131Z</time>
      </trkpt>
      <trkpt lat="48.18991" lon="6.62984">
        <ele>563</ele>
        <time>2023-04-04T09:14:00.993Z</time>
      </trkpt>
      <trkpt lat="48.18997" lon="6.62992">
        <ele>564</ele>
        <time>2023-04-04T09:14:03.857Z</time>
      </trkpt>
      <trkpt lat="48.19001" lon="6.62995">
        <ele>565</ele>
        <time>2023-04-04T09:14:06.722Z</time>
      </trkpt>
      <trkpt lat="48.19005" lon="6.63005">
        <ele>565</ele>
        <time>2023-04-04T09:14:09.588Z</time>
      </trkpt>
      <trkpt lat="48.19009" lon="6.63012">
        <ele>566</ele>
        <time>2023-04-04T09:14:12.455Z</time>
      </trkpt>
      <trkpt lat="48.19014" lon="6.63017">
        <ele>566</ele>
        <time>2023-04-04T09:14:15.324Z</time>
      </trkpt>
      <trkpt lat="48.19016" lon="6.6302">
        <ele>567</ele>
        <time>2023-04-04T09:14:18.193Z</time>
      </trkpt>
      <trkpt lat="48.19018" lon="6.63024">
        <ele>568</ele>
        <time>2023-04-04T09:14:21.063Z</time>
      </trkpt>
      <trkpt lat="48.1902" lon="6.63031">
        <ele>568</ele>
        <time>2023-04-04T09:14:23.934Z</time>
      </trkpt>
      <trkpt lat="48.19021" lon="6.63032">
        <ele>569</ele>
        <time>2023-04-04T09:14:26.805Z</time>
      </trkpt>
      <trkpt lat="48.19026" lon="6.63041">
        <ele>570</ele>
        <time>2023-04-04T09:14:29.678Z</time>
      </trkpt>
      <trkpt lat="48.19032" lon="6.63053">
        <ele>570</ele>
        <time>2023-04-04T09:14:32.553Z</time>
      </trkpt>
      <trkpt lat="48.19033" lon="6.63056">
        <ele>571</ele>
        <time>2023-04-04T09:14:35.428Z</time>
      </trkpt>
      <trkpt lat="48.19035" lon="6.63057">
        <ele>572</ele>
        <time>2023-04-04T09:14:38.303Z</time>
      </trkpt>
      <trkpt lat="48.19039" lon="6.63065">
        <ele>572</ele>
        <time>2023-04-04T09:14:41.180Z</time>
      </trkpt>
      <trkpt lat="48.19045" lon="6.63081">
        <ele>573</ele>
        <time>2023-04-04T09:14:44.059Z</time>
      </trkpt>
      <trkpt lat="48.19046" lon="6.63085">
        <ele>574</ele>
        <time>2023-04-04T09:14:46.939Z</time>
      </trkpt>
      <trkpt lat="48.1905" lon="6.63092">
        <ele>574</ele>
        <time>2023-04-04T09:14:49.820Z</time>
      </trkpt>
      <trkpt lat="48.19054" lon="6.63101">
        <ele>575</ele>
        <time>2023-04-04T09:14:52.703Z</time>
      </trkpt>
      <trkpt lat="48.19057" lon="6.63104">
        <ele>576</ele>
        <time>2023-04-04T09:14:55.586Z</time>
      </trkpt>
      <trkpt lat="48.19059" lon="6.63106">
        <ele>576</ele>
        <time>2023-04-04T09:14:58.470Z</time>
      </trkpt>
      <trkpt lat="48.19062" lon="6.63113">
        <ele>577</ele>
        <time>2023-04-04T09:15:01.355Z</time>
      </trkpt>
      <trkpt lat="48.19069" lon="6.63126">
        <ele>578</ele>
        <time>2023-04-04T09:15:04.242Z</time>
      </trkpt>
      <trkpt lat="48.19077" lon="6.63137">
        <ele>578</ele>
        <time>2023-04-04T09:15:07.131Z</time>
      </trkpt>
      <trkpt lat="48.19082" lon="6.6315">
        <ele>579</ele>
        <time>2023-04-04T09:15:10.022Z</time>
      </trkpt>
      <trkpt lat="48.19083" lon="6.63152">
        <ele>580</ele>
        <time>2023-04-04T09:15:12.914Z</time>
      </trkpt>
      <trkpt lat="48.19084" lon="6.63154">
        <ele>580</ele>
        <time>2023-04-04T09:15:15.806Z</time>
      </trkpt>
      <trkpt lat="48.19088" lon="6.63164">
        <ele>581</ele>
        <time>2023-04-04T09:15:18.699Z</time>
      </trkpt>
      <trkpt lat="48.19096" lon="6.63179">
        <ele>582</ele>
        <time>2023-04-04T09:15:21.595Z</time>
      </trkpt>
      <trkpt lat="48.19101" lon="6.632">
        <ele>582</ele>
        <time>2023-04-04T09:15:24.494Z</time>
      </trkpt>
      <trkpt lat="48.19115" lon="6.63221">
        <ele>583</ele>
        <time>2023-04-04T09:15:27.397Z</time>
      </trkpt>
      <trkpt lat="48.19128" lon="6.6324">
        <ele>583</ele>
        <time>2023-04-04T09:15:30.304Z</time>
      </trkpt>
      <trkpt lat="48.19139" lon="6.63263">
        <ele>584</ele>
        <time>2023-04-04T09:15:33.214Z</time>
      </trkpt>
      <trkpt lat="48.19151" lon="6.63286">
        <ele>585</ele>
        <time>2023-04-04T09:15:36.128Z</time>
      </trkpt>
      <trkpt lat="48.19152" lon="6.63288">
        <ele>585</ele>
        <time>2023-04-04T09:15:39.043Z</time>
      </trkpt>
      <trkpt lat="48.19163" lon="6.63311">
        <ele>586</ele>
        <time>2023-04-04T09:15:41.961Z</time>
      </trkpt>
      <trkpt lat="48.19176" lon="6.63336">
        <ele>586</ele>
        <time>2023-04-04T09:15:44.884Z</time>
      </trkpt>
      <trkpt lat="48.19187" lon="6.63361">
        <ele>587</ele>
        <time>2023-04-04T09:15:47.811Z</time>
      </trkpt>
      <trkpt lat="48.192" lon="6.63381">
        <ele>587</ele>
        <time>2023-04-04T09:15:50.741Z</time>
      </trkpt>
      <trkpt lat="48.19204" lon="6.6339">
        <ele>587</ele>
        <time>2023-04-04T09:15:53.673Z</time>
      </trkpt>
      <trkpt lat="48.19207" lon="6.63394">
        <ele>588</ele>
        <time>2023-04-04T09:15:56.606Z</time>
      </trkpt>
      <trkpt lat="48.19214" lon="6.63404">
        <ele>588</ele>
        <time>2023-04-04T09:15:59.541Z</time>
      </trkpt>
      <trkpt lat="48.19216" lon="6.63406">
        <ele>588</ele>
        <time>2023-04-04T09:16:02.476Z</time>
      </trkpt>
      <trkpt lat="48.1923" lon="6.63437">
        <ele>589</ele>
        <time>2023-04-04T09:16:05.416Z</time>
      </trkpt>
      <trkpt lat="48.19248" lon="6.63462">
        <ele>589</ele>
        <time>2023-04-04T09:16:08.361Z</time>
      </trkpt>
      <trkpt lat="48.19256" lon="6.63477">
        <ele>589</ele>
        <time>2023-04-04T09:16:11.309Z</time>
      </trkpt>
      <trkpt lat="48.19263" lon="6.63492">
        <ele>589</ele>
        <time>2023-04-04T09:16:14.259Z</time>
      </trkpt>
      <trkpt lat="48.19271" lon="6.63509">
        <ele>590</ele>
        <time>2023-04-04T09:16:17.212Z</time>
      </trkpt>
      <trkpt lat="48.19278" lon="6.63519">
        <ele>590</ele>
        <time>2023-04-04T09:16:20.167Z</time>
      </trkpt>
      <trkpt lat="48.19284" lon="6.63532">
        <ele>590</ele>
        <time>2023-04-04T09:16:23.124Z</time>
      </trkpt>
      <trkpt lat="48.19292" lon="6.63548">
        <ele>590</ele>
        <time>2023-04-04T09:16:26.084Z</time>
      </trkpt>
      <trkpt lat="48.19298" lon="6.63561">
        <ele>590</ele>
        <time>2023-04-04T09:16:29.046Z</time>
      </trkpt>
      <trkpt lat="48.19309" lon="6.63583">
        <ele>590</ele>
        <time>2023-04-04T09:16:32.011Z</time>
      </trkpt>
      <trkpt lat="48.19328" lon="6.63608">
        <ele>591</ele>
        <time>2023-04-04T09:16:34.981Z</time>
      </trkpt>
      <trkpt lat="48.19333" lon="6.63616">
        <ele>591</ele>
        <time>2023-04-04T09:16:37.953Z</time>
      </trkpt>
      <trkpt lat="48.19334" lon="6.63619">
        <ele>591</ele>
        <time>2023-04-04T09:16:40.925Z</time>
      </trkpt>
      <trkpt lat="48.19343" lon="6.63641">
        <ele>591</ele>
        <time>2023-04-04T09:16:43.901Z</time>
      </trkpt>
      <trkpt lat="48.19352" lon="6.63663">
        <ele>591</ele>
        <time>2023-04-04T09:16:46.880Z</time>
      </trkpt>
      <trkpt lat="48.19362" lon="6.63678">
        <ele>591</ele>
        <time>2023-04-04T09:16:49.862Z</time>
      </trkpt>
      <trkpt lat="48.19364" lon="6.63682">
        <ele>591</ele>
        <time>2023-04-04T09:16:52.845Z</time>
      </trkpt>
      <trkpt lat="48.19368" lon="6.63689">
        <ele>591</ele>
        <time>2023-04-04T09:16:55.829Z</time>
      </trkpt>
      <trkpt lat="48.19372" lon="6.63698">
        <ele>591</ele>
        <time>2023-04-04T09:16:58.814Z</time>
      </trkpt>
      <trkpt lat="48.19376" lon="6.63708">
        <ele>591</ele>
        <time>2023-04-04T09:17:01.801Z</time>
      </trkpt>
      <trkpt lat="48.19384" lon="6.63717">
        <ele>590</ele>
        <time>2023-04-04T09:17:04.790Z</time>
      </trkpt>
      <trkpt lat="48.19392" lon="6.63728">
        <ele>590</ele>
        <time>2023-04-04T09:17:07.781Z</time>
      </trkpt>
      <trkpt lat="48.19395" lon="6.63735">
        <ele>590</ele>
        <time>2023-04-04T09:17:10.773Z</time>
      </trkpt>
      <trkpt lat="48.19394" lon="6.63756">
        <ele>590</ele>
        <time>2023-04-04T09:17:13.768Z</time>
      </trkpt>
      <trkpt lat="48.19393" lon="6.63774">
        <ele>590</ele>
        <time>2023-04-04T09:17:16.765Z</time>
      </trkpt>
      <trkpt lat="48.19392" lon="6.63777">
        <ele>590</ele>
        <time>2023-04-04T09:17:19.763Z</time>
      </trkpt>
      <trkpt lat="48.19386" lon="6.63795">
        <ele>590</ele>
        <time>2023-04-04T09:17:22.764Z</time>
      </trkpt>
      <trkpt lat="48.19367" lon="6.63807">
        <ele>590</ele>
        <time>2023-04-04T09:17:25.769Z</time>
      </trkpt>
      <trkpt lat="48.19354" lon="6.63825">
        <ele>590</ele>
        <time>2023-04-04T09:17:28.777Z</time>
      </trkpt>
      <trkpt lat="48.19341" lon="6.63843">
        <ele>590</ele>
        <time>2023-04-04T09:17:31.789Z</time>
      </trkpt>
      <trkpt lat="48.1933" lon="6.63853">
        <ele>590</ele>
        <time>2023-04-04T09:17:34.803Z</time>
      </trkpt>
      <trkpt lat="48.19324" lon="6.63859">
        <ele>590</ele>
        <time>2023-04-04T09:17:37.819Z</time>
      </trkpt>
      <trkpt lat="48.19319" lon="6.63862">
        <ele>590</ele>
        <time>2023-04-04T09:17:40.836Z</time>
      </trkpt>
      <trkpt lat="48.19311" lon="6.63872">
        <ele>589</ele>
        <time>2023-04-04T09:17:43.855Z</time>
      </trkpt>
      <trkpt lat="48.19297" lon="6.63879">
        <ele>589</ele>
        <time>2023-04-04T09:17:46.877Z</time>
      </trkpt>
      <trkpt lat="48.19271" lon="6.63899">
        <ele>589</ele>
        <time>2023-04-04T09:17:49.905Z</time>
      </trkpt>
      <trkpt lat="48.19247" lon="6.63918">
        <ele>589</ele>
        <time>2023-04-04T09:17:52.938Z</time>
      </trkpt>
      <trkpt lat="48.1923" lon="6.63938">
        <ele>589</ele>
        <time>2023-04-04T09:17:55.976Z</time>
      </trkpt>
      <trkpt lat="48.19209" lon="6.63955">
        <ele>589</ele>
        <time>2023-04-04T09:17:59.018Z</time>
      </trkpt>
      <trkpt lat="48.19207" lon="6.63963">
        <ele>589</ele>
        <time>2023-04-04T09:18:02.062Z</time>
      </trkpt>
      <trkpt lat="48.19208" lon="6.63965">
        <ele>589</ele>
        <time>2023-04-04T09:18:05.106Z</time>
      </trkpt>
      <trkpt lat="48.19213" lon="6.63969">
        <ele>589</ele>
        <time>2023-04-04T09:18:08.151Z</time>
      </trkpt>
      <trkpt lat="48.19221" lon="6.63979">
        <ele>589</ele>
        <time>2023-04-04T09:18:11.198Z</time>
      </trkpt>
      <trkpt lat="48.19222" lon="6.63984">
        <ele>589</ele>
        <time>2023-04-04T09:18:14.246Z</time>
      </trkpt>
      <trkpt lat="48.19226" lon="6.63994">
        <ele>589</ele>
        <time>2023-04-04T09:18:17.295Z</time>
      </trkpt>
      <trkpt lat="48.19233" lon="6.64008">
        <ele>590</ele>
        <time>2023-04-04T09:18:20.347Z</time>
      </trkpt>
      <trkpt lat="48.19249" lon="6.64024">
        <ele>590</ele>
        <time>2023-04-04T09:18:23.403Z</time>
      </trkpt>
      <trkpt lat="48.19256" lon="6.64041">
        <ele>590</ele>
        <time>2023-04-04T09:18:26.461Z</time>
      </trkpt>
      <trkpt lat="48.19263" lon="6.64057">
        <ele>590</ele>
        <time>2023-04-04T09:18:29.522Z</time>
      </trkpt>
      <trkpt lat="48.19265" lon="6.64069">
        <ele>590</ele>
        <time>2023-04-04T09:18:32.584Z</time>
      </trkpt>
      <trkpt lat="48.19263" lon="6.64077">
        <ele>590</ele>
        <time>2023-04-04T09:18:35.648Z</time>
      </trkpt>
      <trkpt lat="48.19265" lon="6.64089">
        <ele>590</ele>
        <time>2023-04-04T09:18:38.713Z</time>
      </trkpt>
      <trkpt lat="48.19268" lon="6.64099">
        <ele>590</ele>
        <time>2023-04-04T09:18:41.780Z</time>
      </trkpt>
      <trkpt lat="48.19269" lon="6.64106">
        <ele>590</ele>
        <time>2023-04-04T09:18:44.848Z</time>
      </trkpt>
      <trkpt lat="48.19269" lon="6.64109">
        <ele>590</ele>
        <time>2023-04-04T09:18:47.916Z</time>
      </trkpt>
      <trkpt lat="48.19272" lon="6.64119">
        <ele>590</ele>
        <time>2023-04-04T09:18:50.986Z</time>
      </trkpt>
      <trkpt lat="48.19273" lon="6.64131">
        <ele>590</ele>
        <time>2023-04-04T09:18:54.057Z</time>
      </trkpt>
      <trkpt lat="48.19277" lon="6.64164">
        <ele>590</ele>
        <time>2023-04-04T09:18:57.133Z</time>
      </trkpt>
      <trkpt lat="48.19275" lon="6.64176">
        <ele>590</ele>
        <time>2023-04-04T09:19:00.210Z</time>
      </trkpt>
      <trkpt lat="48.19278" lon="6.64192">
        <ele>589</ele>
        <time>2023-04-04T09:19:03.289Z</time>
      </trkpt>
      <trkpt lat="48.19281" lon="6.64215">
        <ele>589</ele>
        <time>2023-04-04T09:19:06.372Z</time>
      </trkpt>
      <trkpt lat="48.1928" lon="6.64239">
        <ele>589</ele>
        <time>2023-04-04T09:19:09.458Z</time>
      </trkpt>
      <trkpt lat="48.19281" lon="6.64253">
        <ele>589</ele>
        <time>2023-04-04T09:19:12.546Z</time>
      </trkpt>
      <trkpt lat="48.19283" lon="6.6427">
        <ele>588</ele>
        <time>2023-04-04T09:19:15.636Z</time>
      </trkpt>
      <trkpt lat="48.19282" lon="6.64276">
        <ele>588</ele>
        <time>2023-04-04T09:19:18.727Z</time>
      </trkpt>
      <trkpt lat="48.19284" lon="6.643">
        <ele>588</ele>
        <time>2023-04-04T09:19:21.821Z</time>
      </trkpt>
      <trkpt lat="48.19288" lon="6.64338">
        <ele>587</ele>
        <time>2023-04-04T09:19:24.920Z</time>
      </trkpt>
      <trkpt lat="48.19293" lon="6.64364">
        <ele>587</ele>
        <time>2023-04-04T09:19:28.023Z</time>
      </trkpt>
      <trkpt lat="48.19295" lon="6.64371">
        <ele>586</ele>
        <time>2023-04-04T09:19:31.127Z</time>
      </trkpt>
      <trkpt lat="48.19297" lon="6.64373">
        <ele>586</ele>
        <time>2023-04-04T09:19:34.231Z</time>
      </trkpt>
      <trkpt lat="48.19299" lon="6.64377">
        <ele>586</ele>
        <time>2023-04-04T09:19:37.336Z</time>
      </trkpt>
      <trkpt lat="48.193" lon="6.6438">
        <ele>585</ele>
        <time>2023-04-04T09:19:40.441Z</time>
      </trkpt>
      <trkpt lat="48.19304" lon="6.64394">
        <ele>585</ele>
        <time>2023-04-04T09:19:43.549Z</time>
      </trkpt>
      <trkpt lat="48.19309" lon="6.64407">
        <ele>584</ele>
        <time>2023-04-04T09:19:46.659Z</time>
      </trkpt>
      <trkpt lat="48.19313" lon="6.64413">
        <ele>584</ele>
        <time>2023-04-04T09:19:49.770Z</time>
      </trkpt>
      <trkpt lat="48.19315" lon="6.6442">
        <ele>584</ele>
        <time>2023-04-04T09:19:52.882Z</time>
      </trkpt>
      <trkpt lat="48.1932" lon="6.64432">
        <ele>583</ele>
        <time>2023-04-04T09:19:55.996Z</time>
      </trkpt>
      <trkpt lat="48.19328" lon="6.64445">
        <ele>583</ele>
        <time>2023-04-04T09:19:59.112Z</time>
      </trkpt>
      <trkpt lat="48.19339" lon="6.64459">
        <ele>582</ele>
        <time>2023-04-04T09:20:02.231Z</time>
      </trkpt>
      <trkpt lat="48.19343" lon="6.64467">
        <ele>582</ele>
        <time>2023-04-04T09:20:05.351Z</time>
      </trkpt>
      <trkpt lat="48.19352" lon="6.64502">
        <ele>582</ele>
        <time>2023-04-04T09:20:08.476Z</time>
      </trkpt>
      <trkpt lat="48.19355" lon="6.64517">
        <ele>581</ele>
        <time>2023-04-04T09:20:11.603Z</time>
      </trkpt>
      <trkpt lat="48.19356" lon="6.64536">
        <ele>581</ele>
        <time>2023-04-04T09:20:14.733Z</time>
      </trkpt>
      <trkpt lat="48.19359" lon="6.64548">
        <ele>581</ele>
        <time>2023-04-04T09:20:17.865Z</time>
      </trkpt>
      <trkpt lat="48.19362" lon="6.64564">
        <ele>580</ele>
        <time>2023-04-04T09:20:20.999Z</time>
      </trkpt>
      <trkpt lat="48.19363" lon="6.64572">
        <ele>580</ele>
        <time>2023-04-04T09:20:24.134Z</time>
      </trkpt>
      <trkpt lat="48.19365" lon="6.64587">
        <ele>580</ele>
        <time>2023-04-04T09:20:27.271Z</time>
      </trkpt>
      <trkpt lat="48.19368" lon="6.64601">
        <ele>580</ele>
        <time>2023-04-04T09:20:30.410Z</time>
      </trkpt>
      <trkpt lat="48.19372" lon="6.64611">
        <ele>580</ele>
        <time>2023-04-04T09:20:33.550Z</time>
      </trkpt>
      <trkpt lat="48.1938" lon="6.64623">
        <ele>580</ele>
        <time>2023-04-04T09:20:36.693Z</time>
      </trkpt>
      <trkpt lat="48.19381" lon="6.64629">
        <ele>580</ele>
        <time>2023-04-04T09:20:39.837Z</time>
      </trkpt>
      <trkpt lat="48.19381" lon="6.64634">
        <ele>580</ele>
        <time>2023-04-04T09:20:42.981Z</time>
      </trkpt>
      <trkpt lat="48.19387" lon="6.64645">
        <ele>580</ele>
        <time>2023-04-04T09:20:46.127Z</time>
      </trkpt>
      <trkpt lat="48.19389" lon="6.64655">
        <ele>580</ele>
        <time>2023-04-04T09:20:49.274Z</time>
      </trkpt>
      <trkpt lat="48.1939" lon="6.64661">
        <ele>580</ele>
        <time>2023-04-04T09:20:52.422Z</time>
      </trkpt>
      <trkpt lat="48.19392" lon="6.64673">
        <ele>580</ele>
        <time>2023-04-04T09:20:55.572Z</time>
      </trkpt>
      <trkpt lat="48.19397" lon="6.64699">
        <ele>581</ele>
        <time>2023-04-04T09:20:58.726Z</time>
      </trkpt>
      <trkpt lat="48.19407" lon="6.64719">
        <ele>581</ele>
        <time>2023-04-04T09:21:01.883Z</time>
      </trkpt>
      <trkpt lat="48.19423" lon="6.64759">
        <ele>582</ele>
        <time>2023-04-04T09:21:05.046Z</time>
      </trkpt>
      <trkpt lat="48.1943" lon="6.6477">
        <ele>582</ele>
        <time>2023-04-04T09:21:08.211Z</time>
      </trkpt>
      <trkpt lat="48.19431" lon="6.64765">
        <ele>583</ele>
        <time>2023-04-04T09:21:11.377Z</time>
      </trkpt>
      <trkpt lat="48.19431" lon="6.64759">
        <ele>583</ele>
        <time>2023-04-04T09:21:14.544Z</time>
      </trkpt>
      <trkpt lat="48.1943" lon="6.64742">
        <ele>584</ele>
        <time>2023-04-04T09:21:17.713Z</time>
      </trkpt>
      <trkpt lat="48.19434" lon="6.64718">
        <ele>585</ele>
        <time>2023-04-04T09:21:20.885Z</time>
      </trkpt>
      <trkpt lat="48.19435" lon="6.647">
        <ele>585</ele>
        <time>2023-04-04T09:21:24.060Z</time>
      </trkpt>
      <trkpt lat="48.19436" lon="6.64693">
        <ele>586</ele>
        <time>2023-04-04T09:21:27.236Z</time>
      </trkpt>
      <trkpt lat="48.19436" lon="6.64672">
        <ele>587</ele>
        <time>2023-04-04T09:21:30.414Z</time>
      </trkpt>
      <trkpt lat="48.19434" lon="6.64648">
        <ele>587</ele>
        <time>2023-04-04T09:21:33.596Z</time>
      </trkpt>
      <trkpt lat="48.19434" lon="6.64634">
        <ele>588</ele>
        <time>2023-04-04T09:21:36.780Z</time>
      </trkpt>
      <trkpt lat="48.19438" lon="6.64618">
        <ele>589</ele>
        <time>2023-04-04T09:21:39.966Z</time>
      </trkpt>
      <trkpt lat="48.19441" lon="6.64606">
        <ele>589</ele>
        <time>2023-04-04T09:21:43.154Z</time>
      </trkpt>
      <trkpt lat="48.19443" lon="6.64603">
        <ele>590</ele>
        <time>2023-04-04T09:21:46.342Z</time>
      </trkpt>
      <trkpt lat="48.19448" lon="6.64582">
        <ele>591</ele>
        <time>2023-04-04T09:21:49.533Z</time>
      </trkpt>
      <trkpt lat="48.19452" lon="6.64578">
        <ele>591</ele>
        <time>2023-04-04T09:21:52.725Z</time>
      </trkpt>
      <trkpt lat="48.19455" lon="6.64571">
        <ele>592</ele>
        <time>2023-04-04T09:21:55.918Z</time>
      </trkpt>
      <trkpt lat="48.19466" lon="6.64555">
        <ele>592</ele>
        <time>2023-04-04T09:21:59.114Z</time>
      </trkpt>
      <trkpt lat="48.19477" lon="6.6454">
        <ele>593</ele>
        <time>2023-04-04T09:22:02.313Z</time>
      </trkpt>
      <trkpt lat="48.1948" lon="6.64534">
        <ele>593</ele>
        <time>2023-04-04T09:22:05.513Z</time>
      </trkpt>
      <trkpt lat="48.19491" lon="6.64514">
        <ele>594</ele>
        <time>2023-04-04T09:22:08.717Z</time>
      </trkpt>
      <trkpt lat="48.19499" lon="6.64499">
        <ele>594</ele>
        <time>2023-04-04T09:22:11.923Z</time>
      </trkpt>
      <trkpt lat="48.19504" lon="6.64489">
        <ele>594</ele>
        <time>2023-04-04T09:22:15.131Z</time>
      </trkpt>
      <trkpt lat="48.19505" lon="6.64486">
        <ele>594</ele>
        <time>2023-04-04T09:22:18.339Z</time>
      </trkpt>
      <trkpt lat="48.19506" lon="6.64482">
        <ele>594</ele>
        <time>2023-04-04T09:22:21.548Z</time>
      </trkpt>
      <trkpt lat="48.19509" lon="6.64475">
        <ele>594</ele>
        <time>2023-04-04T09:22:24.758Z</time>
      </trkpt>
      <trkpt lat="48.19511" lon="6.64468">
        <ele>594</ele>
        <time>2023-04-04T09:22:27.969Z</time>
      </trkpt>
      <trkpt lat="48.19518" lon="6.6445">
        <ele>594</ele>
        <time>2023-04-04T09:22:31.183Z</time>
      </trkpt>
      <trkpt lat="48.19534" lon="6.64408">
        <ele>594</ele>
        <time>2023-04-04T09:22:34.403Z</time>
      </trkpt>
      <trkpt lat="48.19543" lon="6.64386">
        <ele>594</ele>
        <time>2023-04-04T09:22:37.627Z</time>
      </trkpt>
      <trkpt lat="48.19549" lon="6.64376">
        <ele>593</ele>
        <time>2023-04-04T09:22:40.853Z</time>
      </trkpt>
      <trkpt lat="48.19564" lon="6.64353">
        <ele>593</ele>
        <time>2023-04-04T09:22:44.083Z</time>
      </trkpt>
      <trkpt lat="48.19568" lon="6.64347">
        <ele>592</ele>
        <time>2023-04-04T09:22:47.314Z</time>
      </trkpt>
      <trkpt lat="48.19573" lon="6.64342">
        <ele>592</ele>
        <time>2023-04-04T09:22:50.546Z</time>
      </trkpt>
      <trkpt lat="48.19587" lon="6.64335">
        <ele>591</ele>
        <time>2023-04-04T09:22:53.781Z</time>
      </trkpt>
      <trkpt lat="48.19597" lon="6.64333">
        <ele>591</ele>
        <time>2023-04-04T09:22:57.018Z</time>
      </trkpt>
      <trkpt lat="48.19604" lon="6.64334">
        <ele>590</ele>
        <time>2023-04-04T09:23:00.257Z</time>
      </trkpt>
      <trkpt lat="48.19616" lon="6.6434">
        <ele>589</ele>
        <time>2023-04-04T09:23:03.498Z</time>
      </trkpt>
      <trkpt lat="48.19628" lon="6.64346">
        <ele>588</ele>
        <time>2023-04-04T09:23:06.742Z</time>
      </trkpt>
      <trkpt lat="48.19634" lon="6.64347">
        <ele>588</ele>
        <time>2023-04-04T09:23:09.987Z</time>
      </trkpt>
      <trkpt lat="48.19651" lon="6.6435">
        <ele>587</ele>
        <time>2023-04-04T09:23:13.235Z</time>
      </trkpt>
      <trkpt lat="48.19669" lon="6.64366">
        <ele>586</ele>
        <time>2023-04-04T09:23:16.488Z</time>
      </trkpt>
      <trkpt lat="48.19672" lon="6.64372">
        <ele>585</ele>
        <time>2023-04-04T09:23:19.742Z</time>
      </trkpt>
      <trkpt lat="48.19678" lon="6.64379">
        <ele>584</ele>
        <time>2023-04-04T09:23:22.997Z</time>
      </trkpt>
      <trkpt lat="48.1968" lon="6.6438">
        <ele>583</ele>
        <time>2023-04-04T09:23:26.253Z</time>
      </trkpt>
      <trkpt lat="48.1969" lon="6.64389">
        <ele>582</ele>
        <time>2023-04-04T09:23:29.511Z</time>
      </trkpt>
      <trkpt lat="48.19702" lon="6.64397">
        <ele>581</ele>
        <time>2023-04-04T09:23:32.771Z</time>
      </trkpt>
      <trkpt lat="48.1971" lon="6.64402">
        <ele>581</ele>
        <time>2023-04-04T09:23:36.033Z</time>
      </trkpt>
      <trkpt lat="48.19721" lon="6.6441">
        <ele>580</ele>
        <time>2023-04-04T09:23:39.298Z</time>
      </trkpt>
      <trkpt lat="48.1973" lon="6.6441">
        <ele>579</ele>
        <time>2023-04-04T09:23:42.564Z</time>
      </trkpt>
      <trkpt lat="48.19735" lon="6.64413">
        <ele>578</ele>
        <time>2023-04-04T09:23:45.832Z</time>
      </trkpt>
      <trkpt lat="48.19751" lon="6.64417">
        <ele>577</ele>
        <time>2023-04-04T09:23:49.103Z</time>
      </trkpt>
      <trkpt lat="48.19764" lon="6.64415">
        <ele>576</ele>
        <time>2023-04-04T09:23:52.376Z</time>
      </trkpt>
      <trkpt lat="48.1977" lon="6.64413">
        <ele>575</ele>
        <time>2023-04-04T09:23:55.651Z</time>
      </trkpt>
      <trkpt lat="48.19775" lon="6.64413">
        <ele>574</ele>
        <time>2023-04-04T09:23:58.927Z</time>
      </trkpt>
      <trkpt lat="48.19786" lon="6.64416">
        <ele>574</ele>
        <time>2023-04-04T09:24:02.205Z</time>
      </trkpt>
      <trkpt lat="48.19789" lon="6.64418">
        <ele>573</ele>
        <time>2023-04-04T09:24:05.484Z</time>
      </trkpt>
      <trkpt lat="48.19793" lon="6.6442">
        <ele>572</ele>
        <time>2023-04-04T09:24:08.763Z</time>
      </trkpt>
      <trkpt lat="48.19799" lon="6.64423">
        <ele>571</ele>
        <time>2023-04-04T09:24:12.044Z</time>
      </trkpt>
      <trkpt lat="48.19808" lon="6.64432">
        <ele>571</ele>
        <time>2023-04-04T09:24:15.327Z</time>
      </trkpt>
      <trkpt lat="48.19813" lon="6.6444">
        <ele>570</ele>
        <time>2023-04-04T09:24:18.611Z</time>
      </trkpt>
      <trkpt lat="48.19821" lon="6.6445">
        <ele>569</ele>
        <time>2023-04-04T09:24:21.897Z</time>
      </trkpt>
      <trkpt lat="48.19826" lon="6.64454">
        <ele>569</ele>
        <time>2023-04-04T09:24:25.184Z</time>
      </trkpt>
      <trkpt lat="48.19835" lon="6.64471">
        <ele>568</ele>
        <time>2023-04-04T09:24:28.474Z</time>
      </trkpt>
      <trkpt lat="48.19838" lon="6.64472">
        <ele>568</ele>
        <time>2023-04-04T09:24:31.765Z</time>
      </trkpt>
      <trkpt lat="48.19842" lon="6.64472">
        <ele>567</ele>
        <time>2023-04-04T09:24:35.057Z</time>
      </trkpt>
      <trkpt lat="48.19853" lon="6.64481">
        <ele>567</ele>
        <time>2023-04-04T09:24:38.351Z</time>
      </trkpt>
      <trkpt lat="48.19855" lon="6.64485">
        <ele>566</ele>
        <time>2023-04-04T09:24:41.646Z</time>
      </trkpt>
      <trkpt lat="48.19863" lon="6.64489">
        <ele>566</ele>
        <time>2023-04-04T09:24:44.943Z</time>
      </trkpt>
      <trkpt lat="48.19884" lon="6.64515">
        <ele>565</ele>
        <time>2023-04-04T09:24:48.245Z</time>
      </trkpt>
      <trkpt lat="48.19895" lon="6.6453">
        <ele>565</ele>
        <time>2023-04-04T09:24:51.550Z</time>
      </trkpt>
      <trkpt lat="48.19909" lon="6.64537">
        <ele>565</ele>
        <time>2023-04-04T09:24:54.858Z</time>
      </trkpt>
      <trkpt lat="48.19912" lon="6.64539">
        <ele>564</ele>
        <time>2023-04-04T09:24:58.167Z</time>
      </trkpt>
      <trkpt lat="48.19916" lon="6.64542">
        <ele>564</ele>
        <time>2023-04-04T09:25:01.477Z</time>
      </trkpt>
      <trkpt lat="48.19929" lon="6.64553">
        <ele>564</ele>
        <time>2023-04-04T09:25:04.790Z</time>
      </trkpt>
      <trkpt lat="48.19933" lon="6.64557">
        <ele>564</ele>
        <time>2023-04-04T09:25:08.104Z</time>
      </trkpt>
      <trkpt lat="48.19941" lon="6.64562">
        <ele>563</ele>
        <time>2023-04-04T09:25:11.419Z</time>
      </trkpt>
      <trkpt lat="48.19956" lon="6.64576">
        <ele>563</ele>
        <time>2023-04-04T09:25:14.738Z</time>
      </trkpt>
      <trkpt lat="48.19962" lon="6.64579">
        <ele>563</ele>
        <time>2023-04-04T09:25:18.058Z</time>
      </trkpt>
      <trkpt lat="48.19974" lon="6.64587">
        <ele>563</ele>
        <time>2023-04-04T09:25:21.381Z</time>
      </trkpt>
      <trkpt lat="48.19982" lon="6.64597">
        <ele>563</ele>
        <time>2023-04-04T09:25:24.706Z</time>
      </trkpt>
      <trkpt lat="48.19983" lon="6.64601">
        <ele>563</ele>
        <time>2023-04-04T09:25:28.031Z</time>
      </trkpt>
      <trkpt lat="48.19984" lon="6.64605">
        <ele>563</ele>
        <time>2023-04-04T09:25:31.357Z</time>
      </trkpt>
      <trkpt lat="48.19995" lon="6.64605">
        <ele>563</ele>
        <time>2023-04-04T09:25:34.685Z</time>
      </trkpt>
      <trkpt lat="48.19999" lon="6.64607">
        <ele>563</ele>
        <time>2023-04-04T09:25:38.014Z</time>
      </trkpt>
      <trkpt lat="48.20006" lon="6.64609">
        <ele>563</ele>
        <time>2023-04-04T09:25:41.344Z</time>
      </trkpt>
      <trkpt lat="48.20014" lon="6.64625">
        <ele>563</ele>
        <time>2023-04-04T09:25:44.677Z</time>
      </trkpt>
      <trkpt lat="48.20017" lon="6.64628">
        <ele>563</ele>
        <time>2023-04-04T09:25:48.011Z</time>
      </trkpt>
      <trkpt lat="48.2002" lon="6.64643">
        <ele>564</ele>
        <time>2023-04-04T09:25:51.347Z</time>
      </trkpt>
      <trkpt lat="48.20023" lon="6.64648">
        <ele>564</ele>
        <time>2023-04-04T09:25:54.684Z</time>
      </trkpt>
      <trkpt lat="48.20025" lon="6.64651">
        <ele>564</ele>
        <time>2023-04-04T09:25:58.021Z</time>
      </trkpt>
      <trkpt lat="48.20029" lon="6.6466">
        <ele>565</ele>
        <time>2023-04-04T09:26:01.360Z</time>
      </trkpt>
      <trkpt lat="48.20031" lon="6.64662">
        <ele>565</ele>
        <time>2023-04-04T09:26:04.699Z</time>
      </trkpt>
      <trkpt lat="48.20037" lon="6.64668">
        <ele>565</ele>
        <time>2023-04-04T09:26:08.040Z</time>
      </trkpt>
      <trkpt lat="48.20042" lon="6.64678">
        <ele>566</ele>
        <time>2023-04-04T09:26:11.382Z</time>
      </trkpt>
      <trkpt lat="48.20047" lon="6.64687">
        <ele>566</ele>
        <time>2023-04-04T09:26:14.726Z</time>
      </trkpt>
      <trkpt lat="48.20047" lon="6.64689">
        <ele>567</ele>
        <time>2023-04-04T09:26:18.070Z</time>
      </trkpt>
      <trkpt lat="48.20053" lon="6.64696">
        <ele>567</ele>
        <time>2023-04-04T09:26:21.416Z</time>
      </trkpt>
      <trkpt lat="48.20055" lon="6.64698">
        <ele>568</ele>
        <time>2023-04-04T09:26:24.762Z</time>
      </trkpt>
      <trkpt lat="48.20058" lon="6.64703">
        <ele>568</ele>
        <time>2023-04-04T09:26:28.109Z</time>
      </trkpt>
      <trkpt lat="48.20062" lon="6.6471">
        <ele>569</ele>
        <time>2023-04-04T09:26:31.457Z</time>
      </trkpt>
      <trkpt lat="48.20069" lon="6.64729">
        <ele>569</ele>
        <time>2023-04-04T09:26:34.808Z</time>
      </trkpt>
      <trkpt lat="48.20077" lon="6.6474">
        <ele>570</ele>
        <time>2023-04-04T09:26:38.161Z</time>
      </trkpt>
      <trkpt lat="48.2008" lon="6.6475">
        <ele>571</ele>
        <time>2023-04-04T09:26:41.516Z</time>
      </trkpt>
      <trkpt lat="48.20085" lon="6.64756">
        <ele>571</ele>
        <time>2023-04-04T09:26:44.872Z</time>
      </trkpt>
      <trkpt lat="48.2009" lon="6.6476">
        <ele>572</ele>
        <time>2023-04-04T09:26:48.229Z</time>
      </trkpt>
      <trkpt lat="48.20093" lon="6.64763">
        <ele>572</ele>
        <time>2023-04-04T09:26:51.587Z</time>
      </trkpt>
      <trkpt lat="48.20095" lon="6.64765">
        <ele>573</ele>
        <time>2023-04-04T09:26:54.946Z</time>
      </trkpt>
      <trkpt lat="48.20103" lon="6.64779">
        <ele>573</ele>
        <time>2023-04-04T09:26:58.307Z</time>
      </trkpt>
      <trkpt lat="48.20106" lon="6.64787">
        <ele>574</ele>
        <time>2023-04-04T09:27:01.669Z</time>
      </trkpt>
      <trkpt lat="48.20109" lon="6.64792">
        <ele>574</ele>
        <time>2023-04-04T09:27:05.032Z</time>
      </trkpt>
      <trkpt lat="48.20111" lon="6.64796">
        <ele>575</ele>
        <time>2023-04-04T09:27:08.396Z</time>
      </trkpt>
      <trkpt lat="48.20112" lon="6.64802">
        <ele>575</ele>
        <time>2023-04-04T09:27:11.761Z</time>
      </trkpt>
      <trkpt lat="48.20113" lon="6.64805">
        <ele>576</ele>
        <time>2023-04-04T09:27:15.126Z</time>
      </trkpt>
      <trkpt lat="48.20116" lon="6.64823">
        <ele>576</ele>
        <time>2023-04-04T09:27:18.494Z</time>
      </trkpt>
      <trkpt lat="48.20125" lon="6.64837">
        <ele>577</ele>
        <time>2023-04-04T09:27:21.864Z</time>
      </trkpt>
      <trkpt lat="48.20129" lon="6.64844">
        <ele>577</ele>
        <time>2023-04-04T09:27:25.235Z</time>
      </trkpt>
      <trkpt lat="48.2013" lon="6.64846">
        <ele>578</ele>
        <time>2023-04-04T09:27:28.607Z</time>
      </trkpt>
      <trkpt lat="48.20132" lon="6.64848">
        <ele>578</ele>
        <time>2023-04-04T09:27:31.979Z</time>
      </trkpt>
      <trkpt lat="48.20138" lon="6.6486">
        <ele>579</ele>
        <time>2023-04-04T09:27:35.353Z</time>
      </trkpt>
      <trkpt lat="48.2014" lon="6.64862">
        <ele>579</ele>
        <time>2023-04-04T09:27:38.728Z</time>
      </trkpt>
      <trkpt lat="48.20142" lon="6.64863">
        <ele>580</ele>
        <time>2023-04-04T09:27:42.103Z</time>
      </trkpt>
      <trkpt lat="48.20144" lon="6.64864">
        <ele>581</ele>
        <time>2023-04-04T09:27:45.479Z</time>
      </trkpt>
      <trkpt lat="48.20145" lon="6.64865">
        <ele>581</ele>
        <time>2023-04-04T09:27:48.855Z</time>
      </trkpt>
      <trkpt lat="48.20152" lon="6.6487">
        <ele>582</ele>
        <time>2023-04-04T09:27:52.232Z</time>
      </trkpt>
      <trkpt lat="48.20161" lon="6.64887">
        <ele>582</ele>
        <time>2023-04-04T09:27:55.612Z</time>
      </trkpt>
      <trkpt lat="48.20166" lon="6.64893">
        <ele>583</ele>
        <time>2023-04-04T09:27:58.994Z</time>
      </trkpt>
      <trkpt lat="48.20169" lon="6.64898">
        <ele>583</ele>
        <time>2023-04-04T09:28:02.376Z</time>
      </trkpt>
      <trkpt lat="48.20179" lon="6.64907">
        <ele>584</ele>
        <time>2023-04-04T09:28:05.761Z</time>
      </trkpt>
      <trkpt lat="48.2019" lon="6.64921">
        <ele>584</ele>
        <time>2023-04-04T09:28:09.149Z</time>
      </trkpt>
      <trkpt lat="48.20202" lon="6.64943">
        <ele>585</ele>
        <time>2023-04-04T09:28:12.540Z</time>
      </trkpt>
      <trkpt lat="48.20204" lon="6.64947">
        <ele>585</ele>
        <time>2023-04-04T09:28:15.932Z</time>
      </trkpt>
      <trkpt lat="48.20209" lon="6.6496">
        <ele>586</ele>
        <time>2023-04-04T09:28:19.326Z</time>
      </trkpt>
      <trkpt lat="48.20218" lon="6.64976">
        <ele>587</ele>
        <time>2023-04-04T09:28:22.723Z</time>
      </trkpt>
      <trkpt lat="48.20224" lon="6.64996">
        <ele>587</ele>
        <time>2023-04-04T09:28:26.123Z</time>
      </trkpt>
      <trkpt lat="48.20231" lon="6.65016">
        <ele>588</ele>
        <time>2023-04-04T09:28:29.526Z</time>
      </trkpt>
      <trkpt lat="48.20233" lon="6.65021">
        <ele>588</ele>
        <time>2023-04-04T09:28:32.930Z</time>
      </trkpt>
      <trkpt lat="48.20237" lon="6.65024">
        <ele>589</ele>
        <time>2023-04-04T09:28:36.335Z</time>
      </trkpt>
      <trkpt lat="48.20251" lon="6.65039">
        <ele>589</ele>
        <time>2023-04-04T09:28:39.743Z</time>
      </trkpt>
      <trkpt lat="48.20254" lon="6.6505">
        <ele>589</ele>
        <time>2023-04-04T09:28:43.153Z</time>
      </trkpt>
      <trkpt lat="48.20255" lon="6.65053">
        <ele>590</ele>
        <time>2023-04-04T09:28:46.563Z</time>
      </trkpt>
      <trkpt lat="48.20267" lon="6.65068">
        <ele>590</ele>
        <time>2023-04-04T09:28:49.976Z</time>
      </trkpt>
      <trkpt lat="48.20276" lon="6.6508">
        <ele>590</ele>
        <time>2023-04-04T09:28:53.392Z</time>
      </trkpt>
      <trkpt lat="48.20277" lon="6.65083">
        <ele>590</ele>
        <time>2023-04-04T09:28:56.808Z</time>
      </trkpt>
      <trkpt lat="48.20278" lon="6.65094">
        <ele>591</ele>
        <time>2023-04-04T09:29:00.226Z</time>
      </trkpt>
      <trkpt lat="48.20279" lon="6.65101">
        <ele>591</ele>
        <time>2023-04-04T09:29:03.644Z</time>
      </trkpt>
      <trkpt lat="48.20281" lon="6.65108">
        <ele>591</ele>
        <time>2023-04-04T09:29:07.064Z</time>
      </trkpt>
      <trkpt lat="48.20284" lon="6.65118">
        <ele>591</ele>
        <time>2023-04-04T09:29:10.485Z</time>
      </trkpt>
      <trkpt lat="48.20286" lon="6.65124">
        <ele>591</ele>
        <time>2023-04-04T09:29:13.907Z</time>
      </trkpt>
      <trkpt lat="48.20294" lon="6.65138">
        <ele>590</ele>
        <time>2023-04-04T09:29:17.331Z</time>
      </trkpt>
      <trkpt lat="48.20296" lon="6.65142">
        <ele>590</ele>
        <time>2023-04-04T09:29:20.756Z</time>
      </trkpt>
      <trkpt lat="48.20307" lon="6.65166">
        <ele>590</ele>
        <time>2023-04-04T09:29:24.185Z</time>
      </trkpt>
      <trkpt lat="48.20315" lon="6.65181">
        <ele>589</ele>
        <time>2023-04-04T09:29:27.616Z</time>
      </trkpt>
      <trkpt lat="48.20322" lon="6.65191">
        <ele>588</ele>
        <time>2023-04-04T09:29:31.049Z</time>
      </trkpt>
      <trkpt lat="48.20328" lon="6.65199">
        <ele>588</ele>
        <time>2023-04-04T09:29:34.484Z</time>
      </trkpt>
      <trkpt lat="48.20335" lon="6.65188">
        <ele>587</ele>
        <time>2023-04-04T09:29:37.921Z</time>
      </trkpt>
      <trkpt lat="48.20337" lon="6.65181">
        <ele>586</ele>
        <time>2023-04-04T09:29:41.359Z</time>
      </trkpt>
      <trkpt lat="48.20339" lon="6.65178">
        <ele>585</ele>
        <time>2023-04-04T09:29:44.798Z</time>
      </trkpt>
      <trkpt lat="48.20342" lon="6.6517">
        <ele>584</ele>
        <time>2023-04-04T09:29:48.238Z</time>
      </trkpt>
      <trkpt lat="48.20347" lon="6.65156">
        <ele>583</ele>
        <time>2023-04-04T09:29:51.680Z</time>
      </trkpt>
      <trkpt lat="48.20348" lon="6.65151">
        <ele>581</ele>
        <time>2023-04-04T09:29:55.123Z</time>
      </trkpt>
      <trkpt lat="48.2035" lon="6.65141">
        <ele>580</ele>
        <time>2023-04-04T09:29:58.567Z</time>
      </trkpt>
      <trkpt lat="48.20352" lon="6.65136">
        <ele>579</ele>
        <time>2023-04-04T09:30:02.012Z</time>
      </trkpt>
      <trkpt lat="48.20357" lon="6.65129">
        <ele>577</ele>
        <time>2023-04-04T09:30:05.458Z</time>
      </trkpt>
      <trkpt lat="48.20361" lon="6.65123">
        <ele>575</ele>
        <time>2023-04-04T09:30:08.905Z</time>
      </trkpt>
      <trkpt lat="48.20368" lon="6.6512">
        <ele>573</ele>
        <time>2023-04-04T09:30:12.354Z</time>
      </trkpt>
      <trkpt lat="48.20386" lon="6.65111">
        <ele>571</ele>
        <time>2023-04-04T09:30:15.807Z</time>
      </trkpt>
      <trkpt lat="48.20391" lon="6.65108">
        <ele>570</ele>
        <time>2023-04-04T09:30:19.261Z</time>
      </trkpt>
      <trkpt lat="48.204" lon="6.65106">
        <ele>568</ele>
        <time>2023-04-04T09:30:22.717Z</time>
      </trkpt>
      <trkpt lat="48.20406" lon="6.65107">
        <ele>566</ele>
        <time>2023-04-04T09:30:26.174Z</time>
      </trkpt>
      <trkpt lat="48.20413" lon="6.65107">
        <ele>563</ele>
        <time>2023-04-04T09:30:29.632Z</time>
      </trkpt>
      <trkpt lat="48.20422" lon="6.65103">
        <ele>561</ele>
        <time>2023-04-04T09:30:33.092Z</time>
      </trkpt>
      <trkpt lat="48.20429" lon="6.651">
        <ele>559</ele>
        <time>2023-04-04T09:30:36.553Z</time>
      </trkpt>
      <trkpt lat="48.20437" lon="6.65099">
        <ele>557</ele>
        <time>2023-04-04T09:30:40.016Z</time>
      </trkpt>
      <trkpt lat="48.20459" lon="6.65077">
        <ele>555</ele>
        <time>2023-04-04T09:30:43.484Z</time>
      </trkpt>
      <trkpt lat="48.20476" lon="6.65063">
        <ele>552</ele>
        <time>2023-04-04T09:30:46.956Z</time>
      </trkpt>
      <trkpt lat="48.20492" lon="6.65044">
        <ele>550</ele>
        <time>2023-04-04T09:30:50.432Z</time>
      </trkpt>
      <trkpt lat="48.20507" lon="6.65032">
        <ele>548</ele>
        <time>2023-04-04T09:30:53.912Z</time>
      </trkpt>
      <trkpt lat="48.20521" lon="6.65024">
        <ele>546</ele>
        <time>2023-04-04T09:30:57.395Z</time>
      </trkpt>
      <trkpt lat="48.20527" lon="6.6502">
        <ele>544</ele>
        <time>2023-04-04T09:31:00.879Z</time>
      </trkpt>
      <trkpt lat="48.20538" lon="6.65019">
        <ele>542</ele>
        <time>2023-04-04T09:31:04.365Z</time>
      </trkpt>
      <trkpt lat="48.20548" lon="6.65022">
        <ele>540</ele>
        <time>2023-04-04T09:31:07.853Z</time>
      </trkpt>
      <trkpt lat="48.20561" lon="6.65025">
        <ele>538</ele>
        <time>2023-04-04T09:31:11.344Z</time>
      </trkpt>
      <trkpt lat="48.20567" lon="6.65022">
        <ele>536</ele>
        <time>2023-04-04T09:31:14.836Z</time>
      </trkpt>
      <trkpt lat="48.20572" lon="6.65021">
        <ele>534</ele>
        <time>2023-04-04T09:31:18.329Z</time>
      </trkpt>
      <trkpt lat="48.20581" lon="6.6502">
        <ele>532</ele>
        <time>2023-04-04T09:31:21.824Z</time>
      </trkpt>
      <trkpt lat="48.20586" lon="6.65017">
        <ele>530</ele>
        <time>2023-04-04T09:31:25.320Z</time>
      </trkpt>
      <trkpt lat="48.20595" lon="6.65014">
        <ele>529</ele>
        <time>2023-04-04T09:31:28.818Z</time>
      </trkpt>
      <trkpt lat="48.20598" lon="6.65014">
        <ele>527</ele>
        <time>2023-04-04T09:31:32.317Z</time>
      </trkpt>
      <trkpt lat="48.20602" lon="6.65013">
        <ele>525</ele>
        <time>2023-04-04T09:31:35.816Z</time>
      </trkpt>
      <trkpt lat="48.20617" lon="6.65018">
        <ele>524</ele>
        <time>2023-04-04T09:31:39.318Z</time>
      </trkpt>
      <trkpt lat="48.20631" lon="6.65026">
        <ele>522</ele>
        <time>2023-04-04T09:31:42.823Z</time>
      </trkpt>
      <trkpt lat="48.2064" lon="6.65026">
        <ele>521</ele>
        <time>2023-04-04T09:31:46.330Z</time>
      </trkpt>
      <trkpt lat="48.2065" lon="6.65021">
        <ele>519</ele>
        <time>2023-04-04T09:31:49.839Z</time>
      </trkpt>
      <trkpt lat="48.20656" lon="6.65019">
        <ele>518</ele>
        <time>2023-04-04T09:31:53.350Z</time>
      </trkpt>
      <trkpt lat="48.20666" lon="6.65017">
        <ele>517</ele>
        <time>2023-04-04T09:31:56.863Z</time>
      </trkpt>
      <trkpt lat="48.2067" lon="6.65018">
        <ele>515</ele>
        <time>2023-04-04T09:32:00.376Z</time>
      </trkpt>
      <trkpt lat="48.20682" lon="6.65013">
        <ele>514</ele>
        <time>2023-04-04T09:32:03.892Z</time>
      </trkpt>
      <trkpt lat="48.20688" lon="6.65008">
        <ele>513</ele>
        <time>2023-04-04T09:32:07.409Z</time>
      </trkpt>
      <trkpt lat="48.20705" lon="6.64995">
        <ele>512</ele>
        <time>2023-04-04T09:32:10.930Z</time>
      </trkpt>
      <trkpt lat="48.20716" lon="6.6499">
        <ele>511</ele>
        <time>2023-04-04T09:32:14.453Z</time>
      </trkpt>
      <trkpt lat="48.20722" lon="6.64984">
        <ele>510</ele>
        <time>2023-04-04T09:32:17.978Z</time>
      </trkpt>
      <trkpt lat="48.20727" lon="6.64979">
        <ele>509</ele>
        <time>2023-04-04T09:32:21.504Z</time>
      </trkpt>
      <trkpt lat="48.20743" lon="6.64965">
        <ele>508</ele>
        <time>2023-04-04T09:32:25.034Z</time>
      </trkpt>
      <trkpt lat="48.20747" lon="6.64962">
        <ele>507</ele>
        <time>2023-04-04T09:32:28.565Z</time>
      </trkpt>
      <trkpt lat="48.20756" lon="6.64955">
        <ele>506</ele>
        <time>2023-04-04T09:32:32.098Z</time>
      </trkpt>
      <trkpt lat="48.20781" lon="6.64934">
        <ele>505</ele>
        <time>2023-04-04T09:32:35.636Z</time>
      </trkpt>
      <trkpt lat="48.20801" lon="6.64917">
        <ele>505</ele>
        <time>2023-04-04T09:32:39.179Z</time>
      </trkpt>
      <trkpt lat="48.2082" lon="6.64897">
        <ele>504</ele>
        <time>2023-04-04T09:32:42.727Z</time>
      </trkpt>
      <trkpt lat="48.20824" lon="6.64893">
        <ele>503</ele>
        <time>2023-04-04T09:32:46.276Z</time>
      </trkpt>
      <trkpt lat="48.20853" lon="6.64867">
        <ele>502</ele>
        <time>2023-04-04T09:32:49.831Z</time>
      </trkpt>
      <trkpt lat="48.20863" lon="6.64857">
        <ele>501</ele>
        <time>2023-04-04T09:32:53.389Z</time>
      </trkpt>
      <trkpt lat="48.20867" lon="6.64854">
        <ele>500</ele>
        <time>2023-04-04T09:32:56.948Z</time>
      </trkpt>
      <trkpt lat="48.20872" lon="6.64849">
        <ele>499</ele>
        <time>2023-04-04T09:33:00.508Z</time>
      </trkpt>
      <trkpt lat="48.2088" lon="6.64843">
        <ele>498</ele>
        <time>2023-04-04T09:33:04.070Z</time>
      </trkpt>
      <trkpt lat="48.20888" lon="6.64837">
        <ele>498</ele>
        <time>2023-04-04T09:33:07.633Z</time>
      </trkpt>
      <trkpt lat="48.20898" lon="6.64834">
        <ele>497</ele>
        <time>2023-04-04T09:33:11.199Z</time>
      </trkpt>
      <trkpt lat="48.20916" lon="6.64821">
        <ele>496</ele>
        <time>2023-04-04T09:33:14.769Z</time>
      </trkpt>
      <trkpt lat="48.20922" lon="6.64817">
        <ele>495</ele>
        <time>2023-04-04T09:33:18.340Z</time>
      </trkpt>
      <trkpt lat="48.20941" lon="6.64811">
        <ele>494</ele>
        <time>2023-04-04T09:33:21.915Z</time>
      </trkpt>
      <trkpt lat="48.20965" lon="6.64812">
        <ele>492</ele>
        <time>2023-04-04T09:33:25.495Z</time>
      </trkpt>
      <trkpt lat="48.20981" lon="6.6481">
        <ele>491</ele>
        <time>2023-04-04T09:33:29.078Z</time>
      </trkpt>
      <trkpt lat="48.20984" lon="6.64806">
        <ele>490</ele>
        <time>2023-04-04T09:33:32.662Z</time>
      </trkpt>
      <trkpt lat="48.20985" lon="6.64801">
        <ele>489</ele>
        <time>2023-04-04T09:33:36.246Z</time>
      </trkpt>
      <trkpt lat="48.20992" lon="6.64785">
        <ele>488</ele>
        <time>2023-04-04T09:33:39.833Z</time>
      </trkpt>
      <trkpt lat="48.20997" lon="6.64778">
        <ele>487</ele>
        <time>2023-04-04T09:33:43.421Z</time>
      </trkpt>
      <trkpt lat="48.21003" lon="6.64765">
        <ele>486</ele>
        <time>2023-04-04T09:33:47.011Z</time>
      </trkpt>
      <trkpt lat="48.21015" lon="6.64748">
        <ele>485</ele>
        <time>2023-04-04T09:33:50.605Z</time>
      </trkpt>
      <trkpt lat="48.21021" lon="6.64735">
        <ele>483</ele>
        <time>2023-04-04T09:33:54.201Z</time>
      </trkpt>
      <trkpt lat="48.21028" lon="6.64718">
        <ele>482</ele>
        <time>2023-04-04T09:33:57.799Z</time>
      </trkpt>
      <trkpt lat="48.21033" lon="6.64709">
        <ele>481</ele>
        <time>2023-04-04T09:34:01.399Z</time>
      </trkpt>
      <trkpt lat="48.21042" lon="6.64692">
        <ele>480</ele>
        <time>2023-04-04T09:34:05.002Z</time>
      </trkpt>
      <trkpt lat="48.21053" lon="6.64666">
        <ele>479</ele>
        <time>2023-04-04T09:34:08.609Z</time>
      </trkpt>
      <trkpt lat="48.2106" lon="6.6465">
        <ele>478</ele>
        <time>2023-04-04T09:34:12.219Z</time>
      </trkpt>
      <trkpt lat="48.21071" lon="6.64624">
        <ele>477</ele>
        <time>2023-04-04T09:34:15.833Z</time>
      </trkpt>
      <trkpt lat="48.21078" lon="6.64614">
        <ele>475</ele>
        <time>2023-04-04T09:34:19.449Z</time>
      </trkpt>
      <trkpt lat="48.21084" lon="6.64605">
        <ele>474</ele>
        <time>2023-04-04T09:34:23.066Z</time>
      </trkpt>
      <trkpt lat="48.21087" lon="6.64601">
        <ele>473</ele>
        <time>2023-04-04T09:34:26.684Z</time>
      </trkpt>
      <trkpt lat="48.21089" lon="6.64601">
        <ele>472</ele>
        <time>2023-04-04T09:34:30.302Z</time>
      </trkpt>
      <trkpt lat="48.21095" lon="6.64605">
        <ele>471</ele>
        <time>2023-04-04T09:34:33.922Z</time>
      </trkpt>
      <trkpt lat="48.21104" lon="6.64618">
        <ele>470</ele>
        <time>2023-04-04T09:34:37.544Z</time>
      </trkpt>
      <trkpt lat="48.21115" lon="6.64631">
        <ele>469</ele>
        <time>2023-04-04T09:34:41.169Z</time>
      </trkpt>
      <trkpt lat="48.21133" lon="6.64648">
        <ele>468</ele>
        <time>2023-04-04T09:34:44.798Z</time>
      </trkpt>
      <trkpt lat="48.21136" lon="6.64653">
        <ele>467</ele>
        <time>2023-04-04T09:34:48.428Z</time>
      </trkpt>
      <trkpt lat="48.21145" lon="6.64663">
        <ele>466</ele>
        <time>2023-04-04T09:34:52.061Z</time>
      </trkpt>
      <trkpt lat="48.21149" lon="6.64666">
        <ele>465</ele>
        <time>2023-04-04T09:34:55.694Z</time>
      </trkpt>
      <trkpt lat="48.21154" lon="6.64668">
        <ele>463</ele>
        <time>2023-04-04T09:34:59.328Z</time>
      </trkpt>
      <trkpt lat="48.21162" lon="6.64674">
        <ele>462</ele>
        <time>2023-04-04T09:35:02.964Z</time>
      </trkpt>
      <trkpt lat="48.21165" lon="6.64677">
        <ele>461</ele>
        <time>2023-04-04T09:35:06.601Z</time>
      </trkpt>
      <trkpt lat="48.21177" lon="6.64693">
        <ele>460</ele>
        <time>2023-04-04T09:35:10.241Z</time>
      </trkpt>
      <trkpt lat="48.21187" lon="6.64717">
        <ele>458</ele>
        <time>2023-04-04T09:35:13.885Z</time>
      </trkpt>
      <trkpt lat="48.21199" lon="6.64736">
        <ele>457</ele>
        <time>2023-04-04T09:35:17.532Z</time>
      </trkpt>
      <trkpt lat="48.21215" lon="6.64763">
        <ele>455</ele>
        <time>2023-04-04T09:35:21.184Z</time>
      </trkpt>
      <trkpt lat="48.2123" lon="6.64785">
        <ele>454</ele>
        <time>2023-04-04T09:35:24.840Z</time>
      </trkpt>
      <trkpt lat="48.21239" lon="6.64807">
        <ele>452</ele>
        <time>2023-04-04T09:35:28.500Z</time>
      </trkpt>
      <trkpt lat="48.21256" lon="6.64832">
        <ele>450</ele>
        <time>2023-04-04T09:35:32.165Z</time>
      </trkpt>
      <trkpt lat="48.21268" lon="6.64845">
        <ele>448</ele>
        <time>2023-04-04T09:35:35.833Z</time>
      </trkpt>
      <trkpt lat="48.21281" lon="6.64866">
        <ele>447</ele>
        <time>2023-04-04T09:35:39.504Z</time>
      </trkpt>
      <trkpt lat="48.21294" lon="6.64896">
        <ele>445</ele>
        <time>2023-04-04T09:35:43.180Z</time>
      </trkpt>
      <trkpt lat="48.21308" lon="6.64921">
        <ele>443</ele>
        <time>2023-04-04T09:35:46.861Z</time>
      </trkpt>
      <trkpt lat="48.21319" lon="6.64943">
        <ele>441</ele>
        <time>2023-04-04T09:35:50.545Z</time>
      </trkpt>
      <trkpt lat="48.21331" lon="6.64963">
        <ele>438</ele>
        <time>2023-04-04T09:35:54.233Z</time>
      </trkpt>
      <trkpt lat="48.21346" lon="6.64984">
        <ele>436</ele>
        <time>2023-04-04T09:35:57.925Z</time>
      </trkpt>
      <trkpt lat="48.21349" lon="6.64987">
        <ele>434</ele>
        <time>2023-04-04T09:36:01.618Z</time>
      </trkpt>
      <trkpt lat="48.21362" lon="6.65004">
        <ele>432</ele>
        <time>2023-04-04T09:36:05.314Z</time>
      </trkpt>
      <trkpt lat="48.21372" lon="6.6502">
        <ele>431</ele>
        <time>2023-04-04T09:36:09.013Z</time>
      </trkpt>
      <trkpt lat="48.21378" lon="6.6502">
        <ele>429</ele>
        <time>2023-04-04T09:36:12.713Z</time>
      </trkpt>
      <trkpt lat="48.21386" lon="6.65015">
        <ele>427</ele>
        <time>2023-04-04T09:36:16.415Z</time>
      </trkpt>
      <trkpt lat="48.21395" lon="6.65006">
        <ele>425</ele>
        <time>2023-04-04T09:36:20.119Z</time>
      </trkpt>
      <trkpt lat="48.21408" lon="6.64993">
        <ele>423</ele>
        <time>2023-04-04T09:36:23.826Z</time>
      </trkpt>
      <trkpt lat="48.2144" lon="6.64972">
        <ele>421</ele>
        <time>2023-04-04T09:36:27.540Z</time>
      </trkpt>
      <trkpt lat="48.21482" lon="6.64955">
        <ele>420</ele>
        <time>2023-04-04T09:36:31.263Z</time>
      </trkpt>
      <trkpt lat="48.21512" lon="6.64944">
        <ele>418</ele>
        <time>2023-04-04T09:36:34.992Z</time>
      </trkpt>
      <trkpt lat="48.21521" lon="6.64935">
        <ele>417</ele>
        <time>2023-04-04T09:36:38.723Z</time>
      </trkpt>
      <trkpt lat="48.21551" lon="6.64888">
        <ele>415</ele>
        <time>2023-04-04T09:36:42.463Z</time>
      </trkpt>
      <trkpt lat="48.21583" lon="6.64832">
        <ele>414</ele>
        <time>2023-04-04T09:36:46.213Z</time>
      </trkpt>
      <trkpt lat="48.21606" lon="6.64772">
        <ele>412</ele>
        <time>2023-04-04T09:36:49.972Z</time>
      </trkpt>
      <trkpt lat="48.2161" lon="6.64753">
        <ele>411</ele>
        <time>2023-04-04T09:36:53.734Z</time>
      </trkpt>
      <trkpt lat="48.21609" lon="6.64744">
        <ele>410</ele>
        <time>2023-04-04T09:36:57.497Z</time>
      </trkpt>
      <trkpt lat="48.21607" lon="6.64737">
        <ele>409</ele>
        <time>2023-04-04T09:37:01.261Z</time>
      </trkpt>
      <trkpt lat="48.216" lon="6.64721">
        <ele>408</ele>
        <time>2023-04-04T09:37:05.028Z</time>
      </trkpt>
      <trkpt lat="48.21581" lon="6.6469">
        <ele>407</ele>
        <time>2023-04-04T09:37:08.800Z</time>
      </trkpt>
      <trkpt lat="48.21578" lon="6.64683">
        <ele>407</ele>
        <time>2023-04-04T09:37:12.573Z</time>
      </trkpt>
      <trkpt lat="48.21571" lon="6.64669">
        <ele>406</ele>
        <time>2023-04-04T09:37:16.349Z</time>
      </trkpt>
      <trkpt lat="48.21558" lon="6.64641">
        <ele>406</ele>
        <time>2023-04-04T09:37:20.129Z</time>
      </trkpt>
      <trkpt lat="48.21558" lon="6.64641">
        <ele>405</ele>
        <time>2023-04-04T09:37:23.909Z</time>
      </trkpt>
      <trkpt lat="48.21552" lon="6.64628">
        <ele>405</ele>
        <time>2023-04-04T09:37:27.691Z</time>
      </trkpt>
      <trkpt lat="48.21538" lon="6.646">
        <ele>405</ele>
        <time>2023-04-04T09:37:31.478Z</time>
      </trkpt>
      <trkpt lat="48.21535" lon="6.64593">
        <ele>405</ele>
        <time>2023-04-04T09:37:35.266Z</time>
      </trkpt>
      <trkpt lat="48.21526" lon="6.64579">
        <ele>405</ele>
        <time>2023-04-04T09:37:39.057Z</time>
      </trkpt>
      <trkpt lat="48.21518" lon="6.64568">
        <ele>406</ele>
        <time>2023-04-04T09:37:42.850Z</time>
      </trkpt>
      <trkpt lat="48.21504" lon="6.64542">
        <ele>406</ele>
        <time>2023-04-04T09:37:46.647Z</time>
      </trkpt>
      <trkpt lat="48.21498" lon="6.64538">
        <ele>407</ele>
        <time>2023-04-04T09:37:50.446Z</time>
      </trkpt>
      <trkpt lat="48.2147" lon="6.64508">
        <ele>407</ele>
        <time>2023-04-04T09:37:54.252Z</time>
      </trkpt>
      <trkpt lat="48.21466" lon="6.64504">
        <ele>408</ele>
        <time>2023-04-04T09:37:58.059Z</time>
      </trkpt>
      <trkpt lat="48.21453" lon="6.6449">
        <ele>409</ele>
        <time>2023-04-04T09:38:01.869Z</time>
      </trkpt>
      <trkpt lat="48.21446" lon="6.64479">
        <ele>409</ele>
        <time>2023-04-04T09:38:05.681Z</time>
      </trkpt>
      <trkpt lat="48.21442" lon="6.64474">
        <ele>410</ele>
        <time>2023-04-04T09:38:09.494Z</time>
      </trkpt>
      <trkpt lat="48.21416" lon="6.64445">
        <ele>411</ele>
        <time>2023-04-04T09:38:13.313Z</time>
      </trkpt>
      <trkpt lat="48.21412" lon="6.6444">
        <ele>412</ele>
        <time>2023-04-04T09:38:17.133Z</time>
      </trkpt>
      <trkpt lat="48.21408" lon="6.64436">
        <ele>413</ele>
        <time>2023-04-04T09:38:20.954Z</time>
      </trkpt>
      <trkpt lat="48.21389" lon="6.64419">
        <ele>414</ele>
        <time>2023-04-04T09:38:24.780Z</time>
      </trkpt>
      <trkpt lat="48.21379" lon="6.64409">
        <ele>415</ele>
        <time>2023-04-04T09:38:28.608Z</time>
      </trkpt>
      <trkpt lat="48.2137" lon="6.644">
        <ele>416</ele>
        <time>2023-04-04T09:38:32.438Z</time>
      </trkpt>
      <trkpt lat="48.21366" lon="6.64397">
        <ele>417</ele>
        <time>2023-04-04T09:38:36.269Z</time>
      </trkpt>
      <trkpt lat="48.21357" lon="6.64393">
        <ele>418</ele>
        <time>2023-04-04T09:38:40.102Z</time>
      </trkpt>
      <trkpt lat="48.21347" lon="6.64389">
        <ele>419</ele>
        <time>2023-04-04T09:38:43.937Z</time>
      </trkpt>
      <trkpt lat="48.21329" lon="6.64386">
        <ele>420</ele>
        <time>2023-04-04T09:38:47.776Z</time>
      </trkpt>
      <trkpt lat="48.21308" lon="6.64382">
        <ele>421</ele>
        <time>2023-04-04T09:38:51.619Z</time>
      </trkpt>
      <trkpt lat="48.21288" lon="6.64381">
        <ele>422</ele>
        <time>2023-04-04T09:38:55.466Z</time>
      </trkpt>
      <trkpt lat="48.21263" lon="6.64374">
        <ele>423</ele>
        <time>2023-04-04T09:38:59.318Z</time>
      </trkpt>
      <trkpt lat="48.21239" lon="6.64368">
        <ele>424</ele>
        <time>2023-04-04T09:39:03.175Z</time>
      </trkpt>
      <trkpt lat="48.21218" lon="6.64356">
        <ele>425</ele>
        <time>2023-04-04T09:39:07.037Z</time>
      </trkpt>
      <trkpt lat="48.21206" lon="6.64358">
        <ele>426</ele>
        <time>2023-04-04T09:39:10.901Z</time>
      </trkpt>
      <trkpt lat="48.21198" lon="6.64361">
        <ele>427</ele>
        <time>2023-04-04T09:39:14.767Z</time>
      </trkpt>
      <trkpt lat="48.21189" lon="6.64364">
        <ele>428</ele>
        <time>2023-04-04T09:39:18.635Z</time>
      </trkpt>
      <trkpt lat="48.21181" lon="6.64368">
        <ele>429</ele>
        <time>2023-04-04T09:39:22.504Z</time>
      </trkpt>
      <trkpt lat="48.21174" lon="6.64373">
        <ele>430</ele>
        <time>2023-04-04T09:39:26.375Z</time>
      </trkpt>
      <trkpt lat="48.21172" lon="6.64374">
        <ele>431</ele>
        <time>2023-04-04T09:39:30.246Z</time>
      </trkpt>
      <trkpt lat="48.21153" lon="6.64383">
        <ele>432</ele>
        <time>2023-04-04T09:39:34.121Z</time>
      </trkpt>
      <trkpt lat="48.21129" lon="6.64389">
        <ele>433</ele>
        <time>2023-04-04T09:39:38.001Z</time>
      </trkpt>
      <trkpt lat="48.21119" lon="6.64392">
        <ele>434</ele>
        <time>2023-04-04T09:39:41.883Z</time>
      </trkpt>
      <trkpt lat="48.21113" lon="6.64395">
        <ele>435</ele>
        <time>2023-04-04T09:39:45.766Z</time>
      </trkpt>
      <trkpt lat="48.21106" lon="6.64395">
        <ele>436</ele>
        <time>2023-04-04T09:39:49.651Z</time>
      </trkpt>
      <trkpt lat="48.211" lon="6.64392">
        <ele>437</ele>
        <time>2023-04-04T09:39:53.537Z</time>
      </trkpt>
      <trkpt lat="48.21083" lon="6.64399">
        <ele>438</ele>
        <time>2023-04-04T09:39:57.427Z</time>
      </trkpt>
      <trkpt lat="48.21071" lon="6.64406">
        <ele>439</ele>
        <time>2023-04-04T09:40:01.319Z</time>
      </trkpt>
      <trkpt lat="48.21063" lon="6.6441">
        <ele>439</ele>
        <time>2023-04-04T09:40:05.213Z</time>
      </trkpt>
      <trkpt lat="48.21058" lon="6.64413">
        <ele>440</ele>
        <time>2023-04-04T09:40:09.108Z</time>
      </trkpt>
      <trkpt lat="48.21044" lon="6.6442">
        <ele>441</ele>
        <time>2023-04-04T09:40:13.006Z</time>
      </trkpt>
      <trkpt lat="48.2104" lon="6.6442">
        <ele>442</ele>
        <time>2023-04-04T09:40:16.905Z</time>
      </trkpt>
      <trkpt lat="48.21034" lon="6.6442">
        <ele>442</ele>
        <time>2023-04-04T09:40:20.805Z</time>
      </trkpt>
      <trkpt lat="48.21028" lon="6.64421">
        <ele>443</ele>
        <time>2023-04-04T09:40:24.706Z</time>
      </trkpt>
      <trkpt lat="48.21023" lon="6.64423">
        <ele>444</ele>
        <time>2023-04-04T09:40:28.608Z</time>
      </trkpt>
      <trkpt lat="48.21012" lon="6.64425">
        <ele>444</ele>
        <time>2023-04-04T09:40:32.512Z</time>
      </trkpt>
      <trkpt lat="48.20985" lon="6.64437">
        <ele>445</ele>
        <time>2023-04-04T09:40:36.422Z</time>
      </trkpt>
      <trkpt lat="48.2098" lon="6.64441">
        <ele>446</ele>
        <time>2023-04-04T09:40:40.333Z</time>
      </trkpt>
      <trkpt lat="48.20975" lon="6.6445">
        <ele>446</ele>
        <time>2023-04-04T09:40:44.246Z</time>
      </trkpt>
      <trkpt lat="48.2097" lon="6.64452">
        <ele>447</ele>
        <time>2023-04-04T09:40:48.160Z</time>
      </trkpt>
      <trkpt lat="48.20964" lon="6.64454">
        <ele>447</ele>
        <time>2023-04-04T09:40:52.075Z</time>
      </trkpt>
      <trkpt lat="48.2096" lon="6.64457">
        <ele>448</ele>
        <time>2023-04-04T09:40:55.991Z</time>
      </trkpt>
      <trkpt lat="48.20954" lon="6.64461">
        <ele>448</ele>
        <time>2023-04-04T09:40:59.908Z</time>
      </trkpt>
      <trkpt lat="48.2095" lon="6.64462">
        <ele>449</ele>
        <time>2023-04-04T09:41:03.826Z</time>
      </trkpt>
      <trkpt lat="48.20943" lon="6.64466">
        <ele>449</ele>
        <time>2023-04-04T09:41:07.745Z</time>
      </trkpt>
      <trkpt lat="48.20937" lon="6.64467">
        <ele>450</ele>
        <time>2023-04-04T09:41:11.666Z</time>
      </trkpt>
      <trkpt lat="48.20923" lon="6.64465">
        <ele>450</ele>
        <time>2023-04-04T09:41:15.589Z</time>
      </trkpt>
      <trkpt lat="48.20919" lon="6.64466">
        <ele>450</ele>
        <time>2023-04-04T09:41:19.513Z</time>
      </trkpt>
      <trkpt lat="48.20917" lon="6.64467">
        <ele>451</ele>
        <time>2023-04-04T09:41:23.438Z</time>
      </trkpt>
      <trkpt lat="48.20913" lon="6.64476">
        <ele>451</ele>
        <time>2023-04-04T09:41:27.364Z</time>
      </trkpt>
      <trkpt lat="48.20895" lon="6.64483">
        <ele>451</ele>
        <time>2023-04-04T09:41:31.294Z</time>
      </trkpt>
      <trkpt lat="48.20892" lon="6.64485">
        <ele>452</ele>
        <time>2023-04-04T09:41:35.225Z</time>
      </trkpt>
      <trkpt lat="48.20888" lon="6.64486">
        <ele>452</ele>
        <time>2023-04-04T09:41:39.156Z</time>
      </trkpt>
      <trkpt lat="48.20872" lon="6.64488">
        <ele>452</ele>
        <time>2023-04-04T09:41:43.091Z</time>
      </trkpt>
      <trkpt lat="48.20866" lon="6.6449">
        <ele>453</ele>
        <time>2023-04-04T09:41:47.027Z</time>
      </trkpt>
      <trkpt lat="48.20862" lon="6.64492">
        <ele>453</ele>
        <time>2023-04-04T09:41:50.964Z</time>
      </trkpt>
      <trkpt lat="48.20848" lon="6.64493">
        <ele>453</ele>
        <time>2023-04-04T09:41:54.903Z</time>
      </trkpt>
      <trkpt lat="48.20837" lon="6.64495">
        <ele>454</ele>
        <time>2023-04-04T09:41:58.845Z</time>
      </trkpt>
      <trkpt lat="48.20833" lon="6.64497">
        <ele>454</ele>
        <time>2023-04-04T09:42:02.787Z</time>
      </trkpt>
      <trkpt lat="48.20828" lon="6.64501">
        <ele>454</ele>
        <time>2023-04-04T09:42:06.731Z</time>
      </trkpt>
      <trkpt lat="48.20821" lon="6.64504">
        <ele>455</ele>
        <time>2023-04-04T09:42:10.676Z</time>
      </trkpt>
      <trkpt lat="48.20815" lon="6.64506">
        <ele>455</ele>
        <time>2023-04-04T09:42:14.622Z</time>
      </trkpt>
      <trkpt lat="48.20814" lon="6.64507">
        <ele>455</ele>
        <time>2023-04-04T09:42:18.569Z</time>
      </trkpt>
      <trkpt lat="48.20807" lon="6.64508">
        <ele>456</ele>
        <time>2023-04-04T09:42:22.517Z</time>
      </trkpt>
      <trkpt lat="48.20805" lon="6.64509">
        <ele>456</ele>
        <time>2023-04-04T09:42:26.465Z</time>
      </trkpt>
      <trkpt lat="48.20792" lon="6.64514">
        <ele>457</ele>
        <time>2023-04-04T09:42:30.416Z</time>
      </trkpt>
      <trkpt lat="48.20783" lon="6.64518">
        <ele>457</ele>
        <time>2023-04-04T09:42:34.369Z</time>
      </trkpt>
      <trkpt lat="48.20777" lon="6.64524">
        <ele>457</ele>
        <time>2023-04-04T09:42:38.323Z</time>
      </trkpt>
      <trkpt lat="48.20776" lon="6.64527">
        <ele>458</ele>
        <time>2023-04-04T09:42:42.278Z</time>
      </trkpt>
      <trkpt lat="48.20771" lon="6.6453">
        <ele>458</ele>
        <time>2023-04-04T09:42:46.234Z</time>
      </trkpt>
      <trkpt lat="48.20771" lon="6.64531">
        <ele>459</ele>
        <time>2023-04-04T09:42:50.190Z</time>
      </trkpt>
      <trkpt lat="48.2077" lon="6.64532">
        <ele>459</ele>
        <time>2023-04-04T09:42:54.146Z</time>
      </trkpt>
      <trkpt lat="48.20759" lon="6.6454">
        <ele>460</ele>
        <time>2023-04-04T09:42:58.105Z</time>
      </trkpt>
      <trkpt lat="48.20756" lon="6.64543">
        <ele>460</ele>
        <time>2023-04-04T09:43:02.064Z</time>
      </trkpt>
      <trkpt lat="48.20755" lon="6.64545">
        <ele>461</ele>
        <time>2023-04-04T09:43:06.024Z</time>
      </trkpt>
      <trkpt lat="48.20753" lon="6.64547">
        <ele>462</ele>
        <time>2023-04-04T09:43:09.984Z</time>
      </trkpt>
      <trkpt lat="48.20749" lon="6.64553">
        <ele>462</ele>
        <time>2023-04-04T09:43:13.945Z</time>
      </trkpt>
      <trkpt lat="48.20747" lon="6.64555">
        <ele>463</ele>
        <time>2023-04-04T09:43:17.907Z</time>
      </trkpt>
      <trkpt lat="48.20743" lon="6.64559">
        <ele>463</ele>
        <time>2023-04-04T09:43:21.870Z</time>
      </trkpt>
      <trkpt lat="48.20737" lon="6.6456">
        <ele>464</ele>
        <time>2023-04-04T09:43:25.834Z</time>
      </trkpt>
      <trkpt lat="48.20734" lon="6.64562">
        <ele>465</ele>
        <time>2023-04-04T09:43:29.799Z</time>
      </trkpt>
      <trkpt lat="48.2073" lon="6.6457">
        <ele>466</ele>
        <time>2023-04-04T09:43:33.765Z</time>
      </trkpt>
      <trkpt lat="48.20727" lon="6.64574">
        <ele>466</ele>
        <time>2023-04-04T09:43:37.732Z</time>
      </trkpt>
      <trkpt lat="48.20725" lon="6.64577">
        <ele>467</ele>
        <time>2023-04-04T09:43:41.699Z</time>
      </trkpt>
      <trkpt lat="48.20721" lon="6.64583">
        <ele>468</ele>
        <time>2023-04-04T09:43:45.668Z</time>
      </trkpt>
      <trkpt lat="48.20716" lon="6.64586">
        <ele>469</ele>
        <time>2023-04-04T09:43:49.638Z</time>
      </trkpt>
      <trkpt lat="48.20711" lon="6.64589">
        <ele>469</ele>
        <time>2023-04-04T09:43:53.609Z</time>
      </trkpt>
      <trkpt lat="48.20699" lon="6.646">
        <ele>470</ele>
        <time>2023-04-04T09:43:57.583Z</time>
      </trkpt>
      <trkpt lat="48.20698" lon="6.64602">
        <ele>471</ele>
        <time>2023-04-04T09:44:01.557Z</time>
      </trkpt>
      <trkpt lat="48.20697" lon="6.64603">
        <ele>472</ele>
        <time>2023-04-04T09:44:05.531Z</time>
      </trkpt>
      <trkpt lat="48.20692" lon="6.64613">
        <ele>473</ele>
        <time>2023-04-04T09:44:09.507Z</time>
      </trkpt>
      <trkpt lat="48.20692" lon="6.64617">
        <ele>474</ele>
        <time>2023-04-04T09:44:13.483Z</time>
      </trkpt>
      <trkpt lat="48.20692" lon="6.64619">
        <ele>475</ele>
        <time>2023-04-04T09:44:17.460Z</time>
      </trkpt>
      <trkpt lat="48.20688" lon="6.64622">
        <ele>475</ele>
        <time>2023-04-04T09:44:21.437Z</time>
      </trkpt>
      <trkpt lat="48.20683" lon="6.64624">
        <ele>476</ele>
        <time>2023-04-04T09:44:25.416Z</time>
      </trkpt>
      <trkpt lat="48.20675" lon="6.64629">
        <ele>477</ele>
        <time>2023-04-04T09:44:29.396Z</time>
      </trkpt>
      <trkpt lat="48.20673" lon="6.64631">
        <ele>478</ele>
        <time>2023-04-04T09:44:33.377Z</time>
      </trkpt>
      <trkpt lat="48.20671" lon="6.64632">
        <ele>479</ele>
        <time>2023-04-04T09:44:37.358Z</time>
      </trkpt>
      <trkpt lat="48.20667" lon="6.64635">
        <ele>480</ele>
        <time>2023-04-04T09:44:41.340Z</time>
      </trkpt>
      <trkpt lat="48.20666" lon="6.64634">
        <ele>480</ele>
        <time>2023-04-04T09:44:45.322Z</time>
      </trkpt>
      <trkpt lat="48.2066" lon="6.64633">
        <ele>481</ele>
        <time>2023-04-04T09:44:49.305Z</time>
      </trkpt>
      <trkpt lat="48.20653" lon="6.6463">
        <ele>482</ele>
        <time>2023-04-04T09:44:53.290Z</time>
      </trkpt>
      <trkpt lat="48.2065" lon="6.64628">
        <ele>483</ele>
        <time>2023-04-04T09:44:57.276Z</time>
      </trkpt>
      <trkpt lat="48.20648" lon="6.64628">
        <ele>483</ele>
        <time>2023-04-04T09:45:01.262Z</time>
      </trkpt>
      <trkpt lat="48.2064" lon="6.64629">
        <ele>484</ele>
        <time>2023-04-04T09:45:05.250Z</time>
      </trkpt>
      <trkpt lat="48.20638" lon="6.6463">
        <ele>485</ele>
        <time>2023-04-04T09:45:09.238Z</time>
      </trkpt>
      <trkpt lat="48.20637" lon="6.6463">
        <ele>486</ele>
        <time>2023-04-04T09:45:13.226Z</time>
      </trkpt>
      <trkpt lat="48.20629" lon="6.64636">
        <ele>486</ele>
        <time>2023-04-04T09:45:17.216Z</time>
      </trkpt>
      <trkpt lat="48.20625" lon="6.64638">
        <ele>487</ele>
        <time>2023-04-04T09:45:21.207Z</time>
      </trkpt>
      <trkpt lat="48.20623" lon="6.64637">
        <ele>487</ele>
        <time>2023-04-04T09:45:25.198Z</time>
      </trkpt>
      <trkpt lat="48.20617" lon="6.64633">
        <ele>488</ele>
        <time>2023-04-04T09:45:29.191Z</time>
      </trkpt>
      <trkpt lat="48.20616" lon="6.64632">
        <ele>488</ele>
        <time>2023-04-04T09:45:33.184Z</time>
      </trkpt>
      <trkpt lat="48.20615" lon="6.64631">
        <ele>489</ele>
        <time>2023-04-04T09:45:37.177Z</time>
      </trkpt>
      <trkpt lat="48.20612" lon="6.64631">
        <ele>489</ele>
        <time>2023-04-04T09:45:41.171Z</time>
      </trkpt>
      <trkpt lat="48.20609" lon="6.64635">
        <ele>489</ele>
        <time>2023-04-04T09:45:45.165Z</time>
      </trkpt>
      <trkpt lat="48.20605" lon="6.64633">
        <ele>490</ele>
        <time>2023-04-04T09:45:49.160Z</time>
      </trkpt>
      <trkpt lat="48.20604" lon="6.6463">
        <ele>490</ele>
        <time>2023-04-04T09:45:53.156Z</time>
      </trkpt>
      <trkpt lat="48.20598" lon="6.64629">
        <ele>490</ele>
        <time>2023-04-04T09:45:57.153Z</time>
      </trkpt>
      <trkpt lat="48.20593" lon="6.6463">
        <ele>490</ele>
        <time>2023-04-04T09:46:01.151Z</time>
      </trkpt>
      <trkpt lat="48.20592" lon="6.6463">
        <ele>490</ele>
        <time>2023-04-04T09:46:05.149Z</time>
      </trkpt>
      <trkpt lat="48.20589" lon="6.64626">
        <ele>490</ele>
        <time>2023-04-04T09:46:09.148Z</time>
      </trkpt>
      <trkpt lat="48.20588" lon="6.64625">
        <ele>490</ele>
        <time>2023-04-04T09:46:13.147Z</time>
      </trkpt>
      <trkpt lat="48.20577" lon="6.6462">
        <ele>489</ele>
        <time>2023-04-04T09:46:17.149Z</time>
      </trkpt>
      <trkpt lat="48.20576" lon="6.64618">
        <ele>489</ele>
        <time>2023-04-04T09:46:21.151Z</time>
      </trkpt>
      <trkpt lat="48.2057" lon="6.64611">
        <ele>489</ele>
        <time>2023-04-04T09:46:25.154Z</time>
      </trkpt>
      <trkpt lat="48.20566" lon="6.64605">
        <ele>488</ele>
        <time>2023-04-04T09:46:29.159Z</time>
      </trkpt>
      <trkpt lat="48.20565" lon="6.64603">
        <ele>488</ele>
        <time>2023-04-04T09:46:33.164Z</time>
      </trkpt>
      <trkpt lat="48.20563" lon="6.64599">
        <ele>487</ele>
        <time>2023-04-04T09:46:37.170Z</time>
      </trkpt>
      <trkpt lat="48.20561" lon="6.64593">
        <ele>486</ele>
        <time>2023-04-04T09:46:41.176Z</time>
      </trkpt>
      <trkpt lat="48.20563" lon="6.64584">
        <ele>485</ele>
        <time>2023-04-04T09:46:45.184Z</time>
      </trkpt>
      <trkpt lat="48.20565" lon="6.64581">
        <ele>484</ele>
        <time>2023-04-04T09:46:49.192Z</time>
      </trkpt>
      <trkpt lat="48.20574" lon="6.64566">
        <ele>483</ele>
        <time>2023-04-04T09:46:53.203Z</time>
      </trkpt>
      <trkpt lat="48.20585" lon="6.64549">
        <ele>482</ele>
        <time>2023-04-04T09:46:57.217Z</time>
      </trkpt>
      <trkpt lat="48.2059" lon="6.64542">
        <ele>481</ele>
        <time>2023-04-04T09:47:01.233Z</time>
      </trkpt>
      <trkpt lat="48.20593" lon="6.6454">
        <ele>480</ele>
        <time>2023-04-04T09:47:05.249Z</time>
      </trkpt>
      <trkpt lat="48.20603" lon="6.6453">
        <ele>478</ele>
        <time>2023-04-04T09:47:09.268Z</time>
      </trkpt>
      <trkpt lat="48.20613" lon="6.64521">
        <ele>477</ele>
        <time>2023-04-04T09:47:13.289Z</time>
      </trkpt>
      <trkpt lat="48.20629" lon="6.64513">
        <ele>476</ele>
        <time>2023-04-04T09:47:17.313Z</time>
      </trkpt>
      <trkpt lat="48.20644" lon="6.64507">
        <ele>474</ele>
        <time>2023-04-04T09:47:21.340Z</time>
      </trkpt>
      <trkpt lat="48.20665" lon="6.64496">
        <ele>473</ele>
        <time>2023-04-04T09:47:25.372Z</time>
      </trkpt>
      <trkpt lat="48.20678" lon="6.64488">
        <ele>471</ele>
        <time>2023-04-04T09:47:29.407Z</time>
      </trkpt>
      <trkpt lat="48.20684" lon="6.6448">
        <ele>469</ele>
        <time>2023-04-04T09:47:33.443Z</time>
      </trkpt>
      <trkpt lat="48.20696" lon="6.64464">
        <ele>468</ele>
        <time>2023-04-04T09:47:37.482Z</time>
      </trkpt>
      <trkpt lat="48.20708" lon="6.64445">
        <ele>466</ele>
        <time>2023-04-04T09:47:41.525Z</time>
      </trkpt>
      <trkpt lat="48.20721" lon="6.64421">
        <ele>464</ele>
        <time>2023-04-04T09:47:45.572Z</time>
      </trkpt>
      <trkpt lat="48.2073" lon="6.64409">
        <ele>463</ele>
        <time>2023-04-04T09:47:49.622Z</time>
      </trkpt>
      <trkpt lat="48.20735" lon="6.64402">
        <ele>461</ele>
        <time>2023-04-04T09:47:53.673Z</time>
      </trkpt>
      <trkpt lat="48.2075" lon="6.6439">
        <ele>459</ele>
        <time>2023-04-04T09:47:57.727Z</time>
      </trkpt>
      <trkpt lat="48.20764" lon="6.64376">
        <ele>458</ele>
        <time>2023-04-04T09:48:01.785Z</time>
      </trkpt>
      <trkpt lat="48.2077" lon="6.6437">
        <ele>456</ele>
        <time>2023-04-04T09:48:05.844Z</time>
      </trkpt>
      <trkpt lat="48.20799" lon="6.64347">
        <ele>455</ele>
        <time>2023-04-04T09:48:09.910Z</time>
      </trkpt>
      <trkpt lat="48.2081" lon="6.64338">
        <ele>453</ele>
        <time>2023-04-04T09:48:13.978Z</time>
      </trkpt>
      <trkpt lat="48.20823" lon="6.6432">
        <ele>452</ele>
        <time>2023-04-04T09:48:18.050Z</time>
      </trkpt>
      <trkpt lat="48.20841" lon="6.64291">
        <ele>450</ele>
        <time>2023-04-04T09:48:22.127Z</time>
      </trkpt>
      <trkpt lat="48.20869" lon="6.64251">
        <ele>448</ele>
        <time>2023-04-04T09:48:26.212Z</time>
      </trkpt>
      <trkpt lat="48.20881" lon="6.64226">
        <ele>447</ele>
        <time>2023-04-04T09:48:30.301Z</time>
      </trkpt>
      <trkpt lat="48.20882" lon="6.64217">
        <ele>446</ele>
        <time>2023-04-04T09:48:34.391Z</time>
      </trkpt>
      <trkpt lat="48.20882" lon="6.64216">
        <ele>444</ele>
        <time>2023-04-04T09:48:38.481Z</time>
      </trkpt>
      <trkpt lat="48.20882" lon="6.6421">
        <ele>443</ele>
        <time>2023-04-04T09:48:42.572Z</time>
      </trkpt>
      <trkpt lat="48.20882" lon="6.64204">
        <ele>442</ele>
        <time>2023-04-04T09:48:46.664Z</time>
      </trkpt>
      <trkpt lat="48.20883" lon="6.64178">
        <ele>441</ele>
        <time>2023-04-04T09:48:50.759Z</time>
      </trkpt>
      <trkpt lat="48.2088" lon="6.64143">
        <ele>440</ele>
        <time>2023-04-04T09:48:54.859Z</time>
      </trkpt>
      <trkpt lat="48.2088" lon="6.64135">
        <ele>439</ele>
        <time>2023-04-04T09:48:58.960Z</time>
      </trkpt>
      <trkpt lat="48.20877" lon="6.64094">
        <ele>438</ele>
        <time>2023-04-04T09:49:03.067Z</time>
      </trkpt>
      <trkpt lat="48.20875" lon="6.6408">
        <ele>437</ele>
        <time>2023-04-04T09:49:07.176Z</time>
      </trkpt>
      <trkpt lat="48.20873" lon="6.64065">
        <ele>436</ele>
        <time>2023-04-04T09:49:11.287Z</time>
      </trkpt>
      <trkpt lat="48.20873" lon="6.64059">
        <ele>436</ele>
        <time>2023-04-04T09:49:15.398Z</time>
      </trkpt>
      <trkpt lat="48.20873" lon="6.64053">
        <ele>435</ele>
        <time>2023-04-04T09:49:19.510Z</time>
      </trkpt>
      <trkpt lat="48.20872" lon="6.64035">
        <ele>435</ele>
        <time>2023-04-04T09:49:23.625Z</time>
      </trkpt>
      <trkpt lat="48.20868" lon="6.64022">
        <ele>434</ele>
        <time>2023-04-04T09:49:27.742Z</time>
      </trkpt>
      <trkpt lat="48.20865" lon="6.64007">
        <ele>434</ele>
        <time>2023-04-04T09:49:31.861Z</time>
      </trkpt>
      <trkpt lat="48.20865" lon="6.64">
        <ele>434</ele>
        <time>2023-04-04T09:49:35.981Z</time>
      </trkpt>
      <trkpt lat="48.20869" lon="6.63987">
        <ele>434</ele>
        <time>2023-04-04T09:49:40.102Z</time>
      </trkpt>
      <trkpt lat="48.20877" lon="6.63973">
        <ele>434</ele>
        <time>2023-04-04T09:49:44.226Z</time>
      </trkpt>
      <trkpt lat="48.20879" lon="6.63968">
        <ele>434</ele>
        <time>2023-04-04T09:49:48.351Z</time>
      </trkpt>
      <trkpt lat="48.20881" lon="6.63965">
        <ele>434</ele>
        <time>2023-04-04T09:49:52.476Z</time>
      </trkpt>
      <trkpt lat="48.2089" lon="6.63952">
        <ele>435</ele>
        <time>2023-04-04T09:49:56.604Z</time>
      </trkpt>
      <trkpt lat="48.20896" lon="6.63944">
        <ele>435</ele>
        <time>2023-04-04T09:50:00.733Z</time>
      </trkpt>
      <trkpt lat="48.20899" lon="6.6394">
        <ele>435</ele>
        <time>2023-04-04T09:50:04.863Z</time>
      </trkpt>
      <trkpt lat="48.20905" lon="6.63931">
        <ele>436</ele>
        <time>2023-04-04T09:50:08.995Z</time>
      </trkpt>
      <trkpt lat="48.2092" lon="6.6392">
        <ele>436</ele>
        <time>2023-04-04T09:50:13.130Z</time>
      </trkpt>
      <trkpt lat="48.20926" lon="6.63916">
        <ele>437</ele>
        <time>2023-04-04T09:50:17.267Z</time>
      </trkpt>
      <trkpt lat="48.20929" lon="6.63914">
        <ele>438</ele>
        <time>2023-04-04T09:50:21.404Z</time>
      </trkpt>
      <trkpt lat="48.20932" lon="6.63912">
        <ele>438</ele>
        <time>2023-04-04T09:50:25.542Z</time>
      </trkpt>
      <trkpt lat="48.20941" lon="6.63909">
        <ele>439</ele>
        <time>2023-04-04T09:50:29.682Z</time>
      </trkpt>
      <trkpt lat="48.2096" lon="6.63892">
        <ele>440</ele>
        <time>2023-04-04T09:50:33.826Z</time>
      </trkpt>
      <trkpt lat="48.20963" lon="6.63889">
        <ele>440</ele>
        <time>2023-04-04T09:50:37.971Z</time>
      </trkpt>
      <trkpt lat="48.20965" lon="6.63886">
        <ele>441</ele>
        <time>2023-04-04T09:50:42.116Z</time>
      </trkpt>
      <trkpt lat="48.20966" lon="6.63885">
        <ele>442</ele>
        <time>2023-04-04T09:50:46.262Z</time>
      </trkpt>
      <trkpt lat="48.20966" lon="6.63884">
        <ele>442</ele>
        <time>2023-04-04T09:50:50.408Z</time>
      </trkpt>
      <trkpt lat="48.20969" lon="6.63881">
        <ele>443</ele>
        <time>2023-04-04T09:50:54.555Z</time>
      </trkpt>
      <trkpt lat="48.2097" lon="6.63881">
        <ele>444</ele>
        <time>2023-04-04T09:50:58.702Z</time>
      </trkpt>
      <trkpt lat="48.20975" lon="6.63875">
        <ele>444</ele>
        <time>2023-04-04T09:51:02.850Z</time>
      </trkpt>
      <trkpt lat="48.20978" lon="6.63869">
        <ele>445</ele>
        <time>2023-04-04T09:51:06.999Z</time>
      </trkpt>
      <trkpt lat="48.20988" lon="6.63852">
        <ele>445</ele>
        <time>2023-04-04T09:51:11.151Z</time>
      </trkpt>
      <trkpt lat="48.20998" lon="6.63834">
        <ele>446</ele>
        <time>2023-04-04T09:51:15.306Z</time>
      </trkpt>
      <trkpt lat="48.21002" lon="6.63824">
        <ele>446</ele>
        <time>2023-04-04T09:51:19.463Z</time>
      </trkpt>
      <trkpt lat="48.21003" lon="6.63821">
        <ele>447</ele>
        <time>2023-04-04T09:51:23.620Z</time>
      </trkpt>
      <trkpt lat="48.21005" lon="6.63815">
        <ele>447</ele>
        <time>2023-04-04T09:51:27.778Z</time>
      </trkpt>
      <trkpt lat="48.21017" lon="6.63794">
        <ele>448</ele>
        <time>2023-04-04T09:51:31.940Z</time>
      </trkpt>
      <trkpt lat="48.21019" lon="6.6379">
        <ele>448</ele>
        <time>2023-04-04T09:51:36.102Z</time>
      </trkpt>
      <trkpt lat="48.21019" lon="6.63783">
        <ele>448</ele>
        <time>2023-04-04T09:51:40.265Z</time>
      </trkpt>
      <trkpt lat="48.21017" lon="6.63781">
        <ele>448</ele>
        <time>2023-04-04T09:51:44.429Z</time>
      </trkpt>
      <trkpt lat="48.21007" lon="6.63774">
        <ele>448</ele>
        <time>2023-04-04T09:51:48.595Z</time>
      </trkpt>
      <trkpt lat="48.20989" lon="6.63758">
        <ele>448</ele>
        <time>2023-04-04T09:51:52.765Z</time>
      </trkpt>
      <trkpt lat="48.20976" lon="6.63739">
        <ele>448</ele>
        <time>2023-04-04T09:51:56.939Z</time>
      </trkpt>
      <trkpt lat="48.20961" lon="6.63721">
        <ele>448</ele>
        <time>2023-04-04T09:52:01.117Z</time>
      </trkpt>
      <trkpt lat="48.20948" lon="6.637">
        <ele>448</ele>
        <time>2023-04-04T09:52:05.299Z</time>
      </trkpt>
      <trkpt lat="48.2093" lon="6.63674">
        <ele>447</ele>
        <time>2023-04-04T09:52:09.486Z</time>
      </trkpt>
      <trkpt lat="48.20918" lon="6.63655">
        <ele>447</ele>
        <time>2023-04-04T09:52:13.676Z</time>
      </trkpt>
      <trkpt lat="48.20911" lon="6.63649">
        <ele>447</ele>
        <time>2023-04-04T09:52:17.868Z</time>
      </trkpt>
      <trkpt lat="48.20903" lon="6.63643">
        <ele>446</ele>
        <time>2023-04-04T09:52:22.062Z</time>
      </trkpt>
      <trkpt lat="48.20887" lon="6.63619">
        <ele>446</ele>
        <time>2023-04-04T09:52:26.260Z</time>
      </trkpt>
      <trkpt lat="48.20879" lon="6.63588">
        <ele>445</ele>
        <time>2023-04-04T09:52:30.463Z</time>
      </trkpt>
      <trkpt lat="48.20877" lon="6.63568">
        <ele>444</ele>
        <time>2023-04-04T09:52:34.668Z</time>
      </trkpt>
      <trkpt lat="48.20876" lon="6.63554">
        <ele>444</ele>
        <time>2023-04-04T09:52:38.875Z</time>
      </trkpt>
      <trkpt lat="48.20875" lon="6.63534">
        <ele>443</ele>
        <time>2023-04-04T09:52:43.085Z</time>
      </trkpt>
      <trkpt lat="48.20873" lon="6.63512">
        <ele>442</ele>
        <time>2023-04-04T09:52:47.298Z</time>
      </trkpt>
      <trkpt lat="48.20874" lon="6.63491">
        <ele>441</ele>
        <time>2023-04-04T09:52:51.514Z</time>
      </trkpt>
      <trkpt lat="48.20887" lon="6.63481">
        <ele>440</ele>
        <time>2023-04-04T09:52:55.732Z</time>
      </trkpt>
      <trkpt lat="48.20893" lon="6.63479">
        <ele>439</ele>
        <time>2023-04-04T09:52:59.952Z</time>
      </trkpt>
      <trkpt lat="48.20909" lon="6.63475">
        <ele>437</ele>
        <time>2023-04-04T09:53:04.175Z</time>
      </trkpt>
      <trkpt lat="48.20918" lon="6.63465">
        <ele>436</ele>
        <time>2023-04-04T09:53:08.400Z</time>
      </trkpt>
      <trkpt lat="48.20926" lon="6.63459">
        <ele>435</ele>
        <time>2023-04-04T09:53:12.627Z</time>
      </trkpt>
      <trkpt lat="48.20936" lon="6.63458">
        <ele>434</ele>
        <time>2023-04-04T09:53:16.856Z</time>
      </trkpt>
      <trkpt lat="48.20946" lon="6.63455">
        <ele>433</ele>
        <time>2023-04-04T09:53:21.087Z</time>
      </trkpt>
      <trkpt lat="48.20959" lon="6.63458">
        <ele>432</ele>
        <time>2023-04-04T09:53:25.321Z</time>
      </trkpt>
      <trkpt lat="48.20963" lon="6.6346">
        <ele>430</ele>
        <time>2023-04-04T09:53:29.556Z</time>
      </trkpt>
      <trkpt lat="48.20972" lon="6.63464">
        <ele>429</ele>
        <time>2023-04-04T09:53:33.792Z</time>
      </trkpt>
      <trkpt lat="48.20976" lon="6.63467">
        <ele>428</ele>
        <time>2023-04-04T09:53:38.029Z</time>
      </trkpt>
      <trkpt lat="48.20981" lon="6.63469">
        <ele>427</ele>
        <time>2023-04-04T09:53:42.267Z</time>
      </trkpt>
      <trkpt lat="48.2099" lon="6.63472">
        <ele>426</ele>
        <time>2023-04-04T09:53:46.507Z</time>
      </trkpt>
      <trkpt lat="48.21005" lon="6.63473">
        <ele>425</ele>
        <time>2023-04-04T09:53:50.750Z</time>
      </trkpt>
      <trkpt lat="48.21009" lon="6.63472">
        <ele>424</ele>
        <time>2023-04-04T09:53:54.994Z</time>
      </trkpt>
      <trkpt lat="48.21013" lon="6.6347">
        <ele>423</ele>
        <time>2023-04-04T09:53:59.239Z</time>
      </trkpt>
      <trkpt lat="48.21015" lon="6.63469">
        <ele>422</ele>
        <time>2023-04-04T09:54:03.484Z</time>
      </trkpt>
      <trkpt lat="48.21019" lon="6.63466">
        <ele>421</ele>
        <time>2023-04-04T09:54:07.730Z</time>
      </trkpt>
      <trkpt lat="48.21022" lon="6.63463">
        <ele>421</ele>
        <time>2023-04-04T09:54:11.977Z</time>
      </trkpt>
      <trkpt lat="48.21031" lon="6.6345">
        <ele>420</ele>
        <time>2023-04-04T09:54:16.226Z</time>
      </trkpt>
      <trkpt lat="48.21033" lon="6.63448">
        <ele>419</ele>
        <time>2023-04-04T09:54:20.476Z</time>
      </trkpt>
      <trkpt lat="48.2104" lon="6.63442">
        <ele>418</ele>
        <time>2023-04-04T09:54:24.727Z</time>
      </trkpt>
      <trkpt lat="48.21046" lon="6.63437">
        <ele>418</ele>
        <time>2023-04-04T09:54:28.980Z</time>
      </trkpt>
      <trkpt lat="48.21049" lon="6.63436">
        <ele>417</ele>
        <time>2023-04-04T09:54:33.233Z</time>
      </trkpt>
      <trkpt lat="48.21052" lon="6.63434">
        <ele>417</ele>
        <time>2023-04-04T09:54:37.487Z</time>
      </trkpt>
      <trkpt lat="48.21056" lon="6.63432">
        <ele>416</ele>
        <time>2023-04-04T09:54:41.742Z</time>
      </trkpt>
      <trkpt lat="48.21059" lon="6.63428">
        <ele>416</ele>
        <time>2023-04-04T09:54:45.998Z</time>
      </trkpt>
      <trkpt lat="48.21058" lon="6.6342">
        <ele>416</ele>
        <time>2023-04-04T09:54:50.255Z</time>
      </trkpt>
      <trkpt lat="48.21054" lon="6.63415">
        <ele>416</ele>
        <time>2023-04-04T09:54:54.513Z</time>
      </trkpt>
      <trkpt lat="48.21052" lon="6.63413">
        <ele>416</ele>
        <time>2023-04-04T09:54:58.771Z</time>
      </trkpt>
      <trkpt lat="48.21044" lon="6.63403">
        <ele>416</ele>
        <time>2023-04-04T09:55:03.031Z</time>
      </trkpt>
      <trkpt lat="48.21028" lon="6.6337">
        <ele>416</ele>
        <time>2023-04-04T09:55:07.297Z</time>
      </trkpt>
      <trkpt lat="48.21016" lon="6.63357">
        <ele>416</ele>
        <time>2023-04-04T09:55:11.566Z</time>
      </trkpt>
      <trkpt lat="48.21009" lon="6.63348">
        <ele>417</ele>
        <time>2023-04-04T09:55:15.837Z</time>
      </trkpt>
      <trkpt lat="48.20991" lon="6.63334">
        <ele>417</ele>
        <time>2023-04-04T09:55:20.112Z</time>
      </trkpt>
      <trkpt lat="48.20978" lon="6.63326">
        <ele>418</ele>
        <time>2023-04-04T09:55:24.390Z</time>
      </trkpt>
      <trkpt lat="48.20969" lon="6.63321">
        <ele>418</ele>
        <time>2023-04-04T09:55:28.670Z</time>
      </trkpt>
      <trkpt lat="48.2095" lon="6.63313">
        <ele>419</ele>
        <time>2023-04-04T09:55:32.953Z</time>
      </trkpt>
      <trkpt lat="48.20938" lon="6.63308">
        <ele>420</ele>
        <time>2023-04-04T09:55:37.239Z</time>
      </trkpt>
      <trkpt lat="48.20923" lon="6.63304">
        <ele>420</ele>
        <time>2023-04-04T09:55:41.528Z</time>
      </trkpt>
      <trkpt lat="48.20913" lon="6.63299">
        <ele>421</ele>
        <time>2023-04-04T09:55:45.819Z</time>
      </trkpt>
      <trkpt lat="48.20907" lon="6.63294">
        <ele>422</ele>
        <time>2023-04-04T09:55:50.112Z</time>
      </trkpt>
      <trkpt lat="48.20906" lon="6.63292">
        <ele>423</ele>
        <time>2023-04-04T09:55:54.405Z</time>
      </trkpt>
      <trkpt lat="48.20906" lon="6.63287">
        <ele>423</ele>
        <time>2023-04-04T09:55:58.699Z</time>
      </trkpt>
      <trkpt lat="48.20905" lon="6.63282">
        <ele>424</ele>
        <time>2023-04-04T09:56:02.993Z</time>
      </trkpt>
      <trkpt lat="48.20904" lon="6.63277">
        <ele>425</ele>
        <time>2023-04-04T09:56:07.288Z</time>
      </trkpt>
      <trkpt lat="48.20902" lon="6.63266">
        <ele>426</ele>
        <time>2023-04-04T09:56:11.584Z</time>
      </trkpt>
      <trkpt lat="48.20901" lon="6.63263">
        <ele>426</ele>
        <time>2023-04-04T09:56:15.881Z</time>
      </trkpt>
      <trkpt lat="48.20902" lon="6.63261">
        <ele>427</ele>
        <time>2023-04-04T09:56:20.178Z</time>
      </trkpt>
      <trkpt lat="48.209" lon="6.63258">
        <ele>428</ele>
        <time>2023-04-04T09:56:24.476Z</time>
      </trkpt>
      <trkpt lat="48.20899" lon="6.63257">
        <ele>429</ele>
        <time>2023-04-04T09:56:28.774Z</time>
      </trkpt>
      <trkpt lat="48.20898" lon="6.63256">
        <ele>430</ele>
        <time>2023-04-04T09:56:33.072Z</time>
      </trkpt>
      <trkpt lat="48.20896" lon="6.63251">
        <ele>430</ele>
        <time>2023-04-04T09:56:37.371Z</time>
      </trkpt>
      <trkpt lat="48.20896" lon="6.63249">
        <ele>431</ele>
        <time>2023-04-04T09:56:41.670Z</time>
      </trkpt>
      <trkpt lat="48.20896" lon="6.63246">
        <ele>432</ele>
        <time>2023-04-04T09:56:45.970Z</time>
      </trkpt>
      <trkpt lat="48.20897" lon="6.63243">
        <ele>432</ele>
        <time>2023-04-04T09:56:50.270Z</time>
      </trkpt>
      <trkpt lat="48.20896" lon="6.6324">
        <ele>433</ele>
        <time>2023-04-04T09:56:54.571Z</time>
      </trkpt>
      <trkpt lat="48.20896" lon="6.63237">
        <ele>434</ele>
        <time>2023-04-04T09:56:58.872Z</time>
      </trkpt>
      <trkpt lat="48.20894" lon="6.63234">
        <ele>434</ele>
        <time>2023-04-04T09:57:03.174Z</time>
      </trkpt>
      <trkpt lat="48.20892" lon="6.6323">
        <ele>435</ele>
        <time>2023-04-04T09:57:07.476Z</time>
      </trkpt>
      <trkpt lat="48.20891" lon="6.63223">
        <ele>436</ele>
        <time>2023-04-04T09:57:11.779Z</time>
      </trkpt>
      <trkpt lat="48.2089" lon="6.63217">
        <ele>436</ele>
        <time>2023-04-04T09:57:16.083Z</time>
      </trkpt>
      <trkpt lat="48.20889" lon="6.63213">
        <ele>437</ele>
        <time>2023-04-04T09:57:20.388Z</time>
      </trkpt>
      <trkpt lat="48.20889" lon="6.63212">
        <ele>437</ele>
        <time>2023-04-04T09:57:24.693Z</time>
      </trkpt>
      <trkpt lat="48.20891" lon="6.63199">
        <ele>438</ele>
        <time>2023-04-04T09:57:29.000Z</time>
      </trkpt>
      <trkpt lat="48.20891" lon="6.63198">
        <ele>438</ele>
        <time>2023-04-04T09:57:33.307Z</time>
      </trkpt>
      <trkpt lat="48.20891" lon="6.63191">
        <ele>438</ele>
        <time>2023-04-04T09:57:37.615Z</time>
      </trkpt>
      <trkpt lat="48.20892" lon="6.63184">
        <ele>439</ele>
        <time>2023-04-04T09:57:41.924Z</time>
      </trkpt>
      <trkpt lat="48.20893" lon="6.63167">
        <ele>439</ele>
        <time>2023-04-04T09:57:46.235Z</time>
      </trkpt>
      <trkpt lat="48.20892" lon="6.63163">
        <ele>439</ele>
        <time>2023-04-04T09:57:50.546Z</time>
      </trkpt>
      <trkpt lat="48.20891" lon="6.6316">
        <ele>439</ele>
        <time>2023-04-04T09:57:54.858Z</time>
      </trkpt>
      <trkpt lat="48.2089" lon="6.63158">
        <ele>440</ele>
        <time>2023-04-04T09:57:59.170Z</time>
      </trkpt>
      <trkpt lat="48.20884" lon="6.63149">
        <ele>440</ele>
        <time>2023-04-04T09:58:03.484Z</time>
      </trkpt>
      <trkpt lat="48.20878" lon="6.63148">
        <ele>440</ele>
        <time>2023-04-04T09:58:07.799Z</time>
      </trkpt>
      <trkpt lat="48.20875" lon="6.63147">
        <ele>440</ele>
        <time>2023-04-04T09:58:12.115Z</time>
      </trkpt>
      <trkpt lat="48.20868" lon="6.63144">
        <ele>440</ele>
        <time>2023-04-04T09:58:16.432Z</time>
      </trkpt>
      <trkpt lat="48.20867" lon="6.63143">
        <ele>440</ele>
        <time>2023-04-04T09:58:20.749Z</time>
      </trkpt>
      <trkpt lat="48.20866" lon="6.63142">
        <ele>440</ele>
        <time>2023-04-04T09:58:25.067Z</time>
      </trkpt>
      <trkpt lat="48.20861" lon="6.63141">
        <ele>440</ele>
        <time>2023-04-04T09:58:29.386Z</time>
      </trkpt>
      <trkpt lat="48.20859" lon="6.63139">
        <ele>440</ele>
        <time>2023-04-04T09:58:33.705Z</time>
      </trkpt>
      <trkpt lat="48.20858" lon="6.63138">
        <ele>440</ele>
        <time>2023-04-04T09:58:38.024Z</time>
      </trkpt>
      <trkpt lat="48.20855" lon="6.63136">
        <ele>440</ele>
        <time>2023-04-04T09:58:42.344Z</time>
      </trkpt>
      <trkpt lat="48.2085" lon="6.63133">
        <ele>440</ele>
        <time>2023-04-04T09:58:46.665Z</time>
      </trkpt>
      <trkpt lat="48.20843" lon="6.6313">
        <ele>440</ele>
        <time>2023-04-04T09:58:50.988Z</time>
      </trkpt>
      <trkpt lat="48.20842" lon="6.63129">
        <ele>440</ele>
        <time>2023-04-04T09:58:55.311Z</time>
      </trkpt>
      <trkpt lat="48.20838" lon="6.63125">
        <ele>440</ele>
        <time>2023-04-04T09:58:59.635Z</time>
      </trkpt>
      <trkpt lat="48.20835" lon="6.63122">
        <ele>440</ele>
        <time>2023-04-04T09:59:03.960Z</time>
      </trkpt>
      <trkpt lat="48.20833" lon="6.6312">
        <ele>440</ele>
        <time>2023-04-04T09:59:08.285Z</time>
      </trkpt>
      <trkpt lat="48.20832" lon="6.63118">
        <ele>440</ele>
        <time>2023-04-04T09:59:12.610Z</time>
      </trkpt>
      <trkpt lat="48.20823" lon="6.63113">
        <ele>440</ele>
        <time>2023-04-04T09:59:16.937Z</time>
      </trkpt>
      <trkpt lat="48.20821" lon="6.63111">
        <ele>440</ele>
        <time>2023-04-04T09:59:21.265Z</time>
      </trkpt>
      <trkpt lat="48.20814" lon="6.63108">
        <ele>440</ele>
        <time>2023-04-04T09:59:25.594Z</time>
      </trkpt>
      <trkpt lat="48.20813" lon="6.63106">
        <ele>440</ele>
        <time>2023-04-04T09:59:29.924Z</time>
      </trkpt>
      <trkpt lat="48.20808" lon="6.63099">
        <ele>440</ele>
        <time>2023-04-04T09:59:34.255Z</time>
      </trkpt>
      <trkpt lat="48.20801" lon="6.63091">
        <ele>440</ele>
        <time>2023-04-04T09:59:38.588Z</time>
      </trkpt>
      <trkpt lat="48.20799" lon="6.63086">
        <ele>439</ele>
        <time>2023-04-04T09:59:42.921Z</time>
      </trkpt>
      <trkpt lat="48.20796" lon="6.63081">
        <ele>439</ele>
        <time>2023-04-04T09:59:47.255Z</time>
      </trkpt>
      <trkpt lat="48.20795" lon="6.6308">
        <ele>439</ele>
        <time>2023-04-04T09:59:51.590Z</time>
      </trkpt>
      <trkpt lat="48.20791" lon="6.63068">
        <ele>440</ele>
        <time>2023-04-04T09:59:55.926Z</time>
      </trkpt>
      <trkpt lat="48.20788" lon="6.63064">
        <ele>440</ele>
        <time>2023-04-04T10:00:00.263Z</time>
      </trkpt>
      <trkpt lat="48.20785" lon="6.63062">
        <ele>440</ele>
        <time>2023-04-04T10:00:04.601Z</time>
      </trkpt>
      <trkpt lat="48.20783" lon="6.6306">
        <ele>440</ele>
        <time>2023-04-04T10:00:08.939Z</time>
      </trkpt>
      <trkpt lat="48.20779" lon="6.63057">
        <ele>440</ele>
        <time>2023-04-04T10:00:13.278Z</time>
      </trkpt>
      <trkpt lat="48.20779" lon="6.63056">
        <ele>440</ele>
        <time>2023-04-04T10:00:17.617Z</time>
      </trkpt>
      <trkpt lat="48.20776" lon="6.6305">
        <ele>440</ele>
        <time>2023-04-04T10:00:21.957Z</time>
      </trkpt>
      <trkpt lat="48.20776" lon="6.63051">
        <ele>440</ele>
        <time>2023-04-04T10:00:26.297Z</time>
      </trkpt>
      <trkpt lat="48.20776" lon="6.6305">
        <ele>440</ele>
        <time>2023-04-04T10:00:30.638Z</time>
      </trkpt>
      <trkpt lat="48.20774" lon="6.63051">
        <ele>441</ele>
        <time>2023-04-04T10:00:34.979Z</time>
      </trkpt>
      <trkpt lat="48.20772" lon="6.6305">
        <ele>441</ele>
        <time>2023-04-04T10:00:39.320Z</time>
      </trkpt>
      <trkpt lat="48.2077" lon="6.63048">
        <ele>441</ele>
        <time>2023-04-04T10:00:43.662Z</time>
      </trkpt>
      <trkpt lat="48.20763" lon="6.63044">
        <ele>442</ele>
        <time>2023-04-04T10:00:48.005Z</time>
      </trkpt>
      <trkpt lat="48.20757" lon="6.63041">
        <ele>442</ele>
        <time>2023-04-04T10:00:52.350Z</time>
      </trkpt>
      <trkpt lat="48.20755" lon="6.6304">
        <ele>442</ele>
        <time>2023-04-04T10:00:56.695Z</time>
      </trkpt>
      <trkpt lat="48.20747" lon="6.63036">
        <ele>443</ele>
        <time>2023-04-04T10:01:01.042Z</time>
      </trkpt>
      <trkpt lat="48.2074" lon="6.63034">
        <ele>443</ele>
        <time>2023-04-04T10:01:05.390Z</time>
      </trkpt>
      <trkpt lat="48.20736" lon="6.6303">
        <ele>444</ele>
        <time>2023-04-04T10:01:09.739Z</time>
      </trkpt>
      <trkpt lat="48.20733" lon="6.63026">
        <ele>444</ele>
        <time>2023-04-04T10:01:14.089Z</time>
      </trkpt>
      <trkpt lat="48.20732" lon="6.63025">
        <ele>444</ele>
        <time>2023-04-04T10:01:18.439Z</time>
      </trkpt>
      <trkpt lat="48.20727" lon="6.63024">
        <ele>445</ele>
        <time>2023-04-04T10:01:22.790Z</time>
      </trkpt>
      <trkpt lat="48.20724" lon="6.63022">
        <ele>445</ele>
        <time>2023-04-04T10:01:27.142Z</time>
      </trkpt>
      <trkpt lat="48.20719" lon="6.63021">
        <ele>446</ele>
        <time>2023-04-04T10:01:31.495Z</time>
      </trkpt>
      <trkpt lat="48.20719" lon="6.6302">
        <ele>446</ele>
        <time>2023-04-04T10:01:35.848Z</time>
      </trkpt>
      <trkpt lat="48.20716" lon="6.63013">
        <ele>447</ele>
        <time>2023-04-04T10:01:40.202Z</time>
      </trkpt>
      <trkpt lat="48.20711" lon="6.63005">
        <ele>447</ele>
        <time>2023-04-04T10:01:44.558Z</time>
      </trkpt>
      <trkpt lat="48.20704" lon="6.62998">
        <ele>448</ele>
        <time>2023-04-04T10:01:48.915Z</time>
      </trkpt>
      <trkpt lat="48.20693" lon="6.62992">
        <ele>448</ele>
        <time>2023-04-04T10:01:53.275Z</time>
      </trkpt>
      <trkpt lat="48.20691" lon="6.62989">
        <ele>449</ele>
        <time>2023-04-04T10:01:57.635Z</time>
      </trkpt>
      <trkpt lat="48.20671" lon="6.6298">
        <ele>450</ele>
        <time>2023-04-04T10:02:01.999Z</time>
      </trkpt>
      <trkpt lat="48.20663" lon="6.62975">
        <ele>450</ele>
        <time>2023-04-04T10:02:06.365Z</time>
      </trkpt>
      <trkpt lat="48.20655" lon="6.62975">
        <ele>451</ele>
        <time>2023-04-04T10:02:10.733Z</time>
      </trkpt>
      <trkpt lat="48.2065" lon="6.62972">
        <ele>451</ele>
        <time>2023-04-04T10:02:15.102Z</time>
      </trkpt>
      <trkpt lat="48.20643" lon="6.62962">
        <ele>452</ele>
        <time>2023-04-04T10:02:19.473Z</time>
      </trkpt>
      <trkpt lat="48.20639" lon="6.6296">
        <ele>452</ele>
        <time>2023-04-04T10:02:23.845Z</time>
      </trkpt>
      <trkpt lat="48.20635" lon="6.62958">
        <ele>453</ele>
        <time>2023-04-04T10:02:28.217Z</time>
      </trkpt>
      <trkpt lat="48.20631" lon="6.62951">
        <ele>453</ele>
        <time>2023-04-04T10:02:32.591Z</time>
      </trkpt>
      <trkpt lat="48.20629" lon="6.62949">
        <ele>454</ele>
        <time>2023-04-04T10:02:36.965Z</time>
      </trkpt>
      <trkpt lat="48.20616" lon="6.62928">
        <ele>454</ele>
        <time>2023-04-04T10:02:41.343Z</time>
      </trkpt>
      <trkpt lat="48.20611" lon="6.62918">
        <ele>455</ele>
        <time>2023-04-04T10:02:45.723Z</time>
      </trkpt>
      <trkpt lat="48.20608" lon="6.62916">
        <ele>455</ele>
        <time>2023-04-04T10:02:50.103Z</time>
      </trkpt>
      <trkpt lat="48.20597" lon="6.629">
        <ele>456</ele>
        <time>2023-04-04T10:02:54.486Z</time>
      </trkpt>
      <trkpt lat="48.20595" lon="6.62897">
        <ele>457</ele>
        <time>2023-04-04T10:02:58.870Z</time>
      </trkpt>
      <trkpt lat="48.20578" lon="6.62882">
        <ele>457</ele>
        <time>2023-04-04T10:03:03.258Z</time>
      </trkpt>
      <trkpt lat="48.20574" lon="6.62876">
        <ele>458</ele>
        <time>2023-04-04T10:03:07.647Z</time>
      </trkpt>
      <trkpt lat="48.20568" lon="6.62874">
        <ele>458</ele>
        <time>2023-04-04T10:03:12.037Z</time>
      </trkpt>
      <trkpt lat="48.20566" lon="6.6287">
        <ele>459</ele>
        <time>2023-04-04T10:03:16.428Z</time>
      </trkpt>
      <trkpt lat="48.20563" lon="6.62863">
        <ele>460</ele>
        <time>2023-04-04T10:03:20.820Z</time>
      </trkpt>
      <trkpt lat="48.20561" lon="6.62859">
        <ele>460</ele>
        <time>2023-04-04T10:03:25.213Z</time>
      </trkpt>
      <trkpt lat="48.20547" lon="6.62833">
        <ele>461</ele>
        <time>2023-04-04T10:03:29.610Z</time>
      </trkpt>
      <trkpt lat="48.20539" lon="6.62814">
        <ele>462</ele>
        <time>2023-04-04T10:03:34.010Z</time>
      </trkpt>
      <trkpt lat="48.20532" lon="6.62797">
        <ele>462</ele>
        <time>2023-04-04T10:03:38.413Z</time>
      </trkpt>
      <trkpt lat="48.20531" lon="6.62794">
        <ele>463</ele>
        <time>2023-04-04T10:03:42.816Z</time>
      </trkpt>
      <trkpt lat="48.20522" lon="6.62778">
        <ele>464</ele>
        <time>2023-04-04T10:03:47.222Z</time>
      </trkpt>
      <trkpt lat="48.20518" lon="6.62768">
        <ele>464</ele>
        <time>2023-04-04T10:03:51.630Z</time>
      </trkpt>
      <trkpt lat="48.20517" lon="6.62764">
        <ele>465</ele>
        <time>2023-04-04T10:03:56.038Z</time>
      </trkpt>
      <trkpt lat="48.20516" lon="6.6276">
        <ele>466</ele>
        <time>2023-04-04T10:04:00.447Z</time>
      </trkpt>
      <trkpt lat="48.20512" lon="6.6275">
        <ele>466</ele>
        <time>2023-04-04T10:04:04.857Z</time>
      </trkpt>
      <trkpt lat="48.20507" lon="6.62742">
        <ele>467</ele>
        <time>2023-04-04T10:04:09.269Z</time>
      </trkpt>
      <trkpt lat="48.20505" lon="6.62738">
        <ele>468</ele>
        <time>2023-04-04T10:04:13.681Z</time>
      </trkpt>
      <trkpt lat="48.20499" lon="6.62729">
        <ele>468</ele>
        <time>2023-04-04T10:04:18.095Z</time>
      </trkpt>
      <trkpt lat="48.20498" lon="6.62727">
        <ele>469</ele>
        <time>2023-04-04T10:04:22.510Z</time>
      </trkpt>
      <trkpt lat="48.20489" lon="6.62707">
        <ele>470</ele>
        <time>2023-04-04T10:04:26.928Z</time>
      </trkpt>
      <trkpt lat="48.20476" lon="6.62684">
        <ele>471</ele>
        <time>2023-04-04T10:04:31.350Z</time>
      </trkpt>
      <trkpt lat="48.20469" lon="6.62672">
        <ele>472</ele>
        <time>2023-04-04T10:04:35.774Z</time>
      </trkpt>
      <trkpt lat="48.20459" lon="6.6265">
        <ele>472</ele>
        <time>2023-04-04T10:04:40.201Z</time>
      </trkpt>
      <trkpt lat="48.2045" lon="6.62634">
        <ele>473</ele>
        <time>2023-04-04T10:04:44.631Z</time>
      </trkpt>
      <trkpt lat="48.20437" lon="6.62612">
        <ele>474</ele>
        <time>2023-04-04T10:04:49.065Z</time>
      </trkpt>
      <trkpt lat="48.20424" lon="6.62595">
        <ele>475</ele>
        <time>2023-04-04T10:04:53.503Z</time>
      </trkpt>
      <trkpt lat="48.20415" lon="6.62579">
        <ele>475</ele>
        <time>2023-04-04T10:04:57.943Z</time>
      </trkpt>
      <trkpt lat="48.20412" lon="6.62576">
        <ele>476</ele>
        <time>2023-04-04T10:05:02.384Z</time>
      </trkpt>
      <trkpt lat="48.20395" lon="6.62547">
        <ele>477</ele>
        <time>2023-04-04T10:05:06.830Z</time>
      </trkpt>
      <trkpt lat="48.2038" lon="6.62523">
        <ele>478</ele>
        <time>2023-04-04T10:05:11.281Z</time>
      </trkpt>
      <trkpt lat="48.20364" lon="6.62506">
        <ele>478</ele>
        <time>2023-04-04T10:05:15.736Z</time>
      </trkpt>
      <trkpt lat="48.2035" lon="6.62492">
        <ele>479</ele>
        <time>2023-04-04T10:05:20.194Z</time>
      </trkpt>
      <trkpt lat="48.20337" lon="6.62477">
        <ele>480</ele>
        <time>2023-04-04T10:05:24.655Z</time>
      </trkpt>
      <trkpt lat="48.2033" lon="6.62464">
        <ele>481</ele>
        <time>2023-04-04T10:05:29.119Z</time>
      </trkpt>
      <trkpt lat="48.20322" lon="6.62454">
        <ele>481</ele>
        <time>2023-04-04T10:05:33.585Z</time>
      </trkpt>
      <trkpt lat="48.20315" lon="6.62447">
        <ele>482</ele>
        <time>2023-04-04T10:05:38.052Z</time>
      </trkpt>
      <trkpt lat="48.20313" lon="6.62441">
        <ele>483</ele>
        <time>2023-04-04T10:05:42.520Z</time>
      </trkpt>
      <trkpt lat="48.20299" lon="6.62425">
        <ele>483</ele>
        <time>2023-04-04T10:05:46.992Z</time>
      </trkpt>
      <trkpt lat="48.20297" lon="6.62422">
        <ele>484</ele>
        <time>2023-04-04T10:05:51.464Z</time>
      </trkpt>
      <trkpt lat="48.20292" lon="6.62416">
        <ele>484</ele>
        <time>2023-04-04T10:05:55.938Z</time>
      </trkpt>
      <trkpt lat="48.20273" lon="6.62401">
        <ele>485</ele>
        <time>2023-04-04T10:06:00.416Z</time>
      </trkpt>
      <trkpt lat="48.20257" lon="6.62395">
        <ele>486</ele>
        <time>2023-04-04T10:06:04.897Z</time>
      </trkpt>
      <trkpt lat="48.20251" lon="6.62391">
        <ele>486</ele>
        <time>2023-04-04T10:06:09.380Z</time>
      </trkpt>
      <trkpt lat="48.20244" lon="6.62385">
        <ele>487</ele>
        <time>2023-04-04T10:06:13.864Z</time>
      </trkpt>
      <trkpt lat="48.2024" lon="6.62379">
        <ele>487</ele>
        <time>2023-04-04T10:06:18.349Z</time>
      </trkpt>
      <trkpt lat="48.20221" lon="6.62366">
        <ele>487</ele>
        <time>2023-04-04T10:06:22.838Z</time>
      </trkpt>
      <trkpt lat="48.20211" lon="6.62359">
        <ele>488</ele>
        <time>2023-04-04T10:06:27.330Z</time>
      </trkpt>
      <trkpt lat="48.20206" lon="6.62358">
        <ele>488</ele>
        <time>2023-04-04T10:06:31.823Z</time>
      </trkpt>
      <trkpt lat="48.20199" lon="6.62354">
        <ele>489</ele>
        <time>2023-04-04T10:06:36.317Z</time>
      </trkpt>
      <trkpt lat="48.20198" lon="6.62355">
        <ele>489</ele>
        <time>2023-04-04T10:06:40.811Z</time>
      </trkpt>
      <trkpt lat="48.20197" lon="6.62356">
        <ele>489</ele>
        <time>2023-04-04T10:06:45.306Z</time>
      </trkpt>
      <trkpt lat="48.20185" lon="6.62361">
        <ele>490</ele>
        <time>2023-04-04T10:06:49.803Z</time>
      </trkpt>
      <trkpt lat="48.20181" lon="6.62364">
        <ele>490</ele>
        <time>2023-04-04T10:06:54.301Z</time>
      </trkpt>
      <trkpt lat="48.20167" lon="6.62387">
        <ele>490</ele>
        <time>2023-04-04T10:06:58.803Z</time>
      </trkpt>
      <trkpt lat="48.20164" lon="6.62409">
        <ele>491</ele>
        <time>2023-04-04T10:07:03.308Z</time>
      </trkpt>
      <trkpt lat="48.20162" lon="6.62419">
        <ele>491</ele>
        <time>2023-04-04T10:07:07.815Z</time>
      </trkpt>
      <trkpt lat="48.20159" lon="6.62424">
        <ele>491</ele>
        <time>2023-04-04T10:07:12.323Z</time>
      </trkpt>
      <trkpt lat="48.20151" lon="6.6244">
        <ele>492</ele>
        <time>2023-04-04T10:07:16.833Z</time>
      </trkpt>
      <trkpt lat="48.20144" lon="6.62447">
        <ele>492</ele>
        <time>2023-04-04T10:07:21.345Z</time>
      </trkpt>
      <trkpt lat="48.20139" lon="6.62451">
        <ele>492</ele>
        <time>2023-04-04T10:07:25.858Z</time>
      </trkpt>
      <trkpt lat="48.20137" lon="6.62455">
        <ele>492</ele>
        <time>2023-04-04T10:07:30.372Z</time>
      </trkpt>
      <trkpt lat="48.20135" lon="6.62459">
        <ele>493</ele>
        <time>2023-04-04T10:07:34.886Z</time>
      </trkpt>
      <trkpt lat="48.20134" lon="6.62463">
        <ele>493</ele>
        <time>2023-04-04T10:07:39.401Z</time>
      </trkpt>
      <trkpt lat="48.20126" lon="6.62473">
        <ele>493</ele>
        <time>2023-04-04T10:07:43.918Z</time>
      </trkpt>
      <trkpt lat="48.20121" lon="6.62486">
        <ele>494</ele>
        <time>2023-04-04T10:07:48.437Z</time>
      </trkpt>
      <trkpt lat="48.20119" lon="6.6249">
        <ele>494</ele>
        <time>2023-04-04T10:07:52.957Z</time>
      </trkpt>
      <trkpt lat="48.20114" lon="6.62498">
        <ele>494</ele>
        <time>2023-04-04T10:07:57.478Z</time>
      </trkpt>
      <trkpt lat="48.20108" lon="6.62508">
        <ele>495</ele>
        <time>2023-04-04T10:08:02.001Z</time>
      </trkpt>
      <trkpt lat="48.201" lon="6.62518">
        <ele>495</ele>
        <time>2023-04-04T10:08:06.526Z</time>
      </trkpt>
      <trkpt lat="48.20099" lon="6.62521">
        <ele>496</ele>
        <time>2023-04-04T10:08:11.051Z</time>
      </trkpt>
      <trkpt lat="48.20095" lon="6.62535">
        <ele>496</ele>
        <time>2023-04-04T10:08:15.578Z</time>
      </trkpt>
      <trkpt lat="48.20085" lon="6.62551">
        <ele>496</ele>
        <time>2023-04-04T10:08:20.108Z</time>
      </trkpt>
      <trkpt lat="48.20078" lon="6.62555">
        <ele>497</ele>
        <time>2023-04-04T10:08:24.640Z</time>
      </trkpt>
      <trkpt lat="48.20077" lon="6.62554">
        <ele>497</ele>
        <time>2023-04-04T10:08:29.172Z</time>
      </trkpt>
      <trkpt lat="48.20073" lon="6.6255">
        <ele>498</ele>
        <time>2023-04-04T10:08:33.705Z</time>
      </trkpt>
      <trkpt lat="48.20068" lon="6.6255">
        <ele>498</ele>
        <time>2023-04-04T10:08:38.239Z</time>
      </trkpt>
      <trkpt lat="48.20062" lon="6.62548">
        <ele>499</ele>
        <time>2023-04-04T10:08:42.774Z</time>
      </trkpt>
      <trkpt lat="48.2006" lon="6.62547">
        <ele>499</ele>
        <time>2023-04-04T10:08:47.310Z</time>
      </trkpt>
      <trkpt lat="48.20057" lon="6.62545">
        <ele>500</ele>
        <time>2023-04-04T10:08:51.846Z</time>
      </trkpt>
      <trkpt lat="48.20053" lon="6.62541">
        <ele>500</ele>
        <time>2023-04-04T10:08:56.383Z</time>
      </trkpt>
      <trkpt lat="48.20046" lon="6.62538">
        <ele>501</ele>
        <time>2023-04-04T10:09:00.922Z</time>
      </trkpt>
      <trkpt lat="48.20031" lon="6.62531">
        <ele>501</ele>
        <time>2023-04-04T10:09:05.464Z</time>
      </trkpt>
      <trkpt lat="48.20029" lon="6.62531">
        <ele>502</ele>
        <time>2023-04-04T10:09:10.006Z</time>
      </trkpt>
      <trkpt lat="48.20026" lon="6.62529">
        <ele>502</ele>
        <time>2023-04-04T10:09:14.549Z</time>
      </trkpt>
      <trkpt lat="48.20025" lon="6.62528">
        <ele>503</ele>
        <time>2023-04-04T10:09:19.092Z</time>
      </trkpt>
      <trkpt lat="48.20023" lon="6.62525">
        <ele>503</ele>
        <time>2023-04-04T10:09:23.636Z</time>
      </trkpt>
      <trkpt lat="48.20015" lon="6.62523">
        <ele>504</ele>
        <time>2023-04-04T10:09:28.181Z</time>
      </trkpt>
      <trkpt lat="48.20009" lon="6.62522">
        <ele>504</ele>
        <time>2023-04-04T10:09:32.728Z</time>
      </trkpt>
      <trkpt lat="48.20001" lon="6.6252">
        <ele>505</ele>
        <time>2023-04-04T10:09:37.276Z</time>
      </trkpt>
      <trkpt lat="48.19998" lon="6.62519">
        <ele>505</ele>
        <time>2023-04-04T10:09:41.825Z</time>
      </trkpt>
      <trkpt lat="48.19996" lon="6.62519">
        <ele>506</ele>
        <time>2023-04-04T10:09:46.374Z</time>
      </trkpt>
      <trkpt lat="48.19985" lon="6.6251">
        <ele>506</ele>
        <time>2023-04-04T10:09:50.926Z</time>
      </trkpt>
      <trkpt lat="48.19983" lon="6.62508">
        <ele>507</ele>
        <time>2023-04-04T10:09:55.478Z</time>
      </trkpt>
      <trkpt lat="48.19978" lon="6.62504">
        <ele>508</ele>
        <time>2023-04-04T10:10:00.031Z</time>
      </trkpt>
      <trkpt lat="48.19969" lon="6.62504">
        <ele>508</ele>
        <time>2023-04-04T10:10:04.586Z</time>
      </trkpt>
      <trkpt lat="48.19965" lon="6.62504">
        <ele>509</ele>
        <time>2023-04-04T10:10:09.142Z</time>
      </trkpt>
      <trkpt lat="48.19959" lon="6.62499">
        <ele>509</ele>
        <time>2023-04-04T10:10:13.699Z</time>
      </trkpt>
      <trkpt lat="48.19955" lon="6.62498">
        <ele>510</ele>
        <time>2023-04-04T10:10:18.257Z</time>
      </trkpt>
      <trkpt lat="48.19949" lon="6.62497">
        <ele>510</ele>
        <time>2023-04-04T10:10:22.816Z</time>
      </trkpt>
      <trkpt lat="48.19941" lon="6.62488">
        <ele>511</ele>
        <time>2023-04-04T10:10:27.377Z</time>
      </trkpt>
      <trkpt lat="48.19934" lon="6.62475">
        <ele>511</ele>
        <time>2023-04-04T10:10:31.941Z</time>
      </trkpt>
      <trkpt lat="48.19927" lon="6.62474">
        <ele>512</ele>
        <time>2023-04-04T10:10:36.506Z</time>
      </trkpt>
      <trkpt lat="48.19922" lon="6.62471">
        <ele>512</ele>
        <time>2023-04-04T10:10:41.072Z</time>
      </trkpt>
      <trkpt lat="48.19918" lon="6.62467">
        <ele>513</ele>
        <time>2023-04-04T10:10:45.639Z</time>
      </trkpt>
      <trkpt lat="48.19908" lon="6.6246">
        <ele>513</ele>
        <time>2023-04-04T10:10:50.208Z</time>
      </trkpt>
      <trkpt lat="48.19905" lon="6.62458">
        <ele>514</ele>
        <time>2023-04-04T10:10:54.778Z</time>
      </trkpt>
      <trkpt lat="48.19896" lon="6.62453">
        <ele>514</ele>
        <time>2023-04-04T10:10:59.350Z</time>
      </trkpt>
      <trkpt lat="48.19883" lon="6.62446">
        <ele>515</ele>
        <time>2023-04-04T10:11:03.925Z</time>
      </trkpt>
      <trkpt lat="48.19876" lon="6.62435">
        <ele>515</ele>
        <time>2023-04-04T10:11:08.502Z</time>
      </trkpt>
      <trkpt lat="48.19874" lon="6.62434">
        <ele>516</ele>
        <time>2023-04-04T10:11:13.079Z</time>
      </trkpt>
      <trkpt lat="48.19873" lon="6.62433">
        <ele>516</ele>
        <time>2023-04-04T10:11:17.656Z</time>
      </trkpt>
      <trkpt lat="48.1987" lon="6.62432">
        <ele>516</ele>
        <time>2023-04-04T10:11:22.234Z</time>
      </trkpt>
      <trkpt lat="48.19866" lon="6.62428">
        <ele>517</ele>
        <time>2023-04-04T10:11:26.813Z</time>
      </trkpt>
      <trkpt lat="48.19845" lon="6.62408">
        <ele>517</ele>
        <time>2023-04-04T10:11:31.397Z</time>
      </trkpt>
      <trkpt lat="48.19841" lon="6.62406">
        <ele>518</ele>
        <time>2023-04-04T10:11:35.982Z</time>
      </trkpt>
      <trkpt lat="48.19838" lon="6.62399">
        <ele>518</ele>
        <time>2023-04-04T10:11:40.568Z</time>
      </trkpt>
      <trkpt lat="48.19836" lon="6.62395">
        <ele>519</ele>
        <time>2023-04-04T10:11:45.155Z</time>
      </trkpt>
      <trkpt lat="48.19833" lon="6.6239">
        <ele>519</ele>
        <time>2023-04-04T10:11:49.742Z</time>
      </trkpt>
      <trkpt lat="48.19832" lon="6.62387">
        <ele>519</ele>
        <time>2023-04-04T10:11:54.330Z</time>
      </trkpt>
      <trkpt lat="48.19826" lon="6.62369">
        <ele>520</ele>
        <time>2023-04-04T10:11:58.921Z</time>
      </trkpt>
      <trkpt lat="48.19826" lon="6.62366">
        <ele>520</ele>
        <time>2023-04-04T10:12:03.512Z</time>
      </trkpt>
      <trkpt lat="48.19826" lon="6.62363">
        <ele>520</ele>
        <time>2023-04-04T10:12:08.103Z</time>
      </trkpt>
      <trkpt lat="48.19824" lon="6.62357">
        <ele>521</ele>
        <time>2023-04-04T10:12:12.695Z</time>
      </trkpt>
      <trkpt lat="48.19823" lon="6.62355">
        <ele>521</ele>
        <time>2023-04-04T10:12:17.288Z</time>
      </trkpt>
      <trkpt lat="48.19822" lon="6.62352">
        <ele>521</ele>
        <time>2023-04-04T10:12:21.881Z</time>
      </trkpt>
      <trkpt lat="48.19819" lon="6.62346">
        <ele>521</ele>
        <time>2023-04-04T10:12:26.475Z</time>
      </trkpt>
      <trkpt lat="48.19821" lon="6.62343">
        <ele>521</ele>
        <time>2023-04-04T10:12:31.070Z</time>
      </trkpt>
      <trkpt lat="48.19823" lon="6.6234">
        <ele>522</ele>
        <time>2023-04-04T10:12:35.665Z</time>
      </trkpt>
      <trkpt lat="48.19824" lon="6.62336">
        <ele>522</ele>
        <time>2023-04-04T10:12:40.261Z</time>
      </trkpt>
      <trkpt lat="48.19823" lon="6.62324">
        <ele>522</ele>
        <time>2023-04-04T10:12:44.858Z</time>
      </trkpt>
      <trkpt lat="48.19818" lon="6.62305">
        <ele>522</ele>
        <time>2023-04-04T10:12:49.458Z</time>
      </trkpt>
      <trkpt lat="48.19805" lon="6.62299">
        <ele>522</ele>
        <time>2023-04-04T10:12:54.061Z</time>
      </trkpt>
      <trkpt lat="48.19789" lon="6.62308">
        <ele>522</ele>
        <time>2023-04-04T10:12:58.667Z</time>
      </trkpt>
      <trkpt lat="48.19776" lon="6.62314">
        <ele>522</ele>
        <time>2023-04-04T10:13:03.276Z</time>
      </trkpt>
      <trkpt lat="48.19764" lon="6.6231">
        <ele>523</ele>
        <time>2023-04-04T10:13:07.887Z</time>
      </trkpt>
      <trkpt lat="48.19761" lon="6.62308">
        <ele>523</ele>
        <time>2023-04-04T10:13:12.499Z</time>
      </trkpt>
      <trkpt lat="48.19757" lon="6.62307">
        <ele>523</ele>
        <time>2023-04-04T10:13:17.112Z</time>
      </trkpt>
      <trkpt lat="48.19755" lon="6.62308">
        <ele>523</ele>
        <time>2023-04-04T10:13:21.725Z</time>
      </trkpt>
      <trkpt lat="48.19754" lon="6.6231">
        <ele>523</ele>
        <time>2023-04-04T10:13:26.339Z</time>
      </trkpt>
      <trkpt lat="48.19749" lon="6.62316">
        <ele>523</ele>
        <time>2023-04-04T10:13:30.954Z</time>
      </trkpt>
      <trkpt lat="48.19742" lon="6.62321">
        <ele>523</ele>
        <time>2023-04-04T10:13:35.571Z</time>
      </trkpt>
      <trkpt lat="48.19731" lon="6.62326">
        <ele>523</ele>
        <time>2023-04-04T10:13:40.190Z</time>
      </trkpt>
      <trkpt lat="48.1972" lon="6.62333">
        <ele>523</ele>
        <time>2023-04-04T10:13:44.811Z</time>
      </trkpt>
      <trkpt lat="48.19688" lon="6.62352">
        <ele>523</ele>
        <time>2023-04-04T10:13:49.439Z</time>
      </trkpt>
      <trkpt lat="48.19671" lon="6.62359">
        <ele>522</ele>
        <time>2023-04-04T10:13:54.071Z</time>
      </trkpt>
      <trkpt lat="48.19668" lon="6.62359">
        <ele>522</ele>
        <time>2023-04-04T10:13:58.703Z</time>
      </trkpt>
      <trkpt lat="48.19646" lon="6.62363">
        <ele>522</ele>
        <time>2023-04-04T10:14:03.340Z</time>
      </trkpt>
      <trkpt lat="48.19638" lon="6.62357">
        <ele>522</ele>
        <time>2023-04-04T10:14:07.978Z</time>
      </trkpt>
      <trkpt lat="48.19632" lon="6.62352">
        <ele>522</ele>
        <time>2023-04-04T10:14:12.618Z</time>
      </trkpt>
      <trkpt lat="48.1963" lon="6.62348">
        <ele>522</ele>
        <time>2023-04-04T10:14:17.259Z</time>
      </trkpt>
      <trkpt lat="48.19625" lon="6.6234">
        <ele>522</ele>
        <time>2023-04-04T10:14:21.901Z</time>
      </trkpt>
      <trkpt lat="48.19597" lon="6.62321">
        <ele>522</ele>
        <time>2023-04-04T10:14:26.549Z</time>
      </trkpt>
      <trkpt lat="48.19582" lon="6.62311">
        <ele>522</ele>
        <time>2023-04-04T10:14:31.200Z</time>
      </trkpt>
      <trkpt lat="48.19562" lon="6.62293">
        <ele>522</ele>
        <time>2023-04-04T10:14:35.856Z</time>
      </trkpt>
      <trkpt lat="48.19548" lon="6.62286">
        <ele>522</ele>
        <time>2023-04-04T10:14:40.515Z</time>
      </trkpt>
      <trkpt lat="48.19527" lon="6.62279">
        <ele>522</ele>
        <time>2023-04-04T10:14:45.178Z</time>
      </trkpt>
      <trkpt lat="48.19512" lon="6.62268">
        <ele>522</ele>
        <time>2023-04-04T10:14:49.845Z</time>
      </trkpt>
      <trkpt lat="48.19506" lon="6.62264">
        <ele>522</ele>
        <time>2023-04-04T10:14:54.513Z</time>
      </trkpt>
      <trkpt lat="48.19486" lon="6.6226">
        <ele>522</ele>
        <time>2023-04-04T10:14:59.185Z</time>
      </trkpt>
      <trkpt lat="48.19473" lon="6.6226">
        <ele>522</ele>
        <time>2023-04-04T10:15:03.860Z</time>
      </trkpt>
      <trkpt lat="48.19448" lon="6.62261">
        <ele>522</ele>
        <time>2023-04-04T10:15:08.540Z</time>
      </trkpt>
      <trkpt lat="48.19434" lon="6.6226">
        <ele>522</ele>
        <time>2023-04-04T10:15:13.222Z</time>
      </trkpt>
      <trkpt lat="48.1943" lon="6.6226">
        <ele>522</ele>
        <time>2023-04-04T10:15:17.905Z</time>
      </trkpt>
      <trkpt lat="48.19406" lon="6.62258">
        <ele>522</ele>
        <time>2023-04-04T10:15:22.593Z</time>
      </trkpt>
      <trkpt lat="48.19391" lon="6.62249">
        <ele>522</ele>
        <time>2023-04-04T10:15:27.284Z</time>
      </trkpt>
      <trkpt lat="48.19369" lon="6.62232">
        <ele>522</ele>
        <time>2023-04-04T10:15:31.980Z</time>
      </trkpt>
      <trkpt lat="48.19355" lon="6.62218">
        <ele>523</ele>
        <time>2023-04-04T10:15:36.680Z</time>
      </trkpt>
      <trkpt lat="48.1935" lon="6.62212">
        <ele>523</ele>
        <time>2023-04-04T10:15:41.381Z</time>
      </trkpt>
      <trkpt lat="48.19338" lon="6.62205">
        <ele>523</ele>
        <time>2023-04-04T10:15:46.085Z</time>
      </trkpt>
      <trkpt lat="48.19333" lon="6.62201">
        <ele>523</ele>
        <time>2023-04-04T10:15:50.790Z</time>
      </trkpt>
      <trkpt lat="48.19322" lon="6.62193">
        <ele>524</ele>
        <time>2023-04-04T10:15:55.497Z</time>
      </trkpt>
      <trkpt lat="48.19315" lon="6.62189">
        <ele>524</ele>
        <time>2023-04-04T10:16:00.206Z</time>
      </trkpt>
      <trkpt lat="48.19311" lon="6.62188">
        <ele>524</ele>
        <time>2023-04-04T10:16:04.915Z</time>
      </trkpt>
      <trkpt lat="48.19303" lon="6.62184">
        <ele>524</ele>
        <time>2023-04-04T10:16:09.626Z</time>
      </trkpt>
      <trkpt lat="48.19284" lon="6.62168">
        <ele>525</ele>
        <time>2023-04-04T10:16:14.341Z</time>
      </trkpt>
      <trkpt lat="48.19276" lon="6.62164">
        <ele>525</ele>
        <time>2023-04-04T10:16:19.058Z</time>
      </trkpt>
      <trkpt lat="48.19267" lon="6.62156">
        <ele>525</ele>
        <time>2023-04-04T10:16:23.777Z</time>
      </trkpt>
      <trkpt lat="48.19251" lon="6.62137">
        <ele>526</ele>
        <time>2023-04-04T10:16:28.500Z</time>
      </trkpt>
      <trkpt lat="48.19245" lon="6.62131">
        <ele>526</ele>
        <time>2023-04-04T10:16:33.225Z</time>
      </trkpt>
      <trkpt lat="48.19229" lon="6.62129">
        <ele>526</ele>
        <time>2023-04-04T10:16:37.953Z</time>
      </trkpt>
      <trkpt lat="48.19207" lon="6.62122">
        <ele>526</ele>
        <time>2023-04-04T10:16:42.686Z</time>
      </trkpt>
      <trkpt lat="48.1919" lon="6.62123">
        <ele>527</ele>
        <time>2023-04-04T10:16:47.422Z</time>
      </trkpt>
      <trkpt lat="48.19184" lon="6.62123">
        <ele>527</ele>
        <time>2023-04-04T10:16:52.159Z</time>
      </trkpt>
      <trkpt lat="48.19173" lon="6.62124">
        <ele>527</ele>
        <time>2023-04-04T10:16:56.898Z</time>
      </trkpt>
      <trkpt lat="48.19169" lon="6.62125">
        <ele>528</ele>
        <time>2023-04-04T10:17:01.638Z</time>
      </trkpt>
      <trkpt lat="48.19166" lon="6.62123">
        <ele>528</ele>
        <time>2023-04-04T10:17:06.379Z</time>
      </trkpt>
      <trkpt lat="48.19161" lon="6.62115">
        <ele>528</ele>
        <time>2023-04-04T10:17:11.121Z</time>
      </trkpt>
      <trkpt lat="48.19151" lon="6.62099">
        <ele>528</ele>
        <time>2023-04-04T10:17:15.866Z</time>
      </trkpt>
      <trkpt lat="48.19147" lon="6.62097">
        <ele>529</ele>
        <time>2023-04-04T10:17:20.612Z</time>
      </trkpt>
      <trkpt lat="48.19139" lon="6.62092">
        <ele>529</ele>
        <time>2023-04-04T10:17:25.360Z</time>
      </trkpt>
      <trkpt lat="48.19137" lon="6.62088">
        <ele>529</ele>
        <time>2023-04-04T10:17:30.108Z</time>
      </trkpt>
      <trkpt lat="48.19133" lon="6.62078">
        <ele>529</ele>
        <time>2023-04-04T10:17:34.858Z</time>
      </trkpt>
      <trkpt lat="48.1913" lon="6.62073">
        <ele>530</ele>
        <time>2023-04-04T10:17:39.609Z</time>
      </trkpt>
      <trkpt lat="48.19127" lon="6.62068">
        <ele>530</ele>
        <time>2023-04-04T10:17:44.361Z</time>
      </trkpt>
      <trkpt lat="48.19121" lon="6.62045">
        <ele>530</ele>
        <time>2023-04-04T10:17:49.116Z</time>
      </trkpt>
      <trkpt lat="48.19112" lon="6.62034">
        <ele>530</ele>
        <time>2023-04-04T10:17:53.873Z</time>
      </trkpt>
      <trkpt lat="48.19101" lon="6.62019">
        <ele>530</ele>
        <time>2023-04-04T10:17:58.633Z</time>
      </trkpt>
      <trkpt lat="48.19102" lon="6.62015">
        <ele>531</ele>
        <time>2023-04-04T10:18:03.394Z</time>
      </trkpt>
      <trkpt lat="48.19111" lon="6.61992">
        <ele>531</ele>
        <time>2023-04-04T10:18:08.159Z</time>
      </trkpt>
      <trkpt lat="48.19128" lon="6.61961">
        <ele>531</ele>
        <time>2023-04-04T10:18:12.929Z</time>
      </trkpt>
      <trkpt lat="48.19138" lon="6.61954">
        <ele>531</ele>
        <time>2023-04-04T10:18:17.701Z</time>
      </trkpt>
      <trkpt lat="48.19146" lon="6.6194">
        <ele>531</ele>
        <time>2023-04-04T10:18:22.476Z</time>
      </trkpt>
      <trkpt lat="48.19149" lon="6.61934">
        <ele>531</ele>
        <time>2023-04-04T10:18:27.252Z</time>
      </trkpt>
      <trkpt lat="48.19157" lon="6.61921">
        <ele>531</ele>
        <time>2023-04-04T10:18:32.030Z</time>
      </trkpt>
      <trkpt lat="48.19162" lon="6.61909">
        <ele>531</ele>
        <time>2023-04-04T10:18:36.810Z</time>
      </trkpt>
      <trkpt lat="48.1917" lon="6.61894">
        <ele>531</ele>
        <time>2023-04-04T10:18:41.592Z</time>
      </trkpt>
      <trkpt lat="48.19171" lon="6.6189">
        <ele>531</ele>
        <time>2023-04-04T10:18:46.375Z</time>
      </trkpt>
      <trkpt lat="48.19171" lon="6.61887">
        <ele>531</ele>
        <time>2023-04-04T10:18:51.158Z</time>
      </trkpt>
      <trkpt lat="48.19166" lon="6.61881">
        <ele>531</ele>
        <time>2023-04-04T10:18:55.943Z</time>
      </trkpt>
      <trkpt lat="48.19163" lon="6.61876">
        <ele>531</ele>
        <time>2023-04-04T10:19:00.729Z</time>
      </trkpt>
      <trkpt lat="48.19151" lon="6.61864">
        <ele>531</ele>
        <time>2023-04-04T10:19:05.517Z</time>
      </trkpt>
      <trkpt lat="48.19148" lon="6.61861">
        <ele>531</ele>
        <time>2023-04-04T10:19:10.306Z</time>
      </trkpt>
      <trkpt lat="48.19135" lon="6.61841">
        <ele>530</ele>
        <time>2023-04-04T10:19:15.099Z</time>
      </trkpt>
      <trkpt lat="48.19126" lon="6.61818">
        <ele>530</ele>
        <time>2023-04-04T10:19:19.895Z</time>
      </trkpt>
      <trkpt lat="48.19122" lon="6.61809">
        <ele>530</ele>
        <time>2023-04-04T10:19:24.693Z</time>
      </trkpt>
      <trkpt lat="48.19112" lon="6.61784">
        <ele>530</ele>
        <time>2023-04-04T10:19:29.495Z</time>
      </trkpt>
      <trkpt lat="48.19097" lon="6.61765">
        <ele>530</ele>
        <time>2023-04-04T10:19:34.301Z</time>
      </trkpt>
      <trkpt lat="48.19073" lon="6.61747">
        <ele>530</ele>
        <time>2023-04-04T10:19:39.112Z</time>
      </trkpt>
      <trkpt lat="48.19059" lon="6.61732">
        <ele>530</ele>
        <time>2023-04-04T10:19:43.927Z</time>
      </trkpt>
      <trkpt lat="48.19044" lon="6.61712">
        <ele>530</ele>
        <time>2023-04-04T10:19:48.746Z</time>
      </trkpt>
      <trkpt lat="48.1903" lon="6.61704">
        <ele>531</ele>
        <time>2023-04-04T10:19:53.568Z</time>
      </trkpt>
      <trkpt lat="48.19002" lon="6.61694">
        <ele>531</ele>
        <time>2023-04-04T10:19:58.395Z</time>
      </trkpt>
      <trkpt lat="48.18984" lon="6.61677">
        <ele>531</ele>
        <time>2023-04-04T10:20:03.227Z</time>
      </trkpt>
      <trkpt lat="48.18962" lon="6.61665">
        <ele>531</ele>
        <time>2023-04-04T10:20:08.063Z</time>
      </trkpt>
      <trkpt lat="48.1895" lon="6.61652">
        <ele>531</ele>
        <time>2023-04-04T10:20:12.902Z</time>
      </trkpt>
      <trkpt lat="48.1894" lon="6.61646">
        <ele>530</ele>
        <time>2023-04-04T10:20:17.743Z</time>
      </trkpt>
      <trkpt lat="48.18933" lon="6.61639">
        <ele>530</ele>
        <time>2023-04-04T10:20:22.586Z</time>
      </trkpt>
      <trkpt lat="48.18919" lon="6.61626">
        <ele>530</ele>
        <time>2023-04-04T10:20:27.432Z</time>
      </trkpt>
      <trkpt lat="48.18916" lon="6.61605">
        <ele>530</ele>
        <time>2023-04-04T10:20:32.281Z</time>
      </trkpt>
      <trkpt lat="48.18916" lon="6.61598">
        <ele>530</ele>
        <time>2023-04-04T10:20:37.131Z</time>
      </trkpt>
      <trkpt lat="48.18918" lon="6.6158">
        <ele>530</ele>
        <time>2023-04-04T10:20:41.984Z</time>
      </trkpt>
      <trkpt lat="48.1892" lon="6.61572">
        <ele>529</ele>
        <time>2023-04-04T10:20:46.838Z</time>
      </trkpt>
      <trkpt lat="48.18929" lon="6.61541">
        <ele>529</ele>
        <time>2023-04-04T10:20:51.696Z</time>
      </trkpt>
      <trkpt lat="48.18935" lon="6.61527">
        <ele>529</ele>
        <time>2023-04-04T10:20:56.557Z</time>
      </trkpt>
      <trkpt lat="48.18941" lon="6.61515">
        <ele>529</ele>
        <time>2023-04-04T10:21:01.420Z</time>
      </trkpt>
      <trkpt lat="48.18948" lon="6.61505">
        <ele>528</ele>
        <time>2023-04-04T10:21:06.284Z</time>
      </trkpt>
      <trkpt lat="48.18955" lon="6.61491">
        <ele>528</ele>
        <time>2023-04-04T10:21:11.151Z</time>
      </trkpt>
      <trkpt lat="48.18961" lon="6.61474">
        <ele>528</ele>
        <time>2023-04-04T10:21:16.020Z</time>
      </trkpt>
      <trkpt lat="48.18967" lon="6.61464">
        <ele>527</ele>
        <time>2023-04-04T10:21:20.891Z</time>
      </trkpt>
      <trkpt lat="48.18968" lon="6.6146">
        <ele>527</ele>
        <time>2023-04-04T10:21:25.763Z</time>
      </trkpt>
      <trkpt lat="48.18968" lon="6.61453">
        <ele>527</ele>
        <time>2023-04-04T10:21:30.636Z</time>
      </trkpt>
      <trkpt lat="48.18967" lon="6.61446">
        <ele>527</ele>
        <time>2023-04-04T10:21:35.510Z</time>
      </trkpt>
      <trkpt lat="48.18961" lon="6.61416">
        <ele>526</ele>
        <time>2023-04-04T10:21:40.388Z</time>
      </trkpt>
      <trkpt lat="48.18951" lon="6.61397">
        <ele>526</ele>
        <time>2023-04-04T10:21:45.269Z</time>
      </trkpt>
      <trkpt lat="48.1894" lon="6.61383">
        <ele>526</ele>
        <time>2023-04-04T10:21:50.153Z</time>
      </trkpt>
      <trkpt lat="48.18924" lon="6.6137">
        <ele>525</ele>
        <time>2023-04-04T10:21:55.041Z</time>
      </trkpt>
      <trkpt lat="48.18919" lon="6.61364">
        <ele>525</ele>
        <time>2023-04-04T10:21:59.930Z</time>
      </trkpt>
      <trkpt lat="48.18914" lon="6.61357">
        <ele>525</ele>
        <time>2023-04-04T10:22:04.820Z</time>
      </trkpt>
      <trkpt lat="48.1891" lon="6.61345">
        <ele>524</ele>
        <time>2023-04-04T10:22:09.712Z</time>
      </trkpt>
      <trkpt lat="48.18911" lon="6.61341">
        <ele>524</ele>
        <time>2023-04-04T10:22:14.605Z</time>
      </trkpt>
      <trkpt lat="48.18913" lon="6.61339">
        <ele>523</ele>
        <time>2023-04-04T10:22:19.498Z</time>
      </trkpt>
      <trkpt lat="48.18917" lon="6.61336">
        <ele>523</ele>
        <time>2023-04-04T10:22:24.392Z</time>
      </trkpt>
      <trkpt lat="48.18919" lon="6.61332">
        <ele>523</ele>
        <time>2023-04-04T10:22:29.287Z</time>
      </trkpt>
      <trkpt lat="48.18925" lon="6.61327">
        <ele>522</ele>
        <time>2023-04-04T10:22:34.183Z</time>
      </trkpt>
      <trkpt lat="48.18932" lon="6.61319">
        <ele>522</ele>
        <time>2023-04-04T10:22:39.081Z</time>
      </trkpt>
      <trkpt lat="48.18942" lon="6.61313">
        <ele>521</ele>
        <time>2023-04-04T10:22:43.981Z</time>
      </trkpt>
      <trkpt lat="48.18969" lon="6.61304">
        <ele>521</ele>
        <time>2023-04-04T10:22:48.887Z</time>
      </trkpt>
      <trkpt lat="48.18985" lon="6.61297">
        <ele>520</ele>
        <time>2023-04-04T10:22:53.796Z</time>
      </trkpt>
      <trkpt lat="48.19008" lon="6.61275">
        <ele>519</ele>
        <time>2023-04-04T10:22:58.710Z</time>
      </trkpt>
      <trkpt lat="48.19013" lon="6.61268">
        <ele>519</ele>
        <time>2023-04-04T10:23:03.626Z</time>
      </trkpt>
      <trkpt lat="48.19021" lon="6.61259">
        <ele>518</ele>
        <time>2023-04-04T10:23:08.544Z</time>
      </trkpt>
      <trkpt lat="48.19029" lon="6.61253">
        <ele>517</ele>
        <time>2023-04-04T10:23:13.463Z</time>
      </trkpt>
      <trkpt lat="48.19033" lon="6.61249">
        <ele>517</ele>
        <time>2023-04-04T10:23:18.383Z</time>
      </trkpt>
      <trkpt lat="48.19043" lon="6.61241">
        <ele>516</ele>
        <time>2023-04-04T10:23:23.306Z</time>
      </trkpt>
      <trkpt lat="48.19051" lon="6.61233">
        <ele>515</ele>
        <time>2023-04-04T10:23:28.231Z</time>
      </trkpt>
      <trkpt lat="48.19055" lon="6.61229">
        <ele>514</ele>
        <time>2023-04-04T10:23:33.157Z</time>
      </trkpt>
      <trkpt lat="48.19072" lon="6.61215">
        <ele>513</ele>
        <time>2023-04-04T10:23:38.087Z</time>
      </trkpt>
      <trkpt lat="48.19079" lon="6.61217">
        <ele>512</ele>
        <time>2023-04-04T10:23:43.018Z</time>
      </trkpt>
      <trkpt lat="48.19113" lon="6.61208">
        <ele>511</ele>
        <time>2023-04-04T10:23:47.956Z</time>
      </trkpt>
      <trkpt lat="48.19138" lon="6.612">
        <ele>510</ele>
        <time>2023-04-04T10:23:52.899Z</time>
      </trkpt>
      <trkpt lat="48.19149" lon="6.61197">
        <ele>509</ele>
        <time>2023-04-04T10:23:57.844Z</time>
      </trkpt>
      <trkpt lat="48.19155" lon="6.61196">
        <ele>508</ele>
        <time>2023-04-04T10:24:02.790Z</time>
      </trkpt>
      <trkpt lat="48.19165" lon="6.61193">
        <ele>507</ele>
        <time>2023-04-04T10:24:07.738Z</time>
      </trkpt>
      <trkpt lat="48.19171" lon="6.61192">
        <ele>506</ele>
        <time>2023-04-04T10:24:12.688Z</time>
      </trkpt>
      <trkpt lat="48.19201" lon="6.61183">
        <ele>505</ele>
        <time>2023-04-04T10:24:17.644Z</time>
      </trkpt>
      <trkpt lat="48.19207" lon="6.61179">
        <ele>504</ele>
        <time>2023-04-04T10:24:22.601Z</time>
      </trkpt>
      <trkpt lat="48.19226" lon="6.61167">
        <ele>503</ele>
        <time>2023-04-04T10:24:27.562Z</time>
      </trkpt>
      <trkpt lat="48.19255" lon="6.61151">
        <ele>501</ele>
        <time>2023-04-04T10:24:32.529Z</time>
      </trkpt>
      <trkpt lat="48.19272" lon="6.61137">
        <ele>500</ele>
        <time>2023-04-04T10:24:37.500Z</time>
      </trkpt>
      <trkpt lat="48.1928" lon="6.6113">
        <ele>499</ele>
        <time>2023-04-04T10:24:42.473Z</time>
      </trkpt>
      <trkpt lat="48.19285" lon="6.6113">
        <ele>498</ele>
        <time>2023-04-04T10:24:47.447Z</time>
      </trkpt>
      <trkpt lat="48.19287" lon="6.6113">
        <ele>497</ele>
        <time>2023-04-04T10:24:52.422Z</time>
      </trkpt>
      <trkpt lat="48.19306" lon="6.61111">
        <ele>496</ele>
        <time>2023-04-04T10:24:57.401Z</time>
      </trkpt>
      <trkpt lat="48.19319" lon="6.61097">
        <ele>495</ele>
        <time>2023-04-04T10:25:02.383Z</time>
      </trkpt>
      <trkpt lat="48.19322" lon="6.61091">
        <ele>494</ele>
        <time>2023-04-04T10:25:07.366Z</time>
      </trkpt>
      <trkpt lat="48.19325" lon="6.61083">
        <ele>492</ele>
        <time>2023-04-04T10:25:12.351Z</time>
      </trkpt>
      <trkpt lat="48.19329" lon="6.61066">
        <ele>491</ele>
        <time>2023-04-04T10:25:17.338Z</time>
      </trkpt>
      <trkpt lat="48.1933" lon="6.61056">
        <ele>490</ele>
        <time>2023-04-04T10:25:22.326Z</time>
      </trkpt>
      <trkpt lat="48.19335" lon="6.61021">
        <ele>489</ele>
        <time>2023-04-04T10:25:27.319Z</time>
      </trkpt>
      <trkpt lat="48.19337" lon="6.61008">
        <ele>488</ele>
        <time>2023-04-04T10:25:32.314Z</time>
      </trkpt>
      <trkpt lat="48.19342" lon="6.60994">
        <ele>487</ele>
        <time>2023-04-04T10:25:37.311Z</time>
      </trkpt>
      <trkpt lat="48.19345" lon="6.60986">
        <ele>486</ele>
        <time>2023-04-04T10:25:42.309Z</time>
      </trkpt>
      <trkpt lat="48.19348" lon="6.60981">
        <ele>485</ele>
        <time>2023-04-04T10:25:47.308Z</time>
      </trkpt>
      <trkpt lat="48.19355" lon="6.60972">
        <ele>484</ele>
        <time>2023-04-04T10:25:52.309Z</time>
      </trkpt>
      <trkpt lat="48.19359" lon="6.60966">
        <ele>483</ele>
        <time>2023-04-04T10:25:57.311Z</time>
      </trkpt>
      <trkpt lat="48.19376" lon="6.60948">
        <ele>482</ele>
        <time>2023-04-04T10:26:02.317Z</time>
      </trkpt>
      <trkpt lat="48.1939" lon="6.60931">
        <ele>481</ele>
        <time>2023-04-04T10:26:07.327Z</time>
      </trkpt>
      <trkpt lat="48.19405" lon="6.60904">
        <ele>480</ele>
        <time>2023-04-04T10:26:12.342Z</time>
      </trkpt>
      <trkpt lat="48.19409" lon="6.60898">
        <ele>480</ele>
        <time>2023-04-04T10:26:17.358Z</time>
      </trkpt>
      <trkpt lat="48.19435" lon="6.60877">
        <ele>479</ele>
        <time>2023-04-04T10:26:22.380Z</time>
      </trkpt>
      <trkpt lat="48.19455" lon="6.60865">
        <ele>478</ele>
        <time>2023-04-04T10:26:27.406Z</time>
      </trkpt>
      <trkpt lat="48.19461" lon="6.60862">
        <ele>477</ele>
        <time>2023-04-04T10:26:32.433Z</time>
      </trkpt>
      <trkpt lat="48.19467" lon="6.60861">
        <ele>476</ele>
        <time>2023-04-04T10:26:37.461Z</time>
      </trkpt>
      <trkpt lat="48.1948" lon="6.60858">
        <ele>475</ele>
        <time>2023-04-04T10:26:42.492Z</time>
      </trkpt>
      <trkpt lat="48.19497" lon="6.60853">
        <ele>474</ele>
        <time>2023-04-04T10:26:47.527Z</time>
      </trkpt>
      <trkpt lat="48.19503" lon="6.60851">
        <ele>473</ele>
        <time>2023-04-04T10:26:52.563Z</time>
      </trkpt>
      <trkpt lat="48.19522" lon="6.60845">
        <ele>472</ele>
        <time>2023-04-04T10:26:57.603Z</time>
      </trkpt>
      <trkpt lat="48.19522" lon="6.60845">
        <ele>470</ele>
        <time>2023-04-04T10:27:02.643Z</time>
      </trkpt>
      <trkpt lat="48.19535" lon="6.60845">
        <ele>469</ele>
        <time>2023-04-04T10:27:07.685Z</time>
      </trkpt>
      <trkpt lat="48.1954" lon="6.60845">
        <ele>468</ele>
        <time>2023-04-04T10:27:12.728Z</time>
      </trkpt>
      <trkpt lat="48.19546" lon="6.60845">
        <ele>467</ele>
        <time>2023-04-04T10:27:17.772Z</time>
      </trkpt>
      <trkpt lat="48.19559" lon="6.60841">
        <ele>466</ele>
        <time>2023-04-04T10:27:22.819Z</time>
      </trkpt>
      <trkpt lat="48.19577" lon="6.60832">
        <ele>465</ele>
        <time>2023-04-04T10:27:27.870Z</time>
      </trkpt>
      <trkpt lat="48.196" lon="6.60808">
        <ele>464</ele>
        <time>2023-04-04T10:27:32.927Z</time>
      </trkpt>
      <trkpt lat="48.19605" lon="6.60798">
        <ele>463</ele>
        <time>2023-04-04T10:27:37.985Z</time>
      </trkpt>
      <trkpt lat="48.19611" lon="6.60788">
        <ele>462</ele>
        <time>2023-04-04T10:27:43.045Z</time>
      </trkpt>
      <trkpt lat="48.19634" lon="6.60772">
        <ele>461</ele>
        <time>2023-04-04T10:27:48.110Z</time>
      </trkpt>
      <trkpt lat="48.1964" lon="6.60775">
        <ele>460</ele>
        <time>2023-04-04T10:27:53.176Z</time>
      </trkpt>
      <trkpt lat="48.19642" lon="6.6078">
        <ele>459</ele>
        <time>2023-04-04T10:27:58.243Z</time>
      </trkpt>
      <trkpt lat="48.19646" lon="6.60791">
        <ele>458</ele>
        <time>2023-04-04T10:28:03.312Z</time>
      </trkpt>
      <trkpt lat="48.19648" lon="6.60795">
        <ele>458</ele>
        <time>2023-04-04T10:28:08.381Z</time>
      </trkpt>
      <trkpt lat="48.19652" lon="6.60798">
        <ele>457</ele>
        <time>2023-04-04T10:28:13.451Z</time>
      </trkpt>
      <trkpt lat="48.19655" lon="6.60794">
        <ele>456</ele>
        <time>2023-04-04T10:28:18.522Z</time>
      </trkpt>
      <trkpt lat="48.19658" lon="6.60787">
        <ele>456</ele>
        <time>2023-04-04T10:28:23.594Z</time>
      </trkpt>
      <trkpt lat="48.19667" lon="6.6077">
        <ele>455</ele>
        <time>2023-04-04T10:28:28.669Z</time>
      </trkpt>
      <trkpt lat="48.19672" lon="6.60743">
        <ele>454</ele>
        <time>2023-04-04T10:28:33.748Z</time>
      </trkpt>
      <trkpt lat="48.19674" lon="6.60735">
        <ele>454</ele>
        <time>2023-04-04T10:28:38.828Z</time>
      </trkpt>
      <trkpt lat="48.19677" lon="6.60719">
        <ele>454</ele>
        <time>2023-04-04T10:28:43.910Z</time>
      </trkpt>
      <trkpt lat="48.19674" lon="6.607">
        <ele>453</ele>
        <time>2023-04-04T10:28:48.995Z</time>
      </trkpt>
      <trkpt lat="48.19671" lon="6.60689">
        <ele>453</ele>
        <time>2023-04-04T10:28:54.082Z</time>
      </trkpt>
      <trkpt lat="48.19662" lon="6.6066">
        <ele>453</ele>
        <time>2023-04-04T10:28:59.173Z</time>
      </trkpt>
      <trkpt lat="48.19659" lon="6.60649">
        <ele>453</ele>
        <time>2023-04-04T10:29:04.265Z</time>
      </trkpt>
      <trkpt lat="48.19655" lon="6.6064">
        <ele>453</ele>
        <time>2023-04-04T10:29:09.359Z</time>
      </trkpt>
      <trkpt lat="48.1964" lon="6.60615">
        <ele>452</ele>
        <time>2023-04-04T10:29:14.457Z</time>
      </trkpt>
      <trkpt lat="48.1963" lon="6.60607">
        <ele>452</ele>
        <time>2023-04-04T10:29:19.558Z</time>
      </trkpt>
      <trkpt lat="48.19618" lon="6.60595">
        <ele>452</ele>
        <time>2023-04-04T10:29:24.661Z</time>
      </trkpt>
      <trkpt lat="48.1961" lon="6.60585">
        <ele>452</ele>
        <time>2023-04-04T10:29:29.767Z</time>
      </trkpt>
      <trkpt lat="48.19605" lon="6.60581">
        <ele>453</ele>
        <time>2023-04-04T10:29:34.874Z</time>
      </trkpt>
      <trkpt lat="48.19601" lon="6.60568">
        <ele>453</ele>
        <time>2023-04-04T10:29:39.983Z</time>
      </trkpt>
      <trkpt lat="48.19597" lon="6.60558">
        <ele>453</ele>
        <time>2023-04-04T10:29:45.093Z</time>
      </trkpt>
      <trkpt lat="48.19589" lon="6.60554">
        <ele>453</ele>
        <time>2023-04-04T10:29:50.205Z</time>
      </trkpt>
      <trkpt lat="48.19584" lon="6.6055">
        <ele>453</ele>
        <time>2023-04-04T10:29:55.318Z</time>
      </trkpt>
      <trkpt lat="48.19565" lon="6.60552">
        <ele>454</ele>
        <time>2023-04-04T10:30:00.435Z</time>
      </trkpt>
      <trkpt lat="48.19545" lon="6.60543">
        <ele>454</ele>
        <time>2023-04-04T10:30:05.556Z</time>
      </trkpt>
      <trkpt lat="48.19535" lon="6.60524">
        <ele>454</ele>
        <time>2023-04-04T10:30:10.680Z</time>
      </trkpt>
      <trkpt lat="48.19533" lon="6.60519">
        <ele>455</ele>
        <time>2023-04-04T10:30:15.805Z</time>
      </trkpt>
      <trkpt lat="48.1953" lon="6.60514">
        <ele>455</ele>
        <time>2023-04-04T10:30:20.931Z</time>
      </trkpt>
      <trkpt lat="48.19523" lon="6.60502">
        <ele>456</ele>
        <time>2023-04-04T10:30:26.059Z</time>
      </trkpt>
      <trkpt lat="48.19512" lon="6.60497">
        <ele>456</ele>
        <time>2023-04-04T10:30:31.189Z</time>
      </trkpt>
      <trkpt lat="48.19508" lon="6.60497">
        <ele>457</ele>
        <time>2023-04-04T10:30:36.320Z</time>
      </trkpt>
      <trkpt lat="48.195" lon="6.60498">
        <ele>457</ele>
        <time>2023-04-04T10:30:41.453Z</time>
      </trkpt>
      <trkpt lat="48.19497" lon="6.60497">
        <ele>458</ele>
        <time>2023-04-04T10:30:46.586Z</time>
      </trkpt>
      <trkpt lat="48.19493" lon="6.60497">
        <ele>459</ele>
        <time>2023-04-04T10:30:51.720Z</time>
      </trkpt>
      <trkpt lat="48.19484" lon="6.60495">
        <ele>459</ele>
        <time>2023-04-04T10:30:56.856Z</time>
      </trkpt>
      <trkpt lat="48.19469" lon="6.6049">
        <ele>460</ele>
        <time>2023-04-04T10:31:01.995Z</time>
      </trkpt>
      <trkpt lat="48.19464" lon="6.60489">
        <ele>461</ele>
        <time>2023-04-04T10:31:07.135Z</time>
      </trkpt>
      <trkpt lat="48.19459" lon="6.60488">
        <ele>461</ele>
        <time>2023-04-04T10:31:12.276Z</time>
      </trkpt>
      <trkpt lat="48.19452" lon="6.6049">
        <ele>462</ele>
        <time>2023-04-04T10:31:17.418Z</time>
      </trkpt>
      <trkpt lat="48.19447" lon="6.60493">
        <ele>463</ele>
        <time>2023-04-04T10:31:22.562Z</time>
      </trkpt>
      <trkpt lat="48.19438" lon="6.60498">
        <ele>463</ele>
        <time>2023-04-04T10:31:27.707Z</time>
      </trkpt>
      <trkpt lat="48.19428" lon="6.605">
        <ele>464</ele>
        <time>2023-04-04T10:31:32.855Z</time>
      </trkpt>
      <trkpt lat="48.19416" lon="6.60502">
        <ele>465</ele>
        <time>2023-04-04T10:31:38.005Z</time>
      </trkpt>
      <trkpt lat="48.19415" lon="6.60503">
        <ele>466</ele>
        <time>2023-04-04T10:31:43.155Z</time>
      </trkpt>
      <trkpt lat="48.19411" lon="6.60504">
        <ele>466</ele>
        <time>2023-04-04T10:31:48.306Z</time>
      </trkpt>
      <trkpt lat="48.19409" lon="6.60505">
        <ele>467</ele>
        <time>2023-04-04T10:31:53.457Z</time>
      </trkpt>
      <trkpt lat="48.19408" lon="6.60506">
        <ele>468</ele>
        <time>2023-04-04T10:31:58.609Z</time>
      </trkpt>
      <trkpt lat="48.19403" lon="6.60509">
        <ele>469</ele>
        <time>2023-04-04T10:32:03.762Z</time>
      </trkpt>
      <trkpt lat="48.19392" lon="6.6052">
        <ele>469</ele>
        <time>2023-04-04T10:32:08.917Z</time>
      </trkpt>
      <trkpt lat="48.19391" lon="6.60522">
        <ele>470</ele>
        <time>2023-04-04T10:32:14.073Z</time>
      </trkpt>
      <trkpt lat="48.19378" lon="6.60543">
        <ele>471</ele>
        <time>2023-04-04T10:32:19.233Z</time>
      </trkpt>
      <trkpt lat="48.19363" lon="6.60556">
        <ele>472</ele>
        <time>2023-04-04T10:32:24.396Z</time>
      </trkpt>
      <trkpt lat="48.19354" lon="6.60576">
        <ele>472</ele>
        <time>2023-04-04T10:32:29.562Z</time>
      </trkpt>
      <trkpt lat="48.1935" lon="6.60589">
        <ele>473</ele>
        <time>2023-04-04T10:32:34.730Z</time>
      </trkpt>
      <trkpt lat="48.19347" lon="6.60595">
        <ele>474</ele>
        <time>2023-04-04T10:32:39.899Z</time>
      </trkpt>
      <trkpt lat="48.19347" lon="6.60599">
        <ele>474</ele>
        <time>2023-04-04T10:32:45.069Z</time>
      </trkpt>
      <trkpt lat="48.19344" lon="6.60606">
        <ele>475</ele>
        <time>2023-04-04T10:32:50.240Z</time>
      </trkpt>
      <trkpt lat="48.19339" lon="6.60615">
        <ele>476</ele>
        <time>2023-04-04T10:32:55.412Z</time>
      </trkpt>
      <trkpt lat="48.19338" lon="6.60616">
        <ele>476</ele>
        <time>2023-04-04T10:33:00.585Z</time>
      </trkpt>
      <trkpt lat="48.19336" lon="6.60617">
        <ele>477</ele>
        <time>2023-04-04T10:33:05.758Z</time>
      </trkpt>
      <trkpt lat="48.1933" lon="6.60623">
        <ele>477</ele>
        <time>2023-04-04T10:33:10.932Z</time>
      </trkpt>
      <trkpt lat="48.19321" lon="6.60637">
        <ele>478</ele>
        <time>2023-04-04T10:33:16.109Z</time>
      </trkpt>
      <trkpt lat="48.19321" lon="6.6064">
        <ele>478</ele>
        <time>2023-04-04T10:33:21.286Z</time>
      </trkpt>
      <trkpt lat="48.1932" lon="6.60645">
        <ele>479</ele>
        <time>2023-04-04T10:33:26.464Z</time>
      </trkpt>
      <trkpt lat="48.19317" lon="6.60657">
        <ele>479</ele>
        <time>2023-04-04T10:33:31.644Z</time>
      </trkpt>
      <trkpt lat="48.19314" lon="6.60663">
        <ele>479</ele>
        <time>2023-04-04T10:33:36.825Z</time>
      </trkpt>
      <trkpt lat="48.19303" lon="6.6068">
        <ele>480</ele>
        <time>2023-04-04T10:33:42.009Z</time>
      </trkpt>
      <trkpt lat="48.19298" lon="6.60688">
        <ele>480</ele>
        <time>2023-04-04T10:33:47.195Z</time>
      </trkpt>
      <trkpt lat="48.19295" lon="6.60691">
        <ele>480</ele>
        <time>2023-04-04T10:33:52.381Z</time>
      </trkpt>
      <trkpt lat="48.19286" lon="6.60703">
        <ele>480</ele>
        <time>2023-04-04T10:33:57.570Z</time>
      </trkpt>
      <trkpt lat="48.1928" lon="6.60707">
        <ele>481</ele>
        <time>2023-04-04T10:34:02.760Z</time>
      </trkpt>
      <trkpt lat="48.19276" lon="6.60709">
        <ele>481</ele>
        <time>2023-04-04T10:34:07.951Z</time>
      </trkpt>
      <trkpt lat="48.19266" lon="6.60715">
        <ele>481</ele>
        <time>2023-04-04T10:34:13.144Z</time>
      </trkpt>
      <trkpt lat="48.19261" lon="6.60736">
        <ele>481</ele>
        <time>2023-04-04T10:34:18.340Z</time>
      </trkpt>
      <trkpt lat="48.19261" lon="6.6074">
        <ele>481</ele>
        <time>2023-04-04T10:34:23.536Z</time>
      </trkpt>
      <trkpt lat="48.19262" lon="6.60749">
        <ele>481</ele>
        <time>2023-04-04T10:34:28.734Z</time>
      </trkpt>
      <trkpt lat="48.19255" lon="6.60759">
        <ele>481</ele>
        <time>2023-04-04T10:34:33.934Z</time>
      </trkpt>
      <trkpt lat="48.19256" lon="6.60765">
        <ele>481</ele>
        <time>2023-04-04T10:34:39.134Z</time>
      </trkpt>
      <trkpt lat="48.19254" lon="6.60777">
        <ele>481</ele>
        <time>2023-04-04T10:34:44.336Z</time>
      </trkpt>
      <trkpt lat="48.19252" lon="6.60781">
        <ele>482</ele>
        <time>2023-04-04T10:34:49.539Z</time>
      </trkpt>
      <trkpt lat="48.19251" lon="6.60781">
        <ele>482</ele>
        <time>2023-04-04T10:34:54.742Z</time>
      </trkpt>
      <trkpt lat="48.19247" lon="6.60776">
        <ele>482</ele>
        <time>2023-04-04T10:34:59.946Z</time>
      </trkpt>
      <trkpt lat="48.19243" lon="6.60768">
        <ele>481</ele>
        <time>2023-04-04T10:35:05.151Z</time>
      </trkpt>
      <trkpt lat="48.19241" lon="6.60763">
        <ele>481</ele>
        <time>2023-04-04T10:35:10.357Z</time>
      </trkpt>
      <trkpt lat="48.1924" lon="6.60761">
        <ele>481</ele>
        <time>2023-04-04T10:35:15.563Z</time>
      </trkpt>
      <trkpt lat="48.19236" lon="6.60758">
        <ele>482</ele>
        <time>2023-04-04T10:35:20.770Z</time>
      </trkpt>
      <trkpt lat="48.19233" lon="6.60756">
        <ele>482</ele>
        <time>2023-04-04T10:35:25.978Z</time>
      </trkpt>
      <trkpt lat="48.19224" lon="6.60748">
        <ele>482</ele>
        <time>2023-04-04T10:35:31.188Z</time>
      </trkpt>
      <trkpt lat="48.19222" lon="6.60743">
        <ele>482</ele>
        <time>2023-04-04T10:35:36.399Z</time>
      </trkpt>
      <trkpt lat="48.1922" lon="6.6074">
        <ele>482</ele>
        <time>2023-04-04T10:35:41.610Z</time>
      </trkpt>
      <trkpt lat="48.1922" lon="6.60736">
        <ele>482</ele>
        <time>2023-04-04T10:35:46.822Z</time>
      </trkpt>
      <trkpt lat="48.19219" lon="6.60731">
        <ele>482</ele>
        <time>2023-04-04T10:35:52.035Z</time>
      </trkpt>
      <trkpt lat="48.19216" lon="6.60724">
        <ele>482</ele>
        <time>2023-04-04T10:35:57.249Z</time>
      </trkpt>
      <trkpt lat="48.1921" lon="6.60704">
        <ele>482</ele>
        <time>2023-04-04T10:36:02.466Z</time>
      </trkpt>
      <trkpt lat="48.1921" lon="6.607">
        <ele>483</ele>
        <time>2023-04-04T10:36:07.683Z</time>
      </trkpt>
      <trkpt lat="48.19208" lon="6.60688">
        <ele>483</ele>
        <time>2023-04-04T10:36:12.902Z</time>
      </trkpt>
      <trkpt lat="48.19208" lon="6.6068">
        <ele>483</ele>
        <time>2023-04-04T10:36:18.122Z</time>
      </trkpt>
      <trkpt lat="48.19207" lon="6.60676">
        <ele>483</ele>
        <time>2023-04-04T10:36:23.343Z</time>
      </trkpt>
      <trkpt lat="48.19205" lon="6.60675">
        <ele>484</ele>
        <time>2023-04-04T10:36:28.564Z</time>
      </trkpt>
      <trkpt lat="48.19203" lon="6.60673">
        <ele>484</ele>
        <time>2023-04-04T10:36:33.786Z</time>
      </trkpt>
      <trkpt lat="48.19202" lon="6.60671">
        <ele>485</ele>
        <time>2023-04-04T10:36:39.008Z</time>
      </trkpt>
      <trkpt lat="48.19202" lon="6.60654">
        <ele>485</ele>
        <time>2023-04-04T10:36:44.232Z</time>
      </trkpt>
      <trkpt lat="48.19195" lon="6.6064">
        <ele>485</ele>
        <time>2023-04-04T10:36:49.458Z</time>
      </trkpt>
      <trkpt lat="48.19191" lon="6.60627">
        <ele>486</ele>
        <time>2023-04-04T10:36:54.686Z</time>
      </trkpt>
      <trkpt lat="48.19191" lon="6.60625">
        <ele>487</ele>
        <time>2023-04-04T10:36:59.915Z</time>
      </trkpt>
      <trkpt lat="48.19187" lon="6.60619">
        <ele>487</ele>
        <time>2023-04-04T10:37:05.145Z</time>
      </trkpt>
      <trkpt lat="48.19184" lon="6.6061">
        <ele>488</ele>
        <time>2023-04-04T10:37:10.376Z</time>
      </trkpt>
      <trkpt lat="48.19181" lon="6.60602">
        <ele>488</ele>
        <time>2023-04-04T10:37:15.608Z</time>
      </trkpt>
      <trkpt lat="48.19177" lon="6.60595">
        <ele>489</ele>
        <time>2023-04-04T10:37:20.842Z</time>
      </trkpt>
      <trkpt lat="48.19174" lon="6.60568">
        <ele>490</ele>
        <time>2023-04-04T10:37:26.079Z</time>
      </trkpt>
      <trkpt lat="48.19167" lon="6.60555">
        <ele>490</ele>
        <time>2023-04-04T10:37:31.318Z</time>
      </trkpt>
      <trkpt lat="48.19161" lon="6.60554">
        <ele>491</ele>
        <time>2023-04-04T10:37:36.559Z</time>
      </trkpt>
      <trkpt lat="48.19157" lon="6.60547">
        <ele>491</ele>
        <time>2023-04-04T10:37:41.801Z</time>
      </trkpt>
      <trkpt lat="48.1913" lon="6.60373">
        <ele>492</ele>
        <time>2023-04-04T10:37:47.067Z</time>
      </trkpt>
      <trkpt lat="48.19158" lon="6.60539">
        <ele>493</ele>
        <time>2023-04-04T10:37:52.356Z</time>
      </trkpt>
      <trkpt lat="48.1916" lon="6.60517">
        <ele>493</ele>
        <time>2023-04-04T10:37:57.648Z</time>
      </trkpt>
      <trkpt lat="48.19153" lon="6.6051">
        <ele>494</ele>
        <time>2023-04-04T10:38:02.941Z</time>
      </trkpt>
      <trkpt lat="48.19153" lon="6.60501">
        <ele>495</ele>
        <time>2023-04-04T10:38:08.236Z</time>
      </trkpt>
      <trkpt lat="48.19153" lon="6.60493">
        <ele>495</ele>
        <time>2023-04-04T10:38:13.532Z</time>
      </trkpt>
      <trkpt lat="48.1915" lon="6.60479">
        <ele>496</ele>
        <time>2023-04-04T10:38:18.830Z</time>
      </trkpt>
      <trkpt lat="48.1915" lon="6.60473">
        <ele>496</ele>
        <time>2023-04-04T10:38:24.128Z</time>
      </trkpt>
      <trkpt lat="48.1915" lon="6.60471">
        <ele>497</ele>
        <time>2023-04-04T10:38:29.427Z</time>
      </trkpt>
      <trkpt lat="48.19149" lon="6.6047">
        <ele>498</ele>
        <time>2023-04-04T10:38:34.726Z</time>
      </trkpt>
      <trkpt lat="48.19148" lon="6.60468">
        <ele>498</ele>
        <time>2023-04-04T10:38:40.025Z</time>
      </trkpt>
      <trkpt lat="48.19146" lon="6.60464">
        <ele>499</ele>
        <time>2023-04-04T10:38:45.325Z</time>
      </trkpt>
      <trkpt lat="48.19145" lon="6.60461">
        <ele>499</ele>
        <time>2023-04-04T10:38:50.625Z</time>
      </trkpt>
      <trkpt lat="48.19143" lon="6.60454">
        <ele>500</ele>
        <time>2023-04-04T10:38:55.926Z</time>
      </trkpt>
      <trkpt lat="48.19143" lon="6.60449">
        <ele>500</ele>
        <time>2023-04-04T10:39:01.228Z</time>
      </trkpt>
      <trkpt lat="48.19137" lon="6.60429">
        <ele>501</ele>
        <time>2023-04-04T10:39:06.533Z</time>
      </trkpt>
      <trkpt lat="48.19134" lon="6.60418">
        <ele>501</ele>
        <time>2023-04-04T10:39:11.840Z</time>
      </trkpt>
      <trkpt lat="48.19129" lon="6.60403">
        <ele>502</ele>
        <time>2023-04-04T10:39:17.149Z</time>
      </trkpt>
      <trkpt lat="48.1913" lon="6.60397">
        <ele>502</ele>
        <time>2023-04-04T10:39:22.459Z</time>
      </trkpt>
      <trkpt lat="48.1913" lon="6.60392">
        <ele>503</ele>
        <time>2023-04-04T10:39:27.769Z</time>
      </trkpt>
      <trkpt lat="48.19128" lon="6.60383">
        <ele>503</ele>
        <time>2023-04-04T10:39:33.081Z</time>
      </trkpt>
      <trkpt lat="48.19121" lon="6.60365">
        <ele>503</ele>
        <time>2023-04-04T10:39:38.395Z</time>
      </trkpt>
      <trkpt lat="48.19116" lon="6.60356">
        <ele>504</ele>
        <time>2023-04-04T10:39:43.711Z</time>
      </trkpt>
      <trkpt lat="48.19112" lon="6.6033">
        <ele>504</ele>
        <time>2023-04-04T10:39:49.031Z</time>
      </trkpt>
      <trkpt lat="48.19106" lon="6.60322">
        <ele>504</ele>
        <time>2023-04-04T10:39:54.352Z</time>
      </trkpt>
      <trkpt lat="48.19107" lon="6.60317">
        <ele>505</ele>
        <time>2023-04-04T10:39:59.674Z</time>
      </trkpt>
      <trkpt lat="48.19107" lon="6.60312">
        <ele>505</ele>
        <time>2023-04-04T10:40:04.997Z</time>
      </trkpt>
      <trkpt lat="48.19106" lon="6.60305">
        <ele>505</ele>
        <time>2023-04-04T10:40:10.321Z</time>
      </trkpt>
      <trkpt lat="48.19105" lon="6.60301">
        <ele>505</ele>
        <time>2023-04-04T10:40:15.645Z</time>
      </trkpt>
      <trkpt lat="48.19101" lon="6.60289">
        <ele>505</ele>
        <time>2023-04-04T10:40:20.971Z</time>
      </trkpt>
      <trkpt lat="48.191" lon="6.60285">
        <ele>505</ele>
        <time>2023-04-04T10:40:26.297Z</time>
      </trkpt>
      <trkpt lat="48.19095" lon="6.60273">
        <ele>505</ele>
        <time>2023-04-04T10:40:31.625Z</time>
      </trkpt>
      <trkpt lat="48.19093" lon="6.60271">
        <ele>505</ele>
        <time>2023-04-04T10:40:36.954Z</time>
      </trkpt>
      <trkpt lat="48.19089" lon="6.60261">
        <ele>505</ele>
        <time>2023-04-04T10:40:42.284Z</time>
      </trkpt>
      <trkpt lat="48.1909" lon="6.60252">
        <ele>504</ele>
        <time>2023-04-04T10:40:47.616Z</time>
      </trkpt>
      <trkpt lat="48.19088" lon="6.60248">
        <ele>504</ele>
        <time>2023-04-04T10:40:52.948Z</time>
      </trkpt>
      <trkpt lat="48.19091" lon="6.6024">
        <ele>504</ele>
        <time>2023-04-04T10:40:58.282Z</time>
      </trkpt>
      <trkpt lat="48.19102" lon="6.60223">
        <ele>503</ele>
        <time>2023-04-04T10:41:03.619Z</time>
      </trkpt>
      <trkpt lat="48.19114" lon="6.60212">
        <ele>503</ele>
        <time>2023-04-04T10:41:08.958Z</time>
      </trkpt>
      <trkpt lat="48.19133" lon="6.60181">
        <ele>502</ele>
        <time>2023-04-04T10:41:14.303Z</time>
      </trkpt>
      <trkpt lat="48.19136" lon="6.60173">
        <ele>502</ele>
        <time>2023-04-04T10:41:19.649Z</time>
      </trkpt>
      <trkpt lat="48.19144" lon="6.6016">
        <ele>501</ele>
        <time>2023-04-04T10:41:24.998Z</time>
      </trkpt>
      <trkpt lat="48.19153" lon="6.60146">
        <ele>501</ele>
        <time>2023-04-04T10:41:30.349Z</time>
      </trkpt>
      <trkpt lat="48.19175" lon="6.60112">
        <ele>500</ele>
        <time>2023-04-04T10:41:35.707Z</time>
      </trkpt>
      <trkpt lat="48.19179" lon="6.60104">
        <ele>500</ele>
        <time>2023-04-04T10:41:41.066Z</time>
      </trkpt>
      <trkpt lat="48.19186" lon="6.60081">
        <ele>499</ele>
        <time>2023-04-04T10:41:46.428Z</time>
      </trkpt>
      <trkpt lat="48.19188" lon="6.60074">
        <ele>498</ele>
        <time>2023-04-04T10:41:51.791Z</time>
      </trkpt>
      <trkpt lat="48.19193" lon="6.60066">
        <ele>498</ele>
        <time>2023-04-04T10:41:57.156Z</time>
      </trkpt>
      <trkpt lat="48.19201" lon="6.60059">
        <ele>497</ele>
        <time>2023-04-04T10:42:02.523Z</time>
      </trkpt>
      <trkpt lat="48.1944" lon="6.60098">
        <ele>496</ele>
        <time>2023-04-04T10:42:07.938Z</time>
      </trkpt>
      <trkpt lat="48.19441" lon="6.60095">
        <ele>495</ele>
        <time>2023-04-04T10:42:13.353Z</time>
      </trkpt>
      <trkpt lat="48.19439" lon="6.60088">
        <ele>494</ele>
        <time>2023-04-04T10:42:18.769Z</time>
      </trkpt>
      <trkpt lat="48.19436" lon="6.60074">
        <ele>493</ele>
        <time>2023-04-04T10:42:24.187Z</time>
      </trkpt>
      <trkpt lat="48.19434" lon="6.60068">
        <ele>493</ele>
        <time>2023-04-04T10:42:29.606Z</time>
      </trkpt>
      <trkpt lat="48.19433" lon="6.60061">
        <ele>492</ele>
        <time>2023-04-04T10:42:35.026Z</time>
      </trkpt>
      <trkpt lat="48.19426" lon="6.6004">
        <ele>491</ele>
        <time>2023-04-04T10:42:40.449Z</time>
      </trkpt>
      <trkpt lat="48.1942" lon="6.60025">
        <ele>491</ele>
        <time>2023-04-04T10:42:45.875Z</time>
      </trkpt>
      <trkpt lat="48.19418" lon="6.6002">
        <ele>490</ele>
        <time>2023-04-04T10:42:51.301Z</time>
      </trkpt>
      <trkpt lat="48.19416" lon="6.60014">
        <ele>490</ele>
        <time>2023-04-04T10:42:56.728Z</time>
      </trkpt>
      <trkpt lat="48.19412" lon="6.60004">
        <ele>489</ele>
        <time>2023-04-04T10:43:02.157Z</time>
      </trkpt>
      <trkpt lat="48.19409" lon="6.59994">
        <ele>488</ele>
        <time>2023-04-04T10:43:07.587Z</time>
      </trkpt>
      <trkpt lat="48.19407" lon="6.59984">
        <ele>488</ele>
        <time>2023-04-04T10:43:13.019Z</time>
      </trkpt>
      <trkpt lat="48.19405" lon="6.59981">
        <ele>487</ele>
        <time>2023-04-04T10:43:18.451Z</time>
      </trkpt>
      <trkpt lat="48.19397" lon="6.59969">
        <ele>487</ele>
        <time>2023-04-04T10:43:23.886Z</time>
      </trkpt>
      <trkpt lat="48.19389" lon="6.59949">
        <ele>486</ele>
        <time>2023-04-04T10:43:29.324Z</time>
      </trkpt>
      <trkpt lat="48.19394" lon="6.5992">
        <ele>485</ele>
        <time>2023-04-04T10:43:34.766Z</time>
      </trkpt>
      <trkpt lat="48.19385" lon="6.599">
        <ele>485</ele>
        <time>2023-04-04T10:43:40.211Z</time>
      </trkpt>
      <trkpt lat="48.1938" lon="6.59888">
        <ele>484</ele>
        <time>2023-04-04T10:43:45.658Z</time>
      </trkpt>
      <trkpt lat="48.19374" lon="6.59868">
        <ele>483</ele>
        <time>2023-04-04T10:43:51.108Z</time>
      </trkpt>
      <trkpt lat="48.19372" lon="6.59864">
        <ele>483</ele>
        <time>2023-04-04T10:43:56.558Z</time>
      </trkpt>
      <trkpt lat="48.19376" lon="6.59846">
        <ele>482</ele>
        <time>2023-04-04T10:44:02.011Z</time>
      </trkpt>
      <trkpt lat="48.19376" lon="6.59843">
        <ele>482</ele>
        <time>2023-04-04T10:44:07.464Z</time>
      </trkpt>
      <trkpt lat="48.19377" lon="6.59839">
        <ele>481</ele>
        <time>2023-04-04T10:44:12.918Z</time>
      </trkpt>
      <trkpt lat="48.19379" lon="6.59832">
        <ele>480</ele>
        <time>2023-04-04T10:44:18.373Z</time>
      </trkpt>
      <trkpt lat="48.194" lon="6.59819">
        <ele>480</ele>
        <time>2023-04-04T10:44:23.832Z</time>
      </trkpt>
      <trkpt lat="48.1942" lon="6.59814">
        <ele>479</ele>
        <time>2023-04-04T10:44:29.296Z</time>
      </trkpt>
      <trkpt lat="48.19437" lon="6.59808">
        <ele>478</ele>
        <time>2023-04-04T10:44:34.763Z</time>
      </trkpt>
      <trkpt lat="48.1945" lon="6.598">
        <ele>478</ele>
        <time>2023-04-04T10:44:40.233Z</time>
      </trkpt>
      <trkpt lat="48.19467" lon="6.59788">
        <ele>477</ele>
        <time>2023-04-04T10:44:45.707Z</time>
      </trkpt>
      <trkpt lat="48.19469" lon="6.59787">
        <ele>477</ele>
        <time>2023-04-04T10:44:51.181Z</time>
      </trkpt>
      <trkpt lat="48.19485" lon="6.59775">
        <ele>476</ele>
        <time>2023-04-04T10:44:56.659Z</time>
      </trkpt>
      <trkpt lat="48.19493" lon="6.59767">
        <ele>476</ele>
        <time>2023-04-04T10:45:02.139Z</time>
      </trkpt>
      <trkpt lat="48.195" lon="6.59761">
        <ele>475</ele>
        <time>2023-04-04T10:45:07.620Z</time>
      </trkpt>
      <trkpt lat="48.19516" lon="6.59753">
        <ele>475</ele>
        <time>2023-04-04T10:45:13.105Z</time>
      </trkpt>
      <trkpt lat="48.19547" lon="6.59743">
        <ele>475</ele>
        <time>2023-04-04T10:45:18.596Z</time>
      </trkpt>
      <trkpt lat="48.19549" lon="6.5974">
        <ele>475</ele>
        <time>2023-04-04T10:45:24.087Z</time>
      </trkpt>
      <trkpt lat="48.1955" lon="6.59737">
        <ele>474</ele>
        <time>2023-04-04T10:45:29.579Z</time>
      </trkpt>
      <trkpt lat="48.19553" lon="6.59733">
        <ele>474</ele>
        <time>2023-04-04T10:45:35.072Z</time>
      </trkpt>
      <trkpt lat="48.19557" lon="6.59731">
        <ele>474</ele>
        <time>2023-04-04T10:45:40.566Z</time>
      </trkpt>
      <trkpt lat="48.19558" lon="6.59729">
        <ele>474</ele>
        <time>2023-04-04T10:45:46.060Z</time>
      </trkpt>
      <trkpt lat="48.19564" lon="6.59721">
        <ele>474</ele>
        <time>2023-04-04T10:45:51.555Z</time>
      </trkpt>
      <trkpt lat="48.19567" lon="6.5972">
        <ele>474</ele>
        <time>2023-04-04T10:45:57.051Z</time>
      </trkpt>
      <trkpt lat="48.19572" lon="6.59719">
        <ele>474</ele>
        <time>2023-04-04T10:46:02.548Z</time>
      </trkpt>
      <trkpt lat="48.19575" lon="6.59718">
        <ele>474</ele>
        <time>2023-04-04T10:46:08.046Z</time>
      </trkpt>
      <trkpt lat="48.19589" lon="6.59712">
        <ele>474</ele>
        <time>2023-04-04T10:46:13.547Z</time>
      </trkpt>
      <trkpt lat="48.19601" lon="6.59703">
        <ele>475</ele>
        <time>2023-04-04T10:46:19.050Z</time>
      </trkpt>
      <trkpt lat="48.19603" lon="6.59701">
        <ele>475</ele>
        <time>2023-04-04T10:46:24.554Z</time>
      </trkpt>
      <trkpt lat="48.19604" lon="6.59697">
        <ele>475</ele>
        <time>2023-04-04T10:46:30.058Z</time>
      </trkpt>
      <trkpt lat="48.19606" lon="6.59693">
        <ele>476</ele>
        <time>2023-04-04T10:46:35.563Z</time>
      </trkpt>
      <trkpt lat="48.19605" lon="6.59689">
        <ele>476</ele>
        <time>2023-04-04T10:46:41.069Z</time>
      </trkpt>
      <trkpt lat="48.19604" lon="6.59684">
        <ele>476</ele>
        <time>2023-04-04T10:46:46.575Z</time>
      </trkpt>
      <trkpt lat="48.19602" lon="6.59676">
        <ele>477</ele>
        <time>2023-04-04T10:46:52.082Z</time>
      </trkpt>
      <trkpt lat="48.196" lon="6.59673">
        <ele>477</ele>
        <time>2023-04-04T10:46:57.590Z</time>
      </trkpt>
      <trkpt lat="48.19596" lon="6.5967">
        <ele>478</ele>
        <time>2023-04-04T10:47:03.099Z</time>
      </trkpt>
      <trkpt lat="48.19591" lon="6.59656">
        <ele>478</ele>
        <time>2023-04-04T10:47:08.610Z</time>
      </trkpt>
      <trkpt lat="48.19591" lon="6.5965">
        <ele>479</ele>
        <time>2023-04-04T10:47:14.122Z</time>
      </trkpt>
      <trkpt lat="48.19589" lon="6.59642">
        <ele>479</ele>
        <time>2023-04-04T10:47:19.635Z</time>
      </trkpt>
      <trkpt lat="48.1959" lon="6.59637">
        <ele>480</ele>
        <time>2023-04-04T10:47:25.149Z</time>
      </trkpt>
      <trkpt lat="48.19589" lon="6.59629">
        <ele>480</ele>
        <time>2023-04-04T10:47:30.664Z</time>
      </trkpt>
      <trkpt lat="48.19588" lon="6.59627">
        <ele>481</ele>
        <time>2023-04-04T10:47:36.179Z</time>
      </trkpt>
      <trkpt lat="48.19585" lon="6.59623">
        <ele>481</ele>
        <time>2023-04-04T10:47:41.695Z</time>
      </trkpt>
      <trkpt lat="48.19583" lon="6.59621">
        <ele>482</ele>
        <time>2023-04-04T10:47:47.211Z</time>
      </trkpt>
      <trkpt lat="48.19583" lon="6.59618">
        <ele>482</ele>
        <time>2023-04-04T10:47:52.728Z</time>
      </trkpt>
      <trkpt lat="48.19582" lon="6.59614">
        <ele>483</ele>
        <time>2023-04-04T10:47:58.245Z</time>
      </trkpt>
      <trkpt lat="48.1958" lon="6.59607">
        <ele>483</ele>
        <time>2023-04-04T10:48:03.763Z</time>
      </trkpt>
      <trkpt lat="48.19579" lon="6.59604">
        <ele>484</ele>
        <time>2023-04-04T10:48:09.282Z</time>
      </trkpt>
      <trkpt lat="48.19579" lon="6.59601">
        <ele>484</ele>
        <time>2023-04-04T10:48:14.801Z</time>
      </trkpt>
      <trkpt lat="48.19578" lon="6.59598">
        <ele>485</ele>
        <time>2023-04-04T10:48:20.321Z</time>
      </trkpt>
      <trkpt lat="48.19578" lon="6.59597">
        <ele>485</ele>
        <time>2023-04-04T10:48:25.841Z</time>
      </trkpt>
      <trkpt lat="48.19578" lon="6.59598">
        <ele>485</ele>
        <time>2023-04-04T10:48:31.361Z</time>
      </trkpt>
      <trkpt lat="48.19576" lon="6.59595">
        <ele>486</ele>
        <time>2023-04-04T10:48:36.882Z</time>
      </trkpt>
      <trkpt lat="48.19575" lon="6.59592">
        <ele>487</ele>
        <time>2023-04-04T10:48:42.403Z</time>
      </trkpt>
      <trkpt lat="48.19571" lon="6.59581">
        <ele>487</ele>
        <time>2023-04-04T10:48:47.926Z</time>
      </trkpt>
      <trkpt lat="48.1957" lon="6.59581">
        <ele>488</ele>
        <time>2023-04-04T10:48:53.449Z</time>
      </trkpt>
      <trkpt lat="48.1957" lon="6.59566">
        <ele>488</ele>
        <time>2023-04-04T10:48:58.974Z</time>
      </trkpt>
      <trkpt lat="48.19568" lon="6.59561">
        <ele>489</ele>
        <time>2023-04-04T10:49:04.500Z</time>
      </trkpt>
      <trkpt lat="48.19565" lon="6.59545">
        <ele>489</ele>
        <time>2023-04-04T10:49:10.028Z</time>
      </trkpt>
      <trkpt lat="48.19563" lon="6.59536">
        <ele>490</ele>
        <time>2023-04-04T10:49:15.557Z</time>
      </trkpt>
      <trkpt lat="48.19562" lon="6.59532">
        <ele>490</ele>
        <time>2023-04-04T10:49:21.087Z</time>
      </trkpt>
      <trkpt lat="48.19561" lon="6.5953">
        <ele>490</ele>
        <time>2023-04-04T10:49:26.617Z</time>
      </trkpt>
      <trkpt lat="48.1956" lon="6.59525">
        <ele>491</ele>
        <time>2023-04-04T10:49:32.148Z</time>
      </trkpt>
      <trkpt lat="48.19558" lon="6.5952">
        <ele>491</ele>
        <time>2023-04-04T10:49:37.679Z</time>
      </trkpt>
      <trkpt lat="48.19557" lon="6.59511">
        <ele>492</ele>
        <time>2023-04-04T10:49:43.212Z</time>
      </trkpt>
      <trkpt lat="48.19556" lon="6.59506">
        <ele>492</ele>
        <time>2023-04-04T10:49:48.745Z</time>
      </trkpt>
      <trkpt lat="48.19555" lon="6.59498">
        <ele>493</ele>
        <time>2023-04-04T10:49:54.280Z</time>
      </trkpt>
      <trkpt lat="48.19552" lon="6.59482">
        <ele>493</ele>
        <time>2023-04-04T10:49:59.817Z</time>
      </trkpt>
      <trkpt lat="48.19547" lon="6.59468">
        <ele>494</ele>
        <time>2023-04-04T10:50:05.356Z</time>
      </trkpt>
      <trkpt lat="48.19539" lon="6.59449">
        <ele>494</ele>
        <time>2023-04-04T10:50:10.898Z</time>
      </trkpt>
      <trkpt lat="48.19535" lon="6.5944">
        <ele>494</ele>
        <time>2023-04-04T10:50:16.441Z</time>
      </trkpt>
      <trkpt lat="48.1953" lon="6.59423">
        <ele>495</ele>
        <time>2023-04-04T10:50:21.987Z</time>
      </trkpt>
      <trkpt lat="48.19522" lon="6.59398">
        <ele>495</ele>
        <time>2023-04-04T10:50:27.536Z</time>
      </trkpt>
      <trkpt lat="48.19521" lon="6.59386">
        <ele>496</ele>
        <time>2023-04-04T10:50:33.087Z</time>
      </trkpt>
      <trkpt lat="48.19512" lon="6.59356">
        <ele>496</ele>
        <time>2023-04-04T10:50:38.643Z</time>
      </trkpt>
      <trkpt lat="48.19511" lon="6.59352">
        <ele>496</ele>
        <time>2023-04-04T10:50:44.199Z</time>
      </trkpt>
      <trkpt lat="48.19509" lon="6.59347">
        <ele>496</ele>
        <time>2023-04-04T10:50:49.756Z</time>
      </trkpt>
      <trkpt lat="48.19507" lon="6.59338">
        <ele>497</ele>
        <time>2023-04-04T10:50:55.314Z</time>
      </trkpt>
      <trkpt lat="48.19503" lon="6.59315">
        <ele>497</ele>
        <time>2023-04-04T10:51:00.875Z</time>
      </trkpt>
      <trkpt lat="48.195" lon="6.59303">
        <ele>497</ele>
        <time>2023-04-04T10:51:06.438Z</time>
      </trkpt>
      <trkpt lat="48.19496" lon="6.59279">
        <ele>497</ele>
        <time>2023-04-04T10:51:12.004Z</time>
      </trkpt>
      <trkpt lat="48.19495" lon="6.59273">
        <ele>497</ele>
        <time>2023-04-04T10:51:17.571Z</time>
      </trkpt>
      <trkpt lat="48.19493" lon="6.59269">
        <ele>497</ele>
        <time>2023-04-04T10:51:23.139Z</time>
      </trkpt>
      <trkpt lat="48.19486" lon="6.59253">
        <ele>497</ele>
        <time>2023-04-04T10:51:28.709Z</time>
      </trkpt>
      <trkpt lat="48.19484" lon="6.59241">
        <ele>497</ele>
        <time>2023-04-04T10:51:34.281Z</time>
      </trkpt>
      <trkpt lat="48.19482" lon="6.59234">
        <ele>497</ele>
        <time>2023-04-04T10:51:39.854Z</time>
      </trkpt>
      <trkpt lat="48.1948" lon="6.59228">
        <ele>497</ele>
        <time>2023-04-04T10:51:45.428Z</time>
      </trkpt>
      <trkpt lat="48.19478" lon="6.59222">
        <ele>496</ele>
        <time>2023-04-04T10:51:51.003Z</time>
      </trkpt>
      <trkpt lat="48.19475" lon="6.59211">
        <ele>496</ele>
        <time>2023-04-04T10:51:56.579Z</time>
      </trkpt>
      <trkpt lat="48.19471" lon="6.59199">
        <ele>496</ele>
        <time>2023-04-04T10:52:02.157Z</time>
      </trkpt>
      <trkpt lat="48.19461" lon="6.59169">
        <ele>496</ele>
        <time>2023-04-04T10:52:07.740Z</time>
      </trkpt>
      <trkpt lat="48.19459" lon="6.59156">
        <ele>495</ele>
        <time>2023-04-04T10:52:13.325Z</time>
      </trkpt>
      <trkpt lat="48.19458" lon="6.59151">
        <ele>495</ele>
        <time>2023-04-04T10:52:18.910Z</time>
      </trkpt>
      <trkpt lat="48.19454" lon="6.59138">
        <ele>495</ele>
        <time>2023-04-04T10:52:24.497Z</time>
      </trkpt>
      <trkpt lat="48.19449" lon="6.59116">
        <ele>494</ele>
        <time>2023-04-04T10:52:30.087Z</time>
      </trkpt>
      <trkpt lat="48.19446" lon="6.59093">
        <ele>494</ele>
        <time>2023-04-04T10:52:35.680Z</time>
      </trkpt>
      <trkpt lat="48.19443" lon="6.59092">
        <ele>494</ele>
        <time>2023-04-04T10:52:41.274Z</time>
      </trkpt>
      <trkpt lat="48.19436" lon="6.59084">
        <ele>493</ele>
        <time>2023-04-04T10:52:46.870Z</time>
      </trkpt>
      <trkpt lat="48.19434" lon="6.59068">
        <ele>493</ele>
        <time>2023-04-04T10:52:52.468Z</time>
      </trkpt>
      <trkpt lat="48.19424" lon="6.59027">
        <ele>492</ele>
        <time>2023-04-04T10:52:58.072Z</time>
      </trkpt>
      <trkpt lat="48.19417" lon="6.59007">
        <ele>492</ele>
        <time>2023-04-04T10:53:03.679Z</time>
      </trkpt>
      <trkpt lat="48.19415" lon="6.59">
        <ele>491</ele>
        <time>2023-04-04T10:53:09.287Z</time>
      </trkpt>
      <trkpt lat="48.19413" lon="6.58993">
        <ele>491</ele>
        <time>2023-04-04T10:53:14.896Z</time>
      </trkpt>
      <trkpt lat="48.19409" lon="6.58981">
        <ele>490</ele>
        <time>2023-04-04T10:53:20.507Z</time>
      </trkpt>
      <trkpt lat="48.19405" lon="6.58975">
        <ele>490</ele>
        <time>2023-04-04T10:53:26.119Z</time>
      </trkpt>
      <trkpt lat="48.19402" lon="6.58968">
        <ele>489</ele>
        <time>2023-04-04T10:53:31.732Z</time>
      </trkpt>
      <trkpt lat="48.19394" lon="6.58956">
        <ele>489</ele>
        <time>2023-04-04T10:53:37.347Z</time>
      </trkpt>
      <trkpt lat="48.19392" lon="6.58948">
        <ele>489</ele>
        <time>2023-04-04T10:53:42.963Z</time>
      </trkpt>
      <trkpt lat="48.1939" lon="6.58925">
        <ele>488</ele>
        <time>2023-04-04T10:53:48.582Z</time>
      </trkpt>
      <trkpt lat="48.19387" lon="6.58909">
        <ele>488</ele>
        <time>2023-04-04T10:53:54.204Z</time>
      </trkpt>
      <trkpt lat="48.19385" lon="6.58901">
        <ele>487</ele>
        <time>2023-04-04T10:53:59.827Z</time>
      </trkpt>
      <trkpt lat="48.1938" lon="6.58876">
        <ele>487</ele>
        <time>2023-04-04T10:54:05.453Z</time>
      </trkpt>
      <trkpt lat="48.19376" lon="6.58859">
        <ele>486</ele>
        <time>2023-04-04T10:54:11.082Z</time>
      </trkpt>
      <trkpt lat="48.19373" lon="6.58852">
        <ele>486</ele>
        <time>2023-04-04T10:54:16.712Z</time>
      </trkpt>
      <trkpt lat="48.19356" lon="6.58824">
        <ele>486</ele>
        <time>2023-04-04T10:54:22.347Z</time>
      </trkpt>
      <trkpt lat="48.19354" lon="6.58814">
        <ele>485</ele>
        <time>2023-04-04T10:54:27.983Z</time>
      </trkpt>
      <trkpt lat="48.19355" lon="6.58807">
        <ele>485</ele>
        <time>2023-04-04T10:54:33.620Z</time>
      </trkpt>
      <trkpt lat="48.19358" lon="6.58794">
        <ele>485</ele>
        <time>2023-04-04T10:54:39.259Z</time>
      </trkpt>
      <trkpt lat="48.19353" lon="6.58784">
        <ele>484</ele>
        <time>2023-04-04T10:54:44.900Z</time>
      </trkpt>
      <trkpt lat="48.19341" lon="6.58764">
        <ele>484</ele>
        <time>2023-04-04T10:54:50.544Z</time>
      </trkpt>
      <trkpt lat="48.19338" lon="6.58759">
        <ele>484</ele>
        <time>2023-04-04T10:54:56.189Z</time>
      </trkpt>
      <trkpt lat="48.19336" lon="6.58746">
        <ele>484</ele>
        <time>2023-04-04T10:55:01.836Z</time>
      </trkpt>
      <trkpt lat="48.19337" lon="6.58731">
        <ele>484</ele>
        <time>2023-04-04T10:55:07.485Z</time>
      </trkpt>
      <trkpt lat="48.19335" lon="6.58721">
        <ele>483</ele>
        <time>2023-04-04T10:55:13.135Z</time>
      </trkpt>
      <trkpt lat="48.1933" lon="6.58703">
        <ele>483</ele>
        <time>2023-04-04T10:55:18.788Z</time>
      </trkpt>
      <trkpt lat="48.19323" lon="6.58668">
        <ele>483</ele>
        <time>2023-04-04T10:55:24.446Z</time>
      </trkpt>
      <trkpt lat="48.19319" lon="6.58661">
        <ele>483</ele>
        <time>2023-04-04T10:55:30.105Z</time>
      </trkpt>
      <trkpt lat="48.19314" lon="6.58645">
        <ele>483</ele>
        <time>2023-04-04T10:55:35.766Z</time>
      </trkpt>
      <trkpt lat="48.1931" lon="6.58642">
        <ele>482</ele>
        <time>2023-04-04T10:55:41.428Z</time>
      </trkpt>
      <trkpt lat="48.19299" lon="6.58629">
        <ele>482</ele>
        <time>2023-04-04T10:55:47.093Z</time>
      </trkpt>
      <trkpt lat="48.19296" lon="6.58599">
        <ele>482</ele>
        <time>2023-04-04T10:55:52.762Z</time>
      </trkpt>
      <trkpt lat="48.19286" lon="6.5858">
        <ele>482</ele>
        <time>2023-04-04T10:55:58.434Z</time>
      </trkpt>
      <trkpt lat="48.19281" lon="6.58571">
        <ele>481</ele>
        <time>2023-04-04T10:56:04.108Z</time>
      </trkpt>
      <trkpt lat="48.19272" lon="6.5856">
        <ele>481</ele>
        <time>2023-04-04T10:56:09.784Z</time>
      </trkpt>
      <trkpt lat="48.19269" lon="6.58554">
        <ele>481</ele>
        <time>2023-04-04T10:56:15.461Z</time>
      </trkpt>
      <trkpt lat="48.19269" lon="6.58534">
        <ele>480</ele>
        <time>2023-04-04T10:56:21.141Z</time>
      </trkpt>
      <trkpt lat="48.19274" lon="6.58527">
        <ele>480</ele>
        <time>2023-04-04T10:56:26.822Z</time>
      </trkpt>
      <trkpt lat="48.19268" lon="6.58504">
        <ele>479</ele>
        <time>2023-04-04T10:56:32.507Z</time>
      </trkpt>
      <trkpt lat="48.19267" lon="6.585">
        <ele>478</ele>
        <time>2023-04-04T10:56:38.192Z</time>
      </trkpt>
      <trkpt lat="48.1927" lon="6.58494">
        <ele>478</ele>
        <time>2023-04-04T10:56:43.878Z</time>
      </trkpt>
      <trkpt lat="48.19276" lon="6.58483">
        <ele>477</ele>
        <time>2023-04-04T10:56:49.566Z</time>
      </trkpt>
      <trkpt lat="48.19281" lon="6.58473">
        <ele>476</ele>
        <time>2023-04-04T10:56:55.256Z</time>
      </trkpt>
      <trkpt lat="48.19282" lon="6.58425">
        <ele>475</ele>
        <time>2023-04-04T10:57:00.952Z</time>
      </trkpt>
      <trkpt lat="48.19283" lon="6.58394">
        <ele>474</ele>
        <time>2023-04-04T10:57:06.652Z</time>
      </trkpt>
      <trkpt lat="48.19283" lon="6.58378">
        <ele>473</ele>
        <time>2023-04-04T10:57:12.355Z</time>
      </trkpt>
      <trkpt lat="48.1929" lon="6.58353">
        <ele>472</ele>
        <time>2023-04-04T10:57:18.061Z</time>
      </trkpt>
      <trkpt lat="48.19295" lon="6.58348">
        <ele>471</ele>
        <time>2023-04-04T10:57:23.768Z</time>
      </trkpt>
      <trkpt lat="48.19298" lon="6.58305">
        <ele>470</ele>
        <time>2023-04-04T10:57:29.481Z</time>
      </trkpt>
      <trkpt lat="48.19297" lon="6.58302">
        <ele>469</ele>
        <time>2023-04-04T10:57:35.195Z</time>
      </trkpt>
      <trkpt lat="48.19293" lon="6.58301">
        <ele>467</ele>
        <time>2023-04-04T10:57:40.909Z</time>
      </trkpt>
      <trkpt lat="48.19289" lon="6.583">
        <ele>466</ele>
        <time>2023-04-04T10:57:46.624Z</time>
      </trkpt>
      <trkpt lat="48.19279" lon="6.58294">
        <ele>464</ele>
        <time>2023-04-04T10:57:52.341Z</time>
      </trkpt>
      <trkpt lat="48.19259" lon="6.58262">
        <ele>463</ele>
        <time>2023-04-04T10:57:58.064Z</time>
      </trkpt>
      <trkpt lat="48.19255" lon="6.58254">
        <ele>461</ele>
        <time>2023-04-04T10:58:03.789Z</time>
      </trkpt>
      <trkpt lat="48.19248" lon="6.58247">
        <ele>459</ele>
        <time>2023-04-04T10:58:09.515Z</time>
      </trkpt>
      <trkpt lat="48.19239" lon="6.58238">
        <ele>458</ele>
        <time>2023-04-04T10:58:15.243Z</time>
      </trkpt>
      <trkpt lat="48.19234" lon="6.58223">
        <ele>456</ele>
        <time>2023-04-04T10:58:20.974Z</time>
      </trkpt>
      <trkpt lat="48.19225" lon="6.582">
        <ele>455</ele>
        <time>2023-04-04T10:58:26.708Z</time>
      </trkpt>
      <trkpt lat="48.19216" lon="6.5818">
        <ele>453</ele>
        <time>2023-04-04T10:58:32.446Z</time>
      </trkpt>
      <trkpt lat="48.19211" lon="6.58171">
        <ele>451</ele>
        <time>2023-04-04T10:58:38.185Z</time>
      </trkpt>
      <trkpt lat="48.19199" lon="6.58157">
        <ele>450</ele>
        <time>2023-04-04T10:58:43.927Z</time>
      </trkpt>
      <trkpt lat="48.19184" lon="6.58139">
        <ele>448</ele>
        <time>2023-04-04T10:58:49.673Z</time>
      </trkpt>
      <trkpt lat="48.19178" lon="6.58124">
        <ele>446</ele>
        <time>2023-04-04T10:58:55.421Z</time>
      </trkpt>
      <trkpt lat="48.19174" lon="6.58104">
        <ele>445</ele>
        <time>2023-04-04T10:59:01.172Z</time>
      </trkpt>
      <trkpt lat="48.19171" lon="6.58089">
        <ele>444</ele>
        <time>2023-04-04T10:59:06.925Z</time>
      </trkpt>
      <trkpt lat="48.19169" lon="6.58081">
        <ele>442</ele>
        <time>2023-04-04T10:59:12.679Z</time>
      </trkpt>
      <trkpt lat="48.19165" lon="6.58063">
        <ele>441</ele>
        <time>2023-04-04T10:59:18.436Z</time>
      </trkpt>
      <trkpt lat="48.19161" lon="6.58043">
        <ele>440</ele>
        <time>2023-04-04T10:59:24.196Z</time>
      </trkpt>
      <trkpt lat="48.1916" lon="6.58037">
        <ele>439</ele>
        <time>2023-04-04T10:59:29.957Z</time>
      </trkpt>
      <trkpt lat="48.19153" lon="6.58022">
        <ele>438</ele>
        <time>2023-04-04T10:59:35.720Z</time>
      </trkpt>
      <trkpt lat="48.19139" lon="6.58002">
        <ele>437</ele>
        <time>2023-04-04T10:59:41.487Z</time>
      </trkpt>
      <trkpt lat="48.19125" lon="6.57993">
        <ele>436</ele>
        <time>2023-04-04T10:59:47.257Z</time>
      </trkpt>
      <trkpt lat="48.19112" lon="6.57991">
        <ele>436</ele>
        <time>2023-04-04T10:59:53.030Z</time>
      </trkpt>
      <trkpt lat="48.19105" lon="6.57988">
        <ele>436</ele>
        <time>2023-04-04T10:59:58.804Z</time>
      </trkpt>
      <trkpt lat="48.191" lon="6.57985">
        <ele>436</ele>
        <time>2023-04-04T11:00:04.579Z</time>
      </trkpt>
      <trkpt lat="48.19099" lon="6.57982">
        <ele>435</ele>
        <time>2023-04-04T11:00:10.354Z</time>
      </trkpt>
      <trkpt lat="48.19086" lon="6.57962">
        <ele>436</ele>
        <time>2023-04-04T11:00:16.133Z</time>
      </trkpt>
      <trkpt lat="48.19075" lon="6.57938">
        <ele>436</ele>
        <time>2023-04-04T11:00:21.916Z</time>
      </trkpt>
      <trkpt lat="48.19072" lon="6.57934">
        <ele>436</ele>
        <time>2023-04-04T11:00:27.700Z</time>
      </trkpt>
      <trkpt lat="48.19067" lon="6.57919">
        <ele>436</ele>
        <time>2023-04-04T11:00:33.486Z</time>
      </trkpt>
      <trkpt lat="48.19057" lon="6.57901">
        <ele>437</ele>
        <time>2023-04-04T11:00:39.275Z</time>
      </trkpt>
      <trkpt lat="48.19049" lon="6.57889">
        <ele>437</ele>
        <time>2023-04-04T11:00:45.067Z</time>
      </trkpt>
      <trkpt lat="48.19047" lon="6.57885">
        <ele>438</ele>
        <time>2023-04-04T11:00:50.859Z</time>
      </trkpt>
      <trkpt lat="48.19046" lon="6.5788">
        <ele>439</ele>
        <time>2023-04-04T11:00:56.652Z</time>
      </trkpt>
      <trkpt lat="48.19044" lon="6.57875">
        <ele>439</ele>
        <time>2023-04-04T11:01:02.446Z</time>
      </trkpt>
      <trkpt lat="48.19042" lon="6.57871">
        <ele>440</ele>
        <time>2023-04-04T11:01:08.240Z</time>
      </trkpt>
      <trkpt lat="48.19041" lon="6.57866">
        <ele>441</ele>
        <time>2023-04-04T11:01:14.035Z</time>
      </trkpt>
      <trkpt lat="48.19039" lon="6.57857">
        <ele>442</ele>
        <time>2023-04-04T11:01:19.831Z</time>
      </trkpt>
      <trkpt lat="48.19035" lon="6.57846">
        <ele>443</ele>
        <time>2023-04-04T11:01:25.629Z</time>
      </trkpt>
      <trkpt lat="48.19034" lon="6.57841">
        <ele>444</ele>
        <time>2023-04-04T11:01:31.428Z</time>
      </trkpt>
      <trkpt lat="48.19032" lon="6.57836">
        <ele>445</ele>
        <time>2023-04-04T11:01:37.228Z</time>
      </trkpt>
      <trkpt lat="48.19031" lon="6.57831">
        <ele>445</ele>
        <time>2023-04-04T11:01:43.028Z</time>
      </trkpt>
      <trkpt lat="48.19022" lon="6.57815">
        <ele>446</ele>
        <time>2023-04-04T11:01:48.831Z</time>
      </trkpt>
      <trkpt lat="48.19001" lon="6.57794">
        <ele>447</ele>
        <time>2023-04-04T11:01:54.639Z</time>
      </trkpt>
      <trkpt lat="48.1898" lon="6.57783">
        <ele>448</ele>
        <time>2023-04-04T11:02:00.452Z</time>
      </trkpt>
      <trkpt lat="48.18966" lon="6.57785">
        <ele>449</ele>
        <time>2023-04-04T11:02:06.267Z</time>
      </trkpt>
      <trkpt lat="48.1895" lon="6.57795">
        <ele>450</ele>
        <time>2023-04-04T11:02:12.086Z</time>
      </trkpt>
      <trkpt lat="48.18941" lon="6.57808">
        <ele>451</ele>
        <time>2023-04-04T11:02:17.907Z</time>
      </trkpt>
      <trkpt lat="48.18936" lon="6.57818">
        <ele>452</ele>
        <time>2023-04-04T11:02:23.730Z</time>
      </trkpt>
      <trkpt lat="48.18933" lon="6.57831">
        <ele>453</ele>
        <time>2023-04-04T11:02:29.555Z</time>
      </trkpt>
      <trkpt lat="48.18933" lon="6.57857">
        <ele>453</ele>
        <time>2023-04-04T11:02:35.383Z</time>
      </trkpt>
      <trkpt lat="48.1893" lon="6.57868">
        <ele>454</ele>
        <time>2023-04-04T11:02:41.213Z</time>
      </trkpt>
      <trkpt lat="48.18927" lon="6.5787">
        <ele>455</ele>
        <time>2023-04-04T11:02:47.044Z</time>
      </trkpt>
      <trkpt lat="48.18912" lon="6.57866">
        <ele>455</ele>
        <time>2023-04-04T11:02:52.878Z</time>
      </trkpt>
      <trkpt lat="48.18895" lon="6.57845">
        <ele>456</ele>
        <time>2023-04-04T11:02:58.716Z</time>
      </trkpt>
      <trkpt lat="48.18892" lon="6.57842">
        <ele>456</ele>
        <time>2023-04-04T11:03:04.555Z</time>
      </trkpt>
      <trkpt lat="48.18872" lon="6.57813">
        <ele>456</ele>
        <time>2023-04-04T11:03:10.399Z</time>
      </trkpt>
      <trkpt lat="48.18872" lon="6.57795">
        <ele>457</ele>
        <time>2023-04-04T11:03:16.246Z</time>
      </trkpt>
      <trkpt lat="48.1888" lon="6.57782">
        <ele>457</ele>
        <time>2023-04-04T11:03:22.095Z</time>
      </trkpt>
      <trkpt lat="48.18891" lon="6.57766">
        <ele>457</ele>
        <time>2023-04-04T11:03:27.947Z</time>
      </trkpt>
      <trkpt lat="48.18895" lon="6.57759">
        <ele>457</ele>
        <time>2023-04-04T11:03:33.800Z</time>
      </trkpt>
      <trkpt lat="48.18896" lon="6.57755">
        <ele>457</ele>
        <time>2023-04-04T11:03:39.654Z</time>
      </trkpt>
      <trkpt lat="48.189" lon="6.57747">
        <ele>457</ele>
        <time>2023-04-04T11:03:45.509Z</time>
      </trkpt>
      <trkpt lat="48.18911" lon="6.57743">
        <ele>457</ele>
        <time>2023-04-04T11:03:51.367Z</time>
      </trkpt>
      <trkpt lat="48.18926" lon="6.57737">
        <ele>457</ele>
        <time>2023-04-04T11:03:57.228Z</time>
      </trkpt>
      <trkpt lat="48.1894" lon="6.57734">
        <ele>457</ele>
        <time>2023-04-04T11:04:03.091Z</time>
      </trkpt>
      <trkpt lat="48.18962" lon="6.57728">
        <ele>456</ele>
        <time>2023-04-04T11:04:08.959Z</time>
      </trkpt>
      <trkpt lat="48.18971" lon="6.57719">
        <ele>456</ele>
        <time>2023-04-04T11:04:14.829Z</time>
      </trkpt>
      <trkpt lat="48.18976" lon="6.57701">
        <ele>455</ele>
        <time>2023-04-04T11:04:20.702Z</time>
      </trkpt>
      <trkpt lat="48.1898" lon="6.57684">
        <ele>455</ele>
        <time>2023-04-04T11:04:26.577Z</time>
      </trkpt>
      <trkpt lat="48.18985" lon="6.57659">
        <ele>454</ele>
        <time>2023-04-04T11:04:32.456Z</time>
      </trkpt>
      <trkpt lat="48.18989" lon="6.57638">
        <ele>453</ele>
        <time>2023-04-04T11:04:38.338Z</time>
      </trkpt>
      <trkpt lat="48.18991" lon="6.57613">
        <ele>453</ele>
        <time>2023-04-04T11:04:44.223Z</time>
      </trkpt>
      <trkpt lat="48.18994" lon="6.5758">
        <ele>452</ele>
        <time>2023-04-04T11:04:50.112Z</time>
      </trkpt>
      <trkpt lat="48.19004" lon="6.57548">
        <ele>451</ele>
        <time>2023-04-04T11:04:56.006Z</time>
      </trkpt>
      <trkpt lat="48.19006" lon="6.57531">
        <ele>450</ele>
        <time>2023-04-04T11:05:01.902Z</time>
      </trkpt>
      <trkpt lat="48.19009" lon="6.57513">
        <ele>449</ele>
        <time>2023-04-04T11:05:07.801Z</time>
      </trkpt>
      <trkpt lat="48.19015" lon="6.57478">
        <ele>448</ele>
        <time>2023-04-04T11:05:13.705Z</time>
      </trkpt>
      <trkpt lat="48.19016" lon="6.57445">
        <ele>447</ele>
        <time>2023-04-04T11:05:19.613Z</time>
      </trkpt>
      <trkpt lat="48.19017" lon="6.57442">
        <ele>446</ele>
        <time>2023-04-04T11:05:25.522Z</time>
      </trkpt>
      <trkpt lat="48.19019" lon="6.57436">
        <ele>445</ele>
        <time>2023-04-04T11:05:31.432Z</time>
      </trkpt>
      <trkpt lat="48.19027" lon="6.57412">
        <ele>444</ele>
        <time>2023-04-04T11:05:37.345Z</time>
      </trkpt>
      <trkpt lat="48.19037" lon="6.57385">
        <ele>443</ele>
        <time>2023-04-04T11:05:43.262Z</time>
      </trkpt>
      <trkpt lat="48.19045" lon="6.57358">
        <ele>442</ele>
        <time>2023-04-04T11:05:49.183Z</time>
      </trkpt>
      <trkpt lat="48.19053" lon="6.57333">
        <ele>440</ele>
        <time>2023-04-04T11:05:55.108Z</time>
      </trkpt>
      <trkpt lat="48.19057" lon="6.57317">
        <ele>439</ele>
        <time>2023-04-04T11:06:01.035Z</time>
      </trkpt>
      <trkpt lat="48.19058" lon="6.573">
        <ele>438</ele>
        <time>2023-04-04T11:06:06.964Z</time>
      </trkpt>
      <trkpt lat="48.19061" lon="6.57277">
        <ele>437</ele>
        <time>2023-04-04T11:06:12.897Z</time>
      </trkpt>
      <trkpt lat="48.19069" lon="6.57243">
        <ele>435</ele>
        <time>2023-04-04T11:06:18.834Z</time>
      </trkpt>
      <trkpt lat="48.19077" lon="6.57209">
        <ele>434</ele>
        <time>2023-04-04T11:06:24.776Z</time>
      </trkpt>
      <trkpt lat="48.19081" lon="6.57192">
        <ele>432</ele>
        <time>2023-04-04T11:06:30.721Z</time>
      </trkpt>
      <trkpt lat="48.19088" lon="6.57182">
        <ele>431</ele>
        <time>2023-04-04T11:06:36.668Z</time>
      </trkpt>
      <trkpt lat="48.1909" lon="6.57177">
        <ele>430</ele>
        <time>2023-04-04T11:06:42.615Z</time>
      </trkpt>
      <trkpt lat="48.19098" lon="6.57164">
        <ele>429</ele>
        <time>2023-04-04T11:06:48.565Z</time>
      </trkpt>
      <trkpt lat="48.19099" lon="6.57159">
        <ele>427</ele>
        <time>2023-04-04T11:06:54.515Z</time>
      </trkpt>
      <trkpt lat="48.19113" lon="6.5714">
        <ele>426</ele>
        <time>2023-04-04T11:07:00.469Z</time>
      </trkpt>
      <trkpt lat="48.19124" lon="6.57129">
        <ele>425</ele>
        <time>2023-04-04T11:07:06.426Z</time>
      </trkpt>
      <trkpt lat="48.19141" lon="6.57113">
        <ele>424</ele>
        <time>2023-04-04T11:07:12.387Z</time>
      </trkpt>
      <trkpt lat="48.19153" lon="6.57094">
        <ele>422</ele>
        <time>2023-04-04T11:07:18.351Z</time>
      </trkpt>
      <trkpt lat="48.19157" lon="6.57091">
        <ele>421</ele>
        <time>2023-04-04T11:07:24.316Z</time>
      </trkpt>
      <trkpt lat="48.1916" lon="6.57087">
        <ele>420</ele>
        <time>2023-04-04T11:07:30.282Z</time>
      </trkpt>
      <trkpt lat="48.19179" lon="6.57074">
        <ele>419</ele>
        <time>2023-04-04T11:07:36.252Z</time>
      </trkpt>
      <trkpt lat="48.19182" lon="6.57072">
        <ele>418</ele>
        <time>2023-04-04T11:07:42.223Z</time>
      </trkpt>
      <trkpt lat="48.19185" lon="6.5707">
        <ele>417</ele>
        <time>2023-04-04T11:07:48.195Z</time>
      </trkpt>
      <trkpt lat="48.19202" lon="6.57054">
        <ele>416</ele>
        <time>2023-04-04T11:07:54.171Z</time>
      </trkpt>
      <trkpt lat="48.19213" lon="6.57046">
        <ele>415</ele>
        <time>2023-04-04T11:08:00.149Z</time>
      </trkpt>
      <trkpt lat="48.19224" lon="6.57043">
        <ele>414</ele>
        <time>2023-04-04T11:08:06.129Z</time>
      </trkpt>
      <trkpt lat="48.19241" lon="6.57038">
        <ele>413</ele>
        <time>2023-04-04T11:08:12.113Z</time>
      </trkpt>
      <trkpt lat="48.19249" lon="6.57033">
        <ele>412</ele>
        <time>2023-04-04T11:08:18.098Z</time>
      </trkpt>
      <trkpt lat="48.19263" lon="6.57024">
        <ele>411</ele>
        <time>2023-04-04T11:08:24.087Z</time>
      </trkpt>
      <trkpt lat="48.19277" lon="6.57014">
        <ele>411</ele>
        <time>2023-04-04T11:08:30.079Z</time>
      </trkpt>
      <trkpt lat="48.19293" lon="6.57005">
        <ele>410</ele>
        <time>2023-04-04T11:08:36.074Z</time>
      </trkpt>
      <trkpt lat="48.19305" lon="6.56992">
        <ele>409</ele>
        <time>2023-04-04T11:08:42.072Z</time>
      </trkpt>
      <trkpt lat="48.19327" lon="6.56969">
        <ele>408</ele>
        <time>2023-04-04T11:08:48.075Z</time>
      </trkpt>
      <trkpt lat="48.19352" lon="6.56944">
        <ele>407</ele>
        <time>2023-04-04T11:08:54.084Z</time>
      </trkpt>
      <trkpt lat="48.1936" lon="6.56933">
        <ele>406</ele>
        <time>2023-04-04T11:09:00.096Z</time>
      </trkpt>
      <trkpt lat="48.19366" lon="6.56922">
        <ele>406</ele>
        <time>2023-04-04T11:09:06.110Z</time>
      </trkpt>
      <trkpt lat="48.19371" lon="6.56916">
        <ele>405</ele>
        <time>2023-04-04T11:09:12.125Z</time>
      </trkpt>
      <trkpt lat="48.19385" lon="6.56901">
        <ele>404</ele>
        <time>2023-04-04T11:09:18.143Z</time>
      </trkpt>
      <trkpt lat="48.1939" lon="6.56896">
        <ele>403</ele>
        <time>2023-04-04T11:09:24.162Z</time>
      </trkpt>
      <trkpt lat="48.19399" lon="6.56885">
        <ele>403</ele>
        <time>2023-04-04T11:09:30.184Z</time>
      </trkpt>
      <trkpt lat="48.19402" lon="6.56879">
        <ele>402</ele>
        <time>2023-04-04T11:09:36.207Z</time>
      </trkpt>
      <trkpt lat="48.19406" lon="6.56873">
        <ele>401</ele>
        <time>2023-04-04T11:09:42.231Z</time>
      </trkpt>
      <trkpt lat="48.19409" lon="6.56868">
        <ele>401</ele>
        <time>2023-04-04T11:09:48.256Z</time>
      </trkpt>
      <trkpt lat="48.19417" lon="6.56856">
        <ele>400</ele>
        <time>2023-04-04T11:09:54.283Z</time>
      </trkpt>
      <trkpt lat="48.19421" lon="6.56851">
        <ele>399</ele>
        <time>2023-04-04T11:10:00.311Z</time>
      </trkpt>
      <trkpt lat="48.19436" lon="6.5683">
        <ele>399</ele>
        <time>2023-04-04T11:10:06.343Z</time>
      </trkpt>
      <trkpt lat="48.19442" lon="6.56816">
        <ele>398</ele>
        <time>2023-04-04T11:10:12.377Z</time>
      </trkpt>
      <trkpt lat="48.19461" lon="6.5679">
        <ele>397</ele>
        <time>2023-04-04T11:10:18.417Z</time>
      </trkpt>
      <trkpt lat="48.19465" lon="6.56783">
        <ele>397</ele>
        <time>2023-04-04T11:10:24.458Z</time>
      </trkpt>
      <trkpt lat="48.19475" lon="6.56773">
        <ele>396</ele>
        <time>2023-04-04T11:10:30.501Z</time>
      </trkpt>
      <trkpt lat="48.1949" lon="6.5676">
        <ele>396</ele>
        <time>2023-04-04T11:10:36.548Z</time>
      </trkpt>
      <trkpt lat="48.19497" lon="6.56748">
        <ele>395</ele>
        <time>2023-04-04T11:10:42.597Z</time>
      </trkpt>
      <trkpt lat="48.19504" lon="6.56744">
        <ele>395</ele>
        <time>2023-04-04T11:10:48.647Z</time>
      </trkpt>
      <trkpt lat="48.19507" lon="6.56743">
        <ele>395</ele>
        <time>2023-04-04T11:10:54.698Z</time>
      </trkpt>
      <trkpt lat="48.19508" lon="6.56739">
        <ele>394</ele>
        <time>2023-04-04T11:11:00.750Z</time>
      </trkpt>
      <trkpt lat="48.1951" lon="6.56727">
        <ele>394</ele>
        <time>2023-04-04T11:11:06.803Z</time>
      </trkpt>
      <trkpt lat="48.19514" lon="6.56711">
        <ele>394</ele>
        <time>2023-04-04T11:11:12.858Z</time>
      </trkpt>
      <trkpt lat="48.19521" lon="6.56702">
        <ele>394</ele>
        <time>2023-04-04T11:11:18.915Z</time>
      </trkpt>
      <trkpt lat="48.19521" lon="6.567">
        <ele>394</ele>
        <time>2023-04-04T11:11:24.973Z</time>
      </trkpt>
      <trkpt lat="48.19521" lon="6.56701">
        <ele>394</ele>
        <time>2023-04-04T11:11:31.031Z</time>
      </trkpt>
      <trkpt lat="48.1952" lon="6.56699">
        <ele>394</ele>
        <time>2023-04-04T11:11:37.089Z</time>
      </trkpt>
      <trkpt lat="48.19519" lon="6.56696">
        <ele>393</ele>
        <time>2023-04-04T11:11:43.148Z</time>
      </trkpt>
      <trkpt lat="48.19518" lon="6.56695">
        <ele>394</ele>
        <time>2023-04-04T11:11:49.207Z</time>
      </trkpt>
      <trkpt lat="48.19518" lon="6.56691">
        <ele>394</ele>
        <time>2023-04-04T11:11:55.266Z</time>
      </trkpt>
      <trkpt lat="48.19517" lon="6.56689">
        <ele>394</ele>
        <time>2023-04-04T11:12:01.326Z</time>
      </trkpt>
      <trkpt lat="48.19522" lon="6.56682">
        <ele>394</ele>
        <time>2023-04-04T11:12:07.387Z</time>
      </trkpt>
      <trkpt lat="48.19526" lon="6.56679">
        <ele>394</ele>
        <time>2023-04-04T11:12:13.449Z</time>
      </trkpt>
      <trkpt lat="48.1953" lon="6.56671">
        <ele>394</ele>
        <time>2023-04-04T11:12:19.512Z</time>
      </trkpt>
      <trkpt lat="48.19533" lon="6.56666">
        <ele>394</ele>
        <time>2023-04-04T11:12:25.576Z</time>
      </trkpt>
      <trkpt lat="48.19537" lon="6.56662">
        <ele>394</ele>
        <time>2023-04-04T11:12:31.641Z</time>
      </trkpt>
      <trkpt lat="48.19545" lon="6.56658">
        <ele>395</ele>
        <time>2023-04-04T11:12:37.708Z</time>
      </trkpt>
      <trkpt lat="48.19558" lon="6.56651">
        <ele>395</ele>
        <time>2023-04-04T11:12:43.778Z</time>
      </trkpt>
      <trkpt lat="48.19563" lon="6.56647">
        <ele>395</ele>
        <time>2023-04-04T11:12:49.849Z</time>
      </trkpt>
      <trkpt lat="48.19567" lon="6.56637">
        <ele>395</ele>
        <time>2023-04-04T11:12:55.921Z</time>
      </trkpt>
      <trkpt lat="48.19569" lon="6.56632">
        <ele>395</ele>
        <time>2023-04-04T11:13:01.994Z</time>
      </trkpt>
      <trkpt lat="48.19569" lon="6.5663">
        <ele>395</ele>
        <time>2023-04-04T11:13:08.067Z</time>
      </trkpt>
      <trkpt lat="48.1957" lon="6.56626">
        <ele>396</ele>
        <time>2023-04-04T11:13:14.141Z</time>
      </trkpt>
      <trkpt lat="48.19573" lon="6.56622">
        <ele>396</ele>
        <time>2023-04-04T11:13:20.216Z</time>
      </trkpt>
      <trkpt lat="48.19574" lon="6.56618">
        <ele>396</ele>
        <time>2023-04-04T11:13:26.291Z</time>
      </trkpt>
      <trkpt lat="48.19573" lon="6.56615">
        <ele>396</ele>
        <time>2023-04-04T11:13:32.367Z</time>
      </trkpt>
      <trkpt lat="48.19572" lon="6.5661">
        <ele>396</ele>
        <time>2023-04-04T11:13:38.443Z</time>
      </trkpt>
      <trkpt lat="48.19571" lon="6.56606">
        <ele>396</ele>
        <time>2023-04-04T11:13:44.520Z</time>
      </trkpt>
      <trkpt lat="48.1957" lon="6.56606">
        <ele>396</ele>
        <time>2023-04-04T11:13:50.597Z</time>
      </trkpt>
      <trkpt lat="48.19571" lon="6.56603">
        <ele>396</ele>
        <time>2023-04-04T11:13:56.675Z</time>
      </trkpt>
      <trkpt lat="48.19571" lon="6.56602">
        <ele>396</ele>
        <time>2023-04-04T11:14:02.753Z</time>
      </trkpt>
      <trkpt lat="48.19573" lon="6.56594">
        <ele>395</ele>
        <time>2023-04-04T11:14:08.832Z</time>
      </trkpt>
      <trkpt lat="48.19575" lon="6.56591">
        <ele>395</ele>
        <time>2023-04-04T11:14:14.911Z</time>
      </trkpt>
      <trkpt lat="48.19586" lon="6.56568">
        <ele>395</ele>
        <time>2023-04-04T11:14:20.994Z</time>
      </trkpt>
      <trkpt lat="48.19593" lon="6.56549">
        <ele>395</ele>
        <time>2023-04-04T11:14:27.080Z</time>
      </trkpt>
      <trkpt lat="48.19603" lon="6.56525">
        <ele>394</ele>
        <time>2023-04-04T11:14:33.170Z</time>
      </trkpt>
      <trkpt lat="48.19609" lon="6.56507">
        <ele>394</ele>
        <time>2023-04-04T11:14:39.263Z</time>
      </trkpt>
      <trkpt lat="48.19612" lon="6.56496">
        <ele>394</ele>
        <time>2023-04-04T11:14:45.357Z</time>
      </trkpt>
      <trkpt lat="48.19612" lon="6.56471">
        <ele>393</ele>
        <time>2023-04-04T11:14:51.455Z</time>
      </trkpt>
      <trkpt lat="48.19609" lon="6.56449">
        <ele>393</ele>
        <time>2023-04-04T11:14:57.556Z</time>
      </trkpt>
      <trkpt lat="48.19602" lon="6.56422">
        <ele>393</ele>
        <time>2023-04-04T11:15:03.660Z</time>
      </trkpt>
      <trkpt lat="48.19601" lon="6.56418">
        <ele>392</ele>
        <time>2023-04-04T11:15:09.765Z</time>
      </trkpt>
      <trkpt lat="48.19604" lon="6.56408">
        <ele>392</ele>
        <time>2023-04-04T11:15:15.871Z</time>
      </trkpt>
      <trkpt lat="48.19832" lon="6.56253">
        <ele>391</ele>
        <time>2023-04-04T11:15:22.028Z</time>
      </trkpt>
      <trkpt lat="48.19839" lon="6.5624">
        <ele>390</ele>
        <time>2023-04-04T11:15:28.187Z</time>
      </trkpt>
      <trkpt lat="48.19839" lon="6.56212">
        <ele>390</ele>
        <time>2023-04-04T11:15:34.350Z</time>
      </trkpt>
      <trkpt lat="48.19836" lon="6.562">
        <ele>390</ele>
        <time>2023-04-04T11:15:40.514Z</time>
      </trkpt>
      <trkpt lat="48.19835" lon="6.56197">
        <ele>389</ele>
        <time>2023-04-04T11:15:46.679Z</time>
      </trkpt>
      <trkpt lat="48.19833" lon="6.5619">
        <ele>389</ele>
        <time>2023-04-04T11:15:52.845Z</time>
      </trkpt>
      <trkpt lat="48.19835" lon="6.56177">
        <ele>389</ele>
        <time>2023-04-04T11:15:59.013Z</time>
      </trkpt>
      <trkpt lat="48.19838" lon="6.56167">
        <ele>388</ele>
        <time>2023-04-04T11:16:05.182Z</time>
      </trkpt>
      <trkpt lat="48.1984" lon="6.5616">
        <ele>388</ele>
        <time>2023-04-04T11:16:11.352Z</time>
      </trkpt>
      <trkpt lat="48.19845" lon="6.56147">
        <ele>387</ele>
        <time>2023-04-04T11:16:17.524Z</time>
      </trkpt>
      <trkpt lat="48.19847" lon="6.56138">
        <ele>387</ele>
        <time>2023-04-04T11:16:23.697Z</time>
      </trkpt>
      <trkpt lat="48.19859" lon="6.56121">
        <ele>386</ele>
        <time>2023-04-04T11:16:29.874Z</time>
      </trkpt>
      <trkpt lat="48.19861" lon="6.56111">
        <ele>386</ele>
        <time>2023-04-04T11:16:36.052Z</time>
      </trkpt>
      <trkpt lat="48.19865" lon="6.56084">
        <ele>385</ele>
        <time>2023-04-04T11:16:42.234Z</time>
      </trkpt>
      <trkpt lat="48.19867" lon="6.5608">
        <ele>385</ele>
        <time>2023-04-04T11:16:48.416Z</time>
      </trkpt>
      <trkpt lat="48.19867" lon="6.56079">
        <ele>385</ele>
        <time>2023-04-04T11:16:54.598Z</time>
      </trkpt>
      <trkpt lat="48.1987" lon="6.56069">
        <ele>384</ele>
        <time>2023-04-04T11:17:00.782Z</time>
      </trkpt>
      <trkpt lat="48.19871" lon="6.56065">
        <ele>383</ele>
        <time>2023-04-04T11:17:06.967Z</time>
      </trkpt>
      <trkpt lat="48.19872" lon="6.56061">
        <ele>383</ele>
        <time>2023-04-04T11:17:13.152Z</time>
      </trkpt>
      <trkpt lat="48.19878" lon="6.56041">
        <ele>382</ele>
        <time>2023-04-04T11:17:19.340Z</time>
      </trkpt>
      <trkpt lat="48.19882" lon="6.56031">
        <ele>382</ele>
        <time>2023-04-04T11:17:25.530Z</time>
      </trkpt>
      <trkpt lat="48.19881" lon="6.56024">
        <ele>381</ele>
        <time>2023-04-04T11:17:31.721Z</time>
      </trkpt>
      <trkpt lat="48.19882" lon="6.56018">
        <ele>381</ele>
        <time>2023-04-04T11:17:37.912Z</time>
      </trkpt>
      <trkpt lat="48.19882" lon="6.56017">
        <ele>380</ele>
        <time>2023-04-04T11:17:44.104Z</time>
      </trkpt>
      <trkpt lat="48.19882" lon="6.56013">
        <ele>380</ele>
        <time>2023-04-04T11:17:50.296Z</time>
      </trkpt>
      <trkpt lat="48.19884" lon="6.56009">
        <ele>379</ele>
        <time>2023-04-04T11:17:56.489Z</time>
      </trkpt>
      <trkpt lat="48.19888" lon="6.56005">
        <ele>378</ele>
        <time>2023-04-04T11:18:02.683Z</time>
      </trkpt>
      <trkpt lat="48.19888" lon="6.56003">
        <ele>378</ele>
        <time>2023-04-04T11:18:08.877Z</time>
      </trkpt>
      <trkpt lat="48.19889" lon="6.56001">
        <ele>377</ele>
        <time>2023-04-04T11:18:15.071Z</time>
      </trkpt>
      <trkpt lat="48.19898" lon="6.55999">
        <ele>377</ele>
        <time>2023-04-04T11:18:21.267Z</time>
      </trkpt>
      <trkpt lat="48.19925" lon="6.55997">
        <ele>376</ele>
        <time>2023-04-04T11:18:27.469Z</time>
      </trkpt>
      <trkpt lat="48.19939" lon="6.55992">
        <ele>375</ele>
        <time>2023-04-04T11:18:33.673Z</time>
      </trkpt>
      <trkpt lat="48.19956" lon="6.55985">
        <ele>375</ele>
        <time>2023-04-04T11:18:39.881Z</time>
      </trkpt>
      <trkpt lat="48.19973" lon="6.55975">
        <ele>374</ele>
        <time>2023-04-04T11:18:46.093Z</time>
      </trkpt>
      <trkpt lat="48.19977" lon="6.55971">
        <ele>373</ele>
        <time>2023-04-04T11:18:52.306Z</time>
      </trkpt>
      <trkpt lat="48.19982" lon="6.55967">
        <ele>373</ele>
        <time>2023-04-04T11:18:58.520Z</time>
      </trkpt>
      <trkpt lat="48.1999" lon="6.55959">
        <ele>372</ele>
        <time>2023-04-04T11:19:04.736Z</time>
      </trkpt>
      <trkpt lat="48.19994" lon="6.55956">
        <ele>372</ele>
        <time>2023-04-04T11:19:10.953Z</time>
      </trkpt>
      <trkpt lat="48.19997" lon="6.55949">
        <ele>372</ele>
        <time>2023-04-04T11:19:17.171Z</time>
      </trkpt>
      <trkpt lat="48.19997" lon="6.55945">
        <ele>371</ele>
        <time>2023-04-04T11:19:23.389Z</time>
      </trkpt>
      <trkpt lat="48.19997" lon="6.55942">
        <ele>371</ele>
        <time>2023-04-04T11:19:29.608Z</time>
      </trkpt>
      <trkpt lat="48.19995" lon="6.55931">
        <ele>371</ele>
        <time>2023-04-04T11:19:35.828Z</time>
      </trkpt>
      <trkpt lat="48.19991" lon="6.55912">
        <ele>370</ele>
        <time>2023-04-04T11:19:42.051Z</time>
      </trkpt>
      <trkpt lat="48.19989" lon="6.55907">
        <ele>370</ele>
        <time>2023-04-04T11:19:48.275Z</time>
      </trkpt>
      <trkpt lat="48.19976" lon="6.55879">
        <ele>370</ele>
        <time>2023-04-04T11:19:54.503Z</time>
      </trkpt>
      <trkpt lat="48.19972" lon="6.55875">
        <ele>370</ele>
        <time>2023-04-04T11:20:00.732Z</time>
      </trkpt>
      <trkpt lat="48.19972" lon="6.55874">
        <ele>370</ele>
        <time>2023-04-04T11:20:06.961Z</time>
      </trkpt>
      <trkpt lat="48.19972" lon="6.55871">
        <ele>370</ele>
        <time>2023-04-04T11:20:13.191Z</time>
      </trkpt>
      <trkpt lat="48.19971" lon="6.55868">
        <ele>370</ele>
        <time>2023-04-04T11:20:19.421Z</time>
      </trkpt>
      <trkpt lat="48.19964" lon="6.55856">
        <ele>370</ele>
        <time>2023-04-04T11:20:25.653Z</time>
      </trkpt>
      <trkpt lat="48.19955" lon="6.55832">
        <ele>370</ele>
        <time>2023-04-04T11:20:31.889Z</time>
      </trkpt>
      <trkpt lat="48.19952" lon="6.55815">
        <ele>370</ele>
        <time>2023-04-04T11:20:38.127Z</time>
      </trkpt>
      <trkpt lat="48.19962" lon="6.55793">
        <ele>370</ele>
        <time>2023-04-04T11:20:44.369Z</time>
      </trkpt>
      <trkpt lat="48.19964" lon="6.55787">
        <ele>370</ele>
        <time>2023-04-04T11:20:50.612Z</time>
      </trkpt>
      <trkpt lat="48.19968" lon="6.5578">
        <ele>370</ele>
        <time>2023-04-04T11:20:56.856Z</time>
      </trkpt>
      <trkpt lat="48.1998" lon="6.55766">
        <ele>370</ele>
        <time>2023-04-04T11:21:03.103Z</time>
      </trkpt>
      <trkpt lat="48.19985" lon="6.55755">
        <ele>370</ele>
        <time>2023-04-04T11:21:09.352Z</time>
      </trkpt>
      <trkpt lat="48.19984" lon="6.55749">
        <ele>370</ele>
        <time>2023-04-04T11:21:15.602Z</time>
      </trkpt>
      <trkpt lat="48.19984" lon="6.55742">
        <ele>370</ele>
        <time>2023-04-04T11:21:21.852Z</time>
      </trkpt>
      <trkpt lat="48.19983" lon="6.55733">
        <ele>370</ele>
        <time>2023-04-04T11:21:28.104Z</time>
      </trkpt>
      <trkpt lat="48.19984" lon="6.5573">
        <ele>370</ele>
        <time>2023-04-04T11:21:34.356Z</time>
      </trkpt>
      <trkpt lat="48.19982" lon="6.5572">
        <ele>370</ele>
        <time>2023-04-04T11:21:40.610Z</time>
      </trkpt>
      <trkpt lat="48.19983" lon="6.55717">
        <ele>370</ele>
        <time>2023-04-04T11:21:46.864Z</time>
      </trkpt>
      <trkpt lat="48.19982" lon="6.55709">
        <ele>370</ele>
        <time>2023-04-04T11:21:53.119Z</time>
      </trkpt>
      <trkpt lat="48.19976" lon="6.55699">
        <ele>370</ele>
        <time>2023-04-04T11:21:59.376Z</time>
      </trkpt>
      <trkpt lat="48.1998" lon="6.55696">
        <ele>371</ele>
        <time>2023-04-04T11:22:05.634Z</time>
      </trkpt>
      <trkpt lat="48.19983" lon="6.55689">
        <ele>371</ele>
        <time>2023-04-04T11:22:11.893Z</time>
      </trkpt>
      <trkpt lat="48.19982" lon="6.55687">
        <ele>371</ele>
        <time>2023-04-04T11:22:18.152Z</time>
      </trkpt>
      <trkpt lat="48.19976" lon="6.55669">
        <ele>371</ele>
        <time>2023-04-04T11:22:24.414Z</time>
      </trkpt>
      <trkpt lat="48.19973" lon="6.55654">
        <ele>371</ele>
        <time>2023-04-04T11:22:30.678Z</time>
      </trkpt>
      <trkpt lat="48.19974" lon="6.55646">
        <ele>371</ele>
        <time>2023-04-04T11:22:36.943Z</time>
      </trkpt>
      <trkpt lat="48.19969" lon="6.55627">
        <ele>371</ele>
        <time>2023-04-04T11:22:43.211Z</time>
      </trkpt>
      <trkpt lat="48.19968" lon="6.55625">
        <ele>371</ele>
        <time>2023-04-04T11:22:49.479Z</time>
      </trkpt>
      <trkpt lat="48.19967" lon="6.55623">
        <ele>372</ele>
        <time>2023-04-04T11:22:55.747Z</time>
      </trkpt>
      <trkpt lat="48.19965" lon="6.55619">
        <ele>372</ele>
        <time>2023-04-04T11:23:02.016Z</time>
      </trkpt>
      <trkpt lat="48.19952" lon="6.55599">
        <ele>372</ele>
        <time>2023-04-04T11:23:08.289Z</time>
      </trkpt>
      <trkpt lat="48.19949" lon="6.55586">
        <ele>372</ele>
        <time>2023-04-04T11:23:14.564Z</time>
      </trkpt>
      <trkpt lat="48.19949" lon="6.55583">
        <ele>372</ele>
        <time>2023-04-04T11:23:20.839Z</time>
      </trkpt>
      <trkpt lat="48.19949" lon="6.55575">
        <ele>372</ele>
        <time>2023-04-04T11:23:27.115Z</time>
      </trkpt>
      <trkpt lat="48.19946" lon="6.55568">
        <ele>372</ele>
        <time>2023-04-04T11:23:33.392Z</time>
      </trkpt>
      <trkpt lat="48.1993" lon="6.55544">
        <ele>372</ele>
        <time>2023-04-04T11:23:39.674Z</time>
      </trkpt>
      <trkpt lat="48.19928" lon="6.55539">
        <ele>372</ele>
        <time>2023-04-04T11:23:45.957Z</time>
      </trkpt>
      <trkpt lat="48.19925" lon="6.55527">
        <ele>372</ele>
        <time>2023-04-04T11:23:52.241Z</time>
      </trkpt>
      <trkpt lat="48.19921" lon="6.55513">
        <ele>373</ele>
        <time>2023-04-04T11:23:58.527Z</time>
      </trkpt>
      <trkpt lat="48.19918" lon="6.55509">
        <ele>373</ele>
        <time>2023-04-04T11:24:04.814Z</time>
      </trkpt>
      <trkpt lat="48.19898" lon="6.55481">
        <ele>373</ele>
        <time>2023-04-04T11:24:11.107Z</time>
      </trkpt>
      <trkpt lat="48.19886" lon="6.55464">
        <ele>373</ele>
        <time>2023-04-04T11:24:17.403Z</time>
      </trkpt>
      <trkpt lat="48.19886" lon="6.55464">
        <ele>373</ele>
        <time>2023-04-04T11:24:23.699Z</time>
      </trkpt>
      <trkpt lat="48.19872" lon="6.5545">
        <ele>373</ele>
        <time>2023-04-04T11:24:29.998Z</time>
      </trkpt>
      <trkpt lat="48.19852" lon="6.55441">
        <ele>373</ele>
        <time>2023-04-04T11:24:36.302Z</time>
      </trkpt>
      <trkpt lat="48.19848" lon="6.55418">
        <ele>373</ele>
        <time>2023-04-04T11:24:42.609Z</time>
      </trkpt>
      <trkpt lat="48.19842" lon="6.5541">
        <ele>373</ele>
        <time>2023-04-04T11:24:48.917Z</time>
      </trkpt>
      <trkpt lat="48.1984" lon="6.55408">
        <ele>374</ele>
        <time>2023-04-04T11:24:55.226Z</time>
      </trkpt>
      <trkpt lat="48.19837" lon="6.55406">
        <ele>374</ele>
        <time>2023-04-04T11:25:01.535Z</time>
      </trkpt>
      <trkpt lat="48.1983" lon="6.55398">
        <ele>374</ele>
        <time>2023-04-04T11:25:07.846Z</time>
      </trkpt>
      <trkpt lat="48.19825" lon="6.55391">
        <ele>374</ele>
        <time>2023-04-04T11:25:14.159Z</time>
      </trkpt>
      <trkpt lat="48.19822" lon="6.55388">
        <ele>374</ele>
        <time>2023-04-04T11:25:20.472Z</time>
      </trkpt>
      <trkpt lat="48.19818" lon="6.55385">
        <ele>374</ele>
        <time>2023-04-04T11:25:26.786Z</time>
      </trkpt>
      <trkpt lat="48.19815" lon="6.55379">
        <ele>374</ele>
        <time>2023-04-04T11:25:33.101Z</time>
      </trkpt>
      <trkpt lat="48.19807" lon="6.55361">
        <ele>374</ele>
        <time>2023-04-04T11:25:39.419Z</time>
      </trkpt>
      <trkpt lat="48.19797" lon="6.55347">
        <ele>374</ele>
        <time>2023-04-04T11:25:45.740Z</time>
      </trkpt>
      <trkpt lat="48.19795" lon="6.55342">
        <ele>374</ele>
        <time>2023-04-04T11:25:52.062Z</time>
      </trkpt>
      <trkpt lat="48.19784" lon="6.55325">
        <ele>374</ele>
        <time>2023-04-04T11:25:58.387Z</time>
      </trkpt>
      <trkpt lat="48.19776" lon="6.55316">
        <ele>375</ele>
        <time>2023-04-04T11:26:04.714Z</time>
      </trkpt>
      <trkpt lat="48.19768" lon="6.553">
        <ele>375</ele>
        <time>2023-04-04T11:26:11.043Z</time>
      </trkpt>
      <trkpt lat="48.19766" lon="6.55296">
        <ele>375</ele>
        <time>2023-04-04T11:26:17.373Z</time>
      </trkpt>
      <trkpt lat="48.19754" lon="6.55278">
        <ele>375</ele>
        <time>2023-04-04T11:26:23.707Z</time>
      </trkpt>
      <trkpt lat="48.19742" lon="6.55252">
        <ele>375</ele>
        <time>2023-04-04T11:26:30.045Z</time>
      </trkpt>
      <trkpt lat="48.19738" lon="6.55247">
        <ele>375</ele>
        <time>2023-04-04T11:26:36.384Z</time>
      </trkpt>
      <trkpt lat="48.19735" lon="6.55244">
        <ele>375</ele>
        <time>2023-04-04T11:26:42.724Z</time>
      </trkpt>
      <trkpt lat="48.19721" lon="6.55235">
        <ele>375</ele>
        <time>2023-04-04T11:26:49.067Z</time>
      </trkpt>
      <trkpt lat="48.19704" lon="6.55223">
        <ele>375</ele>
        <time>2023-04-04T11:26:55.413Z</time>
      </trkpt>
      <trkpt lat="48.19689" lon="6.55215">
        <ele>375</ele>
        <time>2023-04-04T11:27:01.763Z</time>
      </trkpt>
      <trkpt lat="48.19676" lon="6.55206">
        <ele>375</ele>
        <time>2023-04-04T11:27:08.115Z</time>
      </trkpt>
      <trkpt lat="48.1966" lon="6.55195">
        <ele>376</ele>
        <time>2023-04-04T11:27:14.471Z</time>
      </trkpt>
      <trkpt lat="48.19654" lon="6.55189">
        <ele>376</ele>
        <time>2023-04-04T11:27:20.828Z</time>
      </trkpt>
      <trkpt lat="48.19639" lon="6.55181">
        <ele>376</ele>
        <time>2023-04-04T11:27:27.189Z</time>
      </trkpt>
      <trkpt lat="48.1962" lon="6.55169">
        <ele>376</ele>
        <time>2023-04-04T11:27:33.554Z</time>
      </trkpt>
      <trkpt lat="48.19613" lon="6.55165">
        <ele>375</ele>
        <time>2023-04-04T11:27:39.920Z</time>
      </trkpt>
      <trkpt lat="48.19606" lon="6.55157">
        <ele>375</ele>
        <time>2023-04-04T11:27:46.288Z</time>
      </trkpt>
      <trkpt lat="48.196" lon="6.55144">
        <ele>375</ele>
        <time>2023-04-04T11:27:52.658Z</time>
      </trkpt>
      <trkpt lat="48.19596" lon="6.55139">
        <ele>375</ele>
        <time>2023-04-04T11:27:59.029Z</time>
      </trkpt>
      <trkpt lat="48.19582" lon="6.55116">
        <ele>374</ele>
        <time>2023-04-04T11:28:05.404Z</time>
      </trkpt>
      <trkpt lat="48.19575" lon="6.55104">
        <ele>374</ele>
        <time>2023-04-04T11:28:11.781Z</time>
      </trkpt>
      <trkpt lat="48.19573" lon="6.55098">
        <ele>373</ele>
        <time>2023-04-04T11:28:18.159Z</time>
      </trkpt>
      <trkpt lat="48.19567" lon="6.55084">
        <ele>373</ele>
        <time>2023-04-04T11:28:24.540Z</time>
      </trkpt>
      <trkpt lat="48.19556" lon="6.55069">
        <ele>372</ele>
        <time>2023-04-04T11:28:30.924Z</time>
      </trkpt>
      <trkpt lat="48.19553" lon="6.55066">
        <ele>372</ele>
        <time>2023-04-04T11:28:37.308Z</time>
      </trkpt>
      <trkpt lat="48.19543" lon="6.55053">
        <ele>371</ele>
        <time>2023-04-04T11:28:43.695Z</time>
      </trkpt>
      <trkpt lat="48.19524" lon="6.55024">
        <ele>371</ele>
        <time>2023-04-04T11:28:50.087Z</time>
      </trkpt>
      <trkpt lat="48.19513" lon="6.55007">
        <ele>370</ele>
        <time>2023-04-04T11:28:56.482Z</time>
      </trkpt>
      <trkpt lat="48.19485" lon="6.54973">
        <ele>369</ele>
        <time>2023-04-04T11:29:02.885Z</time>
      </trkpt>
      <trkpt lat="48.1948" lon="6.54967">
        <ele>369</ele>
        <time>2023-04-04T11:29:09.289Z</time>
      </trkpt>
      <trkpt lat="48.19475" lon="6.54962">
        <ele>368</ele>
        <time>2023-04-04T11:29:15.694Z</time>
      </trkpt>
      <trkpt lat="48.19464" lon="6.54956">
        <ele>367</ele>
        <time>2023-04-04T11:29:22.102Z</time>
      </trkpt>
      <trkpt lat="48.1944" lon="6.54935">
        <ele>367</ele>
        <time>2023-04-04T11:29:28.515Z</time>
      </trkpt>
      <trkpt lat="48.19417" lon="6.54911">
        <ele>366</ele>
        <time>2023-04-04T11:29:34.934Z</time>
      </trkpt>
      <trkpt lat="48.19404" lon="6.54895">
        <ele>365</ele>
        <time>2023-04-04T11:29:41.356Z</time>
      </trkpt>
      <trkpt lat="48.19392" lon="6.54887">
        <ele>365</ele>
        <time>2023-04-04T11:29:47.781Z</time>
      </trkpt>
      <trkpt lat="48.1937" lon="6.54863">
        <ele>364</ele>
        <time>2023-04-04T11:29:54.211Z</time>
      </trkpt>
      <trkpt lat="48.19366" lon="6.54855">
        <ele>363</ele>
        <time>2023-04-04T11:30:00.642Z</time>
      </trkpt>
      <trkpt lat="48.19362" lon="6.54847">
        <ele>362</ele>
        <time>2023-04-04T11:30:07.075Z</time>
      </trkpt>
      <trkpt lat="48.1936" lon="6.54833">
        <ele>362</ele>
        <time>2023-04-04T11:30:13.510Z</time>
      </trkpt>
      <trkpt lat="48.19361" lon="6.54818">
        <ele>361</ele>
        <time>2023-04-04T11:30:19.947Z</time>
      </trkpt>
      <trkpt lat="48.19365" lon="6.54805">
        <ele>360</ele>
        <time>2023-04-04T11:30:26.386Z</time>
      </trkpt>
      <trkpt lat="48.19367" lon="6.54798">
        <ele>360</ele>
        <time>2023-04-04T11:30:32.826Z</time>
      </trkpt>
      <trkpt lat="48.19373" lon="6.54787">
        <ele>359</ele>
        <time>2023-04-04T11:30:39.268Z</time>
      </trkpt>
      <trkpt lat="48.19374" lon="6.54773">
        <ele>359</ele>
        <time>2023-04-04T11:30:45.711Z</time>
      </trkpt>
      <trkpt lat="48.19383" lon="6.54741">
        <ele>358</ele>
        <time>2023-04-04T11:30:52.159Z</time>
      </trkpt>
      <trkpt lat="48.19382" lon="6.54728">
        <ele>358</ele>
        <time>2023-04-04T11:30:58.609Z</time>
      </trkpt>
      <trkpt lat="48.19379" lon="6.54718">
        <ele>357</ele>
        <time>2023-04-04T11:31:05.060Z</time>
      </trkpt>
      <trkpt lat="48.19363" lon="6.54687">
        <ele>357</ele>
        <time>2023-04-04T11:31:11.517Z</time>
      </trkpt>
      <trkpt lat="48.19341" lon="6.54648">
        <ele>357</ele>
        <time>2023-04-04T11:31:17.980Z</time>
      </trkpt>
      <trkpt lat="48.19332" lon="6.5464">
        <ele>356</ele>
        <time>2023-04-04T11:31:24.446Z</time>
      </trkpt>
      <trkpt lat="48.19323" lon="6.54633">
        <ele>356</ele>
        <time>2023-04-04T11:31:30.914Z</time>
      </trkpt>
      <trkpt lat="48.19311" lon="6.54633">
        <ele>356</ele>
        <time>2023-04-04T11:31:37.384Z</time>
      </trkpt>
      <trkpt lat="48.19304" lon="6.54631">
        <ele>356</ele>
        <time>2023-04-04T11:31:43.855Z</time>
      </trkpt>
      <trkpt lat="48.19301" lon="6.54629">
        <ele>356</ele>
        <time>2023-04-04T11:31:50.327Z</time>
      </trkpt>
      <trkpt lat="48.19299" lon="6.54627">
        <ele>356</ele>
        <time>2023-04-04T11:31:56.800Z</time>
      </trkpt>
      <trkpt lat="48.19296" lon="6.54626">
        <ele>357</ele>
        <time>2023-04-04T11:32:03.273Z</time>
      </trkpt>
      <trkpt lat="48.19294" lon="6.54624">
        <ele>357</ele>
        <time>2023-04-04T11:32:09.747Z</time>
      </trkpt>
      <trkpt lat="48.19292" lon="6.54622">
        <ele>357</ele>
        <time>2023-04-04T11:32:16.221Z</time>
      </trkpt>
      <trkpt lat="48.19289" lon="6.54621">
        <ele>357</ele>
        <time>2023-04-04T11:32:22.696Z</time>
      </trkpt>
      <trkpt lat="48.19287" lon="6.54619">
        <ele>357</ele>
        <time>2023-04-04T11:32:29.171Z</time>
      </trkpt>
      <trkpt lat="48.19284" lon="6.54618">
        <ele>358</ele>
        <time>2023-04-04T11:32:35.647Z</time>
      </trkpt>
      <trkpt lat="48.19275" lon="6.54607">
        <ele>358</ele>
        <time>2023-04-04T11:32:42.125Z</time>
      </trkpt>
      <trkpt lat="48.19271" lon="6.54602">
        <ele>358</ele>
        <time>2023-04-04T11:32:48.604Z</time>
      </trkpt>
      <trkpt lat="48.19262" lon="6.54592">
        <ele>359</ele>
        <time>2023-04-04T11:32:55.085Z</time>
      </trkpt>
      <trkpt lat="48.19253" lon="6.54582">
        <ele>359</ele>
        <time>2023-04-04T11:33:01.569Z</time>
      </trkpt>
      <trkpt lat="48.19251" lon="6.54573">
        <ele>360</ele>
        <time>2023-04-04T11:33:08.054Z</time>
      </trkpt>
      <trkpt lat="48.19247" lon="6.54565">
        <ele>360</ele>
        <time>2023-04-04T11:33:14.540Z</time>
      </trkpt>
      <trkpt lat="48.19237" lon="6.54553">
        <ele>361</ele>
        <time>2023-04-04T11:33:21.029Z</time>
      </trkpt>
      <trkpt lat="48.19235" lon="6.54549">
        <ele>361</ele>
        <time>2023-04-04T11:33:27.518Z</time>
      </trkpt>
      <trkpt lat="48.19233" lon="6.54541">
        <ele>361</ele>
        <time>2023-04-04T11:33:34.009Z</time>
      </trkpt>
      <trkpt lat="48.19231" lon="6.54539">
        <ele>362</ele>
        <time>2023-04-04T11:33:40.500Z</time>
      </trkpt>
      <trkpt lat="48.19224" lon="6.54525">
        <ele>362</ele>
        <time>2023-04-04T11:33:46.993Z</time>
      </trkpt>
      <trkpt lat="48.19224" lon="6.54517">
        <ele>363</ele>
        <time>2023-04-04T11:33:53.488Z</time>
      </trkpt>
      <trkpt lat="48.19225" lon="6.54513">
        <ele>363</ele>
        <time>2023-04-04T11:33:59.983Z</time>
      </trkpt>
      <trkpt lat="48.19224" lon="6.54507">
        <ele>364</ele>
        <time>2023-04-04T11:34:06.479Z</time>
      </trkpt>
      <trkpt lat="48.1922" lon="6.54495">
        <ele>364</ele>
        <time>2023-04-04T11:34:12.977Z</time>
      </trkpt>
      <trkpt lat="48.19221" lon="6.54492">
        <ele>364</ele>
        <time>2023-04-04T11:34:19.475Z</time>
      </trkpt>
      <trkpt lat="48.1922" lon="6.54464">
        <ele>365</ele>
        <time>2023-04-04T11:34:25.977Z</time>
      </trkpt>
      <trkpt lat="48.19222" lon="6.54435">
        <ele>365</ele>
        <time>2023-04-04T11:34:32.483Z</time>
      </trkpt>
      <trkpt lat="48.19229" lon="6.54411">
        <ele>365</ele>
        <time>2023-04-04T11:34:38.992Z</time>
      </trkpt>
      <trkpt lat="48.19229" lon="6.54398">
        <ele>365</ele>
        <time>2023-04-04T11:34:45.503Z</time>
      </trkpt>
      <trkpt lat="48.1923" lon="6.54393">
        <ele>366</ele>
        <time>2023-04-04T11:34:52.015Z</time>
      </trkpt>
      <trkpt lat="48.19232" lon="6.54389">
        <ele>366</ele>
        <time>2023-04-04T11:34:58.527Z</time>
      </trkpt>
      <trkpt lat="48.19235" lon="6.54383">
        <ele>366</ele>
        <time>2023-04-04T11:35:05.040Z</time>
      </trkpt>
      <trkpt lat="48.19235" lon="6.5438">
        <ele>366</ele>
        <time>2023-04-04T11:35:11.554Z</time>
      </trkpt>
      <trkpt lat="48.19234" lon="6.54374">
        <ele>366</ele>
        <time>2023-04-04T11:35:18.069Z</time>
      </trkpt>
      <trkpt lat="48.19236" lon="6.5436">
        <ele>366</ele>
        <time>2023-04-04T11:35:24.586Z</time>
      </trkpt>
      <trkpt lat="48.19236" lon="6.54356">
        <ele>367</ele>
        <time>2023-04-04T11:35:31.103Z</time>
      </trkpt>
      <trkpt lat="48.19245" lon="6.54334">
        <ele>367</ele>
        <time>2023-04-04T11:35:37.624Z</time>
      </trkpt>
      <trkpt lat="48.19254" lon="6.54301">
        <ele>366</ele>
        <time>2023-04-04T11:35:44.149Z</time>
      </trkpt>
      <trkpt lat="48.19258" lon="6.54263">
        <ele>366</ele>
        <time>2023-04-04T11:35:50.679Z</time>
      </trkpt>
      <trkpt lat="48.19259" lon="6.54241">
        <ele>366</ele>
        <time>2023-04-04T11:35:57.212Z</time>
      </trkpt>
      <trkpt lat="48.19264" lon="6.54233">
        <ele>366</ele>
        <time>2023-04-04T11:36:03.747Z</time>
      </trkpt>
      <trkpt lat="48.19268" lon="6.54227">
        <ele>366</ele>
        <time>2023-04-04T11:36:10.283Z</time>
      </trkpt>
      <trkpt lat="48.1927" lon="6.54222">
        <ele>366</ele>
        <time>2023-04-04T11:36:16.820Z</time>
      </trkpt>
      <trkpt lat="48.19277" lon="6.54212">
        <ele>366</ele>
        <time>2023-04-04T11:36:23.359Z</time>
      </trkpt>
      <trkpt lat="48.19279" lon="6.54205">
        <ele>366</ele>
        <time>2023-04-04T11:36:29.899Z</time>
      </trkpt>
      <trkpt lat="48.1928" lon="6.54199">
        <ele>366</ele>
        <time>2023-04-04T11:36:36.440Z</time>
      </trkpt>
      <trkpt lat="48.19283" lon="6.54162">
        <ele>365</ele>
        <time>2023-04-04T11:36:42.986Z</time>
      </trkpt>
      <trkpt lat="48.19285" lon="6.54156">
        <ele>365</ele>
        <time>2023-04-04T11:36:49.532Z</time>
      </trkpt>
      <trkpt lat="48.19289" lon="6.54142">
        <ele>365</ele>
        <time>2023-04-04T11:36:56.081Z</time>
      </trkpt>
      <trkpt lat="48.19294" lon="6.54116">
        <ele>365</ele>
        <time>2023-04-04T11:37:02.633Z</time>
      </trkpt>
      <trkpt lat="48.19298" lon="6.54104">
        <ele>364</ele>
        <time>2023-04-04T11:37:09.187Z</time>
      </trkpt>
      <trkpt lat="48.19308" lon="6.54074">
        <ele>364</ele>
        <time>2023-04-04T11:37:15.745Z</time>
      </trkpt>
      <trkpt lat="48.19316" lon="6.54048">
        <ele>364</ele>
        <time>2023-04-04T11:37:22.307Z</time>
      </trkpt>
      <trkpt lat="48.19326" lon="6.54028">
        <ele>364</ele>
        <time>2023-04-04T11:37:28.873Z</time>
      </trkpt>
      <trkpt lat="48.19337" lon="6.54009">
        <ele>363</ele>
        <time>2023-04-04T11:37:35.442Z</time>
      </trkpt>
      <trkpt lat="48.19354" lon="6.5398">
        <ele>363</ele>
        <time>2023-04-04T11:37:42.016Z</time>
      </trkpt>
      <trkpt lat="48.19357" lon="6.53973">
        <ele>363</ele>
        <time>2023-04-04T11:37:48.591Z</time>
      </trkpt>
      <trkpt lat="48.19377" lon="6.53938">
        <ele>362</ele>
        <time>2023-04-04T11:37:55.172Z</time>
      </trkpt>
      <trkpt lat="48.1938" lon="6.53932">
        <ele>362</ele>
        <time>2023-04-04T11:38:01.754Z</time>
      </trkpt>
      <trkpt lat="48.19386" lon="6.53919">
        <ele>361</ele>
        <time>2023-04-04T11:38:08.339Z</time>
      </trkpt>
      <trkpt lat="48.19388" lon="6.53913">
        <ele>361</ele>
        <time>2023-04-04T11:38:14.924Z</time>
      </trkpt>
      <trkpt lat="48.1939" lon="6.53907">
        <ele>360</ele>
        <time>2023-04-04T11:38:21.510Z</time>
      </trkpt>
      <trkpt lat="48.19392" lon="6.53902">
        <ele>360</ele>
        <time>2023-04-04T11:38:28.097Z</time>
      </trkpt>
      <trkpt lat="48.19397" lon="6.53895">
        <ele>359</ele>
        <time>2023-04-04T11:38:34.685Z</time>
      </trkpt>
      <trkpt lat="48.19396" lon="6.53895">
        <ele>359</ele>
        <time>2023-04-04T11:38:41.274Z</time>
      </trkpt>
      <trkpt lat="48.19396" lon="6.53893">
        <ele>358</ele>
        <time>2023-04-04T11:38:47.863Z</time>
      </trkpt>
      <trkpt lat="48.19398" lon="6.53889">
        <ele>358</ele>
        <time>2023-04-04T11:38:54.453Z</time>
      </trkpt>
      <trkpt lat="48.19399" lon="6.53884">
        <ele>357</ele>
        <time>2023-04-04T11:39:01.043Z</time>
      </trkpt>
      <trkpt lat="48.19404" lon="6.53872">
        <ele>357</ele>
        <time>2023-04-04T11:39:07.635Z</time>
      </trkpt>
      <trkpt lat="48.19413" lon="6.53851">
        <ele>356</ele>
        <time>2023-04-04T11:39:14.231Z</time>
      </trkpt>
      <trkpt lat="48.19415" lon="6.53847">
        <ele>356</ele>
        <time>2023-04-04T11:39:20.827Z</time>
      </trkpt>
      <trkpt lat="48.19418" lon="6.53842">
        <ele>355</ele>
        <time>2023-04-04T11:39:27.424Z</time>
      </trkpt>
      <trkpt lat="48.19427" lon="6.53831">
        <ele>355</ele>
        <time>2023-04-04T11:39:34.023Z</time>
      </trkpt>
      <trkpt lat="48.19439" lon="6.53823">
        <ele>354</ele>
        <time>2023-04-04T11:39:40.625Z</time>
      </trkpt>
      <trkpt lat="48.19448" lon="6.53801">
        <ele>354</ele>
        <time>2023-04-04T11:39:47.230Z</time>
      </trkpt>
      <trkpt lat="48.19447" lon="6.53788">
        <ele>354</ele>
        <time>2023-04-04T11:39:53.837Z</time>
      </trkpt>
      <trkpt lat="48.19447" lon="6.53773">
        <ele>353</ele>
        <time>2023-04-04T11:40:00.446Z</time>
      </trkpt>
      <trkpt lat="48.19445" lon="6.53758">
        <ele>353</ele>
        <time>2023-04-04T11:40:07.057Z</time>
      </trkpt>
      <trkpt lat="48.19451" lon="6.53728">
        <ele>353</ele>
        <time>2023-04-04T11:40:13.672Z</time>
      </trkpt>
      <trkpt lat="48.19451" lon="6.53707">
        <ele>352</ele>
        <time>2023-04-04T11:40:20.290Z</time>
      </trkpt>
      <trkpt lat="48.19451" lon="6.53699">
        <ele>352</ele>
        <time>2023-04-04T11:40:26.909Z</time>
      </trkpt>
      <trkpt lat="48.19455" lon="6.53683">
        <ele>352</ele>
        <time>2023-04-04T11:40:33.531Z</time>
      </trkpt>
      <trkpt lat="48.19459" lon="6.53673">
        <ele>352</ele>
        <time>2023-04-04T11:40:40.154Z</time>
      </trkpt>
      <trkpt lat="48.19462" lon="6.53658">
        <ele>352</ele>
        <time>2023-04-04T11:40:46.779Z</time>
      </trkpt>
      <trkpt lat="48.19464" lon="6.53644">
        <ele>351</ele>
        <time>2023-04-04T11:40:53.406Z</time>
      </trkpt>
      <trkpt lat="48.19468" lon="6.5363">
        <ele>351</ele>
        <time>2023-04-04T11:41:00.035Z</time>
      </trkpt>
      <trkpt lat="48.1947" lon="6.53624">
        <ele>351</ele>
        <time>2023-04-04T11:41:06.665Z</time>
      </trkpt>
      <trkpt lat="48.19472" lon="6.53617">
        <ele>351</ele>
        <time>2023-04-04T11:41:13.296Z</time>
      </trkpt>
      <trkpt lat="48.19477" lon="6.53597">
        <ele>351</ele>
        <time>2023-04-04T11:41:19.930Z</time>
      </trkpt>
      <trkpt lat="48.19479" lon="6.53583">
        <ele>351</ele>
        <time>2023-04-04T11:41:26.566Z</time>
      </trkpt>
      <trkpt lat="48.19477" lon="6.53568">
        <ele>351</ele>
        <time>2023-04-04T11:41:33.204Z</time>
      </trkpt>
      <trkpt lat="48.19474" lon="6.53526">
        <ele>351</ele>
        <time>2023-04-04T11:41:39.848Z</time>
      </trkpt>
      <trkpt lat="48.19474" lon="6.53522">
        <ele>352</ele>
        <time>2023-04-04T11:41:46.492Z</time>
      </trkpt>
      <trkpt lat="48.19468" lon="6.53525">
        <ele>352</ele>
        <time>2023-04-04T11:41:53.137Z</time>
      </trkpt>
      <trkpt lat="48.19466" lon="6.53529">
        <ele>352</ele>
        <time>2023-04-04T11:41:59.783Z</time>
      </trkpt>
      <trkpt lat="48.19464" lon="6.53535">
        <ele>352</ele>
        <time>2023-04-04T11:42:06.430Z</time>
      </trkpt>
      <trkpt lat="48.19462" lon="6.53538">
        <ele>353</ele>
        <time>2023-04-04T11:42:13.078Z</time>
      </trkpt>
      <trkpt lat="48.19447" lon="6.53544">
        <ele>353</ele>
        <time>2023-04-04T11:42:19.729Z</time>
      </trkpt>
      <trkpt lat="48.19435" lon="6.53561">
        <ele>354</ele>
        <time>2023-04-04T11:42:26.383Z</time>
      </trkpt>
      <trkpt lat="48.19429" lon="6.53577">
        <ele>354</ele>
        <time>2023-04-04T11:42:33.039Z</time>
      </trkpt>
      <trkpt lat="48.19427" lon="6.53581">
        <ele>355</ele>
        <time>2023-04-04T11:42:39.696Z</time>
      </trkpt>
      <trkpt lat="48.19416" lon="6.53598">
        <ele>355</ele>
        <time>2023-04-04T11:42:46.356Z</time>
      </trkpt>
      <trkpt lat="48.19395" lon="6.53616">
        <ele>356</ele>
        <time>2023-04-04T11:42:53.021Z</time>
      </trkpt>
      <trkpt lat="48.19383" lon="6.53613">
        <ele>357</ele>
        <time>2023-04-04T11:42:59.689Z</time>
      </trkpt>
      <trkpt lat="48.19372" lon="6.53619">
        <ele>357</ele>
        <time>2023-04-04T11:43:06.359Z</time>
      </trkpt>
      <trkpt lat="48.19361" lon="6.53612">
        <ele>358</ele>
        <time>2023-04-04T11:43:13.031Z</time>
      </trkpt>
      <trkpt lat="48.19349" lon="6.53612">
        <ele>359</ele>
        <time>2023-04-04T11:43:19.706Z</time>
      </trkpt>
      <trkpt lat="48.19329" lon="6.53599">
        <ele>359</ele>
        <time>2023-04-04T11:43:26.385Z</time>
      </trkpt>
      <trkpt lat="48.19315" lon="6.53593">
        <ele>360</ele>
        <time>2023-04-04T11:43:33.067Z</time>
      </trkpt>
      <trkpt lat="48.19306" lon="6.53593">
        <ele>361</ele>
        <time>2023-04-04T11:43:39.751Z</time>
      </trkpt>
      <trkpt lat="48.1929" lon="6.53589">
        <ele>361</ele>
        <time>2023-04-04T11:43:46.438Z</time>
      </trkpt>
      <trkpt lat="48.19275" lon="6.53586">
        <ele>362</ele>
        <time>2023-04-04T11:43:53.128Z</time>
      </trkpt>
      <trkpt lat="48.19258" lon="6.53584">
        <ele>363</ele>
        <time>2023-04-04T11:43:59.821Z</time>
      </trkpt>
      <trkpt lat="48.19237" lon="6.53572">
        <ele>363</ele>
        <time>2023-04-04T11:44:06.519Z</time>
      </trkpt>
      <trkpt lat="48.19217" lon="6.53563">
        <ele>364</ele>
        <time>2023-04-04T11:44:13.221Z</time>
      </trkpt>
      <trkpt lat="48.19193" lon="6.53552">
        <ele>365</ele>
        <time>2023-04-04T11:44:19.928Z</time>
      </trkpt>
      <trkpt lat="48.1918" lon="6.53549">
        <ele>365</ele>
        <time>2023-04-04T11:44:26.638Z</time>
      </trkpt>
      <trkpt lat="48.1916" lon="6.53538">
        <ele>366</ele>
        <time>2023-04-04T11:44:33.352Z</time>
      </trkpt>
      <trkpt lat="48.1914" lon="6.53526">
        <ele>367</ele>
        <time>2023-04-04T11:44:40.070Z</time>
      </trkpt>
      <trkpt lat="48.19128" lon="6.5352">
        <ele>367</ele>
        <time>2023-04-04T11:44:46.791Z</time>
      </trkpt>
      <trkpt lat="48.19111" lon="6.53516">
        <ele>368</ele>
        <time>2023-04-04T11:44:53.515Z</time>
      </trkpt>
      <trkpt lat="48.19089" lon="6.5352">
        <ele>368</ele>
        <time>2023-04-04T11:45:00.244Z</time>
      </trkpt>
      <trkpt lat="48.19082" lon="6.53521">
        <ele>369</ele>
        <time>2023-04-04T11:45:06.974Z</time>
      </trkpt>
      <trkpt lat="48.19076" lon="6.53526">
        <ele>370</ele>
        <time>2023-04-04T11:45:13.706Z</time>
      </trkpt>
      <trkpt lat="48.19064" lon="6.53537">
        <ele>370</ele>
        <time>2023-04-04T11:45:20.440Z</time>
      </trkpt>
      <trkpt lat="48.1906" lon="6.53541">
        <ele>371</ele>
        <time>2023-04-04T11:45:27.175Z</time>
      </trkpt>
      <trkpt lat="48.1905" lon="6.53547">
        <ele>371</ele>
        <time>2023-04-04T11:45:33.913Z</time>
      </trkpt>
      <trkpt lat="48.19042" lon="6.53552">
        <ele>372</ele>
        <time>2023-04-04T11:45:40.652Z</time>
      </trkpt>
      <trkpt lat="48.19034" lon="6.5355">
        <ele>372</ele>
        <time>2023-04-04T11:45:47.393Z</time>
      </trkpt>
      <trkpt lat="48.19018" lon="6.53559">
        <ele>372</ele>
        <time>2023-04-04T11:45:54.137Z</time>
      </trkpt>
      <trkpt lat="48.19003" lon="6.53559">
        <ele>373</ele>
        <time>2023-04-04T11:46:00.884Z</time>
      </trkpt>
      <trkpt lat="48.18998" lon="6.53558">
        <ele>373</ele>
        <time>2023-04-04T11:46:07.632Z</time>
      </trkpt>
      <trkpt lat="48.18981" lon="6.53561">
        <ele>374</ele>
        <time>2023-04-04T11:46:14.384Z</time>
      </trkpt>
      <trkpt lat="48.18977" lon="6.5356">
        <ele>374</ele>
        <time>2023-04-04T11:46:21.137Z</time>
      </trkpt>
      <trkpt lat="48.18972" lon="6.53561">
        <ele>375</ele>
        <time>2023-04-04T11:46:27.891Z</time>
      </trkpt>
      <trkpt lat="48.18969" lon="6.5356">
        <ele>375</ele>
        <time>2023-04-04T11:46:34.645Z</time>
      </trkpt>
      <trkpt lat="48.18953" lon="6.53553">
        <ele>375</ele>
        <time>2023-04-04T11:46:41.403Z</time>
      </trkpt>
      <trkpt lat="48.1894" lon="6.5354">
        <ele>376</ele>
        <time>2023-04-04T11:46:48.164Z</time>
      </trkpt>
      <trkpt lat="48.18923" lon="6.53523">
        <ele>376</ele>
        <time>2023-04-04T11:46:54.929Z</time>
      </trkpt>
      <trkpt lat="48.1892" lon="6.5352">
        <ele>377</ele>
        <time>2023-04-04T11:47:01.694Z</time>
      </trkpt>
      <trkpt lat="48.18915" lon="6.5352">
        <ele>377</ele>
        <time>2023-04-04T11:47:08.460Z</time>
      </trkpt>
      <trkpt lat="48.18902" lon="6.53521">
        <ele>377</ele>
        <time>2023-04-04T11:47:15.229Z</time>
      </trkpt>
      <trkpt lat="48.18888" lon="6.53518">
        <ele>378</ele>
        <time>2023-04-04T11:47:22.001Z</time>
      </trkpt>
      <trkpt lat="48.18883" lon="6.53517">
        <ele>378</ele>
        <time>2023-04-04T11:47:28.774Z</time>
      </trkpt>
      <trkpt lat="48.1887" lon="6.53514">
        <ele>379</ele>
        <time>2023-04-04T11:47:35.550Z</time>
      </trkpt>
      <trkpt lat="48.18868" lon="6.53515">
        <ele>379</ele>
        <time>2023-04-04T11:47:42.326Z</time>
      </trkpt>
      <trkpt lat="48.18857" lon="6.53513">
        <ele>379</ele>
        <time>2023-04-04T11:47:49.104Z</time>
      </trkpt>
      <trkpt lat="48.18846" lon="6.53512">
        <ele>380</ele>
        <time>2023-04-04T11:47:55.884Z</time>
      </trkpt>
      <trkpt lat="48.18824" lon="6.53503">
        <ele>380</ele>
        <time>2023-04-04T11:48:02.669Z</time>
      </trkpt>
      <trkpt lat="48.18806" lon="6.53494">
        <ele>380</ele>
        <time>2023-04-04T11:48:09.458Z</time>
      </trkpt>
      <trkpt lat="48.18774" lon="6.53481">
        <ele>381</ele>
        <time>2023-04-04T11:48:16.253Z</time>
      </trkpt>
      <trkpt lat="48.18748" lon="6.5348">
        <ele>381</ele>
        <time>2023-04-04T11:48:23.054Z</time>
      </trkpt>
      <trkpt lat="48.18726" lon="6.53477">
        <ele>381</ele>
        <time>2023-04-04T11:48:29.859Z</time>
      </trkpt>
      <trkpt lat="48.18712" lon="6.53464">
        <ele>381</ele>
        <time>2023-04-04T11:48:36.667Z</time>
      </trkpt>
      <trkpt lat="48.18689" lon="6.53464">
        <ele>382</ele>
        <time>2023-04-04T11:48:43.480Z</time>
      </trkpt>
      <trkpt lat="48.18687" lon="6.53465">
        <ele>382</ele>
        <time>2023-04-04T11:48:50.293Z</time>
      </trkpt>
      <trkpt lat="48.18678" lon="6.53472">
        <ele>382</ele>
        <time>2023-04-04T11:48:57.108Z</time>
      </trkpt>
      <trkpt lat="48.18661" lon="6.53472">
        <ele>382</ele>
        <time>2023-04-04T11:49:03.927Z</time>
      </trkpt>
      <trkpt lat="48.18648" lon="6.53465">
        <ele>383</ele>
        <time>2023-04-04T11:49:10.749Z</time>
      </trkpt>
      <trkpt lat="48.18644" lon="6.53462">
        <ele>383</ele>
        <time>2023-04-04T11:49:17.571Z</time>
      </trkpt>
      <trkpt lat="48.1864" lon="6.53459">
        <ele>383</ele>
        <time>2023-04-04T11:49:24.394Z</time>
      </trkpt>
      <trkpt lat="48.18629" lon="6.53445">
        <ele>383</ele>
        <time>2023-04-04T11:49:31.220Z</time>
      </trkpt>
      <trkpt lat="48.1862" lon="6.53441">
        <ele>384</ele>
        <time>2023-04-04T11:49:38.048Z</time>
      </trkpt>
      <trkpt lat="48.18601" lon="6.5342">
        <ele>384</ele>
        <time>2023-04-04T11:49:44.881Z</time>
      </trkpt>
      <trkpt lat="48.18595" lon="6.53417">
        <ele>384</ele>
        <time>2023-04-04T11:49:51.715Z</time>
      </trkpt>
      <trkpt lat="48.18588" lon="6.53418">
        <ele>384</ele>
        <time>2023-04-04T11:49:58.550Z</time>
      </trkpt>
      <trkpt lat="48.18572" lon="6.5342">
        <ele>384</ele>
        <time>2023-04-04T11:50:05.389Z</time>
      </trkpt>
      <trkpt lat="48.18554" lon="6.53417">
        <ele>384</ele>
        <time>2023-04-04T11:50:12.231Z</time>
      </trkpt>
      <trkpt lat="48.1855" lon="6.53418">
        <ele>384</ele>
        <time>2023-04-04T11:50:19.074Z</time>
      </trkpt>
      <trkpt lat="48.18534" lon="6.53424">
        <ele>385</ele>
        <time>2023-04-04T11:50:25.920Z</time>
      </trkpt>
      <trkpt lat="48.18522" lon="6.53435">
        <ele>385</ele>
        <time>2023-04-04T11:50:32.769Z</time>
      </trkpt>
      <trkpt lat="48.18511" lon="6.5344">
        <ele>385</ele>
        <time>2023-04-04T11:50:39.621Z</time>
      </trkpt>
      <trkpt lat="48.18497" lon="6.53439">
        <ele>385</ele>
        <time>2023-04-04T11:50:46.475Z</time>
      </trkpt>
      <trkpt lat="48.18473" lon="6.53438">
        <ele>385</ele>
        <time>2023-04-04T11:50:53.334Z</time>
      </trkpt>
      <trkpt lat="48.1846" lon="6.53436">
        <ele>385</ele>
        <time>2023-04-04T11:51:00.196Z</time>
      </trkpt>
      <trkpt lat="48.18449" lon="6.53434">
        <ele>385</ele>
        <time>2023-04-04T11:51:07.060Z</time>
      </trkpt>
      <trkpt lat="48.18436" lon="6.53429">
        <ele>385</ele>
        <time>2023-04-04T11:51:13.927Z</time>
      </trkpt>
      <trkpt lat="48.18427" lon="6.53431">
        <ele>386</ele>
        <time>2023-04-04T11:51:20.796Z</time>
      </trkpt>
      <trkpt lat="48.18406" lon="6.53431">
        <ele>386</ele>
        <time>2023-04-04T11:51:27.669Z</time>
      </trkpt>
      <trkpt lat="48.18388" lon="6.5342">
        <ele>386</ele>
        <time>2023-04-04T11:51:34.546Z</time>
      </trkpt>
      <trkpt lat="48.18362" lon="6.53414">
        <ele>386</ele>
        <time>2023-04-04T11:51:41.428Z</time>
      </trkpt>
      <trkpt lat="48.18354" lon="6.53418">
        <ele>386</ele>
        <time>2023-04-04T11:51:48.312Z</time>
      </trkpt>
      <trkpt lat="48.18339" lon="6.53442">
        <ele>387</ele>
        <time>2023-04-04T11:51:55.200Z</time>
      </trkpt>
      <trkpt lat="48.18335" lon="6.53444">
        <ele>387</ele>
        <time>2023-04-04T11:52:02.089Z</time>
      </trkpt>
      <trkpt lat="48.18325" lon="6.53444">
        <ele>387</ele>
        <time>2023-04-04T11:52:08.980Z</time>
      </trkpt>
      <trkpt lat="48.1831" lon="6.5345">
        <ele>388</ele>
        <time>2023-04-04T11:52:15.874Z</time>
      </trkpt>
      <trkpt lat="48.18303" lon="6.53448">
        <ele>388</ele>
        <time>2023-04-04T11:52:22.769Z</time>
      </trkpt>
      <trkpt lat="48.18291" lon="6.53448">
        <ele>388</ele>
        <time>2023-04-04T11:52:29.667Z</time>
      </trkpt>
      <trkpt lat="48.18288" lon="6.53448">
        <ele>388</ele>
        <time>2023-04-04T11:52:36.565Z</time>
      </trkpt>
      <trkpt lat="48.18282" lon="6.53448">
        <ele>389</ele>
        <time>2023-04-04T11:52:43.465Z</time>
      </trkpt>
      <trkpt lat="48.18277" lon="6.53448">
        <ele>389</ele>
        <time>2023-04-04T11:52:50.366Z</time>
      </trkpt>
      <trkpt lat="48.18255" lon="6.53445">
        <ele>389</ele>
        <time>2023-04-04T11:52:57.271Z</time>
      </trkpt>
      <trkpt lat="48.18233" lon="6.5344">
        <ele>389</ele>
        <time>2023-04-04T11:53:04.180Z</time>
      </trkpt>
      <trkpt lat="48.18227" lon="6.53438">
        <ele>390</ele>
        <time>2023-04-04T11:53:11.091Z</time>
      </trkpt>
      <trkpt lat="48.18219" lon="6.53436">
        <ele>390</ele>
        <time>2023-04-04T11:53:18.003Z</time>
      </trkpt>
      <trkpt lat="48.1821" lon="6.53434">
        <ele>390</ele>
        <time>2023-04-04T11:53:24.917Z</time>
      </trkpt>
      <trkpt lat="48.18202" lon="6.53433">
        <ele>390</ele>
        <time>2023-04-04T11:53:31.833Z</time>
      </trkpt>
      <trkpt lat="48.18183" lon="6.53436">
        <ele>391</ele>
        <time>2023-04-04T11:53:38.753Z</time>
      </trkpt>
      <trkpt lat="48.18166" lon="6.53464">
        <ele>391</ele>
        <time>2023-04-04T11:53:45.678Z</time>
      </trkpt>
      <trkpt lat="48.18148" lon="6.53476">
        <ele>391</ele>
        <time>2023-04-04T11:53:52.607Z</time>
      </trkpt>
      <trkpt lat="48.18133" lon="6.53477">
        <ele>391</ele>
        <time>2023-04-04T11:53:59.539Z</time>
      </trkpt>
      <trkpt lat="48.18131" lon="6.53484">
        <ele>391</ele>
        <time>2023-04-04T11:54:06.472Z</time>
      </trkpt>
      <trkpt lat="48.18132" lon="6.53491">
        <ele>392</ele>
        <time>2023-04-04T11:54:13.406Z</time>
      </trkpt>
      <trkpt lat="48.18135" lon="6.53498">
        <ele>392</ele>
        <time>2023-04-04T11:54:20.341Z</time>
      </trkpt>
      <trkpt lat="48.18136" lon="6.535">
        <ele>392</ele>
        <time>2023-04-04T11:54:27.276Z</time>
      </trkpt>
      <trkpt lat="48.18139" lon="6.53504">
        <ele>392</ele>
        <time>2023-04-04T11:54:34.212Z</time>
      </trkpt>
      <trkpt lat="48.18144" lon="6.5351">
        <ele>393</ele>
        <time>2023-04-04T11:54:41.149Z</time>
      </trkpt>
      <trkpt lat="48.18147" lon="6.53514">
        <ele>393</ele>
        <time>2023-04-04T11:54:48.087Z</time>
      </trkpt>
      <trkpt lat="48.1815" lon="6.5352">
        <ele>393</ele>
        <time>2023-04-04T11:54:55.026Z</time>
      </trkpt>
      <trkpt lat="48.18149" lon="6.53522">
        <ele>394</ele>
        <time>2023-04-04T11:55:01.965Z</time>
      </trkpt>
      <trkpt lat="48.18144" lon="6.53535">
        <ele>394</ele>
        <time>2023-04-04T11:55:08.906Z</time>
      </trkpt>
      <trkpt lat="48.18138" lon="6.5354">
        <ele>395</ele>
        <time>2023-04-04T11:55:15.849Z</time>
      </trkpt>
      <trkpt lat="48.18137" lon="6.53542">
        <ele>395</ele>
        <time>2023-04-04T11:55:22.792Z</time>
      </trkpt>
      <trkpt lat="48.18132" lon="6.53544">
        <ele>395</ele>
        <time>2023-04-04T11:55:29.736Z</time>
      </trkpt>
      <trkpt lat="48.1813" lon="6.53546">
        <ele>396</ele>
        <time>2023-04-04T11:55:36.680Z</time>
      </trkpt>
      <trkpt lat="48.18128" lon="6.53548">
        <ele>396</ele>
        <time>2023-04-04T11:55:43.625Z</time>
      </trkpt>
      <trkpt lat="48.18123" lon="6.53553">
        <ele>397</ele>
        <time>2023-04-04T11:55:50.571Z</time>
      </trkpt>
      <trkpt lat="48.1812" lon="6.53556">
        <ele>397</ele>
        <time>2023-04-04T11:55:57.518Z</time>
      </trkpt>
      <trkpt lat="48.18117" lon="6.53561">
        <ele>398</ele>
        <time>2023-04-04T11:56:04.466Z</time>
      </trkpt>
      <trkpt lat="48.18116" lon="6.53564">
        <ele>398</ele>
        <time>2023-04-04T11:56:11.414Z</time>
      </trkpt>
      <trkpt lat="48.18114" lon="6.53568">
        <ele>399</ele>
        <time>2023-04-04T11:56:18.363Z</time>
      </trkpt>
      <trkpt lat="48.18113" lon="6.53574">
        <ele>399</ele>
        <time>2023-04-04T11:56:25.313Z</time>
      </trkpt>
      <trkpt lat="48.18111" lon="6.53578">
        <ele>400</ele>
        <time>2023-04-04T11:56:32.263Z</time>
      </trkpt>
      <trkpt lat="48.18105" lon="6.53585">
        <ele>400</ele>
        <time>2023-04-04T11:56:39.215Z</time>
      </trkpt>
      <trkpt lat="48.181" lon="6.53596">
        <ele>401</ele>
        <time>2023-04-04T11:56:46.169Z</time>
      </trkpt>
      <trkpt lat="48.18099" lon="6.53606">
        <ele>401</ele>
        <time>2023-04-04T11:56:53.124Z</time>
      </trkpt>
      <trkpt lat="48.18098" lon="6.53607">
        <ele>402</ele>
        <time>2023-04-04T11:57:00.079Z</time>
      </trkpt>
      <trkpt lat="48.18093" lon="6.53612">
        <ele>402</ele>
        <time>2023-04-04T11:57:07.035Z</time>
      </trkpt>
      <trkpt lat="48.1809" lon="6.53616">
        <ele>403</ele>
        <time>2023-04-04T11:57:13.992Z</time>
      </trkpt>
      <trkpt lat="48.18081" lon="6.53633">
        <ele>403</ele>
        <time>2023-04-04T11:57:20.952Z</time>
      </trkpt>
      <trkpt lat="48.1808" lon="6.53635">
        <ele>404</ele>
        <time>2023-04-04T11:57:27.912Z</time>
      </trkpt>
      <trkpt lat="48.18078" lon="6.53638">
        <ele>404</ele>
        <time>2023-04-04T11:57:34.873Z</time>
      </trkpt>
      <trkpt lat="48.18076" lon="6.53643">
        <ele>405</ele>
        <time>2023-04-04T11:57:41.835Z</time>
      </trkpt>
      <trkpt lat="48.18076" lon="6.53645">
        <ele>405</ele>
        <time>2023-04-04T11:57:48.797Z</time>
      </trkpt>
      <trkpt lat="48.18069" lon="6.5366">
        <ele>406</ele>
        <time>2023-04-04T11:57:55.762Z</time>
      </trkpt>
      <trkpt lat="48.18068" lon="6.53666">
        <ele>406</ele>
        <time>2023-04-04T11:58:02.727Z</time>
      </trkpt>
      <trkpt lat="48.18068" lon="6.5367">
        <ele>407</ele>
        <time>2023-04-04T11:58:09.693Z</time>
      </trkpt>
      <trkpt lat="48.18068" lon="6.53675">
        <ele>407</ele>
        <time>2023-04-04T11:58:16.660Z</time>
      </trkpt>
      <trkpt lat="48.18068" lon="6.53677">
        <ele>408</ele>
        <time>2023-04-04T11:58:23.627Z</time>
      </trkpt>
      <trkpt lat="48.18067" lon="6.53681">
        <ele>408</ele>
        <time>2023-04-04T11:58:30.594Z</time>
      </trkpt>
      <trkpt lat="48.18065" lon="6.53686">
        <ele>408</ele>
        <time>2023-04-04T11:58:37.562Z</time>
      </trkpt>
      <trkpt lat="48.18059" lon="6.537">
        <ele>409</ele>
        <time>2023-04-04T11:58:44.532Z</time>
      </trkpt>
      <trkpt lat="48.18059" lon="6.53702">
        <ele>409</ele>
        <time>2023-04-04T11:58:51.503Z</time>
      </trkpt>
      <trkpt lat="48.18059" lon="6.53707">
        <ele>410</ele>
        <time>2023-04-04T11:58:58.474Z</time>
      </trkpt>
      <trkpt lat="48.18057" lon="6.53711">
        <ele>410</ele>
        <time>2023-04-04T11:59:05.446Z</time>
      </trkpt>
      <trkpt lat="48.18058" lon="6.53718">
        <ele>411</ele>
        <time>2023-04-04T11:59:12.419Z</time>
      </trkpt>
      <trkpt lat="48.18056" lon="6.53722">
        <ele>411</ele>
        <time>2023-04-04T11:59:19.393Z</time>
      </trkpt>
      <trkpt lat="48.18054" lon="6.5373">
        <ele>411</ele>
        <time>2023-04-04T11:59:26.368Z</time>
      </trkpt>
      <trkpt lat="48.18052" lon="6.53738">
        <ele>412</ele>
        <time>2023-04-04T11:59:33.344Z</time>
      </trkpt>
      <trkpt lat="48.18053" lon="6.53744">
        <ele>412</ele>
        <time>2023-04-04T11:59:40.321Z</time>
      </trkpt>
      <trkpt lat="48.18049" lon="6.53749">
        <ele>412</ele>
        <time>2023-04-04T11:59:47.299Z</time>
      </trkpt>
      <trkpt lat="48.18048" lon="6.53755">
        <ele>413</ele>
        <time>2023-04-04T11:59:54.278Z</time>
      </trkpt>
      <trkpt lat="48.18049" lon="6.53758">
        <ele>413</ele>
        <time>2023-04-04T12:00:01.257Z</time>
      </trkpt>
      <trkpt lat="48.18051" lon="6.53771">
        <ele>413</ele>
        <time>2023-04-04T12:00:08.238Z</time>
      </trkpt>
      <trkpt lat="48.18051" lon="6.53778">
        <ele>413</ele>
        <time>2023-04-04T12:00:15.220Z</time>
      </trkpt>
      <trkpt lat="48.18049" lon="6.53784">
        <ele>414</ele>
        <time>2023-04-04T12:00:22.203Z</time>
      </trkpt>
      <trkpt lat="48.18049" lon="6.53786">
        <ele>414</ele>
        <time>2023-04-04T12:00:29.186Z</time>
      </trkpt>
      <trkpt lat="48.18048" lon="6.53788">
        <ele>414</ele>
        <time>2023-04-04T12:00:36.169Z</time>
      </trkpt>
      <trkpt lat="48.18048" lon="6.53792">
        <ele>415</ele>
        <time>2023-04-04T12:00:43.153Z</time>
      </trkpt>
      <trkpt lat="48.18048" lon="6.53796">
        <ele>415</ele>
        <time>2023-04-04T12:00:50.137Z</time>
      </trkpt>
      <trkpt lat="48.18047" lon="6.538">
        <ele>415</ele>
        <time>2023-04-04T12:00:57.122Z</time>
      </trkpt>
      <trkpt lat="48.18046" lon="6.53804">
        <ele>415</ele>
        <time>2023-04-04T12:01:04.108Z</time>
      </trkpt>
      <trkpt lat="48.18046" lon="6.53806">
        <ele>416</ele>
        <time>2023-04-04T12:01:11.094Z</time>
      </trkpt>
      <trkpt lat="48.18046" lon="6.53807">
        <ele>416</ele>
        <time>2023-04-04T12:01:18.080Z</time>
      </trkpt>
      <trkpt lat="48.18045" lon="6.53811">
        <ele>416</ele>
        <time>2023-04-04T12:01:25.067Z</time>
      </trkpt>
      <trkpt lat="48.18044" lon="6.53815">
        <ele>416</ele>
        <time>2023-04-04T12:01:32.054Z</time>
      </trkpt>
      <trkpt lat="48.18044" lon="6.53816">
        <ele>417</ele>
        <time>2023-04-04T12:01:39.041Z</time>
      </trkpt>
      <trkpt lat="48.18044" lon="6.53821">
        <ele>417</ele>
        <time>2023-04-04T12:01:46.029Z</time>
      </trkpt>
      <trkpt lat="48.18044" lon="6.53826">
        <ele>417</ele>
        <time>2023-04-04T12:01:53.018Z</time>
      </trkpt>
      <trkpt lat="48.18046" lon="6.53836">
        <ele>417</ele>
        <time>2023-04-04T12:02:00.008Z</time>
      </trkpt>
      <trkpt lat="48.18045" lon="6.53838">
        <ele>418</ele>
        <time>2023-04-04T12:02:06.998Z</time>
      </trkpt>
      <trkpt lat="48.18045" lon="6.53844">
        <ele>418</ele>
        <time>2023-04-04T12:02:13.989Z</time>
      </trkpt>
      <trkpt lat="48.18045" lon="6.53847">
        <ele>418</ele>
        <time>2023-04-04T12:02:20.980Z</time>
      </trkpt>
      <trkpt lat="48.18042" lon="6.53853">
        <ele>418</ele>
        <time>2023-04-04T12:02:27.972Z</time>
      </trkpt>
      <trkpt lat="48.18042" lon="6.5386">
        <ele>419</ele>
        <time>2023-04-04T12:02:34.965Z</time>
      </trkpt>
      <trkpt lat="48.18042" lon="6.53867">
        <ele>419</ele>
        <time>2023-04-04T12:02:41.959Z</time>
      </trkpt>
      <trkpt lat="48.18042" lon="6.53873">
        <ele>419</ele>
        <time>2023-04-04T12:02:48.954Z</time>
      </trkpt>
      <trkpt lat="48.18042" lon="6.53875">
        <ele>419</ele>
        <time>2023-04-04T12:02:55.949Z</time>
      </trkpt>
      <trkpt lat="48.18043" lon="6.53878">
        <ele>419</ele>
        <time>2023-04-04T12:03:02.945Z</time>
      </trkpt>
      <trkpt lat="48.18041" lon="6.53882">
        <ele>420</ele>
        <time>2023-04-04T12:03:09.942Z</time>
      </trkpt>
      <trkpt lat="48.18038" lon="6.53887">
        <ele>420</ele>
        <time>2023-04-04T12:03:16.939Z</time>
      </trkpt>
      <trkpt lat="48.18037" lon="6.53892">
        <ele>420</ele>
        <time>2023-04-04T12:03:23.937Z</time>
      </trkpt>
      <trkpt lat="48.18039" lon="6.53901">
        <ele>420</ele>
        <time>2023-04-04T12:03:30.936Z</time>
      </trkpt>
      <trkpt lat="48.18038" lon="6.53911">
        <ele>420</ele>
        <time>2023-04-04T12:03:37.937Z</time>
      </trkpt>
      <trkpt lat="48.18039" lon="6.53915">
        <ele>421</ele>
        <time>2023-04-04T12:03:44.938Z</time>
      </trkpt>
      <trkpt lat="48.1804" lon="6.53923">
        <ele>421</ele>
        <time>2023-04-04T12:03:51.940Z</time>
      </trkpt>
      <trkpt lat="48.1804" lon="6.53926">
        <ele>421</ele>
        <time>2023-04-04T12:03:58.943Z</time>
      </trkpt>
      <trkpt lat="48.18036" lon="6.53934">
        <ele>421</ele>
        <time>2023-04-04T12:04:05.947Z</time>
      </trkpt>
      <trkpt lat="48.18036" lon="6.53936">
        <ele>421</ele>
        <time>2023-04-04T12:04:12.951Z</time>
      </trkpt>
      <trkpt lat="48.18037" lon="6.53946">
        <ele>421</ele>
        <time>2023-04-04T12:04:19.957Z</time>
      </trkpt>
      <trkpt lat="48.18036" lon="6.53948">
        <ele>421</ele>
        <time>2023-04-04T12:04:26.963Z</time>
      </trkpt>
      <trkpt lat="48.18037" lon="6.53959">
        <ele>422</ele>
        <time>2023-04-04T12:04:33.971Z</time>
      </trkpt>
      <trkpt lat="48.18038" lon="6.53961">
        <ele>422</ele>
        <time>2023-04-04T12:04:40.979Z</time>
      </trkpt>
      <trkpt lat="48.18036" lon="6.53972">
        <ele>422</ele>
        <time>2023-04-04T12:04:47.988Z</time>
      </trkpt>
      <trkpt lat="48.18034" lon="6.53976">
        <ele>422</ele>
        <time>2023-04-04T12:04:54.998Z</time>
      </trkpt>
      <trkpt lat="48.18033" lon="6.53989">
        <ele>422</ele>
        <time>2023-04-04T12:05:02.010Z</time>
      </trkpt>
      <trkpt lat="48.18032" lon="6.53996">
        <ele>422</ele>
        <time>2023-04-04T12:05:09.023Z</time>
      </trkpt>
      <trkpt lat="48.1803" lon="6.54001">
        <ele>422</ele>
        <time>2023-04-04T12:05:16.037Z</time>
      </trkpt>
      <trkpt lat="48.18029" lon="6.54014">
        <ele>422</ele>
        <time>2023-04-04T12:05:23.052Z</time>
      </trkpt>
      <trkpt lat="48.18031" lon="6.54026">
        <ele>422</ele>
        <time>2023-04-04T12:05:30.069Z</time>
      </trkpt>
      <trkpt lat="48.18031" lon="6.5403">
        <ele>422</ele>
        <time>2023-04-04T12:05:37.087Z</time>
      </trkpt>
      <trkpt lat="48.1803" lon="6.54032">
        <ele>423</ele>
        <time>2023-04-04T12:05:44.105Z</time>
      </trkpt>
      <trkpt lat="48.18029" lon="6.54038">
        <ele>423</ele>
        <time>2023-04-04T12:05:51.124Z</time>
      </trkpt>
      <trkpt lat="48.18032" lon="6.54044">
        <ele>423</ele>
        <time>2023-04-04T12:05:58.144Z</time>
      </trkpt>
      <trkpt lat="48.18033" lon="6.54049">
        <ele>423</ele>
        <time>2023-04-04T12:06:05.164Z</time>
      </trkpt>
      <trkpt lat="48.1803" lon="6.54061">
        <ele>423</ele>
        <time>2023-04-04T12:06:12.186Z</time>
      </trkpt>
      <trkpt lat="48.18024" lon="6.54083">
        <ele>423</ele>
        <time>2023-04-04T12:06:19.211Z</time>
      </trkpt>
      <trkpt lat="48.18021" lon="6.54088">
        <ele>423</ele>
        <time>2023-04-04T12:06:26.237Z</time>
      </trkpt>
      <trkpt lat="48.1802" lon="6.54102">
        <ele>423</ele>
        <time>2023-04-04T12:06:33.265Z</time>
      </trkpt>
      <trkpt lat="48.18021" lon="6.54111">
        <ele>423</ele>
        <time>2023-04-04T12:06:40.294Z</time>
      </trkpt>
      <trkpt lat="48.18022" lon="6.54116">
        <ele>423</ele>
        <time>2023-04-04T12:06:47.324Z</time>
      </trkpt>
      <trkpt lat="48.18019" lon="6.54132">
        <ele>423</ele>
        <time>2023-04-04T12:06:54.356Z</time>
      </trkpt>
      <trkpt lat="48.18019" lon="6.54139">
        <ele>424</ele>
        <time>2023-04-04T12:07:01.389Z</time>
      </trkpt>
      <trkpt lat="48.18018" lon="6.54146">
        <ele>424</ele>
        <time>2023-04-04T12:07:08.423Z</time>
      </trkpt>
      <trkpt lat="48.18017" lon="6.54161">
        <ele>424</ele>
        <time>2023-04-04T12:07:15.459Z</time>
      </trkpt>
      <trkpt lat="48.18016" lon="6.54166">
        <ele>424</ele>
        <time>2023-04-04T12:07:22.496Z</time>
      </trkpt>
      <trkpt lat="48.18013" lon="6.54186">
        <ele>424</ele>
        <time>2023-04-04T12:07:29.536Z</time>
      </trkpt>
      <trkpt lat="48.18012" lon="6.54198">
        <ele>424</ele>
        <time>2023-04-04T12:07:36.577Z</time>
      </trkpt>
      <trkpt lat="48.18008" lon="6.54222">
        <ele>424</ele>
        <time>2023-04-04T12:07:43.622Z</time>
      </trkpt>
      <trkpt lat="48.18011" lon="6.54248">
        <ele>425</ele>
        <time>2023-04-04T12:07:50.670Z</time>
      </trkpt>
      <trkpt lat="48.1801" lon="6.54286">
        <ele>425</ele>
        <time>2023-04-04T12:07:57.723Z</time>
      </trkpt>
      <trkpt lat="48.18009" lon="6.54309">
        <ele>425</ele>
        <time>2023-04-04T12:08:04.779Z</time>
      </trkpt>
      <trkpt lat="48.18007" lon="6.54323">
        <ele>425</ele>
        <time>2023-04-04T12:08:11.837Z</time>
      </trkpt>
      <trkpt lat="48.18004" lon="6.54336">
        <ele>426</ele>
        <time>2023-04-04T12:08:18.897Z</time>
      </trkpt>
      <trkpt lat="48.18" lon="6.54348">
        <ele>426</ele>
        <time>2023-04-04T12:08:25.959Z</time>
      </trkpt>
      <trkpt lat="48.17998" lon="6.54355">
        <ele>426</ele>
        <time>2023-04-04T12:08:33.022Z</time>
      </trkpt>
      <trkpt lat="48.17997" lon="6.54384">
        <ele>426</ele>
        <time>2023-04-04T12:08:40.089Z</time>
      </trkpt>
      <trkpt lat="48.17999" lon="6.54396">
        <ele>427</ele>
        <time>2023-04-04T12:08:47.157Z</time>
      </trkpt>
      <trkpt lat="48.17996" lon="6.54423">
        <ele>427</ele>
        <time>2023-04-04T12:08:54.229Z</time>
      </trkpt>
      <trkpt lat="48.17995" lon="6.5443">
        <ele>427</ele>
        <time>2023-04-04T12:09:01.302Z</time>
      </trkpt>
      <trkpt lat="48.17992" lon="6.54451">
        <ele>428</ele>
        <time>2023-04-04T12:09:08.378Z</time>
      </trkpt>
      <trkpt lat="48.17987" lon="6.54461">
        <ele>428</ele>
        <time>2023-04-04T12:09:15.456Z</time>
      </trkpt>
      <trkpt lat="48.17984" lon="6.54462">
        <ele>428</ele>
        <time>2023-04-04T12:09:22.534Z</time>
      </trkpt>
      <trkpt lat="48.17972" lon="6.54465">
        <ele>429</ele>
        <time>2023-04-04T12:09:29.615Z</time>
      </trkpt>
      <trkpt lat="48.17969" lon="6.54466">
        <ele>429</ele>
        <time>2023-04-04T12:09:36.696Z</time>
      </trkpt>
      <trkpt lat="48.17972" lon="6.54464">
        <ele>429</ele>
        <time>2023-04-04T12:09:43.778Z</time>
      </trkpt>
      <trkpt lat="48.17972" lon="6.54463">
        <ele>429</ele>
        <time>2023-04-04T12:09:50.860Z</time>
      </trkpt>
      <trkpt lat="48.17984" lon="6.5446">
        <ele>430</ele>
        <time>2023-04-04T12:09:57.944Z</time>
      </trkpt>
      <trkpt lat="48.17979" lon="6.54463">
        <ele>430</ele>
        <time>2023-04-04T12:10:05.030Z</time>
      </trkpt>
      <trkpt lat="48.17974" lon="6.54464">
        <ele>430</ele>
        <time>2023-04-04T12:10:12.117Z</time>
      </trkpt>
      <trkpt lat="48.17968" lon="6.54466">
        <ele>430</ele>
        <time>2023-04-04T12:10:19.205Z</time>
      </trkpt>
      <trkpt lat="48.17964" lon="6.54466">
        <ele>430</ele>
        <time>2023-04-04T12:10:26.294Z</time>
      </trkpt>
      <trkpt lat="48.17961" lon="6.54467">
        <ele>431</ele>
        <time>2023-04-04T12:10:33.383Z</time>
      </trkpt>
      <trkpt lat="48.17948" lon="6.54469">
        <ele>431</ele>
        <time>2023-04-04T12:10:40.475Z</time>
      </trkpt>
      <trkpt lat="48.1793" lon="6.54473">
        <ele>431</ele>
        <time>2023-04-04T12:10:47.570Z</time>
      </trkpt>
      <trkpt lat="48.17909" lon="6.54479">
        <ele>431</ele>
        <time>2023-04-04T12:10:54.670Z</time>
      </trkpt>
      <trkpt lat="48.17889" lon="6.54488">
        <ele>431</ele>
        <time>2023-04-04T12:11:01.774Z</time>
      </trkpt>
      <trkpt lat="48.17878" lon="6.5449">
        <ele>431</ele>
        <time>2023-04-04T12:11:08.880Z</time>
      </trkpt>
      <trkpt lat="48.17868" lon="6.54496">
        <ele>431</ele>
        <time>2023-04-04T12:11:15.988Z</time>
      </trkpt>
      <trkpt lat="48.17864" lon="6.545">
        <ele>431</ele>
        <time>2023-04-04T12:11:23.097Z</time>
      </trkpt>
      <trkpt lat="48.17851" lon="6.54516">
        <ele>431</ele>
        <time>2023-04-04T12:11:30.210Z</time>
      </trkpt>
      <trkpt lat="48.17848" lon="6.54523">
        <ele>431</ele>
        <time>2023-04-04T12:11:37.324Z</time>
      </trkpt>
      <trkpt lat="48.17846" lon="6.5453">
        <ele>431</ele>
        <time>2023-04-04T12:11:44.439Z</time>
      </trkpt>
      <trkpt lat="48.17845" lon="6.54546">
        <ele>431</ele>
        <time>2023-04-04T12:11:51.556Z</time>
      </trkpt>
      <trkpt lat="48.17845" lon="6.54554">
        <ele>431</ele>
        <time>2023-04-04T12:11:58.674Z</time>
      </trkpt>
      <trkpt lat="48.17838" lon="6.54605">
        <ele>431</ele>
        <time>2023-04-04T12:12:05.799Z</time>
      </trkpt>
      <trkpt lat="48.17837" lon="6.54613">
        <ele>431</ele>
        <time>2023-04-04T12:12:12.925Z</time>
      </trkpt>
      <trkpt lat="48.17835" lon="6.54624">
        <ele>431</ele>
        <time>2023-04-04T12:12:20.053Z</time>
      </trkpt>
      <trkpt lat="48.1783" lon="6.54648">
        <ele>431</ele>
        <time>2023-04-04T12:12:27.184Z</time>
      </trkpt>
      <trkpt lat="48.17819" lon="6.54687">
        <ele>431</ele>
        <time>2023-04-04T12:12:34.321Z</time>
      </trkpt>
      <trkpt lat="48.17812" lon="6.54701">
        <ele>431</ele>
        <time>2023-04-04T12:12:41.460Z</time>
      </trkpt>
      <trkpt lat="48.17801" lon="6.54718">
        <ele>431</ele>
        <time>2023-04-04T12:12:48.602Z</time>
      </trkpt>
      <trkpt lat="48.17783" lon="6.54742">
        <ele>432</ele>
        <time>2023-04-04T12:12:55.749Z</time>
      </trkpt>
      <trkpt lat="48.1778" lon="6.54747">
        <ele>432</ele>
        <time>2023-04-04T12:13:02.897Z</time>
      </trkpt>
      <trkpt lat="48.17761" lon="6.54768">
        <ele>432</ele>
        <time>2023-04-04T12:13:10.050Z</time>
      </trkpt>
      <trkpt lat="48.17753" lon="6.54774">
        <ele>432</ele>
        <time>2023-04-04T12:13:17.204Z</time>
      </trkpt>
      <trkpt lat="48.17746" lon="6.54781">
        <ele>432</ele>
        <time>2023-04-04T12:13:24.360Z</time>
      </trkpt>
      <trkpt lat="48.17743" lon="6.54786">
        <ele>433</ele>
        <time>2023-04-04T12:13:31.517Z</time>
      </trkpt>
      <trkpt lat="48.17733" lon="6.54797">
        <ele>433</ele>
        <time>2023-04-04T12:13:38.676Z</time>
      </trkpt>
      <trkpt lat="48.17725" lon="6.54803">
        <ele>433</ele>
        <time>2023-04-04T12:13:45.837Z</time>
      </trkpt>
      <trkpt lat="48.17714" lon="6.54812">
        <ele>434</ele>
        <time>2023-04-04T12:13:53.001Z</time>
      </trkpt>
      <trkpt lat="48.17702" lon="6.54826">
        <ele>434</ele>
        <time>2023-04-04T12:14:00.168Z</time>
      </trkpt>
      <trkpt lat="48.17683" lon="6.54845">
        <ele>435</ele>
        <time>2023-04-04T12:14:07.339Z</time>
      </trkpt>
      <trkpt lat="48.17673" lon="6.54859">
        <ele>436</ele>
        <time>2023-04-04T12:14:14.513Z</time>
      </trkpt>
      <trkpt lat="48.17662" lon="6.54868">
        <ele>436</ele>
        <time>2023-04-04T12:14:21.690Z</time>
      </trkpt>
      <trkpt lat="48.17654" lon="6.54873">
        <ele>436</ele>
        <time>2023-04-04T12:14:28.868Z</time>
      </trkpt>
      <trkpt lat="48.17647" lon="6.54881">
        <ele>437</ele>
        <time>2023-04-04T12:14:36.048Z</time>
      </trkpt>
      <trkpt lat="48.17642" lon="6.54884">
        <ele>437</ele>
        <time>2023-04-04T12:14:43.229Z</time>
      </trkpt>
      <trkpt lat="48.17634" lon="6.5489">
        <ele>438</ele>
        <time>2023-04-04T12:14:50.412Z</time>
      </trkpt>
      <trkpt lat="48.17631" lon="6.54893">
        <ele>438</ele>
        <time>2023-04-04T12:14:57.596Z</time>
      </trkpt>
      <trkpt lat="48.17612" lon="6.54909">
        <ele>439</ele>
        <time>2023-04-04T12:15:04.784Z</time>
      </trkpt>
      <trkpt lat="48.17598" lon="6.54921">
        <ele>439</ele>
        <time>2023-04-04T12:15:11.975Z</time>
      </trkpt>
      <trkpt lat="48.17584" lon="6.54933">
        <ele>440</ele>
        <time>2023-04-04T12:15:19.169Z</time>
      </trkpt>
      <trkpt lat="48.17576" lon="6.54939">
        <ele>440</ele>
        <time>2023-04-04T12:15:26.365Z</time>
      </trkpt>
      <trkpt lat="48.17569" lon="6.54945">
        <ele>441</ele>
        <time>2023-04-04T12:15:33.563Z</time>
      </trkpt>
      <trkpt lat="48.17563" lon="6.54955">
        <ele>441</ele>
        <time>2023-04-04T12:15:40.763Z</time>
      </trkpt>
      <trkpt lat="48.17555" lon="6.54966">
        <ele>442</ele>
        <time>2023-04-04T12:15:47.965Z</time>
      </trkpt>
      <trkpt lat="48.1755" lon="6.54977">
        <ele>442</ele>
        <time>2023-04-04T12:15:55.169Z</time>
      </trkpt>
      <trkpt lat="48.17547" lon="6.5498">
        <ele>443</ele>
        <time>2023-04-04T12:16:02.373Z</time>
      </trkpt>
      <trkpt lat="48.17534" lon="6.54989">
        <ele>443</ele>
        <time>2023-04-04T12:16:09.580Z</time>
      </trkpt>
      <trkpt lat="48.17528" lon="6.54997">
        <ele>443</ele>
        <time>2023-04-04T12:16:16.789Z</time>
      </trkpt>
      <trkpt lat="48.17521" lon="6.55009">
        <ele>444</ele>
        <time>2023-04-04T12:16:24.000Z</time>
      </trkpt>
      <trkpt lat="48.17509" lon="6.55029">
        <ele>444</ele>
        <time>2023-04-04T12:16:31.215Z</time>
      </trkpt>
      <trkpt lat="48.175" lon="6.55034">
        <ele>444</ele>
        <time>2023-04-04T12:16:38.431Z</time>
      </trkpt>
      <trkpt lat="48.17496" lon="6.55041">
        <ele>444</ele>
        <time>2023-04-04T12:16:45.649Z</time>
      </trkpt>
      <trkpt lat="48.17489" lon="6.55047">
        <ele>445</ele>
        <time>2023-04-04T12:16:52.868Z</time>
      </trkpt>
      <trkpt lat="48.17484" lon="6.55055">
        <ele>445</ele>
        <time>2023-04-04T12:17:00.089Z</time>
      </trkpt>
      <trkpt lat="48.1748" lon="6.55057">
        <ele>445</ele>
        <time>2023-04-04T12:17:07.311Z</time>
      </trkpt>
      <trkpt lat="48.17479" lon="6.55058">
        <ele>445</ele>
        <time>2023-04-04T12:17:14.533Z</time>
      </trkpt>
      <trkpt lat="48.17478" lon="6.55063">
        <ele>445</ele>
        <time>2023-04-04T12:17:21.756Z</time>
      </trkpt>
      <trkpt lat="48.17475" lon="6.55065">
        <ele>445</ele>
        <time>2023-04-04T12:17:28.979Z</time>
      </trkpt>
      <trkpt lat="48.17465" lon="6.55062">
        <ele>445</ele>
        <time>2023-04-04T12:17:36.204Z</time>
      </trkpt>
      <trkpt lat="48.17465" lon="6.55059">
        <ele>445</ele>
        <time>2023-04-04T12:17:43.430Z</time>
      </trkpt>
      <trkpt lat="48.17466" lon="6.55058">
        <ele>445</ele>
        <time>2023-04-04T12:17:50.656Z</time>
      </trkpt>
      <trkpt lat="48.17464" lon="6.55056">
        <ele>445</ele>
        <time>2023-04-04T12:17:57.882Z</time>
      </trkpt>
      <trkpt lat="48.17463" lon="6.55056">
        <ele>445</ele>
        <time>2023-04-04T12:18:05.109Z</time>
      </trkpt>
      <trkpt lat="48.17464" lon="6.55058">
        <ele>445</ele>
        <time>2023-04-04T12:18:12.336Z</time>
      </trkpt>
      <trkpt lat="48.17468" lon="6.55061">
        <ele>445</ele>
        <time>2023-04-04T12:18:19.564Z</time>
      </trkpt>
      <trkpt lat="48.1747" lon="6.55062">
        <ele>445</ele>
        <time>2023-04-04T12:18:26.792Z</time>
      </trkpt>
      <trkpt lat="48.17473" lon="6.55062">
        <ele>445</ele>
        <time>2023-04-04T12:18:34.021Z</time>
      </trkpt>
      <trkpt lat="48.17473" lon="6.55061">
        <ele>445</ele>
        <time>2023-04-04T12:18:41.250Z</time>
      </trkpt>
      <trkpt lat="48.17473" lon="6.5506">
        <ele>444</ele>
        <time>2023-04-04T12:18:48.479Z</time>
      </trkpt>
      <trkpt lat="48.17468" lon="6.55065">
        <ele>444</ele>
        <time>2023-04-04T12:18:55.709Z</time>
      </trkpt>
      <trkpt lat="48.17467" lon="6.55066">
        <ele>444</ele>
        <time>2023-04-04T12:19:02.940Z</time>
      </trkpt>
      <trkpt lat="48.17467" lon="6.55064">
        <ele>444</ele>
        <time>2023-04-04T12:19:10.171Z</time>
      </trkpt>
      <trkpt lat="48.17466" lon="6.55063">
        <ele>444</ele>
        <time>2023-04-04T12:19:17.402Z</time>
      </trkpt>
      <trkpt lat="48.17464" lon="6.55059">
        <ele>443</ele>
        <time>2023-04-04T12:19:24.634Z</time>
      </trkpt>
      <trkpt lat="48.17465" lon="6.5506">
        <ele>443</ele>
        <time>2023-04-04T12:19:31.866Z</time>
      </trkpt>
      <trkpt lat="48.17466" lon="6.55062">
        <ele>443</ele>
        <time>2023-04-04T12:19:39.098Z</time>
      </trkpt>
      <trkpt lat="48.17466" lon="6.55063">
        <ele>444</ele>
        <time>2023-04-04T12:19:46.330Z</time>
      </trkpt>
      <trkpt lat="48.17466" lon="6.55061">
        <ele>442</ele>
        <time>2023-04-04T12:19:53.563Z</time>
      </trkpt>
      <trkpt lat="48.17465" lon="6.5506">
        <ele>443</ele>
        <time>2023-04-04T12:20:00.796Z</time>
      </trkpt>
      <trkpt lat="48.1746" lon="6.5505">
        <ele>442</ele>
        <time>2023-04-04T12:20:08.031Z</time>
      </trkpt>
      <trkpt lat="48.1745" lon="6.55029">
        <ele>441</ele>
        <time>2023-04-04T12:20:15.269Z</time>
      </trkpt>
      <trkpt lat="48.17442" lon="6.55008">
        <ele>441</ele>
        <time>2023-04-04T12:20:22.510Z</time>
      </trkpt>
      <trkpt lat="48.17439" lon="6.54993">
        <ele>441</ele>
        <time>2023-04-04T12:20:29.753Z</time>
      </trkpt>
      <trkpt lat="48.17435" lon="6.54971">
        <ele>440</ele>
        <time>2023-04-04T12:20:36.999Z</time>
      </trkpt>
      <trkpt lat="48.17428" lon="6.5493">
        <ele>440</ele>
        <time>2023-04-04T12:20:44.251Z</time>
      </trkpt>
      <trkpt lat="48.17419" lon="6.54892">
        <ele>440</ele>
        <time>2023-04-04T12:20:51.509Z</time>
      </trkpt>
      <trkpt lat="48.17418" lon="6.54882">
        <ele>440</ele>
        <time>2023-04-04T12:20:58.768Z</time>
      </trkpt>
      <trkpt lat="48.17413" lon="6.54861">
        <ele>439</ele>
        <time>2023-04-04T12:21:06.030Z</time>
      </trkpt>
      <trkpt lat="48.17405" lon="6.54828">
        <ele>439</ele>
        <time>2023-04-04T12:21:13.297Z</time>
      </trkpt>
      <trkpt lat="48.17391" lon="6.54767">
        <ele>439</ele>
        <time>2023-04-04T12:21:20.572Z</time>
      </trkpt>
      <trkpt lat="48.17381" lon="6.54721">
        <ele>439</ele>
        <time>2023-04-04T12:21:27.854Z</time>
      </trkpt>
      <trkpt lat="48.17379" lon="6.54713">
        <ele>439</ele>
        <time>2023-04-04T12:21:35.137Z</time>
      </trkpt>
      <trkpt lat="48.17374" lon="6.54691">
        <ele>439</ele>
        <time>2023-04-04T12:21:42.423Z</time>
      </trkpt>
      <trkpt lat="48.17372" lon="6.54678">
        <ele>439</ele>
        <time>2023-04-04T12:21:49.711Z</time>
      </trkpt>
      <trkpt lat="48.17366" lon="6.5465">
        <ele>439</ele>
        <time>2023-04-04T12:21:57.003Z</time>
      </trkpt>
      <trkpt lat="48.17355" lon="6.5461">
        <ele>440</ele>
        <time>2023-04-04T12:22:04.300Z</time>
      </trkpt>
      <trkpt lat="48.17343" lon="6.54554">
        <ele>440</ele>
        <time>2023-04-04T12:22:11.605Z</time>
      </trkpt>
      <trkpt lat="48.1733" lon="6.54506">
        <ele>440</ele>
        <time>2023-04-04T12:22:18.917Z</time>
      </trkpt>
      <trkpt lat="48.17328" lon="6.54494">
        <ele>440</ele>
        <time>2023-04-04T12:22:26.231Z</time>
      </trkpt>
      <trkpt lat="48.17322" lon="6.54468">
        <ele>440</ele>
        <time>2023-04-04T12:22:33.549Z</time>
      </trkpt>
      <trkpt lat="48.17316" lon="6.54441">
        <ele>441</ele>
        <time>2023-04-04T12:22:40.870Z</time>
      </trkpt>
      <trkpt lat="48.17314" lon="6.54428">
        <ele>441</ele>
        <time>2023-04-04T12:22:48.193Z</time>
      </trkpt>
      <trkpt lat="48.17311" lon="6.54415">
        <ele>441</ele>
        <time>2023-04-04T12:22:55.518Z</time>
      </trkpt>
      <trkpt lat="48.17309" lon="6.54386">
        <ele>442</ele>
        <time>2023-04-04T12:23:02.847Z</time>
      </trkpt>
      <trkpt lat="48.17304" lon="6.54361">
        <ele>442</ele>
        <time>2023-04-04T12:23:10.179Z</time>
      </trkpt>
      <trkpt lat="48.17302" lon="6.54355">
        <ele>442</ele>
        <time>2023-04-04T12:23:17.512Z</time>
      </trkpt>
      <trkpt lat="48.17297" lon="6.54346">
        <ele>442</ele>
        <time>2023-04-04T12:23:24.847Z</time>
      </trkpt>
      <trkpt lat="48.17293" lon="6.54345">
        <ele>443</ele>
        <time>2023-04-04T12:23:32.183Z</time>
      </trkpt>
      <trkpt lat="48.17279" lon="6.54342">
        <ele>443</ele>
        <time>2023-04-04T12:23:39.522Z</time>
      </trkpt>
      <trkpt lat="48.17272" lon="6.54338">
        <ele>443</ele>
        <time>2023-04-04T12:23:46.862Z</time>
      </trkpt>
      <trkpt lat="48.17248" lon="6.54326">
        <ele>444</ele>
        <time>2023-04-04T12:23:54.207Z</time>
      </trkpt>
      <trkpt lat="48.17228" lon="6.54316">
        <ele>444</ele>
        <time>2023-04-04T12:24:01.556Z</time>
      </trkpt>
      <trkpt lat="48.17207" lon="6.54307">
        <ele>444</ele>
        <time>2023-04-04T12:24:08.910Z</time>
      </trkpt>
      <trkpt lat="48.17205" lon="6.54305">
        <ele>444</ele>
        <time>2023-04-04T12:24:16.264Z</time>
      </trkpt>
      <trkpt lat="48.17205" lon="6.54296">
        <ele>445</ele>
        <time>2023-04-04T12:24:23.619Z</time>
      </trkpt>
      <trkpt lat="48.17208" lon="6.54261">
        <ele>445</ele>
        <time>2023-04-04T12:24:30.979Z</time>
      </trkpt>
      <trkpt lat="48.17205" lon="6.5423">
        <ele>445</ele>
        <time>2023-04-04T12:24:38.343Z</time>
      </trkpt>
      <trkpt lat="48.17199" lon="6.542">
        <ele>445</ele>
        <time>2023-04-04T12:24:45.711Z</time>
      </trkpt>
      <trkpt lat="48.17186" lon="6.54172">
        <ele>445</ele>
        <time>2023-04-04T12:24:53.084Z</time>
      </trkpt>
      <trkpt lat="48.17185" lon="6.54167">
        <ele>446</ele>
        <time>2023-04-04T12:25:00.458Z</time>
      </trkpt>
      <trkpt lat="48.17182" lon="6.54155">
        <ele>446</ele>
        <time>2023-04-04T12:25:07.833Z</time>
      </trkpt>
      <trkpt lat="48.17182" lon="6.5415">
        <ele>446</ele>
        <time>2023-04-04T12:25:15.209Z</time>
      </trkpt>
      <trkpt lat="48.17186" lon="6.54139">
        <ele>446</ele>
        <time>2023-04-04T12:25:22.587Z</time>
      </trkpt>
      <trkpt lat="48.17198" lon="6.54121">
        <ele>445</ele>
        <time>2023-04-04T12:25:29.968Z</time>
      </trkpt>
      <trkpt lat="48.172" lon="6.54115">
        <ele>445</ele>
        <time>2023-04-04T12:25:37.350Z</time>
      </trkpt>
      <trkpt lat="48.17202" lon="6.54107">
        <ele>445</ele>
        <time>2023-04-04T12:25:44.733Z</time>
      </trkpt>
      <trkpt lat="48.17204" lon="6.54091">
        <ele>445</ele>
        <time>2023-04-04T12:25:52.118Z</time>
      </trkpt>
      <trkpt lat="48.17204" lon="6.54078">
        <ele>445</ele>
        <time>2023-04-04T12:25:59.505Z</time>
      </trkpt>
      <trkpt lat="48.1721" lon="6.54059">
        <ele>444</ele>
        <time>2023-04-04T12:26:06.895Z</time>
      </trkpt>
      <trkpt lat="48.17215" lon="6.54045">
        <ele>444</ele>
        <time>2023-04-04T12:26:14.287Z</time>
      </trkpt>
      <trkpt lat="48.17222" lon="6.54027">
        <ele>444</ele>
        <time>2023-04-04T12:26:21.682Z</time>
      </trkpt>
      <trkpt lat="48.17227" lon="6.54014">
        <ele>443</ele>
        <time>2023-04-04T12:26:29.079Z</time>
      </trkpt>
      <trkpt lat="48.17231" lon="6.54008">
        <ele>443</ele>
        <time>2023-04-04T12:26:36.477Z</time>
      </trkpt>
      <trkpt lat="48.17234" lon="6.53994">
        <ele>443</ele>
        <time>2023-04-04T12:26:43.877Z</time>
      </trkpt>
      <trkpt lat="48.17235" lon="6.53984">
        <ele>442</ele>
        <time>2023-04-04T12:26:51.278Z</time>
      </trkpt>
      <trkpt lat="48.17236" lon="6.53976">
        <ele>442</ele>
        <time>2023-04-04T12:26:58.680Z</time>
      </trkpt>
      <trkpt lat="48.17239" lon="6.53964">
        <ele>441</ele>
        <time>2023-04-04T12:27:06.084Z</time>
      </trkpt>
      <trkpt lat="48.17242" lon="6.53961">
        <ele>441</ele>
        <time>2023-04-04T12:27:13.489Z</time>
      </trkpt>
      <trkpt lat="48.17267" lon="6.53957">
        <ele>441</ele>
        <time>2023-04-04T12:27:20.899Z</time>
      </trkpt>
      <trkpt lat="48.1727" lon="6.53955">
        <ele>440</ele>
        <time>2023-04-04T12:27:28.310Z</time>
      </trkpt>
      <trkpt lat="48.17272" lon="6.53944">
        <ele>440</ele>
        <time>2023-04-04T12:27:35.722Z</time>
      </trkpt>
      <trkpt lat="48.17273" lon="6.53937">
        <ele>439</ele>
        <time>2023-04-04T12:27:43.135Z</time>
      </trkpt>
      <trkpt lat="48.17277" lon="6.53923">
        <ele>439</ele>
        <time>2023-04-04T12:27:50.550Z</time>
      </trkpt>
      <trkpt lat="48.1728" lon="6.53919">
        <ele>438</ele>
        <time>2023-04-04T12:27:57.966Z</time>
      </trkpt>
      <trkpt lat="48.17299" lon="6.53904">
        <ele>437</ele>
        <time>2023-04-04T12:28:05.386Z</time>
      </trkpt>
      <trkpt lat="48.1731" lon="6.53889">
        <ele>437</ele>
        <time>2023-04-04T12:28:12.809Z</time>
      </trkpt>
      <trkpt lat="48.17301" lon="6.53879">
        <ele>436</ele>
        <time>2023-04-04T12:28:20.234Z</time>
      </trkpt>
      <trkpt lat="48.1728" lon="6.5386">
        <ele>436</ele>
        <time>2023-04-04T12:28:27.664Z</time>
      </trkpt>
      <trkpt lat="48.17268" lon="6.53857">
        <ele>435</ele>
        <time>2023-04-04T12:28:35.097Z</time>
      </trkpt>
      <trkpt lat="48.17265" lon="6.53857">
        <ele>435</ele>
        <time>2023-04-04T12:28:42.530Z</time>
      </trkpt>
      <trkpt lat="48.17263" lon="6.53853">
        <ele>434</ele>
        <time>2023-04-04T12:28:49.964Z</time>
      </trkpt>
      <trkpt lat="48.17261" lon="6.53846">
        <ele>434</ele>
        <time>2023-04-04T12:28:57.399Z</time>
      </trkpt>
      <trkpt lat="48.17261" lon="6.53832">
        <ele>433</ele>
        <time>2023-04-04T12:29:04.836Z</time>
      </trkpt>
      <trkpt lat="48.17265" lon="6.53818">
        <ele>433</ele>
        <time>2023-04-04T12:29:12.275Z</time>
      </trkpt>
      <trkpt lat="48.17269" lon="6.53806">
        <ele>432</ele>
        <time>2023-04-04T12:29:19.716Z</time>
      </trkpt>
      <trkpt lat="48.17275" lon="6.53789">
        <ele>432</ele>
        <time>2023-04-04T12:29:27.159Z</time>
      </trkpt>
      <trkpt lat="48.1728" lon="6.53774">
        <ele>431</ele>
        <time>2023-04-04T12:29:34.605Z</time>
      </trkpt>
      <trkpt lat="48.1728" lon="6.53752">
        <ele>431</ele>
        <time>2023-04-04T12:29:42.054Z</time>
      </trkpt>
      <trkpt lat="48.17291" lon="6.53741">
        <ele>430</ele>
        <time>2023-04-04T12:29:49.505Z</time>
      </trkpt>
      <trkpt lat="48.17316" lon="6.53744">
        <ele>430</ele>
        <time>2023-04-04T12:29:56.961Z</time>
      </trkpt>
      <trkpt lat="48.17327" lon="6.53752">
        <ele>430</ele>
        <time>2023-04-04T12:30:04.420Z</time>
      </trkpt>
      <trkpt lat="48.17333" lon="6.5376">
        <ele>429</ele>
        <time>2023-04-04T12:30:11.880Z</time>
      </trkpt>
      <trkpt lat="48.17338" lon="6.53762">
        <ele>429</ele>
        <time>2023-04-04T12:30:19.341Z</time>
      </trkpt>
      <trkpt lat="48.17341" lon="6.53756">
        <ele>428</ele>
        <time>2023-04-04T12:30:26.803Z</time>
      </trkpt>
      <trkpt lat="48.17355" lon="6.53729">
        <ele>428</ele>
        <time>2023-04-04T12:30:34.270Z</time>
      </trkpt>
      <trkpt lat="48.17358" lon="6.53703">
        <ele>427</ele>
        <time>2023-04-04T12:30:41.740Z</time>
      </trkpt>
      <trkpt lat="48.17358" lon="6.53674">
        <ele>427</ele>
        <time>2023-04-04T12:30:49.214Z</time>
      </trkpt>
      <trkpt lat="48.17356" lon="6.53622">
        <ele>427</ele>
        <time>2023-04-04T12:30:56.695Z</time>
      </trkpt>
      <trkpt lat="48.17355" lon="6.53604">
        <ele>426</ele>
        <time>2023-04-04T12:31:04.179Z</time>
      </trkpt>
      <trkpt lat="48.17352" lon="6.53578">
        <ele>426</ele>
        <time>2023-04-04T12:31:11.666Z</time>
      </trkpt>
      <trkpt lat="48.17351" lon="6.53567">
        <ele>425</ele>
        <time>2023-04-04T12:31:19.155Z</time>
      </trkpt>
      <trkpt lat="48.17349" lon="6.53522">
        <ele>425</ele>
        <time>2023-04-04T12:31:26.650Z</time>
      </trkpt>
      <trkpt lat="48.17348" lon="6.53504">
        <ele>424</ele>
        <time>2023-04-04T12:31:34.147Z</time>
      </trkpt>
      <trkpt lat="48.17345" lon="6.53479">
        <ele>424</ele>
        <time>2023-04-04T12:31:41.648Z</time>
      </trkpt>
      <trkpt lat="48.17345" lon="6.53473">
        <ele>423</ele>
        <time>2023-04-04T12:31:49.149Z</time>
      </trkpt>
      <trkpt lat="48.17344" lon="6.53463">
        <ele>423</ele>
        <time>2023-04-04T12:31:56.652Z</time>
      </trkpt>
      <trkpt lat="48.17344" lon="6.53454">
        <ele>422</ele>
        <time>2023-04-04T12:32:04.156Z</time>
      </trkpt>
      <trkpt lat="48.17342" lon="6.53449">
        <ele>422</ele>
        <time>2023-04-04T12:32:11.661Z</time>
      </trkpt>
      <trkpt lat="48.1734" lon="6.53448">
        <ele>421</ele>
        <time>2023-04-04T12:32:19.166Z</time>
      </trkpt>
      <trkpt lat="48.17333" lon="6.53443">
        <ele>421</ele>
        <time>2023-04-04T12:32:26.673Z</time>
      </trkpt>
      <trkpt lat="48.17321" lon="6.53435">
        <ele>421</ele>
        <time>2023-04-04T12:32:34.182Z</time>
      </trkpt>
      <trkpt lat="48.17317" lon="6.53432">
        <ele>420</ele>
        <time>2023-04-04T12:32:41.692Z</time>
      </trkpt>
      <trkpt lat="48.17311" lon="6.5343">
        <ele>420</ele>
        <time>2023-04-04T12:32:49.203Z</time>
      </trkpt>
      <trkpt lat="48.17298" lon="6.53424">
        <ele>420</ele>
        <time>2023-04-04T12:32:56.717Z</time>
      </trkpt>
      <trkpt lat="48.17287" lon="6.5342">
        <ele>420</ele>
        <time>2023-04-04T12:33:04.233Z</time>
      </trkpt>
      <trkpt lat="48.17283" lon="6.53415">
        <ele>420</ele>
        <time>2023-04-04T12:33:11.750Z</time>
      </trkpt>
      <trkpt lat="48.17275" lon="6.53408">
        <ele>420</ele>
        <time>2023-04-04T12:33:19.269Z</time>
      </trkpt>
      <trkpt lat="48.17251" lon="6.53383">
        <ele>420</ele>
        <time>2023-04-04T12:33:26.794Z</time>
      </trkpt>
      <trkpt lat="48.1721" lon="6.53317">
        <ele>420</ele>
        <time>2023-04-04T12:33:34.331Z</time>
      </trkpt>
      <trkpt lat="48.17198" lon="6.53231">
        <ele>420</ele>
        <time>2023-04-04T12:33:41.880Z</time>
      </trkpt>
      <trkpt lat="48.17182" lon="6.53226">
        <ele>420</ele>
        <time>2023-04-04T12:33:49.432Z</time>
      </trkpt>
      <trkpt lat="48.17162" lon="6.53238">
        <ele>420</ele>
        <time>2023-04-04T12:33:56.989Z</time>
      </trkpt>
      <trkpt lat="48.17146" lon="6.53234">
        <ele>420</ele>
        <time>2023-04-04T12:34:04.549Z</time>
      </trkpt>
    </trkseg>
  </trk>
</gpx>